<?xml version='1.0' encoding='UTF-8'?><gpx version="1.1" creator="JPX - https://github.com/jenetics/jpx" xmlns="http://www.topografix.com/GPX/1/1"><trk><trkseg><trkpt lat="43.6170497" lon="11.8505147"><ele>286.0</ele><time>2026-04-19T07:01:12.973Z</time></trkpt><trkpt lat="43.6171441" lon="11.8504896"><ele>286.0</ele><time>2026-04-19T07:01:15.979Z</time></trkpt><trkpt lat="43.6172097" lon="11.8504391"><ele>286.0</ele><time>2026-04-19T07:01:16.965Z</time></trkpt><trkpt lat="43.6172885" lon="11.8503954"><ele>286.0</ele><time>2026-04-19T07:01:17.955Z</time></trkpt><trkpt lat="43.6173592" lon="11.8503636"><ele>286.0</ele><time>2026-04-19T07:01:18.953Z</time></trkpt><trkpt lat="43.6174422" lon="11.8503122"><ele>286.0</ele><time>2026-04-19T07:01:19.966Z</time></trkpt><trkpt lat="43.6175385" lon="11.8502578"><ele>286.0</ele><time>2026-04-19T07:01:20.961Z</time></trkpt><trkpt lat="43.617642" lon="11.8501905"><ele>286.0</ele><time>2026-04-19T07:01:21.966Z</time></trkpt><trkpt lat="43.6177504" lon="11.8501213"><ele>286.0</ele><time>2026-04-19T07:01:22.967Z</time></trkpt><trkpt lat="43.6178673" lon="11.8500475"><ele>286.0</ele><time>2026-04-19T07:01:23.96Z</time></trkpt><trkpt lat="43.6179955" lon="11.8499791"><ele>286.75</ele><time>2026-04-19T07:01:24.964Z</time></trkpt><trkpt lat="43.6181261" lon="11.8499009"><ele>287.5</ele><time>2026-04-19T07:01:25.959Z</time></trkpt><trkpt lat="43.6182592" lon="11.849824"><ele>288.25</ele><time>2026-04-19T07:01:26.964Z</time></trkpt><trkpt lat="43.618398" lon="11.849745"><ele>289.0</ele><time>2026-04-19T07:01:27.983Z</time></trkpt><trkpt lat="43.6185428" lon="11.8496709"><ele>289.0</ele><time>2026-04-19T07:01:28.964Z</time></trkpt><trkpt lat="43.6186949" lon="11.8495983"><ele>289.0</ele><time>2026-04-19T07:01:29.968Z</time></trkpt><trkpt lat="43.6188486" lon="11.849527"><ele>289.0</ele><time>2026-04-19T07:01:30.964Z</time></trkpt><trkpt lat="43.6190074" lon="11.8494622"><ele>289.0</ele><time>2026-04-19T07:01:31.972Z</time></trkpt><trkpt lat="43.6191709" lon="11.8493921"><ele>289.0</ele><time>2026-04-19T07:01:32.979Z</time></trkpt><trkpt lat="43.6193375" lon="11.8493197"><ele>289.0</ele><time>2026-04-19T07:01:33.957Z</time></trkpt><trkpt lat="43.6195023" lon="11.8492533"><ele>291.66666666666663</ele><time>2026-04-19T07:01:34.969Z</time></trkpt><trkpt lat="43.6196625" lon="11.8491827"><ele>294.3333333333333</ele><time>2026-04-19T07:01:35.966Z</time></trkpt><trkpt lat="43.6198327" lon="11.8490992"><ele>297.0</ele><time>2026-04-19T07:01:36.96Z</time></trkpt><trkpt lat="43.6199977" lon="11.8490156"><ele>297.0</ele><time>2026-04-19T07:01:37.966Z</time></trkpt><trkpt lat="43.6201561" lon="11.8489324"><ele>297.0</ele><time>2026-04-19T07:01:38.968Z</time></trkpt><trkpt lat="43.6203189" lon="11.8488509"><ele>297.0</ele><time>2026-04-19T07:01:39.961Z</time></trkpt><trkpt lat="43.6204722" lon="11.8487736"><ele>298.75</ele><time>2026-04-19T07:01:40.975Z</time></trkpt><trkpt lat="43.6206144" lon="11.8486921"><ele>300.5</ele><time>2026-04-19T07:01:41.975Z</time></trkpt><trkpt lat="43.6207452" lon="11.8486052"><ele>302.25</ele><time>2026-04-19T07:01:42.977Z</time></trkpt><trkpt lat="43.6208691" lon="11.848503"><ele>304.0</ele><time>2026-04-19T07:01:43.968Z</time></trkpt><trkpt lat="43.6209827" lon="11.8483689"><ele>304.0</ele><time>2026-04-19T07:01:44.972Z</time></trkpt><trkpt lat="43.6210964" lon="11.848213"><ele>304.0</ele><time>2026-04-19T07:01:45.972Z</time></trkpt><trkpt lat="43.6212012" lon="11.8480477"><ele>304.0</ele><time>2026-04-19T07:01:46.969Z</time></trkpt><trkpt lat="43.6213052" lon="11.8478855"><ele>302.0</ele><time>2026-04-19T07:01:47.96Z</time></trkpt><trkpt lat="43.6214254" lon="11.8477343"><ele>300.0</ele><time>2026-04-19T07:01:48.981Z</time></trkpt><trkpt lat="43.6215513" lon="11.8476031"><ele>298.0</ele><time>2026-04-19T07:01:49.958Z</time></trkpt><trkpt lat="43.621682" lon="11.847476"><ele>298.0</ele><time>2026-04-19T07:01:50.979Z</time></trkpt><trkpt lat="43.621817" lon="11.8473717"><ele>298.0</ele><time>2026-04-19T07:01:51.958Z</time></trkpt><trkpt lat="43.6219583" lon="11.8472694"><ele>298.0</ele><time>2026-04-19T07:01:52.968Z</time></trkpt><trkpt lat="43.622116" lon="11.8471763"><ele>295.0</ele><time>2026-04-19T07:01:53.956Z</time></trkpt><trkpt lat="43.6222909" lon="11.847107"><ele>292.0</ele><time>2026-04-19T07:01:54.963Z</time></trkpt><trkpt lat="43.6224827" lon="11.8470678"><ele>289.0</ele><time>2026-04-19T07:01:55.958Z</time></trkpt><trkpt lat="43.622684" lon="11.8470446"><ele>288.66666666666663</ele><time>2026-04-19T07:01:56.962Z</time></trkpt><trkpt lat="43.6228785" lon="11.8470427"><ele>288.3333333333333</ele><time>2026-04-19T07:01:57.959Z</time></trkpt><trkpt lat="43.623072" lon="11.8470579"><ele>288.0</ele><time>2026-04-19T07:01:58.957Z</time></trkpt><trkpt lat="43.623273" lon="11.8470726"><ele>288.0</ele><time>2026-04-19T07:01:59.965Z</time></trkpt><trkpt lat="43.6234803" lon="11.8470806"><ele>288.0</ele><time>2026-04-19T07:02:00.955Z</time></trkpt><trkpt lat="43.6236811" lon="11.84709"><ele>288.0</ele><time>2026-04-19T07:02:01.958Z</time></trkpt><trkpt lat="43.6238695" lon="11.8470929"><ele>290.6666666666667</ele><time>2026-04-19T07:02:02.966Z</time></trkpt><trkpt lat="43.6240579" lon="11.8470871"><ele>293.33333333333337</ele><time>2026-04-19T07:02:03.955Z</time></trkpt><trkpt lat="43.6242484" lon="11.8470809"><ele>296.0</ele><time>2026-04-19T07:02:04.978Z</time></trkpt><trkpt lat="43.6244413" lon="11.8470643"><ele>298.0</ele><time>2026-04-19T07:02:05.972Z</time></trkpt><trkpt lat="43.6246358" lon="11.8470322"><ele>300.0</ele><time>2026-04-19T07:02:06.966Z</time></trkpt><trkpt lat="43.6248276" lon="11.8469848"><ele>302.0</ele><time>2026-04-19T07:02:07.956Z</time></trkpt><trkpt lat="43.6250169" lon="11.8469311"><ele>302.0</ele><time>2026-04-19T07:02:08.958Z</time></trkpt><trkpt lat="43.625209" lon="11.8468812"><ele>302.0</ele><time>2026-04-19T07:02:09.969Z</time></trkpt><trkpt lat="43.6254057" lon="11.8468347"><ele>302.0</ele><time>2026-04-19T07:02:10.969Z</time></trkpt><trkpt lat="43.6256057" lon="11.8467788"><ele>309.33333333333337</ele><time>2026-04-19T07:02:11.977Z</time></trkpt><trkpt lat="43.6258008" lon="11.8467229"><ele>316.6666666666667</ele><time>2026-04-19T07:02:12.968Z</time></trkpt><trkpt lat="43.6259931" lon="11.8466809"><ele>324.0</ele><time>2026-04-19T07:02:13.961Z</time></trkpt><trkpt lat="43.6261879" lon="11.8466518"><ele>324.0</ele><time>2026-04-19T07:02:14.963Z</time></trkpt><trkpt lat="43.6263854" lon="11.84664"><ele>324.0</ele><time>2026-04-19T07:02:15.962Z</time></trkpt><trkpt lat="43.626583" lon="11.8466273"><ele>324.0</ele><time>2026-04-19T07:02:16.964Z</time></trkpt><trkpt lat="43.6267617" lon="11.8466245"><ele>324.0</ele><time>2026-04-19T07:02:17.966Z</time></trkpt><trkpt lat="43.6269186" lon="11.8466253"><ele>324.0</ele><time>2026-04-19T07:02:18.963Z</time></trkpt><trkpt lat="43.627057" lon="11.8466136"><ele>324.0</ele><time>2026-04-19T07:02:19.967Z</time></trkpt><trkpt lat="43.6271783" lon="11.8465908"><ele>324.0</ele><time>2026-04-19T07:02:20.971Z</time></trkpt><trkpt lat="43.6272805" lon="11.8465464"><ele>323.0</ele><time>2026-04-19T07:02:21.98Z</time></trkpt><trkpt lat="43.6273631" lon="11.8464629"><ele>322.0</ele><time>2026-04-19T07:02:22.984Z</time></trkpt><trkpt lat="43.627439" lon="11.8463443"><ele>321.0</ele><time>2026-04-19T07:02:23.97Z</time></trkpt><trkpt lat="43.6275154" lon="11.8462052"><ele>320.0</ele><time>2026-04-19T07:02:24.966Z</time></trkpt><trkpt lat="43.6276038" lon="11.8460668"><ele>320.0</ele><time>2026-04-19T07:02:25.967Z</time></trkpt><trkpt lat="43.6277162" lon="11.8459619"><ele>320.0</ele><time>2026-04-19T07:02:26.979Z</time></trkpt><trkpt lat="43.6278555" lon="11.8458783"><ele>320.0</ele><time>2026-04-19T07:02:27.975Z</time></trkpt><trkpt lat="43.6280006" lon="11.8458399"><ele>320.0</ele><time>2026-04-19T07:02:28.964Z</time></trkpt><trkpt lat="43.6281363" lon="11.8458211"><ele>322.8</ele><time>2026-04-19T07:02:29.977Z</time></trkpt><trkpt lat="43.6282485" lon="11.8457751"><ele>325.6</ele><time>2026-04-19T07:02:30.97Z</time></trkpt><trkpt lat="43.6283439" lon="11.8457246"><ele>328.4</ele><time>2026-04-19T07:02:31.974Z</time></trkpt><trkpt lat="43.6284255" lon="11.8456298"><ele>331.2</ele><time>2026-04-19T07:02:32.962Z</time></trkpt><trkpt lat="43.6284877" lon="11.8455036"><ele>334.0</ele><time>2026-04-19T07:02:33.978Z</time></trkpt><trkpt lat="43.6285282" lon="11.8453678"><ele>334.0</ele><time>2026-04-19T07:02:34.964Z</time></trkpt><trkpt lat="43.6285529" lon="11.8451968"><ele>334.0</ele><time>2026-04-19T07:02:35.975Z</time></trkpt><trkpt lat="43.6285738" lon="11.8450263"><ele>334.0</ele><time>2026-04-19T07:02:36.979Z</time></trkpt><trkpt lat="43.6285854" lon="11.8448741"><ele>334.0</ele><time>2026-04-19T07:02:37.967Z</time></trkpt><trkpt lat="43.6285807" lon="11.8447298"><ele>334.6</ele><time>2026-04-19T07:02:38.973Z</time></trkpt><trkpt lat="43.6285504" lon="11.8445943"><ele>335.2</ele><time>2026-04-19T07:02:39.966Z</time></trkpt><trkpt lat="43.6285029" lon="11.8444512"><ele>335.8</ele><time>2026-04-19T07:02:40.968Z</time></trkpt><trkpt lat="43.6284824" lon="11.8443325"><ele>336.40000000000003</ele><time>2026-04-19T07:02:41.982Z</time></trkpt><trkpt lat="43.6285033" lon="11.8442087"><ele>337.0</ele><time>2026-04-19T07:02:42.962Z</time></trkpt><trkpt lat="43.6285418" lon="11.8440846"><ele>337.0</ele><time>2026-04-19T07:02:43.977Z</time></trkpt><trkpt lat="43.6286029" lon="11.8439489"><ele>337.0</ele><time>2026-04-19T07:02:44.984Z</time></trkpt><trkpt lat="43.6286626" lon="11.8438204"><ele>337.0</ele><time>2026-04-19T07:02:45.963Z</time></trkpt><trkpt lat="43.6286996" lon="11.8436729"><ele>337.0</ele><time>2026-04-19T07:02:46.961Z</time></trkpt><trkpt lat="43.628702" lon="11.8435188"><ele>329.0</ele><time>2026-04-19T07:02:47.977Z</time></trkpt><trkpt lat="43.6286984" lon="11.8433376"><ele>321.0</ele><time>2026-04-19T07:02:48.967Z</time></trkpt><trkpt lat="43.628717" lon="11.8431595"><ele>313.0</ele><time>2026-04-19T07:02:49.968Z</time></trkpt><trkpt lat="43.628749" lon="11.8429866"><ele>305.0</ele><time>2026-04-19T07:02:50.968Z</time></trkpt><trkpt lat="43.6287773" lon="11.8428181"><ele>305.0</ele><time>2026-04-19T07:02:51.98Z</time></trkpt><trkpt lat="43.6287999" lon="11.8426467"><ele>305.0</ele><time>2026-04-19T07:02:52.974Z</time></trkpt><trkpt lat="43.6287919" lon="11.8424889"><ele>305.0</ele><time>2026-04-19T07:02:53.962Z</time></trkpt><trkpt lat="43.6287848" lon="11.8423238"><ele>305.0</ele><time>2026-04-19T07:02:54.968Z</time></trkpt><trkpt lat="43.628801" lon="11.842139"><ele>303.6666666666667</ele><time>2026-04-19T07:02:55.964Z</time></trkpt><trkpt lat="43.6288547" lon="11.8419435"><ele>302.3333333333333</ele><time>2026-04-19T07:02:56.976Z</time></trkpt><trkpt lat="43.6289088" lon="11.8417465"><ele>301.0</ele><time>2026-04-19T07:02:57.979Z</time></trkpt><trkpt lat="43.6289624" lon="11.8415377"><ele>301.0</ele><time>2026-04-19T07:02:58.965Z</time></trkpt><trkpt lat="43.6290073" lon="11.8413309"><ele>301.0</ele><time>2026-04-19T07:02:59.981Z</time></trkpt><trkpt lat="43.6290455" lon="11.8411347"><ele>301.0</ele><time>2026-04-19T07:03:00.974Z</time></trkpt><trkpt lat="43.629063" lon="11.8409297"><ele>302.3333333333333</ele><time>2026-04-19T07:03:01.972Z</time></trkpt><trkpt lat="43.6290476" lon="11.8407036"><ele>303.6666666666667</ele><time>2026-04-19T07:03:02.982Z</time></trkpt><trkpt lat="43.6290162" lon="11.8404707"><ele>305.0</ele><time>2026-04-19T07:03:03.97Z</time></trkpt><trkpt lat="43.6289656" lon="11.84023"><ele>305.6666666666667</ele><time>2026-04-19T07:03:04.981Z</time></trkpt><trkpt lat="43.6289195" lon="11.839982"><ele>306.3333333333333</ele><time>2026-04-19T07:03:05.958Z</time></trkpt><trkpt lat="43.628872" lon="11.8397365"><ele>307.0</ele><time>2026-04-19T07:03:06.965Z</time></trkpt><trkpt lat="43.6288253" lon="11.8394709"><ele>304.3333333333333</ele><time>2026-04-19T07:03:07.967Z</time></trkpt><trkpt lat="43.6287929" lon="11.8392082"><ele>301.6666666666667</ele><time>2026-04-19T07:03:08.955Z</time></trkpt><trkpt lat="43.6287607" lon="11.8389381"><ele>299.0</ele><time>2026-04-19T07:03:09.979Z</time></trkpt><trkpt lat="43.6287155" lon="11.8386834"><ele>297.0</ele><time>2026-04-19T07:03:10.975Z</time></trkpt><trkpt lat="43.6286709" lon="11.8384465"><ele>295.0</ele><time>2026-04-19T07:03:11.972Z</time></trkpt><trkpt lat="43.6286372" lon="11.8382323"><ele>293.0</ele><time>2026-04-19T07:03:12.988Z</time></trkpt><trkpt lat="43.6286179" lon="11.8379867"><ele>293.0</ele><time>2026-04-19T07:03:13.976Z</time></trkpt><trkpt lat="43.6286037" lon="11.8377416"><ele>293.0</ele><time>2026-04-19T07:03:14.974Z</time></trkpt><trkpt lat="43.6286139" lon="11.8374993"><ele>293.0</ele><time>2026-04-19T07:03:15.976Z</time></trkpt><trkpt lat="43.6286475" lon="11.8372728"><ele>293.0</ele><time>2026-04-19T07:03:16.976Z</time></trkpt><trkpt lat="43.628697" lon="11.8370761"><ele>293.0</ele><time>2026-04-19T07:03:17.979Z</time></trkpt><trkpt lat="43.6287347" lon="11.8368786"><ele>293.0</ele><time>2026-04-19T07:03:18.977Z</time></trkpt><trkpt lat="43.6287558" lon="11.8366854"><ele>293.0</ele><time>2026-04-19T07:03:19.982Z</time></trkpt><trkpt lat="43.6287471" lon="11.836489"><ele>293.75</ele><time>2026-04-19T07:03:20.971Z</time></trkpt><trkpt lat="43.6287237" lon="11.8363126"><ele>294.5</ele><time>2026-04-19T07:03:21.973Z</time></trkpt><trkpt lat="43.6286867" lon="11.8361501"><ele>295.25</ele><time>2026-04-19T07:03:22.986Z</time></trkpt><trkpt lat="43.6286813" lon="11.8359773"><ele>296.0</ele><time>2026-04-19T07:03:23.973Z</time></trkpt><trkpt lat="43.6287127" lon="11.835794"><ele>296.0</ele><time>2026-04-19T07:03:24.994Z</time></trkpt><trkpt lat="43.6287735" lon="11.835604"><ele>296.0</ele><time>2026-04-19T07:03:25.969Z</time></trkpt><trkpt lat="43.6288634" lon="11.8354226"><ele>296.0</ele><time>2026-04-19T07:03:26.966Z</time></trkpt><trkpt lat="43.628971" lon="11.8352579"><ele>295.0</ele><time>2026-04-19T07:03:27.965Z</time></trkpt><trkpt lat="43.6291081" lon="11.8350941"><ele>294.0</ele><time>2026-04-19T07:03:28.975Z</time></trkpt><trkpt lat="43.6292538" lon="11.8349413"><ele>293.0</ele><time>2026-04-19T07:03:29.979Z</time></trkpt><trkpt lat="43.6293998" lon="11.8347928"><ele>292.6666666666667</ele><time>2026-04-19T07:03:30.987Z</time></trkpt><trkpt lat="43.6295572" lon="11.834646"><ele>292.3333333333333</ele><time>2026-04-19T07:03:31.978Z</time></trkpt><trkpt lat="43.6297242" lon="11.8344921"><ele>292.0</ele><time>2026-04-19T07:03:32.989Z</time></trkpt><trkpt lat="43.6298967" lon="11.8343237"><ele>292.3333333333333</ele><time>2026-04-19T07:03:33.981Z</time></trkpt><trkpt lat="43.6300685" lon="11.834156"><ele>292.6666666666667</ele><time>2026-04-19T07:03:34.967Z</time></trkpt><trkpt lat="43.6302438" lon="11.8340021"><ele>293.0</ele><time>2026-04-19T07:03:35.982Z</time></trkpt><trkpt lat="43.630403" lon="11.8338549"><ele>293.6666666666667</ele><time>2026-04-19T07:03:36.975Z</time></trkpt><trkpt lat="43.6305446" lon="11.833711"><ele>294.3333333333333</ele><time>2026-04-19T07:03:37.979Z</time></trkpt><trkpt lat="43.6306729" lon="11.8335901"><ele>295.0</ele><time>2026-04-19T07:03:38.976Z</time></trkpt><trkpt lat="43.6307802" lon="11.833482"><ele>296.0</ele><time>2026-04-19T07:03:39.969Z</time></trkpt><trkpt lat="43.6308698" lon="11.8334059"><ele>297.0</ele><time>2026-04-19T07:03:40.977Z</time></trkpt><trkpt lat="43.6309407" lon="11.8333525"><ele>298.0</ele><time>2026-04-19T07:03:41.985Z</time></trkpt><trkpt lat="43.6310058" lon="11.8333241"><ele>299.0</ele><time>2026-04-19T07:03:42.971Z</time></trkpt><trkpt lat="43.6311468" lon="11.8333403"><ele>300.0</ele><time>2026-04-19T07:03:44.987Z</time></trkpt><trkpt lat="43.6312539" lon="11.8333923"><ele>299.75</ele><time>2026-04-19T07:03:45.986Z</time></trkpt><trkpt lat="43.6313782" lon="11.8334383"><ele>299.5</ele><time>2026-04-19T07:03:46.978Z</time></trkpt><trkpt lat="43.6315127" lon="11.8334778"><ele>299.25</ele><time>2026-04-19T07:03:47.976Z</time></trkpt><trkpt lat="43.6316523" lon="11.8335084"><ele>299.0</ele><time>2026-04-19T07:03:48.973Z</time></trkpt><trkpt lat="43.6318088" lon="11.8335523"><ele>299.0</ele><time>2026-04-19T07:03:49.98Z</time></trkpt><trkpt lat="43.6319692" lon="11.8336024"><ele>299.0</ele><time>2026-04-19T07:03:50.985Z</time></trkpt><trkpt lat="43.6321249" lon="11.8336784"><ele>299.0</ele><time>2026-04-19T07:03:51.982Z</time></trkpt><trkpt lat="43.6322722" lon="11.8337858"><ele>301.33333333333337</ele><time>2026-04-19T07:03:52.977Z</time></trkpt><trkpt lat="43.6324109" lon="11.8339288"><ele>303.6666666666667</ele><time>2026-04-19T07:03:53.984Z</time></trkpt><trkpt lat="43.632544" lon="11.8340949"><ele>306.0</ele><time>2026-04-19T07:03:54.983Z</time></trkpt><trkpt lat="43.6326792" lon="11.8342736"><ele>304.6666666666667</ele><time>2026-04-19T07:03:55.967Z</time></trkpt><trkpt lat="43.6328005" lon="11.8344575"><ele>303.33333333333337</ele><time>2026-04-19T07:03:56.978Z</time></trkpt><trkpt lat="43.6329112" lon="11.8346233"><ele>302.0</ele><time>2026-04-19T07:03:57.98Z</time></trkpt><trkpt lat="43.6330239" lon="11.8347606"><ele>302.0</ele><time>2026-04-19T07:03:58.97Z</time></trkpt><trkpt lat="43.633166" lon="11.83486"><ele>302.0</ele><time>2026-04-19T07:03:59.993Z</time></trkpt><trkpt lat="43.6333222" lon="11.8349402"><ele>302.0</ele><time>2026-04-19T07:04:00.996Z</time></trkpt><trkpt lat="43.6335071" lon="11.8349847"><ele>302.0</ele><time>2026-04-19T07:04:01.969Z</time></trkpt><trkpt lat="43.6337052" lon="11.8350028"><ele>302.0</ele><time>2026-04-19T07:04:02.983Z</time></trkpt><trkpt lat="43.6339137" lon="11.8350098"><ele>302.0</ele><time>2026-04-19T07:04:03.984Z</time></trkpt><trkpt lat="43.6341207" lon="11.8350137"><ele>302.0</ele><time>2026-04-19T07:04:04.963Z</time></trkpt><trkpt lat="43.6343133" lon="11.8349994"><ele>302.0</ele><time>2026-04-19T07:04:05.985Z</time></trkpt><trkpt lat="43.6344801" lon="11.8349888"><ele>302.0</ele><time>2026-04-19T07:04:06.968Z</time></trkpt><trkpt lat="43.6346329" lon="11.8349577"><ele>301.6666666666667</ele><time>2026-04-19T07:04:07.979Z</time></trkpt><trkpt lat="43.6347822" lon="11.8349129"><ele>301.3333333333333</ele><time>2026-04-19T07:04:08.977Z</time></trkpt><trkpt lat="43.6349297" lon="11.8348211"><ele>301.0</ele><time>2026-04-19T07:04:09.981Z</time></trkpt><trkpt lat="43.6350769" lon="11.8346832"><ele>301.0</ele><time>2026-04-19T07:04:10.975Z</time></trkpt><trkpt lat="43.6352214" lon="11.8345393"><ele>301.0</ele><time>2026-04-19T07:04:11.979Z</time></trkpt><trkpt lat="43.635375" lon="11.8344088"><ele>301.0</ele><time>2026-04-19T07:04:12.98Z</time></trkpt><trkpt lat="43.6355522" lon="11.8343063"><ele>301.3333333333333</ele><time>2026-04-19T07:04:13.98Z</time></trkpt><trkpt lat="43.6357399" lon="11.8341961"><ele>301.6666666666667</ele><time>2026-04-19T07:04:14.97Z</time></trkpt><trkpt lat="43.6359335" lon="11.8340846"><ele>302.0</ele><time>2026-04-19T07:04:15.996Z</time></trkpt><trkpt lat="43.6361492" lon="11.8339739"><ele>301.0</ele><time>2026-04-19T07:04:16.98Z</time></trkpt><trkpt lat="43.6363694" lon="11.8338896"><ele>300.0</ele><time>2026-04-19T07:04:17.989Z</time></trkpt><trkpt lat="43.6365922" lon="11.8338193"><ele>300.0</ele><time>2026-04-19T07:04:18.971Z</time></trkpt><trkpt lat="43.6367998" lon="11.8337571"><ele>300.0</ele><time>2026-04-19T07:04:19.985Z</time></trkpt><trkpt lat="43.6369887" lon="11.8337011"><ele>300.0</ele><time>2026-04-19T07:04:20.979Z</time></trkpt><trkpt lat="43.637152" lon="11.8336545"><ele>300.0</ele><time>2026-04-19T07:04:21.983Z</time></trkpt><trkpt lat="43.6372957" lon="11.8335927"><ele>300.0</ele><time>2026-04-19T07:04:22.982Z</time></trkpt><trkpt lat="43.6374214" lon="11.8334995"><ele>300.0</ele><time>2026-04-19T07:04:23.973Z</time></trkpt><trkpt lat="43.6375433" lon="11.8333567"><ele>300.0</ele><time>2026-04-19T07:04:24.971Z</time></trkpt><trkpt lat="43.6376604" lon="11.8331792"><ele>300.0</ele><time>2026-04-19T07:04:25.977Z</time></trkpt><trkpt lat="43.6377831" lon="11.8329878"><ele>300.0</ele><time>2026-04-19T07:04:26.981Z</time></trkpt><trkpt lat="43.6379093" lon="11.8327843"><ele>298.6666666666667</ele><time>2026-04-19T07:04:27.983Z</time></trkpt><trkpt lat="43.6380453" lon="11.8325789"><ele>297.33333333333337</ele><time>2026-04-19T07:04:28.992Z</time></trkpt><trkpt lat="43.638182" lon="11.8323735"><ele>296.0</ele><time>2026-04-19T07:04:29.97Z</time></trkpt><trkpt lat="43.6383129" lon="11.832184"><ele>296.0</ele><time>2026-04-19T07:04:30.981Z</time></trkpt><trkpt lat="43.6384519" lon="11.832003"><ele>296.0</ele><time>2026-04-19T07:04:31.982Z</time></trkpt><trkpt lat="43.6386074" lon="11.8318391"><ele>296.0</ele><time>2026-04-19T07:04:32.981Z</time></trkpt><trkpt lat="43.6387635" lon="11.8316934"><ele>296.33333333333337</ele><time>2026-04-19T07:04:33.986Z</time></trkpt><trkpt lat="43.6389062" lon="11.8315391"><ele>296.6666666666667</ele><time>2026-04-19T07:04:34.984Z</time></trkpt><trkpt lat="43.6390401" lon="11.8313547"><ele>297.0</ele><time>2026-04-19T07:04:35.971Z</time></trkpt><trkpt lat="43.6391532" lon="11.83115"><ele>297.0</ele><time>2026-04-19T07:04:36.969Z</time></trkpt><trkpt lat="43.639243" lon="11.8309781"><ele>297.0</ele><time>2026-04-19T07:04:37.983Z</time></trkpt><trkpt lat="43.6393216" lon="11.8308459"><ele>297.0</ele><time>2026-04-19T07:04:38.975Z</time></trkpt><trkpt lat="43.6394179" lon="11.8307561"><ele>297.0</ele><time>2026-04-19T07:04:39.962Z</time></trkpt><trkpt lat="43.6395478" lon="11.830707"><ele>296.3333333333333</ele><time>2026-04-19T07:04:40.979Z</time></trkpt><trkpt lat="43.6397055" lon="11.8306838"><ele>295.66666666666663</ele><time>2026-04-19T07:04:41.98Z</time></trkpt><trkpt lat="43.6398724" lon="11.8306566"><ele>295.0</ele><time>2026-04-19T07:04:42.99Z</time></trkpt><trkpt lat="43.6400469" lon="11.8306377"><ele>295.0</ele><time>2026-04-19T07:04:43.978Z</time></trkpt><trkpt lat="43.6402281" lon="11.8306214"><ele>295.0</ele><time>2026-04-19T07:04:44.981Z</time></trkpt><trkpt lat="43.6404165" lon="11.8306078"><ele>295.0</ele><time>2026-04-19T07:04:45.983Z</time></trkpt><trkpt lat="43.6406149" lon="11.8305853"><ele>295.0</ele><time>2026-04-19T07:04:46.962Z</time></trkpt><trkpt lat="43.6408224" lon="11.8305703"><ele>295.0</ele><time>2026-04-19T07:04:47.977Z</time></trkpt><trkpt lat="43.6410347" lon="11.8305459"><ele>295.0</ele><time>2026-04-19T07:04:48.969Z</time></trkpt><trkpt lat="43.6412558" lon="11.8305198"><ele>296.0</ele><time>2026-04-19T07:04:49.98Z</time></trkpt><trkpt lat="43.6414841" lon="11.8304781"><ele>297.0</ele><time>2026-04-19T07:04:50.966Z</time></trkpt><trkpt lat="43.6417026" lon="11.8304175"><ele>297.0</ele><time>2026-04-19T07:04:51.963Z</time></trkpt><trkpt lat="43.6419166" lon="11.8303618"><ele>297.0</ele><time>2026-04-19T07:04:52.965Z</time></trkpt><trkpt lat="43.6421215" lon="11.8303092"><ele>297.0</ele><time>2026-04-19T07:04:53.977Z</time></trkpt><trkpt lat="43.642304" lon="11.8302606"><ele>297.3333333333333</ele><time>2026-04-19T07:04:54.982Z</time></trkpt><trkpt lat="43.6424638" lon="11.8302162"><ele>297.66666666666663</ele><time>2026-04-19T07:04:55.977Z</time></trkpt><trkpt lat="43.642618" lon="11.8301934"><ele>298.0</ele><time>2026-04-19T07:04:56.97Z</time></trkpt><trkpt lat="43.6427691" lon="11.8302117"><ele>297.66666666666663</ele><time>2026-04-19T07:04:57.981Z</time></trkpt><trkpt lat="43.6429205" lon="11.8302714"><ele>297.3333333333333</ele><time>2026-04-19T07:04:58.973Z</time></trkpt><trkpt lat="43.6430602" lon="11.8303579"><ele>297.0</ele><time>2026-04-19T07:04:59.98Z</time></trkpt><trkpt lat="43.6432006" lon="11.8304279"><ele>297.0</ele><time>2026-04-19T07:05:00.975Z</time></trkpt><trkpt lat="43.6433474" lon="11.830463"><ele>297.0</ele><time>2026-04-19T07:05:01.989Z</time></trkpt><trkpt lat="43.6435062" lon="11.8304725"><ele>297.0</ele><time>2026-04-19T07:05:02.982Z</time></trkpt><trkpt lat="43.6436779" lon="11.8304481"><ele>296.3333333333333</ele><time>2026-04-19T07:05:03.982Z</time></trkpt><trkpt lat="43.6438714" lon="11.830401"><ele>295.66666666666663</ele><time>2026-04-19T07:05:04.983Z</time></trkpt><trkpt lat="43.6440528" lon="11.8303499"><ele>295.0</ele><time>2026-04-19T07:05:05.975Z</time></trkpt><trkpt lat="43.6442318" lon="11.8303119"><ele>295.0</ele><time>2026-04-19T07:05:06.971Z</time></trkpt><trkpt lat="43.6444296" lon="11.8303085"><ele>295.0</ele><time>2026-04-19T07:05:07.965Z</time></trkpt><trkpt lat="43.6446401" lon="11.8303339"><ele>295.0</ele><time>2026-04-19T07:05:08.976Z</time></trkpt><trkpt lat="43.6448552" lon="11.8303823"><ele>296.0</ele><time>2026-04-19T07:05:09.961Z</time></trkpt><trkpt lat="43.6450791" lon="11.8304386"><ele>297.0</ele><time>2026-04-19T07:05:10.978Z</time></trkpt><trkpt lat="43.6453088" lon="11.8304844"><ele>297.5</ele><time>2026-04-19T07:05:11.987Z</time></trkpt><trkpt lat="43.645541" lon="11.8305309"><ele>298.0</ele><time>2026-04-19T07:05:12.976Z</time></trkpt><trkpt lat="43.6457776" lon="11.8305801"><ele>298.0</ele><time>2026-04-19T07:05:13.965Z</time></trkpt><trkpt lat="43.6460128" lon="11.830632"><ele>298.0</ele><time>2026-04-19T07:05:14.966Z</time></trkpt><trkpt lat="43.6462445" lon="11.8306827"><ele>298.0</ele><time>2026-04-19T07:05:15.964Z</time></trkpt><trkpt lat="43.6464834" lon="11.8307293"><ele>298.0</ele><time>2026-04-19T07:05:16.976Z</time></trkpt><trkpt lat="43.6467168" lon="11.8307702"><ele>298.0</ele><time>2026-04-19T07:05:17.965Z</time></trkpt><trkpt lat="43.6469471" lon="11.8308194"><ele>298.0</ele><time>2026-04-19T07:05:18.981Z</time></trkpt><trkpt lat="43.6471653" lon="11.8308613"><ele>298.3333333333333</ele><time>2026-04-19T07:05:19.974Z</time></trkpt><trkpt lat="43.6473635" lon="11.8309015"><ele>298.6666666666667</ele><time>2026-04-19T07:05:20.983Z</time></trkpt><trkpt lat="43.6475584" lon="11.8309393"><ele>299.0</ele><time>2026-04-19T07:05:21.966Z</time></trkpt><trkpt lat="43.6477424" lon="11.8309799"><ele>299.25</ele><time>2026-04-19T07:05:22.972Z</time></trkpt><trkpt lat="43.6479044" lon="11.8310095"><ele>299.5</ele><time>2026-04-19T07:05:23.977Z</time></trkpt><trkpt lat="43.6480493" lon="11.831041"><ele>299.75</ele><time>2026-04-19T07:05:24.983Z</time></trkpt><trkpt lat="43.648185" lon="11.8310714"><ele>300.0</ele><time>2026-04-19T07:05:25.977Z</time></trkpt><trkpt lat="43.6483236" lon="11.8311007"><ele>300.0</ele><time>2026-04-19T07:05:26.966Z</time></trkpt><trkpt lat="43.6484702" lon="11.8311509"><ele>300.0</ele><time>2026-04-19T07:05:27.963Z</time></trkpt><trkpt lat="43.6486311" lon="11.8312313"><ele>300.0</ele><time>2026-04-19T07:05:28.962Z</time></trkpt><trkpt lat="43.648786" lon="11.8313329"><ele>300.75</ele><time>2026-04-19T07:05:29.964Z</time></trkpt><trkpt lat="43.6489323" lon="11.8314205"><ele>301.5</ele><time>2026-04-19T07:05:30.97Z</time></trkpt><trkpt lat="43.6490637" lon="11.8314917"><ele>302.25</ele><time>2026-04-19T07:05:31.979Z</time></trkpt><trkpt lat="43.6491876" lon="11.8315704"><ele>303.0</ele><time>2026-04-19T07:05:32.965Z</time></trkpt><trkpt lat="43.6493066" lon="11.8316433"><ele>303.0</ele><time>2026-04-19T07:05:33.969Z</time></trkpt><trkpt lat="43.6494213" lon="11.8317049"><ele>303.0</ele><time>2026-04-19T07:05:34.984Z</time></trkpt><trkpt lat="43.649546" lon="11.8317431"><ele>303.0</ele><time>2026-04-19T07:05:35.981Z</time></trkpt><trkpt lat="43.6496785" lon="11.8317816"><ele>303.0</ele><time>2026-04-19T07:05:36.985Z</time></trkpt><trkpt lat="43.6498256" lon="11.831801"><ele>302.3333333333333</ele><time>2026-04-19T07:05:37.973Z</time></trkpt><trkpt lat="43.6499848" lon="11.8318131"><ele>301.66666666666663</ele><time>2026-04-19T07:05:38.969Z</time></trkpt><trkpt lat="43.6501478" lon="11.8318384"><ele>301.0</ele><time>2026-04-19T07:05:39.962Z</time></trkpt><trkpt lat="43.6503193" lon="11.8318633"><ele>301.0</ele><time>2026-04-19T07:05:40.968Z</time></trkpt><trkpt lat="43.6504825" lon="11.8318893"><ele>301.0</ele><time>2026-04-19T07:05:41.968Z</time></trkpt><trkpt lat="43.650629" lon="11.8319228"><ele>301.0</ele><time>2026-04-19T07:05:42.986Z</time></trkpt><trkpt lat="43.6507636" lon="11.8319555"><ele>301.0</ele><time>2026-04-19T07:05:43.961Z</time></trkpt><trkpt lat="43.6508948" lon="11.8319854"><ele>301.0</ele><time>2026-04-19T07:05:44.974Z</time></trkpt><trkpt lat="43.6510099" lon="11.8320133"><ele>301.0</ele><time>2026-04-19T07:05:45.958Z</time></trkpt><trkpt lat="43.6511073" lon="11.8320435"><ele>301.0</ele><time>2026-04-19T07:05:46.96Z</time></trkpt><trkpt lat="43.6511799" lon="11.8320823"><ele>301.0</ele><time>2026-04-19T07:05:47.965Z</time></trkpt><trkpt lat="43.6512319" lon="11.8321559"><ele>301.0</ele><time>2026-04-19T07:05:48.983Z</time></trkpt><trkpt lat="43.6512628" lon="11.8322456"><ele>301.0</ele><time>2026-04-19T07:05:49.974Z</time></trkpt><trkpt lat="43.6512681" lon="11.8323456"><ele>300.25</ele><time>2026-04-19T07:05:50.968Z</time></trkpt><trkpt lat="43.6512471" lon="11.8324701"><ele>299.5</ele><time>2026-04-19T07:05:51.966Z</time></trkpt><trkpt lat="43.6512259" lon="11.832628"><ele>298.75</ele><time>2026-04-19T07:05:52.968Z</time></trkpt><trkpt lat="43.6511988" lon="11.8327988"><ele>298.0</ele><time>2026-04-19T07:05:53.968Z</time></trkpt><trkpt lat="43.6511735" lon="11.8329923"><ele>298.0</ele><time>2026-04-19T07:05:54.964Z</time></trkpt><trkpt lat="43.6511447" lon="11.8332014"><ele>298.0</ele><time>2026-04-19T07:05:55.959Z</time></trkpt><trkpt lat="43.6511152" lon="11.833418"><ele>298.0</ele><time>2026-04-19T07:05:56.967Z</time></trkpt><trkpt lat="43.6510765" lon="11.8336509"><ele>299.66666666666663</ele><time>2026-04-19T07:05:57.985Z</time></trkpt><trkpt lat="43.6510494" lon="11.8338883"><ele>301.3333333333333</ele><time>2026-04-19T07:05:58.976Z</time></trkpt><trkpt lat="43.651028" lon="11.8341182"><ele>303.0</ele><time>2026-04-19T07:05:59.975Z</time></trkpt><trkpt lat="43.6510086" lon="11.8343133"><ele>303.0</ele><time>2026-04-19T07:06:00.982Z</time></trkpt><trkpt lat="43.6509891" lon="11.8344782"><ele>303.0</ele><time>2026-04-19T07:06:01.974Z</time></trkpt><trkpt lat="43.6509648" lon="11.8346113"><ele>303.0</ele><time>2026-04-19T07:06:02.964Z</time></trkpt><trkpt lat="43.6509531" lon="11.8347403"><ele>303.0</ele><time>2026-04-19T07:06:03.976Z</time></trkpt><trkpt lat="43.6509368" lon="11.8348413"><ele>303.0</ele><time>2026-04-19T07:06:04.975Z</time></trkpt><trkpt lat="43.6509119" lon="11.8349413"><ele>303.0</ele><time>2026-04-19T07:06:06.976Z</time></trkpt><trkpt lat="43.6509105" lon="11.8350307"><ele>303.0</ele><time>2026-04-19T07:06:09.974Z</time></trkpt><trkpt lat="43.6509851" lon="11.8351016"><ele>303.0</ele><time>2026-04-19T07:06:11.968Z</time></trkpt><trkpt lat="43.6510525" lon="11.8351283"><ele>303.0</ele><time>2026-04-19T07:06:12.977Z</time></trkpt><trkpt lat="43.651142" lon="11.8351725"><ele>303.0</ele><time>2026-04-19T07:06:13.972Z</time></trkpt><trkpt lat="43.6512401" lon="11.8352106"><ele>303.0</ele><time>2026-04-19T07:06:14.987Z</time></trkpt><trkpt lat="43.6513537" lon="11.8352623"><ele>303.5</ele><time>2026-04-19T07:06:15.973Z</time></trkpt><trkpt lat="43.6514539" lon="11.8353189"><ele>304.0</ele><time>2026-04-19T07:06:16.984Z</time></trkpt><trkpt lat="43.6515319" lon="11.8353642"><ele>304.5</ele><time>2026-04-19T07:06:17.987Z</time></trkpt><trkpt lat="43.6516019" lon="11.8354026"><ele>305.0</ele><time>2026-04-19T07:06:18.97Z</time></trkpt><trkpt lat="43.6516716" lon="11.8354544"><ele>305.5</ele><time>2026-04-19T07:06:19.98Z</time></trkpt><trkpt lat="43.6517394" lon="11.8354986"><ele>306.0</ele><time>2026-04-19T07:06:20.962Z</time></trkpt><trkpt lat="43.6518177" lon="11.8355311"><ele>306.0</ele><time>2026-04-19T07:06:21.974Z</time></trkpt><trkpt lat="43.6519147" lon="11.8355599"><ele>306.0</ele><time>2026-04-19T07:06:22.965Z</time></trkpt><trkpt lat="43.6520188" lon="11.835596"><ele>306.0</ele><time>2026-04-19T07:06:23.986Z</time></trkpt><trkpt lat="43.6521317" lon="11.8356478"><ele>306.0</ele><time>2026-04-19T07:06:24.974Z</time></trkpt><trkpt lat="43.6522592" lon="11.8357159"><ele>306.5</ele><time>2026-04-19T07:06:25.97Z</time></trkpt><trkpt lat="43.6523922" lon="11.8357799"><ele>307.0</ele><time>2026-04-19T07:06:26.972Z</time></trkpt><trkpt lat="43.6525239" lon="11.8358526"><ele>307.5</ele><time>2026-04-19T07:06:27.986Z</time></trkpt><trkpt lat="43.6526472" lon="11.8359504"><ele>308.0</ele><time>2026-04-19T07:06:28.98Z</time></trkpt><trkpt lat="43.6527742" lon="11.8360732"><ele>307.0</ele><time>2026-04-19T07:06:29.968Z</time></trkpt><trkpt lat="43.6529148" lon="11.8362063"><ele>306.0</ele><time>2026-04-19T07:06:30.97Z</time></trkpt><trkpt lat="43.6530644" lon="11.836358"><ele>305.0</ele><time>2026-04-19T07:06:31.975Z</time></trkpt><trkpt lat="43.6532282" lon="11.8365114"><ele>305.0</ele><time>2026-04-19T07:06:32.958Z</time></trkpt><trkpt lat="43.6533963" lon="11.8366644"><ele>305.0</ele><time>2026-04-19T07:06:33.973Z</time></trkpt><trkpt lat="43.6535672" lon="11.8368291"><ele>305.0</ele><time>2026-04-19T07:06:34.978Z</time></trkpt><trkpt lat="43.6537446" lon="11.8369947"><ele>305.0</ele><time>2026-04-19T07:06:35.972Z</time></trkpt><trkpt lat="43.6539275" lon="11.8371692"><ele>305.0</ele><time>2026-04-19T07:06:36.967Z</time></trkpt><trkpt lat="43.6541142" lon="11.8373452"><ele>305.0</ele><time>2026-04-19T07:06:37.963Z</time></trkpt><trkpt lat="43.6542964" lon="11.8375111"><ele>305.0</ele><time>2026-04-19T07:06:38.965Z</time></trkpt><trkpt lat="43.6544792" lon="11.8376748"><ele>305.0</ele><time>2026-04-19T07:06:39.972Z</time></trkpt><trkpt lat="43.6546702" lon="11.8378378"><ele>305.0</ele><time>2026-04-19T07:06:40.977Z</time></trkpt><trkpt lat="43.6548777" lon="11.8379957"><ele>305.0</ele><time>2026-04-19T07:06:41.975Z</time></trkpt><trkpt lat="43.6550943" lon="11.8381498"><ele>305.0</ele><time>2026-04-19T07:06:42.976Z</time></trkpt><trkpt lat="43.6553145" lon="11.8383036"><ele>304.5</ele><time>2026-04-19T07:06:43.977Z</time></trkpt><trkpt lat="43.6555329" lon="11.8384502"><ele>304.0</ele><time>2026-04-19T07:06:44.977Z</time></trkpt><trkpt lat="43.6557294" lon="11.8385849"><ele>306.0</ele><time>2026-04-19T07:06:45.983Z</time></trkpt><trkpt lat="43.6559159" lon="11.8387106"><ele>308.0</ele><time>2026-04-19T07:06:46.974Z</time></trkpt><trkpt lat="43.6560938" lon="11.8388303"><ele>310.0</ele><time>2026-04-19T07:06:47.98Z</time></trkpt><trkpt lat="43.6562677" lon="11.838941"><ele>310.0</ele><time>2026-04-19T07:06:48.981Z</time></trkpt><trkpt lat="43.6564462" lon="11.839033"><ele>310.0</ele><time>2026-04-19T07:06:49.986Z</time></trkpt><trkpt lat="43.6566441" lon="11.8391146"><ele>310.0</ele><time>2026-04-19T07:06:50.98Z</time></trkpt><trkpt lat="43.6568555" lon="11.8391667"><ele>309.0</ele><time>2026-04-19T07:06:51.986Z</time></trkpt><trkpt lat="43.6570666" lon="11.8392114"><ele>308.0</ele><time>2026-04-19T07:06:52.974Z</time></trkpt><trkpt lat="43.6572907" lon="11.8392534"><ele>307.0</ele><time>2026-04-19T07:06:53.983Z</time></trkpt><trkpt lat="43.6575197" lon="11.8392952"><ele>312.0</ele><time>2026-04-19T07:06:54.983Z</time></trkpt><trkpt lat="43.6577468" lon="11.8393432"><ele>317.0</ele><time>2026-04-19T07:06:55.972Z</time></trkpt><trkpt lat="43.6579755" lon="11.8393874"><ele>318.5</ele><time>2026-04-19T07:06:56.972Z</time></trkpt><trkpt lat="43.6582123" lon="11.8394233"><ele>320.0</ele><time>2026-04-19T07:06:57.975Z</time></trkpt><trkpt lat="43.6584603" lon="11.8394366"><ele>321.0</ele><time>2026-04-19T07:06:58.974Z</time></trkpt><trkpt lat="43.6587079" lon="11.8394235"><ele>322.0</ele><time>2026-04-19T07:06:59.976Z</time></trkpt><trkpt lat="43.658951" lon="11.8393927"><ele>322.0</ele><time>2026-04-19T07:07:00.975Z</time></trkpt><trkpt lat="43.6591793" lon="11.8393613"><ele>322.0</ele><time>2026-04-19T07:07:01.972Z</time></trkpt><trkpt lat="43.659405" lon="11.8393398"><ele>321.5</ele><time>2026-04-19T07:07:02.986Z</time></trkpt><trkpt lat="43.6596409" lon="11.8393529"><ele>321.0</ele><time>2026-04-19T07:07:03.976Z</time></trkpt><trkpt lat="43.6598779" lon="11.839391"><ele>321.0</ele><time>2026-04-19T07:07:04.988Z</time></trkpt><trkpt lat="43.6601204" lon="11.8394609"><ele>321.0</ele><time>2026-04-19T07:07:05.998Z</time></trkpt><trkpt lat="43.6603612" lon="11.8395502"><ele>317.0</ele><time>2026-04-19T07:07:06.984Z</time></trkpt><trkpt lat="43.6605886" lon="11.8396692"><ele>313.0</ele><time>2026-04-19T07:07:07.982Z</time></trkpt><trkpt lat="43.6608156" lon="11.8398198"><ele>313.0</ele><time>2026-04-19T07:07:08.985Z</time></trkpt><trkpt lat="43.6610243" lon="11.8399817"><ele>313.0</ele><time>2026-04-19T07:07:09.983Z</time></trkpt><trkpt lat="43.66124" lon="11.8401444"><ele>322.0</ele><time>2026-04-19T07:07:10.978Z</time></trkpt><trkpt lat="43.6614687" lon="11.8402923"><ele>331.0</ele><time>2026-04-19T07:07:11.979Z</time></trkpt><trkpt lat="43.6616987" lon="11.8403804"><ele>331.0</ele><time>2026-04-19T07:07:12.979Z</time></trkpt><trkpt lat="43.6619132" lon="11.8404524"><ele>331.0</ele><time>2026-04-19T07:07:13.981Z</time></trkpt><trkpt lat="43.6621015" lon="11.8405135"><ele>331.0</ele><time>2026-04-19T07:07:14.981Z</time></trkpt><trkpt lat="43.662273" lon="11.8405508"><ele>331.6</ele><time>2026-04-19T07:07:15.972Z</time></trkpt><trkpt lat="43.6624074" lon="11.8405736"><ele>332.20000000000005</ele><time>2026-04-19T07:07:16.968Z</time></trkpt><trkpt lat="43.6625013" lon="11.8405832"><ele>332.79999999999995</ele><time>2026-04-19T07:07:17.957Z</time></trkpt><trkpt lat="43.6625754" lon="11.8406063"><ele>333.4</ele><time>2026-04-19T07:07:18.986Z</time></trkpt><trkpt lat="43.6626668" lon="11.8406869"><ele>334.0</ele><time>2026-04-19T07:07:20.967Z</time></trkpt><trkpt lat="43.6627456" lon="11.8407583"><ele>333.79999999999995</ele><time>2026-04-19T07:07:24.976Z</time></trkpt><trkpt lat="43.6628522" lon="11.8407931"><ele>333.59999999999997</ele><time>2026-04-19T07:10:55.978Z</time></trkpt><trkpt lat="43.662931" lon="11.8407362"><ele>333.4</ele><time>2026-04-19T07:10:57.971Z</time></trkpt><trkpt lat="43.6630251" lon="11.8406654"><ele>333.2</ele><time>2026-04-19T07:10:59.975Z</time></trkpt><trkpt lat="43.6631579" lon="11.8406362"><ele>333.0</ele><time>2026-04-19T07:11:01.971Z</time></trkpt><trkpt lat="43.6632451" lon="11.8406431"><ele>333.0</ele><time>2026-04-19T07:11:02.974Z</time></trkpt><trkpt lat="43.66334" lon="11.8406539"><ele>333.0</ele><time>2026-04-19T07:11:03.975Z</time></trkpt><trkpt lat="43.6634384" lon="11.8406691"><ele>333.0</ele><time>2026-04-19T07:11:04.983Z</time></trkpt><trkpt lat="43.6635458" lon="11.8406767"><ele>333.0</ele><time>2026-04-19T07:11:05.981Z</time></trkpt><trkpt lat="43.6636632" lon="11.8406821"><ele>333.0</ele><time>2026-04-19T07:11:06.974Z</time></trkpt><trkpt lat="43.6637886" lon="11.8406924"><ele>334.25</ele><time>2026-04-19T07:11:07.987Z</time></trkpt><trkpt lat="43.6639156" lon="11.8407003"><ele>335.5</ele><time>2026-04-19T07:11:08.982Z</time></trkpt><trkpt lat="43.6640442" lon="11.840706"><ele>336.75</ele><time>2026-04-19T07:11:09.983Z</time></trkpt><trkpt lat="43.6641757" lon="11.8407218"><ele>338.0</ele><time>2026-04-19T07:11:10.964Z</time></trkpt><trkpt lat="43.6643092" lon="11.8407347"><ele>338.0</ele><time>2026-04-19T07:11:11.98Z</time></trkpt><trkpt lat="43.6644428" lon="11.8407491"><ele>338.0</ele><time>2026-04-19T07:11:12.969Z</time></trkpt><trkpt lat="43.6645851" lon="11.8407549"><ele>338.0</ele><time>2026-04-19T07:11:13.975Z</time></trkpt><trkpt lat="43.6647257" lon="11.8407605"><ele>338.0</ele><time>2026-04-19T07:11:14.972Z</time></trkpt><trkpt lat="43.6648733" lon="11.8407483"><ele>338.33333333333337</ele><time>2026-04-19T07:11:15.978Z</time></trkpt><trkpt lat="43.6650197" lon="11.8406964"><ele>338.6666666666667</ele><time>2026-04-19T07:11:16.978Z</time></trkpt><trkpt lat="43.6651676" lon="11.8406207"><ele>339.0</ele><time>2026-04-19T07:11:17.979Z</time></trkpt><trkpt lat="43.665315" lon="11.840537"><ele>342.6666666666667</ele><time>2026-04-19T07:11:18.966Z</time></trkpt><trkpt lat="43.6654576" lon="11.8404599"><ele>346.33333333333337</ele><time>2026-04-19T07:11:19.98Z</time></trkpt><trkpt lat="43.6656109" lon="11.84041"><ele>350.0</ele><time>2026-04-19T07:11:20.973Z</time></trkpt><trkpt lat="43.6658063" lon="11.8404141"><ele>350.0</ele><time>2026-04-19T07:11:21.984Z</time></trkpt><trkpt lat="43.6660251" lon="11.8404389"><ele>350.0</ele><time>2026-04-19T07:11:22.974Z</time></trkpt><trkpt lat="43.666242" lon="11.8404585"><ele>350.0</ele><time>2026-04-19T07:11:23.974Z</time></trkpt><trkpt lat="43.6664527" lon="11.8404752"><ele>351.33333333333337</ele><time>2026-04-19T07:11:24.979Z</time></trkpt><trkpt lat="43.6666402" lon="11.8404842"><ele>352.6666666666667</ele><time>2026-04-19T07:11:25.976Z</time></trkpt><trkpt lat="43.6668238" lon="11.84047"><ele>354.0</ele><time>2026-04-19T07:11:26.98Z</time></trkpt><trkpt lat="43.6670093" lon="11.8404351"><ele>358.0</ele><time>2026-04-19T07:11:27.984Z</time></trkpt><trkpt lat="43.6672176" lon="11.8403404"><ele>362.0</ele><time>2026-04-19T07:11:28.975Z</time></trkpt><trkpt lat="43.6674177" lon="11.840213"><ele>366.0</ele><time>2026-04-19T07:11:29.979Z</time></trkpt><trkpt lat="43.6676206" lon="11.8400483"><ele>359.0</ele><time>2026-04-19T07:11:30.984Z</time></trkpt><trkpt lat="43.6678267" lon="11.8398598"><ele>352.0</ele><time>2026-04-19T07:11:31.972Z</time></trkpt><trkpt lat="43.668042" lon="11.8396828"><ele>352.0</ele><time>2026-04-19T07:11:32.98Z</time></trkpt><trkpt lat="43.6682638" lon="11.839505"><ele>352.0</ele><time>2026-04-19T07:11:33.976Z</time></trkpt><trkpt lat="43.6684943" lon="11.8393275"><ele>343.0</ele><time>2026-04-19T07:11:34.975Z</time></trkpt><trkpt lat="43.6687317" lon="11.8391699"><ele>334.0</ele><time>2026-04-19T07:11:35.959Z</time></trkpt><trkpt lat="43.6689697" lon="11.8390237"><ele>334.0</ele><time>2026-04-19T07:11:36.97Z</time></trkpt><trkpt lat="43.6692041" lon="11.838888"><ele>334.0</ele><time>2026-04-19T07:11:37.967Z</time></trkpt><trkpt lat="43.6694388" lon="11.8387609"><ele>340.0</ele><time>2026-04-19T07:11:38.973Z</time></trkpt><trkpt lat="43.6696706" lon="11.8386414"><ele>346.0</ele><time>2026-04-19T07:11:39.97Z</time></trkpt><trkpt lat="43.6698883" lon="11.8385208"><ele>343.66666666666663</ele><time>2026-04-19T07:11:40.974Z</time></trkpt><trkpt lat="43.6700946" lon="11.8384078"><ele>341.3333333333333</ele><time>2026-04-19T07:11:41.981Z</time></trkpt><trkpt lat="43.6702948" lon="11.8382929"><ele>339.0</ele><time>2026-04-19T07:11:42.966Z</time></trkpt><trkpt lat="43.6704795" lon="11.8381851"><ele>339.0</ele><time>2026-04-19T07:11:43.969Z</time></trkpt><trkpt lat="43.6706608" lon="11.8380823"><ele>339.0</ele><time>2026-04-19T07:11:44.975Z</time></trkpt><trkpt lat="43.6708309" lon="11.8379891"><ele>339.0</ele><time>2026-04-19T07:11:45.978Z</time></trkpt><trkpt lat="43.6709826" lon="11.837895"><ele>336.5</ele><time>2026-04-19T07:11:46.97Z</time></trkpt><trkpt lat="43.6711217" lon="11.8377964"><ele>334.0</ele><time>2026-04-19T07:11:47.967Z</time></trkpt><trkpt lat="43.6712441" lon="11.8376857"><ele>331.5</ele><time>2026-04-19T07:11:48.959Z</time></trkpt><trkpt lat="43.671352" lon="11.8375525"><ele>329.0</ele><time>2026-04-19T07:11:49.97Z</time></trkpt><trkpt lat="43.6714399" lon="11.8373994"><ele>329.0</ele><time>2026-04-19T07:11:50.974Z</time></trkpt><trkpt lat="43.6715292" lon="11.8372371"><ele>329.0</ele><time>2026-04-19T07:11:51.984Z</time></trkpt><trkpt lat="43.6716306" lon="11.837052"><ele>329.0</ele><time>2026-04-19T07:11:52.984Z</time></trkpt><trkpt lat="43.6717328" lon="11.8368546"><ele>330.0</ele><time>2026-04-19T07:11:53.961Z</time></trkpt><trkpt lat="43.6718424" lon="11.8366538"><ele>331.0</ele><time>2026-04-19T07:11:54.971Z</time></trkpt><trkpt lat="43.6719542" lon="11.8364424"><ele>332.0</ele><time>2026-04-19T07:11:55.971Z</time></trkpt><trkpt lat="43.672067" lon="11.8362278"><ele>332.0</ele><time>2026-04-19T07:11:56.981Z</time></trkpt><trkpt lat="43.6721827" lon="11.8360127"><ele>332.0</ele><time>2026-04-19T07:11:57.973Z</time></trkpt><trkpt lat="43.6723004" lon="11.8357886"><ele>332.0</ele><time>2026-04-19T07:11:58.981Z</time></trkpt><trkpt lat="43.6724243" lon="11.8355607"><ele>331.0</ele><time>2026-04-19T07:11:59.962Z</time></trkpt><trkpt lat="43.6725571" lon="11.8353398"><ele>330.0</ele><time>2026-04-19T07:12:00.976Z</time></trkpt><trkpt lat="43.6727078" lon="11.8351199"><ele>329.0</ele><time>2026-04-19T07:12:01.975Z</time></trkpt><trkpt lat="43.6728659" lon="11.8349128"><ele>329.0</ele><time>2026-04-19T07:12:02.985Z</time></trkpt><trkpt lat="43.6730319" lon="11.8347184"><ele>329.0</ele><time>2026-04-19T07:12:03.986Z</time></trkpt><trkpt lat="43.6732041" lon="11.8345321"><ele>329.0</ele><time>2026-04-19T07:12:04.972Z</time></trkpt><trkpt lat="43.6733825" lon="11.8343554"><ele>328.6666666666667</ele><time>2026-04-19T07:12:05.962Z</time></trkpt><trkpt lat="43.6735666" lon="11.8341845"><ele>328.3333333333333</ele><time>2026-04-19T07:12:06.981Z</time></trkpt><trkpt lat="43.6737544" lon="11.8340294"><ele>328.0</ele><time>2026-04-19T07:12:07.976Z</time></trkpt><trkpt lat="43.6739478" lon="11.8338632"><ele>328.0</ele><time>2026-04-19T07:12:08.984Z</time></trkpt><trkpt lat="43.6741416" lon="11.8336884"><ele>328.0</ele><time>2026-04-19T07:12:09.977Z</time></trkpt><trkpt lat="43.6743369" lon="11.8334955"><ele>329.0</ele><time>2026-04-19T07:12:10.972Z</time></trkpt><trkpt lat="43.6745368" lon="11.8333012"><ele>330.0</ele><time>2026-04-19T07:12:11.981Z</time></trkpt><trkpt lat="43.6747477" lon="11.8331065"><ele>330.0</ele><time>2026-04-19T07:12:12.976Z</time></trkpt><trkpt lat="43.6749561" lon="11.8329145"><ele>330.0</ele><time>2026-04-19T07:12:13.975Z</time></trkpt><trkpt lat="43.6751683" lon="11.8327303"><ele>330.5</ele><time>2026-04-19T07:12:14.981Z</time></trkpt><trkpt lat="43.6753746" lon="11.8325396"><ele>331.0</ele><time>2026-04-19T07:12:15.98Z</time></trkpt><trkpt lat="43.6755787" lon="11.8323523"><ele>331.0</ele><time>2026-04-19T07:12:16.973Z</time></trkpt><trkpt lat="43.6757818" lon="11.8321689"><ele>331.0</ele><time>2026-04-19T07:12:17.977Z</time></trkpt><trkpt lat="43.6759818" lon="11.8319792"><ele>331.5</ele><time>2026-04-19T07:12:18.983Z</time></trkpt><trkpt lat="43.6761836" lon="11.8317896"><ele>332.0</ele><time>2026-04-19T07:12:19.976Z</time></trkpt><trkpt lat="43.6763822" lon="11.8316036"><ele>332.0</ele><time>2026-04-19T07:12:20.961Z</time></trkpt><trkpt lat="43.6765757" lon="11.8314178"><ele>332.0</ele><time>2026-04-19T07:12:21.976Z</time></trkpt><trkpt lat="43.6767628" lon="11.8312385"><ele>333.6666666666667</ele><time>2026-04-19T07:12:22.965Z</time></trkpt><trkpt lat="43.6769435" lon="11.8310681"><ele>335.3333333333333</ele><time>2026-04-19T07:12:23.97Z</time></trkpt><trkpt lat="43.6771195" lon="11.830905"><ele>337.0</ele><time>2026-04-19T07:12:24.965Z</time></trkpt><trkpt lat="43.6772802" lon="11.8307536"><ele>337.0</ele><time>2026-04-19T07:12:25.982Z</time></trkpt><trkpt lat="43.6774291" lon="11.8306153"><ele>337.0</ele><time>2026-04-19T07:12:26.98Z</time></trkpt><trkpt lat="43.6775752" lon="11.8305075"><ele>337.0</ele><time>2026-04-19T07:12:27.982Z</time></trkpt><trkpt lat="43.6777202" lon="11.8304221"><ele>336.66666666666663</ele><time>2026-04-19T07:12:28.962Z</time></trkpt><trkpt lat="43.6778624" lon="11.8303935"><ele>336.3333333333333</ele><time>2026-04-19T07:12:29.98Z</time></trkpt><trkpt lat="43.6780173" lon="11.8303947"><ele>336.0</ele><time>2026-04-19T07:12:30.968Z</time></trkpt><trkpt lat="43.6781879" lon="11.8304381"><ele>336.0</ele><time>2026-04-19T07:12:31.975Z</time></trkpt><trkpt lat="43.6783583" lon="11.8305116"><ele>336.0</ele><time>2026-04-19T07:12:32.972Z</time></trkpt><trkpt lat="43.6785345" lon="11.830601"><ele>336.0</ele><time>2026-04-19T07:12:33.968Z</time></trkpt><trkpt lat="43.6787028" lon="11.8306959"><ele>333.0</ele><time>2026-04-19T07:12:34.982Z</time></trkpt><trkpt lat="43.6788629" lon="11.8307866"><ele>330.0</ele><time>2026-04-19T07:12:35.972Z</time></trkpt><trkpt lat="43.6790173" lon="11.8308514"><ele>327.0</ele><time>2026-04-19T07:12:36.971Z</time></trkpt><trkpt lat="43.6791672" lon="11.8308769"><ele>327.0</ele><time>2026-04-19T07:12:37.968Z</time></trkpt><trkpt lat="43.6793248" lon="11.8308806"><ele>327.0</ele><time>2026-04-19T07:12:38.982Z</time></trkpt><trkpt lat="43.6794791" lon="11.8308532"><ele>327.0</ele><time>2026-04-19T07:12:39.97Z</time></trkpt><trkpt lat="43.6796326" lon="11.8307889"><ele>324.6666666666667</ele><time>2026-04-19T07:12:40.98Z</time></trkpt><trkpt lat="43.6798053" lon="11.8306921"><ele>322.33333333333337</ele><time>2026-04-19T07:12:41.969Z</time></trkpt><trkpt lat="43.6799791" lon="11.8305849"><ele>320.0</ele><time>2026-04-19T07:12:42.975Z</time></trkpt><trkpt lat="43.6801602" lon="11.830474"><ele>320.6666666666667</ele><time>2026-04-19T07:12:43.974Z</time></trkpt><trkpt lat="43.6803434" lon="11.8303728"><ele>321.3333333333333</ele><time>2026-04-19T07:12:44.976Z</time></trkpt><trkpt lat="43.6805147" lon="11.8302612"><ele>322.0</ele><time>2026-04-19T07:12:45.979Z</time></trkpt><trkpt lat="43.6806812" lon="11.8301626"><ele>321.66666666666663</ele><time>2026-04-19T07:12:46.974Z</time></trkpt><trkpt lat="43.6808399" lon="11.830081"><ele>321.3333333333333</ele><time>2026-04-19T07:12:47.982Z</time></trkpt><trkpt lat="43.6809997" lon="11.8299948"><ele>321.0</ele><time>2026-04-19T07:12:48.989Z</time></trkpt><trkpt lat="43.6811591" lon="11.8298997"><ele>321.0</ele><time>2026-04-19T07:12:49.983Z</time></trkpt><trkpt lat="43.6813254" lon="11.8298119"><ele>321.0</ele><time>2026-04-19T07:12:50.992Z</time></trkpt><trkpt lat="43.6814833" lon="11.8297156"><ele>321.0</ele><time>2026-04-19T07:12:51.979Z</time></trkpt><trkpt lat="43.6816371" lon="11.8296177"><ele>321.0</ele><time>2026-04-19T07:12:52.983Z</time></trkpt><trkpt lat="43.6817879" lon="11.8295286"><ele>321.0</ele><time>2026-04-19T07:12:53.966Z</time></trkpt><trkpt lat="43.6819194" lon="11.8294439"><ele>321.0</ele><time>2026-04-19T07:12:54.982Z</time></trkpt><trkpt lat="43.6820523" lon="11.8293587"><ele>322.6666666666667</ele><time>2026-04-19T07:12:55.981Z</time></trkpt><trkpt lat="43.6821899" lon="11.8292697"><ele>324.33333333333337</ele><time>2026-04-19T07:12:56.979Z</time></trkpt><trkpt lat="43.6823179" lon="11.8291429"><ele>326.0</ele><time>2026-04-19T07:12:57.979Z</time></trkpt><trkpt lat="43.6824292" lon="11.8289878"><ele>326.0</ele><time>2026-04-19T07:12:58.985Z</time></trkpt><trkpt lat="43.6825343" lon="11.8287941"><ele>326.0</ele><time>2026-04-19T07:12:59.979Z</time></trkpt><trkpt lat="43.68263" lon="11.8286048"><ele>326.0</ele><time>2026-04-19T07:13:00.988Z</time></trkpt><trkpt lat="43.6827213" lon="11.8284321"><ele>326.6666666666667</ele><time>2026-04-19T07:13:01.987Z</time></trkpt><trkpt lat="43.682815" lon="11.8282742"><ele>327.3333333333333</ele><time>2026-04-19T07:13:02.97Z</time></trkpt><trkpt lat="43.6829252" lon="11.8281322"><ele>328.0</ele><time>2026-04-19T07:13:03.984Z</time></trkpt><trkpt lat="43.6830396" lon="11.827993"><ele>328.0</ele><time>2026-04-19T07:13:04.98Z</time></trkpt><trkpt lat="43.683151" lon="11.8278669"><ele>328.0</ele><time>2026-04-19T07:13:05.978Z</time></trkpt><trkpt lat="43.6832523" lon="11.827746"><ele>328.0</ele><time>2026-04-19T07:13:06.988Z</time></trkpt><trkpt lat="43.683355" lon="11.8276308"><ele>328.0</ele><time>2026-04-19T07:13:07.984Z</time></trkpt><trkpt lat="43.6834686" lon="11.8275135"><ele>327.25</ele><time>2026-04-19T07:13:08.979Z</time></trkpt><trkpt lat="43.6835932" lon="11.8273911"><ele>326.5</ele><time>2026-04-19T07:13:09.974Z</time></trkpt><trkpt lat="43.6837156" lon="11.8272864"><ele>325.75</ele><time>2026-04-19T07:13:10.983Z</time></trkpt><trkpt lat="43.6838416" lon="11.8271863"><ele>325.0</ele><time>2026-04-19T07:13:11.983Z</time></trkpt><trkpt lat="43.6839716" lon="11.8270909"><ele>325.0</ele><time>2026-04-19T07:13:12.994Z</time></trkpt><trkpt lat="43.6840992" lon="11.827006"><ele>325.0</ele><time>2026-04-19T07:13:13.977Z</time></trkpt><trkpt lat="43.684245" lon="11.8269154"><ele>325.0</ele><time>2026-04-19T07:13:14.982Z</time></trkpt><trkpt lat="43.6843909" lon="11.8268294"><ele>325.3333333333333</ele><time>2026-04-19T07:13:15.963Z</time></trkpt><trkpt lat="43.6845381" lon="11.8267402"><ele>325.6666666666667</ele><time>2026-04-19T07:13:16.977Z</time></trkpt><trkpt lat="43.6846885" lon="11.8266477"><ele>326.0</ele><time>2026-04-19T07:13:17.989Z</time></trkpt><trkpt lat="43.6848433" lon="11.8265558"><ele>326.0</ele><time>2026-04-19T07:13:18.984Z</time></trkpt><trkpt lat="43.6849956" lon="11.8264744"><ele>326.0</ele><time>2026-04-19T07:13:19.961Z</time></trkpt><trkpt lat="43.6851585" lon="11.82642"><ele>326.0</ele><time>2026-04-19T07:13:20.995Z</time></trkpt><trkpt lat="43.6853194" lon="11.8263865"><ele>329.0</ele><time>2026-04-19T07:13:21.977Z</time></trkpt><trkpt lat="43.6854777" lon="11.8263625"><ele>332.0</ele><time>2026-04-19T07:13:22.978Z</time></trkpt><trkpt lat="43.6856252" lon="11.8263349"><ele>335.0</ele><time>2026-04-19T07:13:23.976Z</time></trkpt><trkpt lat="43.6857695" lon="11.8263017"><ele>335.0</ele><time>2026-04-19T07:13:24.981Z</time></trkpt><trkpt lat="43.6859075" lon="11.826258"><ele>335.0</ele><time>2026-04-19T07:13:25.983Z</time></trkpt><trkpt lat="43.6860467" lon="11.826211"><ele>335.0</ele><time>2026-04-19T07:13:26.972Z</time></trkpt><trkpt lat="43.6861866" lon="11.8261634"><ele>335.0</ele><time>2026-04-19T07:13:27.986Z</time></trkpt><trkpt lat="43.6863308" lon="11.8261259"><ele>335.0</ele><time>2026-04-19T07:13:28.98Z</time></trkpt><trkpt lat="43.6864671" lon="11.8260833"><ele>335.0</ele><time>2026-04-19T07:13:29.98Z</time></trkpt><trkpt lat="43.6865997" lon="11.8260353"><ele>335.0</ele><time>2026-04-19T07:13:30.995Z</time></trkpt><trkpt lat="43.6867235" lon="11.8259993"><ele>335.0</ele><time>2026-04-19T07:13:31.972Z</time></trkpt><trkpt lat="43.6868484" lon="11.8259613"><ele>332.0</ele><time>2026-04-19T07:13:32.98Z</time></trkpt><trkpt lat="43.6869689" lon="11.825924"><ele>329.0</ele><time>2026-04-19T07:13:33.964Z</time></trkpt><trkpt lat="43.6870716" lon="11.8258915"><ele>326.0</ele><time>2026-04-19T07:13:34.97Z</time></trkpt><trkpt lat="43.6871614" lon="11.8258642"><ele>323.0</ele><time>2026-04-19T07:13:35.964Z</time></trkpt><trkpt lat="43.6872413" lon="11.8258414"><ele>320.0</ele><time>2026-04-19T07:13:36.983Z</time></trkpt><trkpt lat="43.68732" lon="11.8258359"><ele>320.0</ele><time>2026-04-19T07:13:37.973Z</time></trkpt><trkpt lat="43.6873961" lon="11.8258411"><ele>320.0</ele><time>2026-04-19T07:13:38.977Z</time></trkpt><trkpt lat="43.6874711" lon="11.8258343"><ele>320.0</ele><time>2026-04-19T07:13:39.971Z</time></trkpt><trkpt lat="43.687534" lon="11.8257923"><ele>320.0</ele><time>2026-04-19T07:13:40.966Z</time></trkpt><trkpt lat="43.6875867" lon="11.8257247"><ele>320.0</ele><time>2026-04-19T07:13:41.985Z</time></trkpt><trkpt lat="43.6876266" lon="11.8256327"><ele>320.0</ele><time>2026-04-19T07:13:42.959Z</time></trkpt><trkpt lat="43.6876561" lon="11.8255209"><ele>320.0</ele><time>2026-04-19T07:13:43.985Z</time></trkpt><trkpt lat="43.687666" lon="11.8254115"><ele>320.0</ele><time>2026-04-19T07:13:44.97Z</time></trkpt><trkpt lat="43.6876812" lon="11.825309"><ele>320.0</ele><time>2026-04-19T07:13:45.966Z</time></trkpt><trkpt lat="43.687735" lon="11.8251986"><ele>320.0</ele><time>2026-04-19T07:13:46.977Z</time></trkpt><trkpt lat="43.6878031" lon="11.8250979"><ele>320.0</ele><time>2026-04-19T07:13:47.974Z</time></trkpt><trkpt lat="43.6878744" lon="11.8249907"><ele>321.5</ele><time>2026-04-19T07:13:48.969Z</time></trkpt><trkpt lat="43.6879454" lon="11.8248727"><ele>323.0</ele><time>2026-04-19T07:13:49.975Z</time></trkpt><trkpt lat="43.6880158" lon="11.8247574"><ele>324.5</ele><time>2026-04-19T07:13:50.983Z</time></trkpt><trkpt lat="43.6880944" lon="11.8246324"><ele>326.0</ele><time>2026-04-19T07:13:51.974Z</time></trkpt><trkpt lat="43.6881715" lon="11.824505"><ele>326.0</ele><time>2026-04-19T07:13:52.974Z</time></trkpt><trkpt lat="43.6882576" lon="11.8243723"><ele>326.0</ele><time>2026-04-19T07:13:53.983Z</time></trkpt><trkpt lat="43.6883525" lon="11.824217"><ele>326.0</ele><time>2026-04-19T07:13:54.983Z</time></trkpt><trkpt lat="43.6884535" lon="11.8240431"><ele>326.0</ele><time>2026-04-19T07:13:55.986Z</time></trkpt><trkpt lat="43.6885595" lon="11.8238574"><ele>328.0</ele><time>2026-04-19T07:13:56.981Z</time></trkpt><trkpt lat="43.688674" lon="11.8236573"><ele>330.0</ele><time>2026-04-19T07:13:57.983Z</time></trkpt><trkpt lat="43.6887996" lon="11.8234529"><ele>332.0</ele><time>2026-04-19T07:13:58.99Z</time></trkpt><trkpt lat="43.6889336" lon="11.8232451"><ele>332.0</ele><time>2026-04-19T07:13:59.984Z</time></trkpt><trkpt lat="43.6890722" lon="11.8230364"><ele>332.0</ele><time>2026-04-19T07:14:00.979Z</time></trkpt><trkpt lat="43.6892143" lon="11.8228247"><ele>332.0</ele><time>2026-04-19T07:14:01.977Z</time></trkpt><trkpt lat="43.6893513" lon="11.8226098"><ele>338.0</ele><time>2026-04-19T07:14:02.98Z</time></trkpt><trkpt lat="43.6894915" lon="11.8223889"><ele>344.0</ele><time>2026-04-19T07:14:03.982Z</time></trkpt><trkpt lat="43.6896325" lon="11.8221657"><ele>350.0</ele><time>2026-04-19T07:14:04.983Z</time></trkpt><trkpt lat="43.6897776" lon="11.8219442"><ele>344.33333333333337</ele><time>2026-04-19T07:14:05.98Z</time></trkpt><trkpt lat="43.6899152" lon="11.8217305"><ele>338.6666666666667</ele><time>2026-04-19T07:14:06.977Z</time></trkpt><trkpt lat="43.6900584" lon="11.8215072"><ele>333.0</ele><time>2026-04-19T07:14:07.983Z</time></trkpt><trkpt lat="43.6902032" lon="11.8212892"><ele>339.6666666666667</ele><time>2026-04-19T07:14:08.972Z</time></trkpt><trkpt lat="43.690339" lon="11.8210831"><ele>346.33333333333337</ele><time>2026-04-19T07:14:09.989Z</time></trkpt><trkpt lat="43.6904524" lon="11.8208888"><ele>353.0</ele><time>2026-04-19T07:14:10.977Z</time></trkpt><trkpt lat="43.6905358" lon="11.8206929"><ele>353.0</ele><time>2026-04-19T07:14:11.971Z</time></trkpt><trkpt lat="43.6905892" lon="11.8205163"><ele>353.0</ele><time>2026-04-19T07:14:12.983Z</time></trkpt><trkpt lat="43.6906372" lon="11.8203348"><ele>353.0</ele><time>2026-04-19T07:14:13.975Z</time></trkpt><trkpt lat="43.6906835" lon="11.8201626"><ele>353.0</ele><time>2026-04-19T07:14:14.98Z</time></trkpt><trkpt lat="43.690743" lon="11.8200065"><ele>350.0</ele><time>2026-04-19T07:14:15.979Z</time></trkpt><trkpt lat="43.6908088" lon="11.819856"><ele>347.0</ele><time>2026-04-19T07:14:16.973Z</time></trkpt><trkpt lat="43.6908645" lon="11.8197334"><ele>344.0</ele><time>2026-04-19T07:14:17.981Z</time></trkpt><trkpt lat="43.6909033" lon="11.8196002"><ele>341.0</ele><time>2026-04-19T07:14:18.979Z</time></trkpt><trkpt lat="43.6909188" lon="11.8194579"><ele>338.0</ele><time>2026-04-19T07:14:19.986Z</time></trkpt><trkpt lat="43.6909128" lon="11.8192973"><ele>336.1666666666667</ele><time>2026-04-19T07:14:20.972Z</time></trkpt><trkpt lat="43.69088" lon="11.8191685"><ele>334.33333333333337</ele><time>2026-04-19T07:14:21.982Z</time></trkpt><trkpt lat="43.6908348" lon="11.819066"><ele>332.5</ele><time>2026-04-19T07:14:22.989Z</time></trkpt><trkpt lat="43.6907902" lon="11.8189995"><ele>330.6666666666667</ele><time>2026-04-19T07:14:23.984Z</time></trkpt><trkpt lat="43.6907263" lon="11.8189641"><ele>328.8333333333333</ele><time>2026-04-19T07:14:24.991Z</time></trkpt><trkpt lat="43.6906453" lon="11.8189564"><ele>327.0</ele><time>2026-04-19T07:14:25.984Z</time></trkpt><trkpt lat="43.6905679" lon="11.8189897"><ele>327.0</ele><time>2026-04-19T07:14:26.986Z</time></trkpt><trkpt lat="43.6904806" lon="11.8190434"><ele>327.0</ele><time>2026-04-19T07:14:27.984Z</time></trkpt><trkpt lat="43.6904022" lon="11.8190824"><ele>327.0</ele><time>2026-04-19T07:14:29.002Z</time></trkpt><trkpt lat="43.6903201" lon="11.8190648"><ele>327.0</ele><time>2026-04-19T07:14:29.987Z</time></trkpt><trkpt lat="43.690246" lon="11.8190188"><ele>327.0</ele><time>2026-04-19T07:14:30.977Z</time></trkpt><trkpt lat="43.6901704" lon="11.8189291"><ele>327.0</ele><time>2026-04-19T07:14:31.982Z</time></trkpt><trkpt lat="43.6901024" lon="11.8187695"><ele>324.3333333333333</ele><time>2026-04-19T07:14:32.992Z</time></trkpt><trkpt lat="43.6900335" lon="11.8185968"><ele>321.66666666666663</ele><time>2026-04-19T07:14:33.981Z</time></trkpt><trkpt lat="43.6899696" lon="11.8183992"><ele>319.0</ele><time>2026-04-19T07:14:34.983Z</time></trkpt><trkpt lat="43.6899123" lon="11.818171"><ele>319.0</ele><time>2026-04-19T07:14:35.995Z</time></trkpt><trkpt lat="43.6898679" lon="11.8179159"><ele>319.0</ele><time>2026-04-19T07:14:36.994Z</time></trkpt><trkpt lat="43.6898198" lon="11.8176582"><ele>319.0</ele><time>2026-04-19T07:14:37.987Z</time></trkpt><trkpt lat="43.6897658" lon="11.8173796"><ele>319.0</ele><time>2026-04-19T07:14:38.981Z</time></trkpt><trkpt lat="43.6897137" lon="11.8171001"><ele>319.0</ele><time>2026-04-19T07:14:39.985Z</time></trkpt><trkpt lat="43.6896559" lon="11.8168074"><ele>319.0</ele><time>2026-04-19T07:14:40.989Z</time></trkpt><trkpt lat="43.689603" lon="11.8165069"><ele>319.5</ele><time>2026-04-19T07:14:41.97Z</time></trkpt><trkpt lat="43.6895487" lon="11.8162019"><ele>320.0</ele><time>2026-04-19T07:14:42.99Z</time></trkpt><trkpt lat="43.6894892" lon="11.8158888"><ele>319.0</ele><time>2026-04-19T07:14:43.981Z</time></trkpt><trkpt lat="43.6894322" lon="11.8155711"><ele>318.0</ele><time>2026-04-19T07:14:44.988Z</time></trkpt><trkpt lat="43.6893772" lon="11.8152592"><ele>319.5</ele><time>2026-04-19T07:14:45.98Z</time></trkpt><trkpt lat="43.689335" lon="11.8149388"><ele>321.0</ele><time>2026-04-19T07:14:46.981Z</time></trkpt><trkpt lat="43.6893159" lon="11.8145959"><ele>320.5</ele><time>2026-04-19T07:14:47.976Z</time></trkpt><trkpt lat="43.6893139" lon="11.8142514"><ele>320.0</ele><time>2026-04-19T07:14:48.981Z</time></trkpt><trkpt lat="43.6893374" lon="11.8139124"><ele>320.0</ele><time>2026-04-19T07:14:49.988Z</time></trkpt><trkpt lat="43.6893824" lon="11.8135602"><ele>320.0</ele><time>2026-04-19T07:14:50.988Z</time></trkpt><trkpt lat="43.6894474" lon="11.8132172"><ele>320.0</ele><time>2026-04-19T07:14:51.98Z</time></trkpt><trkpt lat="43.6895335" lon="11.8128756"><ele>320.0</ele><time>2026-04-19T07:14:52.982Z</time></trkpt><trkpt lat="43.6896412" lon="11.8125502"><ele>320.0</ele><time>2026-04-19T07:14:53.984Z</time></trkpt><trkpt lat="43.6897689" lon="11.8122396"><ele>320.0</ele><time>2026-04-19T07:14:54.986Z</time></trkpt><trkpt lat="43.6899014" lon="11.8119443"><ele>319.0</ele><time>2026-04-19T07:14:55.977Z</time></trkpt><trkpt lat="43.6900623" lon="11.811673"><ele>318.0</ele><time>2026-04-19T07:14:56.989Z</time></trkpt><trkpt lat="43.690242" lon="11.811407"><ele>319.5</ele><time>2026-04-19T07:14:57.977Z</time></trkpt><trkpt lat="43.690411" lon="11.8111583"><ele>321.0</ele><time>2026-04-19T07:14:58.969Z</time></trkpt><trkpt lat="43.6905712" lon="11.8108958"><ele>321.0</ele><time>2026-04-19T07:14:59.98Z</time></trkpt><trkpt lat="43.690723" lon="11.8106289"><ele>321.0</ele><time>2026-04-19T07:15:00.965Z</time></trkpt><trkpt lat="43.6908662" lon="11.8103521"><ele>320.5</ele><time>2026-04-19T07:15:01.968Z</time></trkpt><trkpt lat="43.6909959" lon="11.8100633"><ele>320.0</ele><time>2026-04-19T07:15:02.966Z</time></trkpt><trkpt lat="43.6911125" lon="11.8097596"><ele>321.0</ele><time>2026-04-19T07:15:03.973Z</time></trkpt><trkpt lat="43.6912159" lon="11.8094524"><ele>322.0</ele><time>2026-04-19T07:15:04.975Z</time></trkpt><trkpt lat="43.6913043" lon="11.8091323"><ele>322.0</ele><time>2026-04-19T07:15:05.971Z</time></trkpt><trkpt lat="43.6913727" lon="11.8088141"><ele>322.0</ele><time>2026-04-19T07:15:06.961Z</time></trkpt><trkpt lat="43.6914333" lon="11.8084748"><ele>322.0</ele><time>2026-04-19T07:15:07.971Z</time></trkpt><trkpt lat="43.6914919" lon="11.8081375"><ele>322.0</ele><time>2026-04-19T07:15:08.98Z</time></trkpt><trkpt lat="43.6915515" lon="11.8078001"><ele>321.5</ele><time>2026-04-19T07:15:09.975Z</time></trkpt><trkpt lat="43.6916183" lon="11.8074742"><ele>321.0</ele><time>2026-04-19T07:15:10.987Z</time></trkpt><trkpt lat="43.691676" lon="11.8071742"><ele>321.0</ele><time>2026-04-19T07:15:11.968Z</time></trkpt><trkpt lat="43.6917355" lon="11.8068945"><ele>321.0</ele><time>2026-04-19T07:15:12.98Z</time></trkpt><trkpt lat="43.6917886" lon="11.8066243"><ele>321.0</ele><time>2026-04-19T07:15:13.985Z</time></trkpt><trkpt lat="43.6918383" lon="11.8063762"><ele>322.0</ele><time>2026-04-19T07:15:14.979Z</time></trkpt><trkpt lat="43.6919477" lon="11.8058783"><ele>323.0</ele><time>2026-04-19T07:15:16.977Z</time></trkpt><trkpt lat="43.6920231" lon="11.8056122"><ele>323.0</ele><time>2026-04-19T07:15:17.972Z</time></trkpt><trkpt lat="43.6921119" lon="11.8053498"><ele>323.0</ele><time>2026-04-19T07:15:18.982Z</time></trkpt><trkpt lat="43.6922062" lon="11.8051067"><ele>323.0</ele><time>2026-04-19T07:15:19.987Z</time></trkpt><trkpt lat="43.6923033" lon="11.8048809"><ele>323.0</ele><time>2026-04-19T07:15:20.984Z</time></trkpt><trkpt lat="43.6924052" lon="11.8046678"><ele>323.0</ele><time>2026-04-19T07:15:21.984Z</time></trkpt><trkpt lat="43.6925101" lon="11.8044675"><ele>323.0</ele><time>2026-04-19T07:15:22.979Z</time></trkpt><trkpt lat="43.6926278" lon="11.804259"><ele>323.33333333333337</ele><time>2026-04-19T07:15:23.975Z</time></trkpt><trkpt lat="43.6927573" lon="11.8040485"><ele>323.6666666666667</ele><time>2026-04-19T07:15:24.987Z</time></trkpt><trkpt lat="43.6928993" lon="11.8038529"><ele>324.0</ele><time>2026-04-19T07:15:25.985Z</time></trkpt><trkpt lat="43.6930439" lon="11.8036634"><ele>324.0</ele><time>2026-04-19T07:15:26.98Z</time></trkpt><trkpt lat="43.6931785" lon="11.8035059"><ele>324.0</ele><time>2026-04-19T07:15:27.985Z</time></trkpt><trkpt lat="43.6933179" lon="11.8033568"><ele>324.0</ele><time>2026-04-19T07:15:28.958Z</time></trkpt><trkpt lat="43.6934533" lon="11.8032251"><ele>323.6666666666667</ele><time>2026-04-19T07:15:29.959Z</time></trkpt><trkpt lat="43.6935788" lon="11.8030967"><ele>323.33333333333337</ele><time>2026-04-19T07:15:30.977Z</time></trkpt><trkpt lat="43.6937041" lon="11.8029826"><ele>323.0</ele><time>2026-04-19T07:15:31.98Z</time></trkpt><trkpt lat="43.6938272" lon="11.8028684"><ele>323.0</ele><time>2026-04-19T07:15:32.984Z</time></trkpt><trkpt lat="43.6939557" lon="11.80275"><ele>323.0</ele><time>2026-04-19T07:15:33.984Z</time></trkpt><trkpt lat="43.6940875" lon="11.802618"><ele>323.0</ele><time>2026-04-19T07:15:34.983Z</time></trkpt><trkpt lat="43.6942246" lon="11.8024693"><ele>323.0</ele><time>2026-04-19T07:15:35.967Z</time></trkpt><trkpt lat="43.6943764" lon="11.802312"><ele>323.0</ele><time>2026-04-19T07:15:36.969Z</time></trkpt><trkpt lat="43.6945411" lon="11.8021506"><ele>323.0</ele><time>2026-04-19T07:15:37.985Z</time></trkpt><trkpt lat="43.6947029" lon="11.8019881"><ele>324.0</ele><time>2026-04-19T07:15:38.975Z</time></trkpt><trkpt lat="43.694848" lon="11.8018111"><ele>325.0</ele><time>2026-04-19T07:15:39.986Z</time></trkpt><trkpt lat="43.6949929" lon="11.8016192"><ele>326.0</ele><time>2026-04-19T07:15:40.986Z</time></trkpt><trkpt lat="43.6951262" lon="11.8014272"><ele>326.0</ele><time>2026-04-19T07:15:41.987Z</time></trkpt><trkpt lat="43.6952501" lon="11.8012557"><ele>326.0</ele><time>2026-04-19T07:15:42.993Z</time></trkpt><trkpt lat="43.6953693" lon="11.8010878"><ele>326.0</ele><time>2026-04-19T07:15:43.98Z</time></trkpt><trkpt lat="43.695478" lon="11.8009346"><ele>325.5</ele><time>2026-04-19T07:15:44.994Z</time></trkpt><trkpt lat="43.6955813" lon="11.8007871"><ele>325.0</ele><time>2026-04-19T07:15:45.962Z</time></trkpt><trkpt lat="43.6956757" lon="11.8006593"><ele>324.5</ele><time>2026-04-19T07:15:46.975Z</time></trkpt><trkpt lat="43.695769" lon="11.8005593"><ele>324.0</ele><time>2026-04-19T07:15:47.988Z</time></trkpt><trkpt lat="43.6958623" lon="11.8004894"><ele>324.0</ele><time>2026-04-19T07:15:48.987Z</time></trkpt><trkpt lat="43.6959495" lon="11.8004386"><ele>324.0</ele><time>2026-04-19T07:15:49.983Z</time></trkpt><trkpt lat="43.6960412" lon="11.8004298"><ele>324.0</ele><time>2026-04-19T07:15:50.97Z</time></trkpt><trkpt lat="43.696131" lon="11.800439"><ele>324.0</ele><time>2026-04-19T07:15:51.976Z</time></trkpt><trkpt lat="43.6962315" lon="11.8004594"><ele>324.0</ele><time>2026-04-19T07:15:52.985Z</time></trkpt><trkpt lat="43.6963218" lon="11.8004534"><ele>324.0</ele><time>2026-04-19T07:15:53.972Z</time></trkpt><trkpt lat="43.6964049" lon="11.8004225"><ele>324.0</ele><time>2026-04-19T07:15:54.977Z</time></trkpt><trkpt lat="43.6964722" lon="11.8003539"><ele>324.0</ele><time>2026-04-19T07:15:55.98Z</time></trkpt><trkpt lat="43.6965284" lon="11.8002834"><ele>324.0</ele><time>2026-04-19T07:15:56.988Z</time></trkpt><trkpt lat="43.6965563" lon="11.8002024"><ele>324.0</ele><time>2026-04-19T07:15:57.971Z</time></trkpt><trkpt lat="43.6965583" lon="11.8001062"><ele>324.0</ele><time>2026-04-19T07:15:58.971Z</time></trkpt><trkpt lat="43.6965402" lon="11.8000052"><ele>323.8333333333333</ele><time>2026-04-19T07:15:59.967Z</time></trkpt><trkpt lat="43.6965171" lon="11.7999132"><ele>323.6666666666667</ele><time>2026-04-19T07:16:00.978Z</time></trkpt><trkpt lat="43.6964693" lon="11.7998334"><ele>323.5</ele><time>2026-04-19T07:16:01.979Z</time></trkpt><trkpt lat="43.6964016" lon="11.7997637"><ele>323.33333333333337</ele><time>2026-04-19T07:16:02.993Z</time></trkpt><trkpt lat="43.6963155" lon="11.7997137"><ele>323.1666666666667</ele><time>2026-04-19T07:16:03.986Z</time></trkpt><trkpt lat="43.696223" lon="11.7996923"><ele>323.0</ele><time>2026-04-19T07:16:04.975Z</time></trkpt><trkpt lat="43.6961279" lon="11.7996907"><ele>323.0</ele><time>2026-04-19T07:16:05.981Z</time></trkpt><trkpt lat="43.6960427" lon="11.7997114"><ele>323.0</ele><time>2026-04-19T07:16:06.979Z</time></trkpt><trkpt lat="43.6959765" lon="11.7997848"><ele>323.0</ele><time>2026-04-19T07:16:07.967Z</time></trkpt><trkpt lat="43.6959404" lon="11.7998791"><ele>323.0</ele><time>2026-04-19T07:16:08.977Z</time></trkpt><trkpt lat="43.6959332" lon="11.8000101"><ele>323.0</ele><time>2026-04-19T07:16:09.967Z</time></trkpt><trkpt lat="43.6959527" lon="11.800132"><ele>323.0</ele><time>2026-04-19T07:16:10.97Z</time></trkpt><trkpt lat="43.6960014" lon="11.8002428"><ele>323.1666666666667</ele><time>2026-04-19T07:16:11.979Z</time></trkpt><trkpt lat="43.6960677" lon="11.8003358"><ele>323.33333333333337</ele><time>2026-04-19T07:16:12.982Z</time></trkpt><trkpt lat="43.6961434" lon="11.8004128"><ele>323.5</ele><time>2026-04-19T07:16:13.974Z</time></trkpt><trkpt lat="43.6962261" lon="11.8004594"><ele>323.6666666666667</ele><time>2026-04-19T07:16:14.972Z</time></trkpt><trkpt lat="43.6963091" lon="11.8004512"><ele>323.8333333333333</ele><time>2026-04-19T07:16:15.987Z</time></trkpt><trkpt lat="43.69639" lon="11.8004318"><ele>324.0</ele><time>2026-04-19T07:16:16.988Z</time></trkpt><trkpt lat="43.6964651" lon="11.8003884"><ele>324.0</ele><time>2026-04-19T07:16:17.982Z</time></trkpt><trkpt lat="43.6965182" lon="11.8003343"><ele>324.0</ele><time>2026-04-19T07:16:18.977Z</time></trkpt><trkpt lat="43.6965483" lon="11.8002491"><ele>324.0</ele><time>2026-04-19T07:16:19.973Z</time></trkpt><trkpt lat="43.6965701" lon="11.8001342"><ele>324.0</ele><time>2026-04-19T07:16:20.982Z</time></trkpt><trkpt lat="43.6965844" lon="11.7999917"><ele>324.0</ele><time>2026-04-19T07:16:21.983Z</time></trkpt><trkpt lat="43.6966174" lon="11.7998408"><ele>324.0</ele><time>2026-04-19T07:16:22.97Z</time></trkpt><trkpt lat="43.6967015" lon="11.7996791"><ele>324.0</ele><time>2026-04-19T07:16:23.977Z</time></trkpt><trkpt lat="43.6968127" lon="11.7995453"><ele>324.0</ele><time>2026-04-19T07:16:24.986Z</time></trkpt><trkpt lat="43.69694" lon="11.7994195"><ele>324.0</ele><time>2026-04-19T07:16:25.993Z</time></trkpt><trkpt lat="43.6970925" lon="11.7993012"><ele>324.0</ele><time>2026-04-19T07:16:27.002Z</time></trkpt><trkpt lat="43.697257" lon="11.7991764"><ele>324.0</ele><time>2026-04-19T07:16:27.985Z</time></trkpt><trkpt lat="43.6974338" lon="11.799038"><ele>324.0</ele><time>2026-04-19T07:16:28.989Z</time></trkpt><trkpt lat="43.6976167" lon="11.798896"><ele>324.0</ele><time>2026-04-19T07:16:29.979Z</time></trkpt><trkpt lat="43.6978024" lon="11.7987533"><ele>324.0</ele><time>2026-04-19T07:16:30.994Z</time></trkpt><trkpt lat="43.697993" lon="11.7986056"><ele>324.0</ele><time>2026-04-19T07:16:31.99Z</time></trkpt><trkpt lat="43.6981888" lon="11.7984548"><ele>324.0</ele><time>2026-04-19T07:16:32.977Z</time></trkpt><trkpt lat="43.6983911" lon="11.7982984"><ele>324.0</ele><time>2026-04-19T07:16:33.988Z</time></trkpt><trkpt lat="43.6985919" lon="11.7981259"><ele>325.5</ele><time>2026-04-19T07:16:34.985Z</time></trkpt><trkpt lat="43.6987851" lon="11.797942"><ele>327.0</ele><time>2026-04-19T07:16:35.963Z</time></trkpt><trkpt lat="43.6989728" lon="11.79774"><ele>326.0</ele><time>2026-04-19T07:16:36.971Z</time></trkpt><trkpt lat="43.699157" lon="11.7975112"><ele>325.0</ele><time>2026-04-19T07:16:37.971Z</time></trkpt><trkpt lat="43.6993377" lon="11.7972581"><ele>324.5</ele><time>2026-04-19T07:16:38.983Z</time></trkpt><trkpt lat="43.6995142" lon="11.7969903"><ele>324.0</ele><time>2026-04-19T07:16:39.982Z</time></trkpt><trkpt lat="43.699694" lon="11.796722"><ele>323.5</ele><time>2026-04-19T07:16:40.992Z</time></trkpt><trkpt lat="43.6998747" lon="11.7964521"><ele>323.0</ele><time>2026-04-19T07:16:41.984Z</time></trkpt><trkpt lat="43.7000563" lon="11.7961869"><ele>323.5</ele><time>2026-04-19T07:16:42.981Z</time></trkpt><trkpt lat="43.7002398" lon="11.795915"><ele>324.0</ele><time>2026-04-19T07:16:43.96Z</time></trkpt><trkpt lat="43.7004257" lon="11.7956566"><ele>324.0</ele><time>2026-04-19T07:16:44.965Z</time></trkpt><trkpt lat="43.7006199" lon="11.7953985"><ele>324.0</ele><time>2026-04-19T07:16:45.969Z</time></trkpt><trkpt lat="43.7008074" lon="11.7951369"><ele>324.0</ele><time>2026-04-19T07:16:46.973Z</time></trkpt><trkpt lat="43.7009953" lon="11.7948758"><ele>324.0</ele><time>2026-04-19T07:16:47.985Z</time></trkpt><trkpt lat="43.7011828" lon="11.7946266"><ele>324.0</ele><time>2026-04-19T07:16:48.972Z</time></trkpt><trkpt lat="43.7013775" lon="11.7943873"><ele>324.0</ele><time>2026-04-19T07:16:49.987Z</time></trkpt><trkpt lat="43.7015752" lon="11.7941764"><ele>324.0</ele><time>2026-04-19T07:16:50.975Z</time></trkpt><trkpt lat="43.701782" lon="11.7939938"><ele>324.0</ele><time>2026-04-19T07:16:51.985Z</time></trkpt><trkpt lat="43.7019805" lon="11.7938386"><ele>325.0</ele><time>2026-04-19T07:16:52.978Z</time></trkpt><trkpt lat="43.7021753" lon="11.7937076"><ele>326.0</ele><time>2026-04-19T07:16:53.98Z</time></trkpt><trkpt lat="43.7023536" lon="11.7936102"><ele>327.0</ele><time>2026-04-19T07:16:54.983Z</time></trkpt><trkpt lat="43.7025295" lon="11.7935175"><ele>326.6666666666667</ele><time>2026-04-19T07:16:55.984Z</time></trkpt><trkpt lat="43.7027199" lon="11.7934368"><ele>326.33333333333337</ele><time>2026-04-19T07:16:56.986Z</time></trkpt><trkpt lat="43.7029321" lon="11.7933585"><ele>326.0</ele><time>2026-04-19T07:16:57.98Z</time></trkpt><trkpt lat="43.7031513" lon="11.7932831"><ele>326.0</ele><time>2026-04-19T07:16:58.986Z</time></trkpt><trkpt lat="43.7033718" lon="11.7932073"><ele>326.0</ele><time>2026-04-19T07:16:59.97Z</time></trkpt><trkpt lat="43.7035967" lon="11.793123"><ele>328.0</ele><time>2026-04-19T07:17:00.989Z</time></trkpt><trkpt lat="43.7038281" lon="11.7930409"><ele>330.0</ele><time>2026-04-19T07:17:01.958Z</time></trkpt><trkpt lat="43.7040658" lon="11.7929519"><ele>330.0</ele><time>2026-04-19T07:17:02.985Z</time></trkpt><trkpt lat="43.7043124" lon="11.7928511"><ele>330.0</ele><time>2026-04-19T07:17:03.972Z</time></trkpt><trkpt lat="43.7045488" lon="11.7927293"><ele>330.5</ele><time>2026-04-19T07:17:04.993Z</time></trkpt><trkpt lat="43.7047869" lon="11.7925915"><ele>331.0</ele><time>2026-04-19T07:17:05.984Z</time></trkpt><trkpt lat="43.705017" lon="11.7924258"><ele>331.0</ele><time>2026-04-19T07:17:06.991Z</time></trkpt><trkpt lat="43.7052424" lon="11.7922379"><ele>331.0</ele><time>2026-04-19T07:17:07.985Z</time></trkpt><trkpt lat="43.7054686" lon="11.7920465"><ele>330.5</ele><time>2026-04-19T07:17:08.99Z</time></trkpt><trkpt lat="43.7056936" lon="11.7918501"><ele>330.0</ele><time>2026-04-19T07:17:09.983Z</time></trkpt><trkpt lat="43.7059197" lon="11.7916559"><ele>333.0</ele><time>2026-04-19T07:17:10.973Z</time></trkpt><trkpt lat="43.706139" lon="11.7914562"><ele>336.0</ele><time>2026-04-19T07:17:11.99Z</time></trkpt><trkpt lat="43.7063584" lon="11.7912606"><ele>336.0</ele><time>2026-04-19T07:17:12.981Z</time></trkpt><trkpt lat="43.7065793" lon="11.7910676"><ele>336.0</ele><time>2026-04-19T07:17:13.975Z</time></trkpt><trkpt lat="43.7067961" lon="11.7908755"><ele>335.0</ele><time>2026-04-19T07:17:14.977Z</time></trkpt><trkpt lat="43.7070127" lon="11.7906856"><ele>334.0</ele><time>2026-04-19T07:17:15.98Z</time></trkpt><trkpt lat="43.7072327" lon="11.7905038"><ele>334.0</ele><time>2026-04-19T07:17:16.991Z</time></trkpt><trkpt lat="43.7074441" lon="11.7903165"><ele>334.0</ele><time>2026-04-19T07:17:17.981Z</time></trkpt><trkpt lat="43.7076527" lon="11.7901256"><ele>334.0</ele><time>2026-04-19T07:17:18.984Z</time></trkpt><trkpt lat="43.70787" lon="11.7899449"><ele>334.0</ele><time>2026-04-19T07:17:19.976Z</time></trkpt><trkpt lat="43.708087" lon="11.7897728"><ele>334.0</ele><time>2026-04-19T07:17:20.974Z</time></trkpt><trkpt lat="43.70831" lon="11.7896092"><ele>334.0</ele><time>2026-04-19T07:17:21.982Z</time></trkpt><trkpt lat="43.7085206" lon="11.7894396"><ele>334.5</ele><time>2026-04-19T07:17:22.963Z</time></trkpt><trkpt lat="43.7087278" lon="11.7892494"><ele>335.0</ele><time>2026-04-19T07:17:23.964Z</time></trkpt><trkpt lat="43.7089216" lon="11.789042"><ele>335.0</ele><time>2026-04-19T07:17:24.986Z</time></trkpt><trkpt lat="43.7091118" lon="11.7888213"><ele>335.0</ele><time>2026-04-19T07:17:25.982Z</time></trkpt><trkpt lat="43.7092909" lon="11.7885804"><ele>336.0</ele><time>2026-04-19T07:17:26.98Z</time></trkpt><trkpt lat="43.7094581" lon="11.7883189"><ele>337.0</ele><time>2026-04-19T07:17:27.972Z</time></trkpt><trkpt lat="43.7096214" lon="11.7880479"><ele>337.0</ele><time>2026-04-19T07:17:28.982Z</time></trkpt><trkpt lat="43.7097844" lon="11.7877735"><ele>337.0</ele><time>2026-04-19T07:17:29.982Z</time></trkpt><trkpt lat="43.7099405" lon="11.7874936"><ele>336.0</ele><time>2026-04-19T07:17:30.977Z</time></trkpt><trkpt lat="43.7100998" lon="11.7872047"><ele>335.0</ele><time>2026-04-19T07:17:31.97Z</time></trkpt><trkpt lat="43.7102569" lon="11.7869189"><ele>336.5</ele><time>2026-04-19T07:17:32.965Z</time></trkpt><trkpt lat="43.7104182" lon="11.7866312"><ele>338.0</ele><time>2026-04-19T07:17:33.983Z</time></trkpt><trkpt lat="43.7105941" lon="11.7863472"><ele>338.0</ele><time>2026-04-19T07:17:34.988Z</time></trkpt><trkpt lat="43.7107811" lon="11.7860763"><ele>338.0</ele><time>2026-04-19T07:17:35.979Z</time></trkpt><trkpt lat="43.7109723" lon="11.7858149"><ele>337.5</ele><time>2026-04-19T07:17:36.983Z</time></trkpt><trkpt lat="43.7111887" lon="11.7855909"><ele>337.0</ele><time>2026-04-19T07:17:37.968Z</time></trkpt><trkpt lat="43.71142" lon="11.785391"><ele>337.0</ele><time>2026-04-19T07:17:38.981Z</time></trkpt><trkpt lat="43.7116681" lon="11.7852196"><ele>337.0</ele><time>2026-04-19T07:17:39.981Z</time></trkpt><trkpt lat="43.7119143" lon="11.785073"><ele>336.0</ele><time>2026-04-19T07:17:40.964Z</time></trkpt><trkpt lat="43.7121692" lon="11.784936"><ele>335.0</ele><time>2026-04-19T07:17:41.983Z</time></trkpt><trkpt lat="43.7124217" lon="11.7848109"><ele>335.0</ele><time>2026-04-19T07:17:42.96Z</time></trkpt><trkpt lat="43.7126688" lon="11.7846738"><ele>335.0</ele><time>2026-04-19T07:17:43.977Z</time></trkpt><trkpt lat="43.7129161" lon="11.7845202"><ele>333.5</ele><time>2026-04-19T07:17:44.963Z</time></trkpt><trkpt lat="43.7131672" lon="11.7843692"><ele>332.0</ele><time>2026-04-19T07:17:45.979Z</time></trkpt><trkpt lat="43.7134211" lon="11.78422"><ele>333.0</ele><time>2026-04-19T07:17:46.976Z</time></trkpt><trkpt lat="43.7136773" lon="11.784082"><ele>334.0</ele><time>2026-04-19T07:17:47.985Z</time></trkpt><trkpt lat="43.7139388" lon="11.7839416"><ele>334.0</ele><time>2026-04-19T07:17:48.984Z</time></trkpt><trkpt lat="43.7141997" lon="11.7837989"><ele>334.0</ele><time>2026-04-19T07:17:49.979Z</time></trkpt><trkpt lat="43.7144602" lon="11.7836525"><ele>333.0</ele><time>2026-04-19T07:17:50.982Z</time></trkpt><trkpt lat="43.7147195" lon="11.7835055"><ele>332.0</ele><time>2026-04-19T07:17:51.979Z</time></trkpt><trkpt lat="43.7149782" lon="11.7833509"><ele>332.0</ele><time>2026-04-19T07:17:52.967Z</time></trkpt><trkpt lat="43.7152372" lon="11.78319"><ele>332.0</ele><time>2026-04-19T07:17:53.982Z</time></trkpt><trkpt lat="43.7154953" lon="11.7830227"><ele>332.5</ele><time>2026-04-19T07:17:54.986Z</time></trkpt><trkpt lat="43.7157523" lon="11.7828466"><ele>333.0</ele><time>2026-04-19T07:17:55.987Z</time></trkpt><trkpt lat="43.7160057" lon="11.7826641"><ele>332.0</ele><time>2026-04-19T07:17:56.978Z</time></trkpt><trkpt lat="43.7162632" lon="11.7824757"><ele>331.0</ele><time>2026-04-19T07:17:57.967Z</time></trkpt><trkpt lat="43.7165152" lon="11.7822835"><ele>331.0</ele><time>2026-04-19T07:17:58.971Z</time></trkpt><trkpt lat="43.7167672" lon="11.7820867"><ele>331.0</ele><time>2026-04-19T07:17:59.962Z</time></trkpt><trkpt lat="43.7170199" lon="11.7818852"><ele>331.5</ele><time>2026-04-19T07:18:00.97Z</time></trkpt><trkpt lat="43.7172679" lon="11.7816857"><ele>332.0</ele><time>2026-04-19T07:18:01.975Z</time></trkpt><trkpt lat="43.717518" lon="11.7814835"><ele>332.0</ele><time>2026-04-19T07:18:02.991Z</time></trkpt><trkpt lat="43.7177715" lon="11.7812866"><ele>332.0</ele><time>2026-04-19T07:18:03.98Z</time></trkpt><trkpt lat="43.7180263" lon="11.7810917"><ele>331.5</ele><time>2026-04-19T07:18:04.974Z</time></trkpt><trkpt lat="43.7182796" lon="11.7808938"><ele>331.0</ele><time>2026-04-19T07:18:05.987Z</time></trkpt><trkpt lat="43.7185288" lon="11.7806906"><ele>332.0</ele><time>2026-04-19T07:18:06.979Z</time></trkpt><trkpt lat="43.7187805" lon="11.7804948"><ele>333.0</ele><time>2026-04-19T07:18:07.987Z</time></trkpt><trkpt lat="43.7190305" lon="11.7802952"><ele>333.0</ele><time>2026-04-19T07:18:08.977Z</time></trkpt><trkpt lat="43.7192798" lon="11.7800914"><ele>333.0</ele><time>2026-04-19T07:18:09.979Z</time></trkpt><trkpt lat="43.71953" lon="11.7798951"><ele>333.5</ele><time>2026-04-19T07:18:10.996Z</time></trkpt><trkpt lat="43.7197764" lon="11.7796956"><ele>334.0</ele><time>2026-04-19T07:18:11.99Z</time></trkpt><trkpt lat="43.720015" lon="11.7795058"><ele>334.0</ele><time>2026-04-19T07:18:12.986Z</time></trkpt><trkpt lat="43.7202486" lon="11.7793246"><ele>334.0</ele><time>2026-04-19T07:18:13.984Z</time></trkpt><trkpt lat="43.7204653" lon="11.7791587"><ele>334.0</ele><time>2026-04-19T07:18:14.975Z</time></trkpt><trkpt lat="43.7206649" lon="11.7789895"><ele>334.0</ele><time>2026-04-19T07:18:15.971Z</time></trkpt><trkpt lat="43.7208502" lon="11.7788268"><ele>334.0</ele><time>2026-04-19T07:18:16.976Z</time></trkpt><trkpt lat="43.7210297" lon="11.7786479"><ele>334.0</ele><time>2026-04-19T07:18:17.99Z</time></trkpt><trkpt lat="43.7212003" lon="11.7784419"><ele>334.0</ele><time>2026-04-19T07:18:18.967Z</time></trkpt><trkpt lat="43.7213636" lon="11.7781979"><ele>334.0</ele><time>2026-04-19T07:18:19.978Z</time></trkpt><trkpt lat="43.7215081" lon="11.7779332"><ele>334.0</ele><time>2026-04-19T07:18:20.973Z</time></trkpt><trkpt lat="43.7216263" lon="11.7776373"><ele>334.0</ele><time>2026-04-19T07:18:21.987Z</time></trkpt><trkpt lat="43.721727" lon="11.7773253"><ele>334.0</ele><time>2026-04-19T07:18:22.991Z</time></trkpt><trkpt lat="43.7218252" lon="11.7770295"><ele>336.5</ele><time>2026-04-19T07:18:23.986Z</time></trkpt><trkpt lat="43.7219461" lon="11.7767667"><ele>339.0</ele><time>2026-04-19T07:18:24.987Z</time></trkpt><trkpt lat="43.722086" lon="11.7765233"><ele>339.0</ele><time>2026-04-19T07:18:25.976Z</time></trkpt><trkpt lat="43.7222386" lon="11.7763036"><ele>339.0</ele><time>2026-04-19T07:18:26.987Z</time></trkpt><trkpt lat="43.7224117" lon="11.776116"><ele>339.0</ele><time>2026-04-19T07:18:27.98Z</time></trkpt><trkpt lat="43.7225867" lon="11.7759563"><ele>339.3333333333333</ele><time>2026-04-19T07:18:28.988Z</time></trkpt><trkpt lat="43.7227752" lon="11.7758194"><ele>339.66666666666663</ele><time>2026-04-19T07:18:29.988Z</time></trkpt><trkpt lat="43.7229732" lon="11.7756958"><ele>340.0</ele><time>2026-04-19T07:18:30.973Z</time></trkpt><trkpt lat="43.7231816" lon="11.7755997"><ele>340.0</ele><time>2026-04-19T07:18:31.986Z</time></trkpt><trkpt lat="43.7233973" lon="11.7755084"><ele>340.0</ele><time>2026-04-19T07:18:32.99Z</time></trkpt><trkpt lat="43.7236182" lon="11.7754235"><ele>341.0</ele><time>2026-04-19T07:18:33.98Z</time></trkpt><trkpt lat="43.7238428" lon="11.7753379"><ele>342.0</ele><time>2026-04-19T07:18:34.973Z</time></trkpt><trkpt lat="43.7240672" lon="11.7752541"><ele>342.0</ele><time>2026-04-19T07:18:35.979Z</time></trkpt><trkpt lat="43.7242953" lon="11.7751777"><ele>342.0</ele><time>2026-04-19T07:18:36.972Z</time></trkpt><trkpt lat="43.7245193" lon="11.7750975"><ele>342.0</ele><time>2026-04-19T07:18:37.976Z</time></trkpt><trkpt lat="43.7247445" lon="11.7750191"><ele>342.0</ele><time>2026-04-19T07:18:38.987Z</time></trkpt><trkpt lat="43.7249598" lon="11.7749519"><ele>342.0</ele><time>2026-04-19T07:18:39.975Z</time></trkpt><trkpt lat="43.7251567" lon="11.7748806"><ele>342.0</ele><time>2026-04-19T07:18:40.988Z</time></trkpt><trkpt lat="43.7253403" lon="11.7748044"><ele>342.0</ele><time>2026-04-19T07:18:41.988Z</time></trkpt><trkpt lat="43.7255072" lon="11.7747392"><ele>342.0</ele><time>2026-04-19T07:18:42.981Z</time></trkpt><trkpt lat="43.7256469" lon="11.774677"><ele>342.0</ele><time>2026-04-19T07:18:43.978Z</time></trkpt><trkpt lat="43.725778" lon="11.7746062"><ele>342.0</ele><time>2026-04-19T07:18:44.981Z</time></trkpt><trkpt lat="43.7259021" lon="11.7744931"><ele>342.0</ele><time>2026-04-19T07:18:45.976Z</time></trkpt><trkpt lat="43.7260223" lon="11.7743496"><ele>344.3333333333333</ele><time>2026-04-19T07:18:46.974Z</time></trkpt><trkpt lat="43.7261424" lon="11.7741835"><ele>346.66666666666663</ele><time>2026-04-19T07:18:47.974Z</time></trkpt><trkpt lat="43.7262562" lon="11.7739941"><ele>349.0</ele><time>2026-04-19T07:18:48.967Z</time></trkpt><trkpt lat="43.7263713" lon="11.7737845"><ele>349.0</ele><time>2026-04-19T07:18:49.966Z</time></trkpt><trkpt lat="43.7264802" lon="11.7735759"><ele>349.0</ele><time>2026-04-19T07:18:50.968Z</time></trkpt><trkpt lat="43.7265749" lon="11.7733821"><ele>349.0</ele><time>2026-04-19T07:18:51.979Z</time></trkpt><trkpt lat="43.7266505" lon="11.7732094"><ele>349.0</ele><time>2026-04-19T07:18:52.961Z</time></trkpt><trkpt lat="43.7267114" lon="11.7730598"><ele>349.0</ele><time>2026-04-19T07:18:53.977Z</time></trkpt><trkpt lat="43.7267575" lon="11.7729525"><ele>349.0</ele><time>2026-04-19T07:18:54.969Z</time></trkpt><trkpt lat="43.7268029" lon="11.7728643"><ele>349.0</ele><time>2026-04-19T07:18:55.985Z</time></trkpt><trkpt lat="43.7268602" lon="11.7727972"><ele>349.0</ele><time>2026-04-19T07:18:56.963Z</time></trkpt><trkpt lat="43.7269235" lon="11.7727578"><ele>349.0</ele><time>2026-04-19T07:18:57.978Z</time></trkpt><trkpt lat="43.7269917" lon="11.7727262"><ele>349.0</ele><time>2026-04-19T07:18:58.984Z</time></trkpt><trkpt lat="43.7270619" lon="11.7727217"><ele>349.0</ele><time>2026-04-19T07:18:59.975Z</time></trkpt><trkpt lat="43.7271388" lon="11.7727418"><ele>349.0</ele><time>2026-04-19T07:19:00.969Z</time></trkpt><trkpt lat="43.7272257" lon="11.7727828"><ele>349.0</ele><time>2026-04-19T07:19:01.962Z</time></trkpt><trkpt lat="43.7273184" lon="11.7728263"><ele>349.0</ele><time>2026-04-19T07:19:02.974Z</time></trkpt><trkpt lat="43.7274207" lon="11.7728767"><ele>349.0</ele><time>2026-04-19T07:19:03.984Z</time></trkpt><trkpt lat="43.7275467" lon="11.7729324"><ele>349.0</ele><time>2026-04-19T07:19:04.978Z</time></trkpt><trkpt lat="43.727685" lon="11.772994"><ele>349.0</ele><time>2026-04-19T07:19:05.981Z</time></trkpt><trkpt lat="43.727831" lon="11.7730592"><ele>349.0</ele><time>2026-04-19T07:19:06.973Z</time></trkpt><trkpt lat="43.7279916" lon="11.7731357"><ele>349.66666666666663</ele><time>2026-04-19T07:19:07.979Z</time></trkpt><trkpt lat="43.728157" lon="11.773207"><ele>350.3333333333333</ele><time>2026-04-19T07:19:08.981Z</time></trkpt><trkpt lat="43.7283221" lon="11.7732837"><ele>351.0</ele><time>2026-04-19T07:19:09.979Z</time></trkpt><trkpt lat="43.7284945" lon="11.7733544"><ele>351.0</ele><time>2026-04-19T07:19:10.97Z</time></trkpt><trkpt lat="43.7286723" lon="11.7734246"><ele>351.0</ele><time>2026-04-19T07:19:11.981Z</time></trkpt><trkpt lat="43.7288485" lon="11.7734828"><ele>351.0</ele><time>2026-04-19T07:19:12.985Z</time></trkpt><trkpt lat="43.7290411" lon="11.7735352"><ele>351.3333333333333</ele><time>2026-04-19T07:19:13.999Z</time></trkpt><trkpt lat="43.7292471" lon="11.7736027"><ele>351.66666666666663</ele><time>2026-04-19T07:19:14.982Z</time></trkpt><trkpt lat="43.729444" lon="11.7736611"><ele>352.0</ele><time>2026-04-19T07:19:15.982Z</time></trkpt><trkpt lat="43.7296289" lon="11.7737163"><ele>352.66666666666663</ele><time>2026-04-19T07:19:16.989Z</time></trkpt><trkpt lat="43.7298013" lon="11.7737817"><ele>353.3333333333333</ele><time>2026-04-19T07:19:17.986Z</time></trkpt><trkpt lat="43.7299592" lon="11.7738354"><ele>354.0</ele><time>2026-04-19T07:19:18.989Z</time></trkpt><trkpt lat="43.7300852" lon="11.7738575"><ele>354.0</ele><time>2026-04-19T07:19:19.973Z</time></trkpt><trkpt lat="43.730197" lon="11.7738572"><ele>354.0</ele><time>2026-04-19T07:19:20.97Z</time></trkpt><trkpt lat="43.7303026" lon="11.7738147"><ele>354.0</ele><time>2026-04-19T07:19:21.982Z</time></trkpt><trkpt lat="43.7303961" lon="11.7737259"><ele>354.0</ele><time>2026-04-19T07:19:22.984Z</time></trkpt><trkpt lat="43.7304773" lon="11.7736019"><ele>355.79999999999995</ele><time>2026-04-19T07:19:23.989Z</time></trkpt><trkpt lat="43.7305173" lon="11.7734693"><ele>357.59999999999997</ele><time>2026-04-19T07:19:24.963Z</time></trkpt><trkpt lat="43.7305186" lon="11.7733216"><ele>359.4</ele><time>2026-04-19T07:19:25.971Z</time></trkpt><trkpt lat="43.7304941" lon="11.7731821"><ele>361.2</ele><time>2026-04-19T07:19:26.973Z</time></trkpt><trkpt lat="43.7304378" lon="11.7730468"><ele>363.0</ele><time>2026-04-19T07:19:27.981Z</time></trkpt><trkpt lat="43.7303569" lon="11.7729407"><ele>363.0</ele><time>2026-04-19T07:19:28.978Z</time></trkpt><trkpt lat="43.7302363" lon="11.772852"><ele>363.0</ele><time>2026-04-19T07:19:29.978Z</time></trkpt><trkpt lat="43.7300995" lon="11.7727702"><ele>363.0</ele><time>2026-04-19T07:19:30.987Z</time></trkpt><trkpt lat="43.7299558" lon="11.7726885"><ele>363.0</ele><time>2026-04-19T07:19:31.979Z</time></trkpt><trkpt lat="43.7298157" lon="11.7726102"><ele>362.75</ele><time>2026-04-19T07:19:32.984Z</time></trkpt><trkpt lat="43.7296787" lon="11.7725307"><ele>362.5</ele><time>2026-04-19T07:19:33.983Z</time></trkpt><trkpt lat="43.7295685" lon="11.7724429"><ele>362.25</ele><time>2026-04-19T07:19:34.985Z</time></trkpt><trkpt lat="43.729481" lon="11.7723434"><ele>362.0</ele><time>2026-04-19T07:19:35.981Z</time></trkpt><trkpt lat="43.7294145" lon="11.7722232"><ele>361.20000000000005</ele><time>2026-04-19T07:19:36.991Z</time></trkpt><trkpt lat="43.7293681" lon="11.7720927"><ele>360.4</ele><time>2026-04-19T07:19:37.993Z</time></trkpt><trkpt lat="43.7293459" lon="11.7719481"><ele>359.6</ele><time>2026-04-19T07:19:38.986Z</time></trkpt><trkpt lat="43.7293508" lon="11.7718182"><ele>358.79999999999995</ele><time>2026-04-19T07:19:39.992Z</time></trkpt><trkpt lat="43.7293925" lon="11.7716739"><ele>358.0</ele><time>2026-04-19T07:19:40.969Z</time></trkpt><trkpt lat="43.729462" lon="11.7715293"><ele>360.75</ele><time>2026-04-19T07:19:41.96Z</time></trkpt><trkpt lat="43.7295462" lon="11.7714265"><ele>363.5</ele><time>2026-04-19T07:19:42.974Z</time></trkpt><trkpt lat="43.7296545" lon="11.771362"><ele>366.25</ele><time>2026-04-19T07:19:43.966Z</time></trkpt><trkpt lat="43.7297719" lon="11.7713416"><ele>369.0</ele><time>2026-04-19T07:19:44.963Z</time></trkpt><trkpt lat="43.7298793" lon="11.7713566"><ele>369.0</ele><time>2026-04-19T07:19:45.963Z</time></trkpt><trkpt lat="43.7299896" lon="11.7714027"><ele>369.0</ele><time>2026-04-19T07:19:46.963Z</time></trkpt><trkpt lat="43.7300832" lon="11.7714664"><ele>369.0</ele><time>2026-04-19T07:19:47.963Z</time></trkpt><trkpt lat="43.7301569" lon="11.771498"><ele>369.0</ele><time>2026-04-19T07:19:48.978Z</time></trkpt><trkpt lat="43.7302591" lon="11.771457"><ele>369.0</ele><time>2026-04-19T07:19:50.976Z</time></trkpt><trkpt lat="43.7303258" lon="11.7713146"><ele>369.79999999999995</ele><time>2026-04-19T07:19:52.98Z</time></trkpt><trkpt lat="43.7303614" lon="11.7712053"><ele>370.59999999999997</ele><time>2026-04-19T07:19:53.988Z</time></trkpt><trkpt lat="43.730424" lon="11.7711002"><ele>371.4</ele><time>2026-04-19T07:19:54.969Z</time></trkpt><trkpt lat="43.7305134" lon="11.7709881"><ele>372.2</ele><time>2026-04-19T07:19:55.962Z</time></trkpt><trkpt lat="43.7306163" lon="11.7708624"><ele>373.0</ele><time>2026-04-19T07:19:56.981Z</time></trkpt><trkpt lat="43.7307214" lon="11.7707184"><ele>373.0</ele><time>2026-04-19T07:19:57.965Z</time></trkpt><trkpt lat="43.7308368" lon="11.7705757"><ele>373.0</ele><time>2026-04-19T07:19:58.968Z</time></trkpt><trkpt lat="43.7309555" lon="11.7704265"><ele>373.0</ele><time>2026-04-19T07:19:59.982Z</time></trkpt><trkpt lat="43.7310688" lon="11.770284"><ele>373.0</ele><time>2026-04-19T07:20:00.982Z</time></trkpt><trkpt lat="43.7311822" lon="11.7701415"><ele>373.0</ele><time>2026-04-19T07:20:01.965Z</time></trkpt><trkpt lat="43.7312865" lon="11.7700129"><ele>373.0</ele><time>2026-04-19T07:20:02.965Z</time></trkpt><trkpt lat="43.7313824" lon="11.7698917"><ele>373.0</ele><time>2026-04-19T07:20:03.959Z</time></trkpt><trkpt lat="43.7314839" lon="11.7697793"><ele>373.0</ele><time>2026-04-19T07:20:04.971Z</time></trkpt><trkpt lat="43.7315808" lon="11.7696824"><ele>373.0</ele><time>2026-04-19T07:20:05.958Z</time></trkpt><trkpt lat="43.7316708" lon="11.7695953"><ele>373.0</ele><time>2026-04-19T07:20:06.969Z</time></trkpt><trkpt lat="43.7317609" lon="11.7695283"><ele>373.0</ele><time>2026-04-19T07:20:07.961Z</time></trkpt><trkpt lat="43.7318445" lon="11.7694669"><ele>373.0</ele><time>2026-04-19T07:20:08.968Z</time></trkpt><trkpt lat="43.7319064" lon="11.7693897"><ele>373.4</ele><time>2026-04-19T07:20:09.979Z</time></trkpt><trkpt lat="43.7319505" lon="11.769275"><ele>373.79999999999995</ele><time>2026-04-19T07:20:10.98Z</time></trkpt><trkpt lat="43.7319784" lon="11.7691386"><ele>374.2</ele><time>2026-04-19T07:20:11.979Z</time></trkpt><trkpt lat="43.7319915" lon="11.7689691"><ele>374.6</ele><time>2026-04-19T07:20:12.962Z</time></trkpt><trkpt lat="43.7320045" lon="11.7687973"><ele>375.0</ele><time>2026-04-19T07:20:13.98Z</time></trkpt><trkpt lat="43.732026" lon="11.7686037"><ele>372.75</ele><time>2026-04-19T07:20:14.976Z</time></trkpt><trkpt lat="43.7320536" lon="11.7683931"><ele>370.5</ele><time>2026-04-19T07:20:15.976Z</time></trkpt><trkpt lat="43.7320926" lon="11.7682032"><ele>368.25</ele><time>2026-04-19T07:20:16.96Z</time></trkpt><trkpt lat="43.7321303" lon="11.7680286"><ele>366.0</ele><time>2026-04-19T07:20:17.962Z</time></trkpt><trkpt lat="43.7321776" lon="11.767874"><ele>366.0</ele><time>2026-04-19T07:20:18.965Z</time></trkpt><trkpt lat="43.7322384" lon="11.7677445"><ele>366.0</ele><time>2026-04-19T07:20:19.977Z</time></trkpt><trkpt lat="43.7323048" lon="11.7676482"><ele>366.0</ele><time>2026-04-19T07:20:20.97Z</time></trkpt><trkpt lat="43.7323888" lon="11.7675829"><ele>366.0</ele><time>2026-04-19T07:20:21.972Z</time></trkpt><trkpt lat="43.7324897" lon="11.7675387"><ele>366.0</ele><time>2026-04-19T07:20:22.984Z</time></trkpt><trkpt lat="43.7326155" lon="11.7675026"><ele>363.3333333333333</ele><time>2026-04-19T07:20:23.962Z</time></trkpt><trkpt lat="43.7327585" lon="11.7674793"><ele>360.66666666666663</ele><time>2026-04-19T07:20:24.981Z</time></trkpt><trkpt lat="43.7329189" lon="11.7674655"><ele>358.0</ele><time>2026-04-19T07:20:25.982Z</time></trkpt><trkpt lat="43.7330927" lon="11.7674507"><ele>358.0</ele><time>2026-04-19T07:20:26.989Z</time></trkpt><trkpt lat="43.7332854" lon="11.7674226"><ele>358.0</ele><time>2026-04-19T07:20:27.992Z</time></trkpt><trkpt lat="43.7334876" lon="11.7673965"><ele>358.0</ele><time>2026-04-19T07:20:28.988Z</time></trkpt><trkpt lat="43.7336746" lon="11.7673645"><ele>358.0</ele><time>2026-04-19T07:20:29.971Z</time></trkpt><trkpt lat="43.7338472" lon="11.7673146"><ele>358.0</ele><time>2026-04-19T07:20:30.977Z</time></trkpt><trkpt lat="43.7340056" lon="11.7672548"><ele>358.0</ele><time>2026-04-19T07:20:31.961Z</time></trkpt><trkpt lat="43.7341479" lon="11.7671909"><ele>358.0</ele><time>2026-04-19T07:20:32.971Z</time></trkpt><trkpt lat="43.7342693" lon="11.7671387"><ele>358.0</ele><time>2026-04-19T07:20:33.974Z</time></trkpt><trkpt lat="43.7343871" lon="11.7670865"><ele>358.0</ele><time>2026-04-19T07:20:34.971Z</time></trkpt><trkpt lat="43.7345146" lon="11.7670203"><ele>358.0</ele><time>2026-04-19T07:20:35.964Z</time></trkpt><trkpt lat="43.7346561" lon="11.7669494"><ele>358.3333333333333</ele><time>2026-04-19T07:20:36.977Z</time></trkpt><trkpt lat="43.7348072" lon="11.7668755"><ele>358.6666666666667</ele><time>2026-04-19T07:20:37.974Z</time></trkpt><trkpt lat="43.7349703" lon="11.7667987"><ele>359.0</ele><time>2026-04-19T07:20:38.967Z</time></trkpt><trkpt lat="43.7351402" lon="11.766722"><ele>357.6666666666667</ele><time>2026-04-19T07:20:39.984Z</time></trkpt><trkpt lat="43.7353087" lon="11.7666412"><ele>356.3333333333333</ele><time>2026-04-19T07:20:40.989Z</time></trkpt><trkpt lat="43.7354678" lon="11.7665647"><ele>355.0</ele><time>2026-04-19T07:20:41.981Z</time></trkpt><trkpt lat="43.7356092" lon="11.7665043"><ele>355.0</ele><time>2026-04-19T07:20:42.979Z</time></trkpt><trkpt lat="43.7357129" lon="11.7664399"><ele>355.0</ele><time>2026-04-19T07:20:43.974Z</time></trkpt><trkpt lat="43.7358015" lon="11.766378"><ele>355.0</ele><time>2026-04-19T07:20:44.984Z</time></trkpt><trkpt lat="43.7358615" lon="11.7662878"><ele>355.0</ele><time>2026-04-19T07:20:45.975Z</time></trkpt><trkpt lat="43.7358963" lon="11.7661627"><ele>355.0</ele><time>2026-04-19T07:20:46.981Z</time></trkpt><trkpt lat="43.7359214" lon="11.7660257"><ele>354.8</ele><time>2026-04-19T07:20:47.977Z</time></trkpt><trkpt lat="43.7359435" lon="11.7658904"><ele>354.6</ele><time>2026-04-19T07:20:48.982Z</time></trkpt><trkpt lat="43.7359579" lon="11.7657723"><ele>354.4</ele><time>2026-04-19T07:20:49.976Z</time></trkpt><trkpt lat="43.7359643" lon="11.7656663"><ele>354.2</ele><time>2026-04-19T07:20:50.978Z</time></trkpt><trkpt lat="43.7359137" lon="11.7655041"><ele>354.0</ele><time>2026-04-19T07:20:52.974Z</time></trkpt><trkpt lat="43.7358486" lon="11.7654118"><ele>354.0</ele><time>2026-04-19T07:20:53.962Z</time></trkpt><trkpt lat="43.7357707" lon="11.7653028"><ele>354.0</ele><time>2026-04-19T07:20:54.967Z</time></trkpt><trkpt lat="43.7356799" lon="11.7651659"><ele>354.0</ele><time>2026-04-19T07:20:55.962Z</time></trkpt><trkpt lat="43.7355854" lon="11.7650264"><ele>354.0</ele><time>2026-04-19T07:20:56.975Z</time></trkpt><trkpt lat="43.7354785" lon="11.764882"><ele>354.5</ele><time>2026-04-19T07:20:57.968Z</time></trkpt><trkpt lat="43.735381" lon="11.7647402"><ele>355.0</ele><time>2026-04-19T07:20:58.969Z</time></trkpt><trkpt lat="43.7352956" lon="11.764615"><ele>355.5</ele><time>2026-04-19T07:20:59.982Z</time></trkpt><trkpt lat="43.735224" lon="11.7645048"><ele>356.0</ele><time>2026-04-19T07:21:00.978Z</time></trkpt><trkpt lat="43.7351535" lon="11.7643953"><ele>355.75</ele><time>2026-04-19T07:21:01.982Z</time></trkpt><trkpt lat="43.7350733" lon="11.7642764"><ele>355.5</ele><time>2026-04-19T07:21:02.973Z</time></trkpt><trkpt lat="43.7349818" lon="11.7641436"><ele>355.25</ele><time>2026-04-19T07:21:03.983Z</time></trkpt><trkpt lat="43.7348893" lon="11.7640138"><ele>355.0</ele><time>2026-04-19T07:21:04.981Z</time></trkpt><trkpt lat="43.7347952" lon="11.7638984"><ele>355.0</ele><time>2026-04-19T07:21:05.987Z</time></trkpt><trkpt lat="43.734698" lon="11.7638099"><ele>355.0</ele><time>2026-04-19T07:21:06.982Z</time></trkpt><trkpt lat="43.7346" lon="11.7637477"><ele>355.0</ele><time>2026-04-19T07:21:07.965Z</time></trkpt><trkpt lat="43.7345127" lon="11.7636957"><ele>355.0</ele><time>2026-04-19T07:21:08.978Z</time></trkpt><trkpt lat="43.7344454" lon="11.7636553"><ele>355.0</ele><time>2026-04-19T07:21:09.979Z</time></trkpt><trkpt lat="43.7343737" lon="11.7636135"><ele>354.66666666666663</ele><time>2026-04-19T07:21:11.01Z</time></trkpt><trkpt lat="43.7343125" lon="11.7635792"><ele>354.3333333333333</ele><time>2026-04-19T07:21:11.966Z</time></trkpt><trkpt lat="43.7342556" lon="11.763534"><ele>354.0</ele><time>2026-04-19T07:21:12.985Z</time></trkpt><trkpt lat="43.7342001" lon="11.7634854"><ele>353.6666666666667</ele><time>2026-04-19T07:21:13.978Z</time></trkpt><trkpt lat="43.7341454" lon="11.7634389"><ele>353.33333333333337</ele><time>2026-04-19T07:21:14.982Z</time></trkpt><trkpt lat="43.734054" lon="11.7633803"><ele>353.0</ele><time>2026-04-19T07:21:16.991Z</time></trkpt><trkpt lat="43.7339645" lon="11.7633381"><ele>353.0</ele><time>2026-04-19T07:21:18.971Z</time></trkpt><trkpt lat="43.7339003" lon="11.7633005"><ele>353.0</ele><time>2026-04-19T07:21:19.977Z</time></trkpt><trkpt lat="43.7338286" lon="11.7632533"><ele>353.0</ele><time>2026-04-19T07:21:20.973Z</time></trkpt><trkpt lat="43.7337423" lon="11.7632041"><ele>353.0</ele><time>2026-04-19T07:21:21.978Z</time></trkpt><trkpt lat="43.7336499" lon="11.7631577"><ele>353.0</ele><time>2026-04-19T07:21:22.975Z</time></trkpt><trkpt lat="43.7335508" lon="11.763109"><ele>353.0</ele><time>2026-04-19T07:21:23.981Z</time></trkpt><trkpt lat="43.7334465" lon="11.7630633"><ele>352.5</ele><time>2026-04-19T07:21:24.99Z</time></trkpt><trkpt lat="43.73335" lon="11.763033"><ele>352.0</ele><time>2026-04-19T07:21:25.99Z</time></trkpt><trkpt lat="43.7332648" lon="11.7630183"><ele>351.5</ele><time>2026-04-19T07:21:26.971Z</time></trkpt><trkpt lat="43.733181" lon="11.7630273"><ele>351.0</ele><time>2026-04-19T07:21:27.965Z</time></trkpt><trkpt lat="43.7331041" lon="11.7630415"><ele>350.5</ele><time>2026-04-19T07:21:28.977Z</time></trkpt><trkpt lat="43.733033" lon="11.7630487"><ele>350.0</ele><time>2026-04-19T07:21:29.982Z</time></trkpt><trkpt lat="43.732925" lon="11.7630412"><ele>350.0</ele><time>2026-04-19T07:21:31.98Z</time></trkpt><trkpt lat="43.7328504" lon="11.7630344"><ele>350.0</ele><time>2026-04-19T07:21:33.989Z</time></trkpt><trkpt lat="43.7327911" lon="11.7629294"><ele>350.0</ele><time>2026-04-19T07:21:36.959Z</time></trkpt><trkpt lat="43.7328117" lon="11.7627404"><ele>350.0</ele><time>2026-04-19T07:21:38.978Z</time></trkpt><trkpt lat="43.7328416" lon="11.7626122"><ele>350.0</ele><time>2026-04-19T07:21:39.977Z</time></trkpt><trkpt lat="43.7328763" lon="11.7624809"><ele>349.8</ele><time>2026-04-19T07:21:40.974Z</time></trkpt><trkpt lat="43.7329137" lon="11.7623466"><ele>349.6</ele><time>2026-04-19T07:21:41.974Z</time></trkpt><trkpt lat="43.7329563" lon="11.7622076"><ele>349.4</ele><time>2026-04-19T07:21:42.97Z</time></trkpt><trkpt lat="43.7329979" lon="11.7620619"><ele>349.2</ele><time>2026-04-19T07:21:43.969Z</time></trkpt><trkpt lat="43.7330369" lon="11.7619133"><ele>349.0</ele><time>2026-04-19T07:21:44.966Z</time></trkpt><trkpt lat="43.7330742" lon="11.7617579"><ele>348.75</ele><time>2026-04-19T07:21:45.986Z</time></trkpt><trkpt lat="43.7331209" lon="11.761594"><ele>348.5</ele><time>2026-04-19T07:21:46.982Z</time></trkpt><trkpt lat="43.7331843" lon="11.7614212"><ele>348.25</ele><time>2026-04-19T07:21:47.975Z</time></trkpt><trkpt lat="43.7332653" lon="11.7612484"><ele>348.0</ele><time>2026-04-19T07:21:48.977Z</time></trkpt><trkpt lat="43.7333493" lon="11.7610714"><ele>347.6666666666667</ele><time>2026-04-19T07:21:49.985Z</time></trkpt><trkpt lat="43.7334477" lon="11.7608942"><ele>347.33333333333337</ele><time>2026-04-19T07:21:50.987Z</time></trkpt><trkpt lat="43.73356" lon="11.7606975"><ele>347.0</ele><time>2026-04-19T07:21:51.983Z</time></trkpt><trkpt lat="43.733682" lon="11.7605001"><ele>348.0</ele><time>2026-04-19T07:21:52.976Z</time></trkpt><trkpt lat="43.7337944" lon="11.7602919"><ele>349.0</ele><time>2026-04-19T07:21:53.983Z</time></trkpt><trkpt lat="43.7338972" lon="11.7600551"><ele>350.0</ele><time>2026-04-19T07:21:54.986Z</time></trkpt><trkpt lat="43.7339842" lon="11.7597905"><ele>350.0</ele><time>2026-04-19T07:21:55.978Z</time></trkpt><trkpt lat="43.7340645" lon="11.7595407"><ele>350.0</ele><time>2026-04-19T07:21:56.984Z</time></trkpt><trkpt lat="43.7341336" lon="11.7592927"><ele>350.0</ele><time>2026-04-19T07:21:57.983Z</time></trkpt><trkpt lat="43.7342045" lon="11.7590541"><ele>350.0</ele><time>2026-04-19T07:21:58.987Z</time></trkpt><trkpt lat="43.734274" lon="11.7588044"><ele>350.0</ele><time>2026-04-19T07:21:59.989Z</time></trkpt><trkpt lat="43.7343582" lon="11.7585499"><ele>350.0</ele><time>2026-04-19T07:22:00.984Z</time></trkpt><trkpt lat="43.7344519" lon="11.7583153"><ele>351.6666666666667</ele><time>2026-04-19T07:22:01.981Z</time></trkpt><trkpt lat="43.7345507" lon="11.7581061"><ele>353.3333333333333</ele><time>2026-04-19T07:22:02.986Z</time></trkpt><trkpt lat="43.7346622" lon="11.7579132"><ele>355.0</ele><time>2026-04-19T07:22:03.976Z</time></trkpt><trkpt lat="43.73478" lon="11.757741"><ele>356.0</ele><time>2026-04-19T07:22:04.98Z</time></trkpt><trkpt lat="43.7348948" lon="11.7575628"><ele>357.0</ele><time>2026-04-19T07:22:05.981Z</time></trkpt><trkpt lat="43.735" lon="11.757363"><ele>358.0</ele><time>2026-04-19T07:22:06.984Z</time></trkpt><trkpt lat="43.7350923" lon="11.7571427"><ele>358.0</ele><time>2026-04-19T07:22:07.986Z</time></trkpt><trkpt lat="43.7351755" lon="11.75693"><ele>358.0</ele><time>2026-04-19T07:22:08.981Z</time></trkpt><trkpt lat="43.7352685" lon="11.7567373"><ele>358.0</ele><time>2026-04-19T07:22:09.973Z</time></trkpt><trkpt lat="43.7353789" lon="11.7565555"><ele>357.66666666666663</ele><time>2026-04-19T07:22:10.977Z</time></trkpt><trkpt lat="43.7354955" lon="11.7563903"><ele>357.3333333333333</ele><time>2026-04-19T07:22:11.979Z</time></trkpt><trkpt lat="43.7356095" lon="11.7562279"><ele>357.0</ele><time>2026-04-19T07:22:12.977Z</time></trkpt><trkpt lat="43.7357202" lon="11.7560633"><ele>357.0</ele><time>2026-04-19T07:22:13.983Z</time></trkpt><trkpt lat="43.7358246" lon="11.7558856"><ele>357.0</ele><time>2026-04-19T07:22:14.982Z</time></trkpt><trkpt lat="43.735918" lon="11.7557027"><ele>357.0</ele><time>2026-04-19T07:22:15.975Z</time></trkpt><trkpt lat="43.7360061" lon="11.7555158"><ele>357.0</ele><time>2026-04-19T07:22:16.982Z</time></trkpt><trkpt lat="43.7360878" lon="11.7553273"><ele>357.0</ele><time>2026-04-19T07:22:17.983Z</time></trkpt><trkpt lat="43.7361755" lon="11.7551427"><ele>357.0</ele><time>2026-04-19T07:22:18.979Z</time></trkpt><trkpt lat="43.7362713" lon="11.7549692"><ele>357.0</ele><time>2026-04-19T07:22:19.977Z</time></trkpt><trkpt lat="43.7363712" lon="11.7548129"><ele>357.0</ele><time>2026-04-19T07:22:20.97Z</time></trkpt><trkpt lat="43.7364946" lon="11.7546665"><ele>357.0</ele><time>2026-04-19T07:22:21.966Z</time></trkpt><trkpt lat="43.7366156" lon="11.7545171"><ele>357.0</ele><time>2026-04-19T07:22:22.98Z</time></trkpt><trkpt lat="43.736736" lon="11.7543803"><ele>357.0</ele><time>2026-04-19T07:22:23.959Z</time></trkpt><trkpt lat="43.7368495" lon="11.7542425"><ele>357.0</ele><time>2026-04-19T07:22:24.985Z</time></trkpt><trkpt lat="43.7369567" lon="11.7541126"><ele>357.0</ele><time>2026-04-19T07:22:25.977Z</time></trkpt><trkpt lat="43.7370573" lon="11.7539895"><ele>357.5</ele><time>2026-04-19T07:22:26.968Z</time></trkpt><trkpt lat="43.7371489" lon="11.753867"><ele>358.0</ele><time>2026-04-19T07:22:27.979Z</time></trkpt><trkpt lat="43.7372251" lon="11.7537518"><ele>358.5</ele><time>2026-04-19T07:22:28.969Z</time></trkpt><trkpt lat="43.7373026" lon="11.7536341"><ele>359.0</ele><time>2026-04-19T07:22:29.966Z</time></trkpt><trkpt lat="43.7373781" lon="11.7535058"><ele>358.79999999999995</ele><time>2026-04-19T07:22:30.959Z</time></trkpt><trkpt lat="43.7374609" lon="11.7533885"><ele>358.59999999999997</ele><time>2026-04-19T07:22:31.972Z</time></trkpt><trkpt lat="43.7375519" lon="11.7532854"><ele>358.4</ele><time>2026-04-19T07:22:32.988Z</time></trkpt><trkpt lat="43.7376358" lon="11.7532067"><ele>358.2</ele><time>2026-04-19T07:22:33.961Z</time></trkpt><trkpt lat="43.7377205" lon="11.7531421"><ele>358.0</ele><time>2026-04-19T07:22:34.966Z</time></trkpt><trkpt lat="43.7378088" lon="11.7531216"><ele>358.0</ele><time>2026-04-19T07:22:35.977Z</time></trkpt><trkpt lat="43.7379142" lon="11.753127"><ele>358.0</ele><time>2026-04-19T07:22:36.961Z</time></trkpt><trkpt lat="43.7379997" lon="11.7531166"><ele>358.0</ele><time>2026-04-19T07:22:37.99Z</time></trkpt><trkpt lat="43.7380709" lon="11.7530686"><ele>358.0</ele><time>2026-04-19T07:22:38.98Z</time></trkpt><trkpt lat="43.7381225" lon="11.7529968"><ele>358.0</ele><time>2026-04-19T07:22:39.974Z</time></trkpt><trkpt lat="43.7381585" lon="11.752905"><ele>358.0</ele><time>2026-04-19T07:22:40.998Z</time></trkpt><trkpt lat="43.7381742" lon="11.7528128"><ele>357.79999999999995</ele><time>2026-04-19T07:22:41.975Z</time></trkpt><trkpt lat="43.7381435" lon="11.7526529"><ele>357.6</ele><time>2026-04-19T07:22:43.959Z</time></trkpt><trkpt lat="43.7380457" lon="11.7525582"><ele>357.4</ele><time>2026-04-19T07:22:45.982Z</time></trkpt><trkpt lat="43.7379754" lon="11.7525278"><ele>357.20000000000005</ele><time>2026-04-19T07:22:46.965Z</time></trkpt><trkpt lat="43.7378947" lon="11.7524797"><ele>357.0</ele><time>2026-04-19T07:22:47.96Z</time></trkpt><trkpt lat="43.7378237" lon="11.7524111"><ele>357.0</ele><time>2026-04-19T07:22:48.971Z</time></trkpt><trkpt lat="43.7377638" lon="11.7523436"><ele>357.0</ele><time>2026-04-19T07:22:49.978Z</time></trkpt><trkpt lat="43.7377093" lon="11.7522543"><ele>357.0</ele><time>2026-04-19T07:22:50.966Z</time></trkpt><trkpt lat="43.7376809" lon="11.7521246"><ele>357.0</ele><time>2026-04-19T07:22:51.978Z</time></trkpt><trkpt lat="43.7376643" lon="11.7519825"><ele>357.0</ele><time>2026-04-19T07:22:52.967Z</time></trkpt><trkpt lat="43.7376758" lon="11.751832"><ele>357.0</ele><time>2026-04-19T07:22:53.972Z</time></trkpt><trkpt lat="43.7377142" lon="11.7516386"><ele>357.0</ele><time>2026-04-19T07:22:54.974Z</time></trkpt><trkpt lat="43.7377561" lon="11.7514254"><ele>357.0</ele><time>2026-04-19T07:22:55.976Z</time></trkpt><trkpt lat="43.7378007" lon="11.7511991"><ele>358.0</ele><time>2026-04-19T07:22:56.977Z</time></trkpt><trkpt lat="43.7378486" lon="11.7509631"><ele>359.0</ele><time>2026-04-19T07:22:57.982Z</time></trkpt><trkpt lat="43.7378983" lon="11.7507169"><ele>360.0</ele><time>2026-04-19T07:22:58.961Z</time></trkpt><trkpt lat="43.737945" lon="11.7504624"><ele>359.0</ele><time>2026-04-19T07:22:59.976Z</time></trkpt><trkpt lat="43.7379981" lon="11.7501954"><ele>358.0</ele><time>2026-04-19T07:23:00.969Z</time></trkpt><trkpt lat="43.7380535" lon="11.7499154"><ele>357.0</ele><time>2026-04-19T07:23:01.977Z</time></trkpt><trkpt lat="43.7381114" lon="11.7496318"><ele>355.5</ele><time>2026-04-19T07:23:02.98Z</time></trkpt><trkpt lat="43.7381798" lon="11.749335"><ele>354.0</ele><time>2026-04-19T07:23:03.969Z</time></trkpt><trkpt lat="43.7382631" lon="11.7490434"><ele>354.0</ele><time>2026-04-19T07:23:04.97Z</time></trkpt><trkpt lat="43.738353" lon="11.7487431"><ele>354.0</ele><time>2026-04-19T07:23:05.975Z</time></trkpt><trkpt lat="43.7384446" lon="11.7484419"><ele>354.0</ele><time>2026-04-19T07:23:06.974Z</time></trkpt><trkpt lat="43.7385358" lon="11.7481255"><ele>354.0</ele><time>2026-04-19T07:23:07.973Z</time></trkpt><trkpt lat="43.7386233" lon="11.7478244"><ele>354.0</ele><time>2026-04-19T07:23:08.97Z</time></trkpt><trkpt lat="43.7387124" lon="11.7475304"><ele>354.0</ele><time>2026-04-19T07:23:09.967Z</time></trkpt><trkpt lat="43.7388012" lon="11.747229"><ele>354.0</ele><time>2026-04-19T07:23:10.967Z</time></trkpt><trkpt lat="43.7388921" lon="11.7469208"><ele>354.0</ele><time>2026-04-19T07:23:11.964Z</time></trkpt><trkpt lat="43.7389841" lon="11.7466134"><ele>354.0</ele><time>2026-04-19T07:23:12.97Z</time></trkpt><trkpt lat="43.7390704" lon="11.7463034"><ele>354.0</ele><time>2026-04-19T07:23:13.969Z</time></trkpt><trkpt lat="43.7391577" lon="11.745998"><ele>354.0</ele><time>2026-04-19T07:23:14.975Z</time></trkpt><trkpt lat="43.7392463" lon="11.7456922"><ele>354.0</ele><time>2026-04-19T07:23:15.985Z</time></trkpt><trkpt lat="43.7393339" lon="11.7453787"><ele>354.5</ele><time>2026-04-19T07:23:16.986Z</time></trkpt><trkpt lat="43.7394237" lon="11.7450582"><ele>355.0</ele><time>2026-04-19T07:23:17.984Z</time></trkpt><trkpt lat="43.7395165" lon="11.7447328"><ele>355.0</ele><time>2026-04-19T07:23:18.982Z</time></trkpt><trkpt lat="43.7396165" lon="11.7444132"><ele>355.0</ele><time>2026-04-19T07:23:19.983Z</time></trkpt><trkpt lat="43.7397147" lon="11.7441125"><ele>354.66666666666663</ele><time>2026-04-19T07:23:20.99Z</time></trkpt><trkpt lat="43.7398024" lon="11.743823"><ele>354.3333333333333</ele><time>2026-04-19T07:23:21.967Z</time></trkpt><trkpt lat="43.7398814" lon="11.7435485"><ele>354.0</ele><time>2026-04-19T07:23:22.987Z</time></trkpt><trkpt lat="43.7399578" lon="11.7432806"><ele>353.6666666666667</ele><time>2026-04-19T07:23:23.982Z</time></trkpt><trkpt lat="43.7400373" lon="11.7430123"><ele>353.33333333333337</ele><time>2026-04-19T07:23:24.985Z</time></trkpt><trkpt lat="43.7401198" lon="11.7427371"><ele>353.0</ele><time>2026-04-19T07:23:25.987Z</time></trkpt><trkpt lat="43.7402064" lon="11.7424597"><ele>353.0</ele><time>2026-04-19T07:23:26.992Z</time></trkpt><trkpt lat="43.7402917" lon="11.7421772"><ele>353.0</ele><time>2026-04-19T07:23:27.983Z</time></trkpt><trkpt lat="43.7403699" lon="11.7419036"><ele>353.0</ele><time>2026-04-19T07:23:28.988Z</time></trkpt><trkpt lat="43.7404431" lon="11.741643"><ele>352.6666666666667</ele><time>2026-04-19T07:23:29.974Z</time></trkpt><trkpt lat="43.7405144" lon="11.7414172"><ele>352.3333333333333</ele><time>2026-04-19T07:23:30.99Z</time></trkpt><trkpt lat="43.740569" lon="11.7412195"><ele>352.0</ele><time>2026-04-19T07:23:31.987Z</time></trkpt><trkpt lat="43.7406092" lon="11.7410445"><ele>351.75</ele><time>2026-04-19T07:23:32.993Z</time></trkpt><trkpt lat="43.7406263" lon="11.7408595"><ele>351.5</ele><time>2026-04-19T07:23:33.98Z</time></trkpt><trkpt lat="43.7406093" lon="11.740668"><ele>351.25</ele><time>2026-04-19T07:23:34.982Z</time></trkpt><trkpt lat="43.7405802" lon="11.7404639"><ele>351.0</ele><time>2026-04-19T07:23:35.987Z</time></trkpt><trkpt lat="43.7405566" lon="11.7402644"><ele>351.0</ele><time>2026-04-19T07:23:36.986Z</time></trkpt><trkpt lat="43.7405379" lon="11.7401067"><ele>351.0</ele><time>2026-04-19T07:23:37.981Z</time></trkpt><trkpt lat="43.7405417" lon="11.73996"><ele>351.0</ele><time>2026-04-19T07:23:38.982Z</time></trkpt><trkpt lat="43.7405738" lon="11.7398051"><ele>351.0</ele><time>2026-04-19T07:23:39.987Z</time></trkpt><trkpt lat="43.740634" lon="11.7396529"><ele>351.0</ele><time>2026-04-19T07:23:40.986Z</time></trkpt><trkpt lat="43.7407152" lon="11.7395113"><ele>351.0</ele><time>2026-04-19T07:23:41.977Z</time></trkpt><trkpt lat="43.7408342" lon="11.7393633"><ele>351.0</ele><time>2026-04-19T07:23:42.972Z</time></trkpt><trkpt lat="43.7409767" lon="11.7392125"><ele>352.0</ele><time>2026-04-19T07:23:43.97Z</time></trkpt><trkpt lat="43.7411238" lon="11.7390587"><ele>353.0</ele><time>2026-04-19T07:23:44.986Z</time></trkpt><trkpt lat="43.7412784" lon="11.738898"><ele>354.0</ele><time>2026-04-19T07:23:45.988Z</time></trkpt><trkpt lat="43.741443" lon="11.7387359"><ele>354.0</ele><time>2026-04-19T07:23:46.972Z</time></trkpt><trkpt lat="43.74161" lon="11.7385623"><ele>354.0</ele><time>2026-04-19T07:23:47.99Z</time></trkpt><trkpt lat="43.7417849" lon="11.7383843"><ele>354.0</ele><time>2026-04-19T07:23:48.975Z</time></trkpt><trkpt lat="43.7419495" lon="11.7382137"><ele>354.3333333333333</ele><time>2026-04-19T07:23:49.982Z</time></trkpt><trkpt lat="43.7421054" lon="11.7380522"><ele>354.66666666666663</ele><time>2026-04-19T07:23:50.978Z</time></trkpt><trkpt lat="43.7422658" lon="11.737888"><ele>355.0</ele><time>2026-04-19T07:23:51.987Z</time></trkpt><trkpt lat="43.7424224" lon="11.737734"><ele>354.66666666666663</ele><time>2026-04-19T07:23:52.982Z</time></trkpt><trkpt lat="43.742569" lon="11.7375876"><ele>354.3333333333333</ele><time>2026-04-19T07:23:53.985Z</time></trkpt><trkpt lat="43.7427025" lon="11.7374512"><ele>354.0</ele><time>2026-04-19T07:23:54.973Z</time></trkpt><trkpt lat="43.7428235" lon="11.7373055"><ele>354.0</ele><time>2026-04-19T07:23:55.977Z</time></trkpt><trkpt lat="43.7429422" lon="11.7371382"><ele>354.0</ele><time>2026-04-19T07:23:56.981Z</time></trkpt><trkpt lat="43.7430366" lon="11.7369629"><ele>354.0</ele><time>2026-04-19T07:23:57.987Z</time></trkpt><trkpt lat="43.7431062" lon="11.7367779"><ele>355.0</ele><time>2026-04-19T07:23:58.993Z</time></trkpt><trkpt lat="43.7431537" lon="11.7365668"><ele>356.0</ele><time>2026-04-19T07:23:59.967Z</time></trkpt><trkpt lat="43.743165" lon="11.7363381"><ele>357.0</ele><time>2026-04-19T07:24:00.99Z</time></trkpt><trkpt lat="43.7431712" lon="11.736101"><ele>358.5</ele><time>2026-04-19T07:24:01.989Z</time></trkpt><trkpt lat="43.7431721" lon="11.7358629"><ele>360.0</ele><time>2026-04-19T07:24:02.989Z</time></trkpt><trkpt lat="43.7431766" lon="11.7356755"><ele>361.5</ele><time>2026-04-19T07:24:03.965Z</time></trkpt><trkpt lat="43.7432136" lon="11.7355005"><ele>363.0</ele><time>2026-04-19T07:24:04.963Z</time></trkpt><trkpt lat="43.7432661" lon="11.7353566"><ele>363.75</ele><time>2026-04-19T07:24:05.962Z</time></trkpt><trkpt lat="43.7433398" lon="11.7352021"><ele>364.5</ele><time>2026-04-19T07:24:06.963Z</time></trkpt><trkpt lat="43.7434133" lon="11.7350221"><ele>365.25</ele><time>2026-04-19T07:24:07.974Z</time></trkpt><trkpt lat="43.7434893" lon="11.7348226"><ele>366.0</ele><time>2026-04-19T07:24:08.978Z</time></trkpt><trkpt lat="43.7435721" lon="11.7346171"><ele>367.3333333333333</ele><time>2026-04-19T07:24:09.965Z</time></trkpt><trkpt lat="43.7436642" lon="11.734392"><ele>368.66666666666663</ele><time>2026-04-19T07:24:10.98Z</time></trkpt><trkpt lat="43.7437543" lon="11.7341513"><ele>370.0</ele><time>2026-04-19T07:24:11.983Z</time></trkpt><trkpt lat="43.7438389" lon="11.7339037"><ele>371.66666666666663</ele><time>2026-04-19T07:24:12.98Z</time></trkpt><trkpt lat="43.7439201" lon="11.733662"><ele>373.3333333333333</ele><time>2026-04-19T07:24:13.983Z</time></trkpt><trkpt lat="43.7439996" lon="11.7334191"><ele>375.0</ele><time>2026-04-19T07:24:14.984Z</time></trkpt><trkpt lat="43.7440815" lon="11.7331847"><ele>375.3333333333333</ele><time>2026-04-19T07:24:15.992Z</time></trkpt><trkpt lat="43.7441581" lon="11.7329525"><ele>375.66666666666663</ele><time>2026-04-19T07:24:16.964Z</time></trkpt><trkpt lat="43.7442407" lon="11.7327284"><ele>376.0</ele><time>2026-04-19T07:24:17.979Z</time></trkpt><trkpt lat="43.7443316" lon="11.732513"><ele>381.0</ele><time>2026-04-19T07:24:18.973Z</time></trkpt><trkpt lat="43.7444277" lon="11.7322967"><ele>386.0</ele><time>2026-04-19T07:24:19.998Z</time></trkpt><trkpt lat="43.7445285" lon="11.7320769"><ele>391.0</ele><time>2026-04-19T07:24:20.964Z</time></trkpt><trkpt lat="43.7446333" lon="11.7318552"><ele>391.0</ele><time>2026-04-19T07:24:21.964Z</time></trkpt><trkpt lat="43.744737" lon="11.7316265"><ele>391.0</ele><time>2026-04-19T07:24:22.997Z</time></trkpt><trkpt lat="43.7448384" lon="11.7313882"><ele>391.0</ele><time>2026-04-19T07:24:23.982Z</time></trkpt><trkpt lat="43.7449313" lon="11.7311207"><ele>389.6666666666667</ele><time>2026-04-19T07:24:24.972Z</time></trkpt><trkpt lat="43.7450118" lon="11.7308448"><ele>388.33333333333337</ele><time>2026-04-19T07:24:25.966Z</time></trkpt><trkpt lat="43.7450823" lon="11.7305516"><ele>387.0</ele><time>2026-04-19T07:24:26.978Z</time></trkpt><trkpt lat="43.7451521" lon="11.7302469"><ele>392.0</ele><time>2026-04-19T07:24:27.972Z</time></trkpt><trkpt lat="43.7452157" lon="11.7299643"><ele>397.0</ele><time>2026-04-19T07:24:28.966Z</time></trkpt><trkpt lat="43.7452716" lon="11.7297157"><ele>402.0</ele><time>2026-04-19T07:24:29.974Z</time></trkpt><trkpt lat="43.7453404" lon="11.7294994"><ele>401.0</ele><time>2026-04-19T07:24:30.976Z</time></trkpt><trkpt lat="43.7454248" lon="11.7292818"><ele>400.0</ele><time>2026-04-19T07:24:31.979Z</time></trkpt><trkpt lat="43.7455407" lon="11.7290874"><ele>399.0</ele><time>2026-04-19T07:24:32.981Z</time></trkpt><trkpt lat="43.7456771" lon="11.7289163"><ele>399.0</ele><time>2026-04-19T07:24:33.982Z</time></trkpt><trkpt lat="43.7458286" lon="11.7287515"><ele>399.0</ele><time>2026-04-19T07:24:34.974Z</time></trkpt><trkpt lat="43.7459851" lon="11.7285698"><ele>399.0</ele><time>2026-04-19T07:24:35.964Z</time></trkpt><trkpt lat="43.746139" lon="11.7283644"><ele>401.66666666666663</ele><time>2026-04-19T07:24:36.98Z</time></trkpt><trkpt lat="43.7462769" lon="11.7281464"><ele>404.3333333333333</ele><time>2026-04-19T07:24:37.976Z</time></trkpt><trkpt lat="43.7463972" lon="11.7279396"><ele>407.0</ele><time>2026-04-19T07:24:38.981Z</time></trkpt><trkpt lat="43.7465061" lon="11.7277414"><ele>406.66666666666663</ele><time>2026-04-19T07:24:39.972Z</time></trkpt><trkpt lat="43.7466011" lon="11.7275665"><ele>406.33333333333337</ele><time>2026-04-19T07:24:40.983Z</time></trkpt><trkpt lat="43.7466968" lon="11.7273981"><ele>406.0</ele><time>2026-04-19T07:24:41.985Z</time></trkpt><trkpt lat="43.746782" lon="11.7272457"><ele>406.0</ele><time>2026-04-19T07:24:42.976Z</time></trkpt><trkpt lat="43.7468651" lon="11.7271035"><ele>406.0</ele><time>2026-04-19T07:24:43.984Z</time></trkpt><trkpt lat="43.7469367" lon="11.726967"><ele>406.0</ele><time>2026-04-19T07:24:44.966Z</time></trkpt><trkpt lat="43.7470113" lon="11.7268366"><ele>406.0</ele><time>2026-04-19T07:24:45.977Z</time></trkpt><trkpt lat="43.7470958" lon="11.7267155"><ele>408.0</ele><time>2026-04-19T07:24:46.97Z</time></trkpt><trkpt lat="43.7471848" lon="11.7266098"><ele>410.0</ele><time>2026-04-19T07:24:47.975Z</time></trkpt><trkpt lat="43.7472819" lon="11.7265249"><ele>412.0</ele><time>2026-04-19T07:24:48.969Z</time></trkpt><trkpt lat="43.7473902" lon="11.7264718"><ele>414.0</ele><time>2026-04-19T07:24:49.968Z</time></trkpt><trkpt lat="43.7474997" lon="11.726444"><ele>414.0</ele><time>2026-04-19T07:24:50.969Z</time></trkpt><trkpt lat="43.7476103" lon="11.726435"><ele>414.0</ele><time>2026-04-19T07:24:51.979Z</time></trkpt><trkpt lat="43.7477223" lon="11.72643"><ele>414.0</ele><time>2026-04-19T07:24:52.977Z</time></trkpt><trkpt lat="43.7478246" lon="11.7264036"><ele>414.0</ele><time>2026-04-19T07:24:53.979Z</time></trkpt><trkpt lat="43.7479194" lon="11.7263601"><ele>414.0</ele><time>2026-04-19T07:24:54.991Z</time></trkpt><trkpt lat="43.7481098" lon="11.7262293"><ele>413.6</ele><time>2026-04-19T07:24:56.974Z</time></trkpt><trkpt lat="43.7482027" lon="11.7261482"><ele>413.2</ele><time>2026-04-19T07:24:57.979Z</time></trkpt><trkpt lat="43.7482957" lon="11.726072"><ele>412.8</ele><time>2026-04-19T07:24:58.975Z</time></trkpt><trkpt lat="43.7483894" lon="11.7260003"><ele>412.40000000000003</ele><time>2026-04-19T07:24:59.977Z</time></trkpt><trkpt lat="43.7484873" lon="11.7259577"><ele>412.0</ele><time>2026-04-19T07:25:00.977Z</time></trkpt><trkpt lat="43.748592" lon="11.7259364"><ele>413.1666666666667</ele><time>2026-04-19T07:25:01.973Z</time></trkpt><trkpt lat="43.7486892" lon="11.7259474"><ele>414.33333333333337</ele><time>2026-04-19T07:25:02.979Z</time></trkpt><trkpt lat="43.7487743" lon="11.7259646"><ele>415.5</ele><time>2026-04-19T07:25:03.98Z</time></trkpt><trkpt lat="43.7488456" lon="11.7259623"><ele>416.66666666666663</ele><time>2026-04-19T07:25:04.975Z</time></trkpt><trkpt lat="43.7489113" lon="11.7259324"><ele>417.8333333333333</ele><time>2026-04-19T07:25:05.979Z</time></trkpt><trkpt lat="43.7489714" lon="11.7258832"><ele>419.0</ele><time>2026-04-19T07:25:06.97Z</time></trkpt><trkpt lat="43.7490323" lon="11.7258201"><ele>418.99999999999994</ele><time>2026-04-19T07:25:07.983Z</time></trkpt><trkpt lat="43.749092" lon="11.7257484"><ele>419.0</ele><time>2026-04-19T07:25:08.974Z</time></trkpt><trkpt lat="43.749149" lon="11.7256765"><ele>419.0</ele><time>2026-04-19T07:25:09.97Z</time></trkpt><trkpt lat="43.7492044" lon="11.7256104"><ele>419.0</ele><time>2026-04-19T07:25:10.988Z</time></trkpt><trkpt lat="43.7492517" lon="11.7255434"><ele>418.99999999999994</ele><time>2026-04-19T07:25:11.981Z</time></trkpt><trkpt lat="43.7492999" lon="11.7254801"><ele>419.0</ele><time>2026-04-19T07:25:12.968Z</time></trkpt><trkpt lat="43.7493934" lon="11.725357"><ele>419.66666666666663</ele><time>2026-04-19T07:25:14.983Z</time></trkpt><trkpt lat="43.7494485" lon="11.7253107"><ele>420.3333333333333</ele><time>2026-04-19T07:25:15.978Z</time></trkpt><trkpt lat="43.749503" lon="11.7252523"><ele>421.0</ele><time>2026-04-19T07:25:16.965Z</time></trkpt><trkpt lat="43.7495499" lon="11.7251871"><ele>421.66666666666663</ele><time>2026-04-19T07:25:17.972Z</time></trkpt><trkpt lat="43.7496066" lon="11.7250612"><ele>422.3333333333333</ele><time>2026-04-19T07:25:19.974Z</time></trkpt><trkpt lat="43.7496739" lon="11.7249765"><ele>423.0</ele><time>2026-04-19T07:25:21.973Z</time></trkpt><trkpt lat="43.7497361" lon="11.7249109"><ele>423.0</ele><time>2026-04-19T07:25:23.974Z</time></trkpt><trkpt lat="43.7497855" lon="11.7248367"><ele>423.0</ele><time>2026-04-19T07:25:25.963Z</time></trkpt><trkpt lat="43.7498435" lon="11.7247517"><ele>423.0</ele><time>2026-04-19T07:25:27.96Z</time></trkpt><trkpt lat="43.7498786" lon="11.7246789"><ele>423.0</ele><time>2026-04-19T07:25:28.979Z</time></trkpt><trkpt lat="43.7499289" lon="11.7245951"><ele>423.0</ele><time>2026-04-19T07:25:31.961Z</time></trkpt><trkpt lat="43.7500023" lon="11.7245609"><ele>423.0</ele><time>2026-04-19T07:25:33.987Z</time></trkpt><trkpt lat="43.7501455" lon="11.7244484"><ele>424.0</ele><time>2026-04-19T07:25:35.984Z</time></trkpt><trkpt lat="43.7502391" lon="11.72437"><ele>425.0</ele><time>2026-04-19T07:25:36.967Z</time></trkpt><trkpt lat="43.7503532" lon="11.7242684"><ele>426.0</ele><time>2026-04-19T07:25:37.955Z</time></trkpt><trkpt lat="43.7504789" lon="11.7241676"><ele>427.0</ele><time>2026-04-19T07:25:38.968Z</time></trkpt><trkpt lat="43.7505909" lon="11.7240518"><ele>427.0</ele><time>2026-04-19T07:25:39.959Z</time></trkpt><trkpt lat="43.7507176" lon="11.7239497"><ele>427.0</ele><time>2026-04-19T07:25:40.962Z</time></trkpt><trkpt lat="43.7508452" lon="11.7238649"><ele>427.0</ele><time>2026-04-19T07:25:41.972Z</time></trkpt><trkpt lat="43.7509704" lon="11.7237844"><ele>427.0</ele><time>2026-04-19T07:25:42.969Z</time></trkpt><trkpt lat="43.7510992" lon="11.7237003"><ele>426.33333333333337</ele><time>2026-04-19T07:25:43.975Z</time></trkpt><trkpt lat="43.7512349" lon="11.7236116"><ele>425.66666666666663</ele><time>2026-04-19T07:25:44.982Z</time></trkpt><trkpt lat="43.7513766" lon="11.723512"><ele>425.0</ele><time>2026-04-19T07:25:45.959Z</time></trkpt><trkpt lat="43.7515266" lon="11.7233997"><ele>425.0</ele><time>2026-04-19T07:25:46.978Z</time></trkpt><trkpt lat="43.7516808" lon="11.7232844"><ele>425.0</ele><time>2026-04-19T07:25:47.97Z</time></trkpt><trkpt lat="43.7518352" lon="11.7231771"><ele>425.0</ele><time>2026-04-19T07:25:48.98Z</time></trkpt><trkpt lat="43.7519843" lon="11.7230778"><ele>424.75</ele><time>2026-04-19T07:25:49.982Z</time></trkpt><trkpt lat="43.7521227" lon="11.72299"><ele>424.5</ele><time>2026-04-19T07:25:50.987Z</time></trkpt><trkpt lat="43.7522493" lon="11.722906"><ele>424.25</ele><time>2026-04-19T07:25:51.99Z</time></trkpt><trkpt lat="43.7523624" lon="11.7228022"><ele>424.0</ele><time>2026-04-19T07:25:52.964Z</time></trkpt><trkpt lat="43.7524681" lon="11.7226796"><ele>424.0</ele><time>2026-04-19T07:25:53.99Z</time></trkpt><trkpt lat="43.7525584" lon="11.7225427"><ele>424.0</ele><time>2026-04-19T07:25:54.963Z</time></trkpt><trkpt lat="43.7526258" lon="11.7224011"><ele>424.0</ele><time>2026-04-19T07:25:55.964Z</time></trkpt><trkpt lat="43.7526787" lon="11.72224"><ele>424.0</ele><time>2026-04-19T07:25:56.97Z</time></trkpt><trkpt lat="43.7527229" lon="11.7220587"><ele>427.25</ele><time>2026-04-19T07:25:57.977Z</time></trkpt><trkpt lat="43.7527702" lon="11.7218658"><ele>430.5</ele><time>2026-04-19T07:25:58.978Z</time></trkpt><trkpt lat="43.7528287" lon="11.7216903"><ele>433.75</ele><time>2026-04-19T07:25:59.971Z</time></trkpt><trkpt lat="43.7529062" lon="11.7215405"><ele>437.0</ele><time>2026-04-19T07:26:00.977Z</time></trkpt><trkpt lat="43.7530091" lon="11.7214344"><ele>437.0</ele><time>2026-04-19T07:26:01.963Z</time></trkpt><trkpt lat="43.7531479" lon="11.7213433"><ele>437.0</ele><time>2026-04-19T07:26:02.985Z</time></trkpt><trkpt lat="43.7532922" lon="11.7212405"><ele>437.0</ele><time>2026-04-19T07:26:03.962Z</time></trkpt><trkpt lat="43.753406" lon="11.721072"><ele>436.66666666666663</ele><time>2026-04-19T07:26:04.977Z</time></trkpt><trkpt lat="43.7535022" lon="11.720859"><ele>436.33333333333337</ele><time>2026-04-19T07:26:05.966Z</time></trkpt><trkpt lat="43.7535871" lon="11.7206179"><ele>436.0</ele><time>2026-04-19T07:26:06.994Z</time></trkpt><trkpt lat="43.7536678" lon="11.7204036"><ele>438.0</ele><time>2026-04-19T07:26:07.979Z</time></trkpt><trkpt lat="43.7537306" lon="11.7202351"><ele>440.0</ele><time>2026-04-19T07:26:08.98Z</time></trkpt><trkpt lat="43.7538128" lon="11.7200995"><ele>442.0</ele><time>2026-04-19T07:26:09.958Z</time></trkpt><trkpt lat="43.7539287" lon="11.7199815"><ele>444.0</ele><time>2026-04-19T07:26:10.984Z</time></trkpt><trkpt lat="43.7540505" lon="11.7199092"><ele>444.0</ele><time>2026-04-19T07:26:11.975Z</time></trkpt><trkpt lat="43.7542089" lon="11.7198628"><ele>444.0</ele><time>2026-04-19T07:26:12.978Z</time></trkpt><trkpt lat="43.754382" lon="11.7198268"><ele>444.0</ele><time>2026-04-19T07:26:13.985Z</time></trkpt><trkpt lat="43.7545507" lon="11.7197757"><ele>444.66666666666663</ele><time>2026-04-19T07:26:14.971Z</time></trkpt><trkpt lat="43.754714" lon="11.7196913"><ele>445.3333333333333</ele><time>2026-04-19T07:26:15.982Z</time></trkpt><trkpt lat="43.7548679" lon="11.7195714"><ele>446.0</ele><time>2026-04-19T07:26:16.97Z</time></trkpt><trkpt lat="43.7550254" lon="11.7193831"><ele>446.0</ele><time>2026-04-19T07:26:17.981Z</time></trkpt><trkpt lat="43.7551708" lon="11.719161"><ele>446.0</ele><time>2026-04-19T07:26:18.982Z</time></trkpt><trkpt lat="43.7553022" lon="11.7189611"><ele>446.0</ele><time>2026-04-19T07:26:19.994Z</time></trkpt><trkpt lat="43.7554072" lon="11.7187685"><ele>451.3333333333333</ele><time>2026-04-19T07:26:20.982Z</time></trkpt><trkpt lat="43.7554839" lon="11.7185538"><ele>456.66666666666663</ele><time>2026-04-19T07:26:21.984Z</time></trkpt><trkpt lat="43.7555356" lon="11.7183321"><ele>462.0</ele><time>2026-04-19T07:26:22.971Z</time></trkpt><trkpt lat="43.7555815" lon="11.7181584"><ele>462.0</ele><time>2026-04-19T07:26:23.978Z</time></trkpt><trkpt lat="43.7556562" lon="11.7180191"><ele>462.0</ele><time>2026-04-19T07:26:24.962Z</time></trkpt><trkpt lat="43.7557584" lon="11.7178795"><ele>462.0</ele><time>2026-04-19T07:26:25.971Z</time></trkpt><trkpt lat="43.7558869" lon="11.7177425"><ele>462.0</ele><time>2026-04-19T07:26:26.983Z</time></trkpt><trkpt lat="43.7560371" lon="11.7176245"><ele>464.0</ele><time>2026-04-19T07:26:27.977Z</time></trkpt><trkpt lat="43.7562162" lon="11.7175343"><ele>466.0</ele><time>2026-04-19T07:26:28.976Z</time></trkpt><trkpt lat="43.7563922" lon="11.7174463"><ele>468.0</ele><time>2026-04-19T07:26:29.977Z</time></trkpt><trkpt lat="43.7565692" lon="11.7173853"><ele>468.0</ele><time>2026-04-19T07:26:30.978Z</time></trkpt><trkpt lat="43.7567495" lon="11.7173687"><ele>468.0</ele><time>2026-04-19T07:26:31.981Z</time></trkpt><trkpt lat="43.7569171" lon="11.7174028"><ele>468.0</ele><time>2026-04-19T07:26:32.97Z</time></trkpt><trkpt lat="43.7570868" lon="11.7173893"><ele>471.66666666666663</ele><time>2026-04-19T07:26:33.975Z</time></trkpt><trkpt lat="43.7572578" lon="11.717339"><ele>475.3333333333333</ele><time>2026-04-19T07:26:34.98Z</time></trkpt><trkpt lat="43.7574326" lon="11.7172325"><ele>479.0</ele><time>2026-04-19T07:26:35.987Z</time></trkpt><trkpt lat="43.7576089" lon="11.7171173"><ele>482.0</ele><time>2026-04-19T07:26:36.964Z</time></trkpt><trkpt lat="43.7577916" lon="11.7170051"><ele>485.0</ele><time>2026-04-19T07:26:37.971Z</time></trkpt><trkpt lat="43.7579645" lon="11.7168943"><ele>488.0</ele><time>2026-04-19T07:26:38.981Z</time></trkpt><trkpt lat="43.7581234" lon="11.7167506"><ele>488.0</ele><time>2026-04-19T07:26:39.958Z</time></trkpt><trkpt lat="43.7582786" lon="11.7165625"><ele>488.0</ele><time>2026-04-19T07:26:40.974Z</time></trkpt><trkpt lat="43.758417" lon="11.7163713"><ele>488.0</ele><time>2026-04-19T07:26:41.975Z</time></trkpt><trkpt lat="43.7585375" lon="11.7161759"><ele>492.0</ele><time>2026-04-19T07:26:42.971Z</time></trkpt><trkpt lat="43.7586326" lon="11.7159804"><ele>496.0</ele><time>2026-04-19T07:26:43.978Z</time></trkpt><trkpt lat="43.7586928" lon="11.7158018"><ele>500.0</ele><time>2026-04-19T07:26:44.967Z</time></trkpt><trkpt lat="43.7587324" lon="11.715613"><ele>500.0</ele><time>2026-04-19T07:26:45.972Z</time></trkpt><trkpt lat="43.7587362" lon="11.7153991"><ele>500.0</ele><time>2026-04-19T07:26:46.981Z</time></trkpt><trkpt lat="43.7587008" lon="11.7151809"><ele>500.0</ele><time>2026-04-19T07:26:47.993Z</time></trkpt><trkpt lat="43.7586638" lon="11.7149462"><ele>500.66666666666663</ele><time>2026-04-19T07:26:48.98Z</time></trkpt><trkpt lat="43.7586373" lon="11.7147275"><ele>501.33333333333337</ele><time>2026-04-19T07:26:49.983Z</time></trkpt><trkpt lat="43.7586515" lon="11.7145055"><ele>502.0</ele><time>2026-04-19T07:26:50.961Z</time></trkpt><trkpt lat="43.7586854" lon="11.7142564"><ele>502.0</ele><time>2026-04-19T07:26:51.979Z</time></trkpt><trkpt lat="43.7587345" lon="11.7140005"><ele>502.0</ele><time>2026-04-19T07:26:52.978Z</time></trkpt><trkpt lat="43.7587734" lon="11.713763"><ele>502.0</ele><time>2026-04-19T07:26:53.982Z</time></trkpt><trkpt lat="43.7588278" lon="11.7135766"><ele>499.6666666666667</ele><time>2026-04-19T07:26:54.964Z</time></trkpt><trkpt lat="43.7589196" lon="11.7134022"><ele>497.33333333333337</ele><time>2026-04-19T07:26:55.969Z</time></trkpt><trkpt lat="43.75903" lon="11.7132475"><ele>495.0</ele><time>2026-04-19T07:26:56.98Z</time></trkpt><trkpt lat="43.7591413" lon="11.7130909"><ele>495.0</ele><time>2026-04-19T07:26:57.971Z</time></trkpt><trkpt lat="43.7592288" lon="11.7128813"><ele>495.0</ele><time>2026-04-19T07:26:58.963Z</time></trkpt><trkpt lat="43.7592982" lon="11.7126158"><ele>495.0</ele><time>2026-04-19T07:26:59.982Z</time></trkpt><trkpt lat="43.7593697" lon="11.7123457"><ele>497.0</ele><time>2026-04-19T07:27:00.976Z</time></trkpt><trkpt lat="43.7594426" lon="11.7120788"><ele>499.0</ele><time>2026-04-19T07:27:01.974Z</time></trkpt><trkpt lat="43.7595254" lon="11.7117993"><ele>501.0</ele><time>2026-04-19T07:27:02.975Z</time></trkpt><trkpt lat="43.7596108" lon="11.7115123"><ele>501.0</ele><time>2026-04-19T07:27:03.978Z</time></trkpt><trkpt lat="43.7597079" lon="11.711233"><ele>501.0</ele><time>2026-04-19T07:27:04.978Z</time></trkpt><trkpt lat="43.7598147" lon="11.7109489"><ele>499.66666666666663</ele><time>2026-04-19T07:27:05.971Z</time></trkpt><trkpt lat="43.7599123" lon="11.7106878"><ele>498.3333333333333</ele><time>2026-04-19T07:27:06.978Z</time></trkpt><trkpt lat="43.7600031" lon="11.7104615"><ele>497.0</ele><time>2026-04-19T07:27:07.982Z</time></trkpt><trkpt lat="43.7601066" lon="11.7102611"><ele>500.3333333333333</ele><time>2026-04-19T07:27:08.976Z</time></trkpt><trkpt lat="43.7602325" lon="11.7100667"><ele>503.66666666666663</ele><time>2026-04-19T07:27:09.961Z</time></trkpt><trkpt lat="43.7603741" lon="11.7098889"><ele>507.0</ele><time>2026-04-19T07:27:10.966Z</time></trkpt><trkpt lat="43.7605158" lon="11.7097405"><ele>507.0</ele><time>2026-04-19T07:27:11.971Z</time></trkpt><trkpt lat="43.7606795" lon="11.7096158"><ele>507.0</ele><time>2026-04-19T07:27:12.973Z</time></trkpt><trkpt lat="43.760868" lon="11.7095062"><ele>507.0</ele><time>2026-04-19T07:27:13.975Z</time></trkpt><trkpt lat="43.761056" lon="11.7093889"><ele>508.33333333333337</ele><time>2026-04-19T07:27:14.98Z</time></trkpt><trkpt lat="43.7612368" lon="11.7092954"><ele>509.6666666666667</ele><time>2026-04-19T07:27:15.98Z</time></trkpt><trkpt lat="43.7614133" lon="11.7092282"><ele>511.0</ele><time>2026-04-19T07:27:16.984Z</time></trkpt><trkpt lat="43.7616044" lon="11.7091912"><ele>511.0</ele><time>2026-04-19T07:27:17.975Z</time></trkpt><trkpt lat="43.7618044" lon="11.7091463"><ele>511.0</ele><time>2026-04-19T07:27:18.98Z</time></trkpt><trkpt lat="43.7619874" lon="11.7091032"><ele>511.0</ele><time>2026-04-19T07:27:19.975Z</time></trkpt><trkpt lat="43.7621283" lon="11.7090527"><ele>512.5</ele><time>2026-04-19T07:27:20.974Z</time></trkpt><trkpt lat="43.7622476" lon="11.7089757"><ele>514.0</ele><time>2026-04-19T07:27:21.967Z</time></trkpt><trkpt lat="43.7623613" lon="11.7088633"><ele>515.5</ele><time>2026-04-19T07:27:22.978Z</time></trkpt><trkpt lat="43.7624631" lon="11.7086902"><ele>517.0</ele><time>2026-04-19T07:27:23.968Z</time></trkpt><trkpt lat="43.7625419" lon="11.7084871"><ele>517.6666666666667</ele><time>2026-04-19T07:27:24.978Z</time></trkpt><trkpt lat="43.762612" lon="11.708278"><ele>518.3333333333334</ele><time>2026-04-19T07:27:25.979Z</time></trkpt><trkpt lat="43.7626752" lon="11.7080656"><ele>519.0</ele><time>2026-04-19T07:27:26.978Z</time></trkpt><trkpt lat="43.7627484" lon="11.7078713"><ele>522.6666666666666</ele><time>2026-04-19T07:27:27.974Z</time></trkpt><trkpt lat="43.7628482" lon="11.707676"><ele>526.3333333333333</ele><time>2026-04-19T07:27:28.979Z</time></trkpt><trkpt lat="43.7629812" lon="11.7074889"><ele>530.0</ele><time>2026-04-19T07:27:29.983Z</time></trkpt><trkpt lat="43.7631205" lon="11.7072857"><ele>530.0</ele><time>2026-04-19T07:27:30.978Z</time></trkpt><trkpt lat="43.763255" lon="11.7070801"><ele>530.0</ele><time>2026-04-19T07:27:31.982Z</time></trkpt><trkpt lat="43.7633966" lon="11.7068768"><ele>530.0</ele><time>2026-04-19T07:27:32.987Z</time></trkpt><trkpt lat="43.7635495" lon="11.7066798"><ele>532.3333333333333</ele><time>2026-04-19T07:27:33.977Z</time></trkpt><trkpt lat="43.7637168" lon="11.706494"><ele>534.6666666666666</ele><time>2026-04-19T07:27:34.986Z</time></trkpt><trkpt lat="43.7639075" lon="11.7063298"><ele>537.0</ele><time>2026-04-19T07:27:35.981Z</time></trkpt><trkpt lat="43.7641099" lon="11.7061602"><ele>538.5</ele><time>2026-04-19T07:27:36.986Z</time></trkpt><trkpt lat="43.7643193" lon="11.7059836"><ele>540.0</ele><time>2026-04-19T07:27:37.98Z</time></trkpt><trkpt lat="43.7645305" lon="11.7058071"><ele>540.0</ele><time>2026-04-19T07:27:38.976Z</time></trkpt><trkpt lat="43.764744" lon="11.7056341"><ele>540.0</ele><time>2026-04-19T07:27:39.979Z</time></trkpt><trkpt lat="43.7649477" lon="11.70546"><ele>540.0</ele><time>2026-04-19T07:27:40.978Z</time></trkpt><trkpt lat="43.7651329" lon="11.7052776"><ele>540.0</ele><time>2026-04-19T07:27:41.984Z</time></trkpt><trkpt lat="43.7652959" lon="11.7051007"><ele>540.0</ele><time>2026-04-19T07:27:42.973Z</time></trkpt><trkpt lat="43.7654465" lon="11.7049222"><ele>542.0</ele><time>2026-04-19T07:27:43.966Z</time></trkpt><trkpt lat="43.7655766" lon="11.7047506"><ele>544.0</ele><time>2026-04-19T07:27:44.985Z</time></trkpt><trkpt lat="43.7656847" lon="11.7045808"><ele>546.0</ele><time>2026-04-19T07:27:45.977Z</time></trkpt><trkpt lat="43.7657682" lon="11.7043924"><ele>546.0</ele><time>2026-04-19T07:27:46.982Z</time></trkpt><trkpt lat="43.7658422" lon="11.7042055"><ele>546.0</ele><time>2026-04-19T07:27:47.965Z</time></trkpt><trkpt lat="43.7658955" lon="11.703989"><ele>546.0</ele><time>2026-04-19T07:27:48.991Z</time></trkpt><trkpt lat="43.76593" lon="11.7037595"><ele>547.0</ele><time>2026-04-19T07:27:49.969Z</time></trkpt><trkpt lat="43.765942" lon="11.7035273"><ele>548.0</ele><time>2026-04-19T07:27:50.985Z</time></trkpt><trkpt lat="43.7659483" lon="11.7033397"><ele>549.0</ele><time>2026-04-19T07:27:51.973Z</time></trkpt><trkpt lat="43.7659758" lon="11.7031842"><ele>550.0</ele><time>2026-04-19T07:27:52.983Z</time></trkpt><trkpt lat="43.7660347" lon="11.7030466"><ele>552.25</ele><time>2026-04-19T07:27:53.984Z</time></trkpt><trkpt lat="43.7661121" lon="11.7029325"><ele>554.5</ele><time>2026-04-19T07:27:54.985Z</time></trkpt><trkpt lat="43.7662284" lon="11.702853"><ele>556.75</ele><time>2026-04-19T07:27:55.974Z</time></trkpt><trkpt lat="43.7663535" lon="11.7028033"><ele>559.0</ele><time>2026-04-19T07:27:56.99Z</time></trkpt><trkpt lat="43.7664794" lon="11.702799"><ele>559.0</ele><time>2026-04-19T07:27:57.979Z</time></trkpt><trkpt lat="43.7666092" lon="11.702857"><ele>559.0</ele><time>2026-04-19T07:27:58.972Z</time></trkpt><trkpt lat="43.7667559" lon="11.7029588"><ele>559.0</ele><time>2026-04-19T07:27:59.977Z</time></trkpt><trkpt lat="43.7669211" lon="11.7030097"><ele>559.0</ele><time>2026-04-19T07:28:00.972Z</time></trkpt><trkpt lat="43.7671003" lon="11.7030059"><ele>559.0</ele><time>2026-04-19T07:28:01.966Z</time></trkpt><trkpt lat="43.7672823" lon="11.7029865"><ele>559.0</ele><time>2026-04-19T07:28:02.958Z</time></trkpt><trkpt lat="43.7674636" lon="11.7029233"><ele>559.0</ele><time>2026-04-19T07:28:03.979Z</time></trkpt><trkpt lat="43.767646" lon="11.7028099"><ele>559.0</ele><time>2026-04-19T07:28:04.976Z</time></trkpt><trkpt lat="43.7678184" lon="11.7026459"><ele>559.0</ele><time>2026-04-19T07:28:05.979Z</time></trkpt><trkpt lat="43.7679948" lon="11.7024566"><ele>561.5</ele><time>2026-04-19T07:28:06.978Z</time></trkpt><trkpt lat="43.7681734" lon="11.7022588"><ele>564.0</ele><time>2026-04-19T07:28:07.993Z</time></trkpt><trkpt lat="43.7683551" lon="11.7020463"><ele>562.5</ele><time>2026-04-19T07:28:08.974Z</time></trkpt><trkpt lat="43.7685404" lon="11.7018356"><ele>561.0</ele><time>2026-04-19T07:28:09.96Z</time></trkpt><trkpt lat="43.7687284" lon="11.701616"><ele>561.0</ele><time>2026-04-19T07:28:10.971Z</time></trkpt><trkpt lat="43.7689193" lon="11.7013938"><ele>561.0</ele><time>2026-04-19T07:28:11.959Z</time></trkpt><trkpt lat="43.7691082" lon="11.7011536"><ele>562.0</ele><time>2026-04-19T07:28:12.97Z</time></trkpt><trkpt lat="43.7692907" lon="11.7009244"><ele>563.0</ele><time>2026-04-19T07:28:13.977Z</time></trkpt><trkpt lat="43.769445" lon="11.7007201"><ele>563.0</ele><time>2026-04-19T07:28:14.978Z</time></trkpt><trkpt lat="43.7695709" lon="11.7005365"><ele>563.0</ele><time>2026-04-19T07:28:15.969Z</time></trkpt><trkpt lat="43.7696869" lon="11.7003416"><ele>563.0</ele><time>2026-04-19T07:28:16.98Z</time></trkpt><trkpt lat="43.7697822" lon="11.7001132"><ele>566.0</ele><time>2026-04-19T07:28:17.971Z</time></trkpt><trkpt lat="43.7698744" lon="11.6998642"><ele>569.0</ele><time>2026-04-19T07:28:18.983Z</time></trkpt><trkpt lat="43.7699625" lon="11.6995994"><ele>572.0</ele><time>2026-04-19T07:28:19.979Z</time></trkpt><trkpt lat="43.7700545" lon="11.6993642"><ele>574.3333333333333</ele><time>2026-04-19T07:28:20.979Z</time></trkpt><trkpt lat="43.7701449" lon="11.6991507"><ele>576.6666666666666</ele><time>2026-04-19T07:28:21.979Z</time></trkpt><trkpt lat="43.7702653" lon="11.6989539"><ele>579.0</ele><time>2026-04-19T07:28:22.985Z</time></trkpt><trkpt lat="43.7704114" lon="11.6987838"><ele>579.3333333333334</ele><time>2026-04-19T07:28:23.975Z</time></trkpt><trkpt lat="43.7705724" lon="11.6986243"><ele>579.6666666666667</ele><time>2026-04-19T07:28:24.984Z</time></trkpt><trkpt lat="43.7707118" lon="11.6984675"><ele>580.0</ele><time>2026-04-19T07:28:25.98Z</time></trkpt><trkpt lat="43.7708368" lon="11.6983045"><ele>582.6666666666667</ele><time>2026-04-19T07:28:26.98Z</time></trkpt><trkpt lat="43.7709361" lon="11.6981054"><ele>585.3333333333334</ele><time>2026-04-19T07:28:27.963Z</time></trkpt><trkpt lat="43.7710069" lon="11.697898"><ele>588.0</ele><time>2026-04-19T07:28:28.987Z</time></trkpt><trkpt lat="43.7710588" lon="11.6976553"><ele>589.0</ele><time>2026-04-19T07:28:29.979Z</time></trkpt><trkpt lat="43.7710726" lon="11.6974258"><ele>590.0</ele><time>2026-04-19T07:28:30.974Z</time></trkpt><trkpt lat="43.7710479" lon="11.6972046"><ele>591.0</ele><time>2026-04-19T07:28:31.981Z</time></trkpt><trkpt lat="43.7710217" lon="11.6970058"><ele>592.5</ele><time>2026-04-19T07:28:32.993Z</time></trkpt><trkpt lat="43.7709991" lon="11.6968305"><ele>594.0</ele><time>2026-04-19T07:28:33.982Z</time></trkpt><trkpt lat="43.7709892" lon="11.6966632"><ele>595.5</ele><time>2026-04-19T07:28:34.985Z</time></trkpt><trkpt lat="43.7710056" lon="11.6964808"><ele>597.0</ele><time>2026-04-19T07:28:35.986Z</time></trkpt><trkpt lat="43.771042" lon="11.6962935"><ele>600.3333333333334</ele><time>2026-04-19T07:28:36.987Z</time></trkpt><trkpt lat="43.7710881" lon="11.6960913"><ele>603.6666666666667</ele><time>2026-04-19T07:28:37.989Z</time></trkpt><trkpt lat="43.7711422" lon="11.6958674"><ele>607.0</ele><time>2026-04-19T07:28:38.968Z</time></trkpt><trkpt lat="43.7712052" lon="11.6956374"><ele>610.6666666666667</ele><time>2026-04-19T07:28:39.976Z</time></trkpt><trkpt lat="43.7712658" lon="11.6954132"><ele>614.3333333333334</ele><time>2026-04-19T07:28:40.98Z</time></trkpt><trkpt lat="43.7713099" lon="11.6952143"><ele>618.0</ele><time>2026-04-19T07:28:41.969Z</time></trkpt><trkpt lat="43.7713346" lon="11.6950189"><ele>618.5</ele><time>2026-04-19T07:28:42.983Z</time></trkpt><trkpt lat="43.7713656" lon="11.6948425"><ele>619.0</ele><time>2026-04-19T07:28:43.98Z</time></trkpt><trkpt lat="43.7714012" lon="11.6946972"><ele>619.5</ele><time>2026-04-19T07:28:44.97Z</time></trkpt><trkpt lat="43.7714652" lon="11.6945893"><ele>620.0</ele><time>2026-04-19T07:28:45.971Z</time></trkpt><trkpt lat="43.7715756" lon="11.6944849"><ele>620.25</ele><time>2026-04-19T07:28:46.964Z</time></trkpt><trkpt lat="43.7716904" lon="11.6943718"><ele>620.5</ele><time>2026-04-19T07:28:47.981Z</time></trkpt><trkpt lat="43.7718061" lon="11.6942351"><ele>620.75</ele><time>2026-04-19T07:28:48.988Z</time></trkpt><trkpt lat="43.7719239" lon="11.6940928"><ele>621.0</ele><time>2026-04-19T07:28:49.978Z</time></trkpt><trkpt lat="43.7720283" lon="11.6939436"><ele>624.25</ele><time>2026-04-19T07:28:50.982Z</time></trkpt><trkpt lat="43.7721071" lon="11.6937737"><ele>627.5</ele><time>2026-04-19T07:28:51.972Z</time></trkpt><trkpt lat="43.7721559" lon="11.6935969"><ele>630.75</ele><time>2026-04-19T07:28:52.975Z</time></trkpt><trkpt lat="43.7721825" lon="11.693448"><ele>634.0</ele><time>2026-04-19T07:28:53.975Z</time></trkpt><trkpt lat="43.7722217" lon="11.6933342"><ele>634.0</ele><time>2026-04-19T07:28:54.986Z</time></trkpt><trkpt lat="43.7722887" lon="11.6932398"><ele>634.0</ele><time>2026-04-19T07:28:55.995Z</time></trkpt><trkpt lat="43.7723753" lon="11.6932122"><ele>634.0</ele><time>2026-04-19T07:28:56.981Z</time></trkpt><trkpt lat="43.7724495" lon="11.6932267"><ele>634.0</ele><time>2026-04-19T07:28:57.979Z</time></trkpt><trkpt lat="43.772513" lon="11.6933062"><ele>634.0</ele><time>2026-04-19T07:28:58.977Z</time></trkpt><trkpt lat="43.7725521" lon="11.6934253"><ele>634.0</ele><time>2026-04-19T07:28:59.975Z</time></trkpt><trkpt lat="43.7725525" lon="11.6935691"><ele>634.2</ele><time>2026-04-19T07:29:00.977Z</time></trkpt><trkpt lat="43.7725325" lon="11.6937226"><ele>634.4</ele><time>2026-04-19T07:29:01.979Z</time></trkpt><trkpt lat="43.7725129" lon="11.693899"><ele>634.6</ele><time>2026-04-19T07:29:02.969Z</time></trkpt><trkpt lat="43.7725014" lon="11.694055"><ele>634.8</ele><time>2026-04-19T07:29:03.974Z</time></trkpt><trkpt lat="43.7725229" lon="11.6941768"><ele>635.0</ele><time>2026-04-19T07:29:04.973Z</time></trkpt><trkpt lat="43.7725848" lon="11.6942829"><ele>635.0</ele><time>2026-04-19T07:29:05.988Z</time></trkpt><trkpt lat="43.7726778" lon="11.6943534"><ele>635.0</ele><time>2026-04-19T07:29:06.974Z</time></trkpt><trkpt lat="43.7728002" lon="11.694404"><ele>635.0</ele><time>2026-04-19T07:29:07.96Z</time></trkpt><trkpt lat="43.772942" lon="11.6944224"><ele>635.0</ele><time>2026-04-19T07:29:08.964Z</time></trkpt><trkpt lat="43.7730797" lon="11.6944502"><ele>638.0</ele><time>2026-04-19T07:29:09.97Z</time></trkpt><trkpt lat="43.7732064" lon="11.6945067"><ele>641.0</ele><time>2026-04-19T07:29:10.959Z</time></trkpt><trkpt lat="43.773302" lon="11.6946165"><ele>644.0</ele><time>2026-04-19T07:29:11.979Z</time></trkpt><trkpt lat="43.7733604" lon="11.6947757"><ele>647.0</ele><time>2026-04-19T07:29:12.971Z</time></trkpt><trkpt lat="43.7733918" lon="11.6949549"><ele>647.0</ele><time>2026-04-19T07:29:13.972Z</time></trkpt><trkpt lat="43.773405" lon="11.6951084"><ele>647.0</ele><time>2026-04-19T07:29:14.982Z</time></trkpt><trkpt lat="43.7734157" lon="11.6952355"><ele>647.0</ele><time>2026-04-19T07:29:15.973Z</time></trkpt><trkpt lat="43.7734608" lon="11.6953235"><ele>647.0</ele><time>2026-04-19T07:29:16.965Z</time></trkpt><trkpt lat="43.7735292" lon="11.6953692"><ele>647.0</ele><time>2026-04-19T07:29:17.972Z</time></trkpt><trkpt lat="43.7736038" lon="11.6953588"><ele>647.0</ele><time>2026-04-19T07:29:18.981Z</time></trkpt><trkpt lat="43.7736823" lon="11.6952784"><ele>650.5</ele><time>2026-04-19T07:29:19.981Z</time></trkpt><trkpt lat="43.7737671" lon="11.6951775"><ele>654.0</ele><time>2026-04-19T07:29:20.98Z</time></trkpt><trkpt lat="43.7738596" lon="11.6950434"><ele>657.5</ele><time>2026-04-19T07:29:21.979Z</time></trkpt><trkpt lat="43.7739672" lon="11.6948859"><ele>661.0</ele><time>2026-04-19T07:29:22.983Z</time></trkpt><trkpt lat="43.7740736" lon="11.6947019"><ele>661.0</ele><time>2026-04-19T07:29:23.986Z</time></trkpt><trkpt lat="43.7741482" lon="11.694502"><ele>661.0</ele><time>2026-04-19T07:29:24.977Z</time></trkpt><trkpt lat="43.7742047" lon="11.6943089"><ele>661.0</ele><time>2026-04-19T07:29:25.981Z</time></trkpt><trkpt lat="43.7742617" lon="11.6941685"><ele>661.0</ele><time>2026-04-19T07:29:26.983Z</time></trkpt><trkpt lat="43.7743221" lon="11.6940684"><ele>664.1666666666667</ele><time>2026-04-19T07:29:27.987Z</time></trkpt><trkpt lat="43.7743861" lon="11.6940101"><ele>667.3333333333334</ele><time>2026-04-19T07:29:28.986Z</time></trkpt><trkpt lat="43.7744604" lon="11.693994"><ele>670.5</ele><time>2026-04-19T07:29:29.978Z</time></trkpt><trkpt lat="43.7745231" lon="11.6940384"><ele>673.6666666666666</ele><time>2026-04-19T07:29:30.978Z</time></trkpt><trkpt lat="43.7745495" lon="11.694127"><ele>676.8333333333333</ele><time>2026-04-19T07:29:31.984Z</time></trkpt><trkpt lat="43.7745537" lon="11.6942424"><ele>680.0</ele><time>2026-04-19T07:29:32.959Z</time></trkpt><trkpt lat="43.7745163" lon="11.6943812"><ele>682.0</ele><time>2026-04-19T07:29:33.961Z</time></trkpt><trkpt lat="43.774469" lon="11.6945434"><ele>684.0</ele><time>2026-04-19T07:29:34.962Z</time></trkpt><trkpt lat="43.7744176" lon="11.6947431"><ele>686.0</ele><time>2026-04-19T07:29:35.963Z</time></trkpt><trkpt lat="43.7743783" lon="11.6949934"><ele>676.6666666666666</ele><time>2026-04-19T07:29:36.975Z</time></trkpt><trkpt lat="43.7743524" lon="11.695255"><ele>667.3333333333334</ele><time>2026-04-19T07:29:37.975Z</time></trkpt><trkpt lat="43.774327" lon="11.6955328"><ele>658.0</ele><time>2026-04-19T07:29:38.971Z</time></trkpt><trkpt lat="43.7743092" lon="11.6958237"><ele>657.6666666666667</ele><time>2026-04-19T07:29:39.962Z</time></trkpt><trkpt lat="43.7742901" lon="11.6961364"><ele>657.3333333333334</ele><time>2026-04-19T07:29:40.968Z</time></trkpt><trkpt lat="43.7742723" lon="11.6963974"><ele>657.0</ele><time>2026-04-19T07:29:41.963Z</time></trkpt><trkpt lat="43.7742688" lon="11.6966129"><ele>657.0</ele><time>2026-04-19T07:29:42.967Z</time></trkpt><trkpt lat="43.7742795" lon="11.6968004"><ele>657.0</ele><time>2026-04-19T07:29:43.978Z</time></trkpt><trkpt lat="43.7743286" lon="11.6969844"><ele>657.0</ele><time>2026-04-19T07:29:44.96Z</time></trkpt><trkpt lat="43.7744109" lon="11.6971591"><ele>657.0</ele><time>2026-04-19T07:29:45.972Z</time></trkpt><trkpt lat="43.7745229" lon="11.6973185"><ele>659.75</ele><time>2026-04-19T07:29:46.976Z</time></trkpt><trkpt lat="43.7746387" lon="11.6974185"><ele>662.5</ele><time>2026-04-19T07:29:47.973Z</time></trkpt><trkpt lat="43.7747568" lon="11.6974736"><ele>665.25</ele><time>2026-04-19T07:29:48.981Z</time></trkpt><trkpt lat="43.7748828" lon="11.6974739"><ele>668.0</ele><time>2026-04-19T07:29:49.981Z</time></trkpt><trkpt lat="43.7750207" lon="11.6974186"><ele>668.0</ele><time>2026-04-19T07:29:50.981Z</time></trkpt><trkpt lat="43.775149" lon="11.6972924"><ele>668.0</ele><time>2026-04-19T07:29:51.986Z</time></trkpt><trkpt lat="43.7752654" lon="11.697148"><ele>668.0</ele><time>2026-04-19T07:29:52.965Z</time></trkpt><trkpt lat="43.7753978" lon="11.6970455"><ele>666.0</ele><time>2026-04-19T07:29:53.967Z</time></trkpt><trkpt lat="43.7755446" lon="11.696987"><ele>664.0</ele><time>2026-04-19T07:29:54.976Z</time></trkpt><trkpt lat="43.7756741" lon="11.6969138"><ele>662.0</ele><time>2026-04-19T07:29:55.979Z</time></trkpt><trkpt lat="43.7757693" lon="11.6968113"><ele>660.0</ele><time>2026-04-19T07:29:56.972Z</time></trkpt><trkpt lat="43.7758244" lon="11.6966507"><ele>665.6666666666666</ele><time>2026-04-19T07:29:57.969Z</time></trkpt><trkpt lat="43.7758544" lon="11.6964609"><ele>671.3333333333333</ele><time>2026-04-19T07:29:58.964Z</time></trkpt><trkpt lat="43.7758626" lon="11.696232"><ele>677.0</ele><time>2026-04-19T07:29:59.975Z</time></trkpt><trkpt lat="43.7758494" lon="11.6959886"><ele>680.0</ele><time>2026-04-19T07:30:00.981Z</time></trkpt><trkpt lat="43.7758255" lon="11.6957571"><ele>683.0</ele><time>2026-04-19T07:30:01.968Z</time></trkpt><trkpt lat="43.7757753" lon="11.6955295"><ele>686.0</ele><time>2026-04-19T07:30:02.968Z</time></trkpt><trkpt lat="43.7756952" lon="11.6953097"><ele>687.6666666666666</ele><time>2026-04-19T07:30:03.964Z</time></trkpt><trkpt lat="43.7756324" lon="11.6950857"><ele>689.3333333333334</ele><time>2026-04-19T07:30:04.982Z</time></trkpt><trkpt lat="43.7755955" lon="11.6948477"><ele>691.0</ele><time>2026-04-19T07:30:05.979Z</time></trkpt><trkpt lat="43.775593" lon="11.6945806"><ele>693.0</ele><time>2026-04-19T07:30:06.993Z</time></trkpt><trkpt lat="43.7756153" lon="11.6943381"><ele>695.0</ele><time>2026-04-19T07:30:07.98Z</time></trkpt><trkpt lat="43.7756489" lon="11.6941165"><ele>697.0</ele><time>2026-04-19T07:30:08.97Z</time></trkpt><trkpt lat="43.7756967" lon="11.6939006"><ele>697.0</ele><time>2026-04-19T07:30:09.967Z</time></trkpt><trkpt lat="43.7757643" lon="11.6936913"><ele>697.0</ele><time>2026-04-19T07:30:10.961Z</time></trkpt><trkpt lat="43.7758464" lon="11.693502"><ele>697.0</ele><time>2026-04-19T07:30:11.963Z</time></trkpt><trkpt lat="43.7759553" lon="11.6933153"><ele>699.3333333333334</ele><time>2026-04-19T07:30:12.97Z</time></trkpt><trkpt lat="43.776063" lon="11.6931356"><ele>701.6666666666666</ele><time>2026-04-19T07:30:13.976Z</time></trkpt><trkpt lat="43.7761578" lon="11.6929706"><ele>704.0</ele><time>2026-04-19T07:30:14.984Z</time></trkpt><trkpt lat="43.7762455" lon="11.6928136"><ele>704.8000000000001</ele><time>2026-04-19T07:30:15.961Z</time></trkpt><trkpt lat="43.7763071" lon="11.6926798"><ele>705.6</ele><time>2026-04-19T07:30:16.975Z</time></trkpt><trkpt lat="43.7763594" lon="11.6925598"><ele>706.4</ele><time>2026-04-19T07:30:17.976Z</time></trkpt><trkpt lat="43.776389" lon="11.692449"><ele>707.2</ele><time>2026-04-19T07:30:18.983Z</time></trkpt><trkpt lat="43.7763946" lon="11.6923267"><ele>708.0</ele><time>2026-04-19T07:30:19.979Z</time></trkpt><trkpt lat="43.7763902" lon="11.6922106"><ele>708.0</ele><time>2026-04-19T07:30:20.967Z</time></trkpt><trkpt lat="43.7763635" lon="11.6921003"><ele>708.0</ele><time>2026-04-19T07:30:21.97Z</time></trkpt><trkpt lat="43.7763165" lon="11.6920024"><ele>708.0</ele><time>2026-04-19T07:30:22.973Z</time></trkpt><trkpt lat="43.7762476" lon="11.691925"><ele>708.0</ele><time>2026-04-19T07:30:23.986Z</time></trkpt><trkpt lat="43.776161" lon="11.6918629"><ele>708.0</ele><time>2026-04-19T07:30:24.965Z</time></trkpt><trkpt lat="43.7760532" lon="11.6917913"><ele>707.8</ele><time>2026-04-19T07:30:25.969Z</time></trkpt><trkpt lat="43.7759634" lon="11.6916947"><ele>707.5999999999999</ele><time>2026-04-19T07:30:26.978Z</time></trkpt><trkpt lat="43.7758792" lon="11.6915742"><ele>707.4000000000001</ele><time>2026-04-19T07:30:27.978Z</time></trkpt><trkpt lat="43.7758105" lon="11.6914559"><ele>707.2</ele><time>2026-04-19T07:30:28.978Z</time></trkpt><trkpt lat="43.7757407" lon="11.6913553"><ele>707.0</ele><time>2026-04-19T07:30:29.978Z</time></trkpt><trkpt lat="43.7756534" lon="11.6912902"><ele>707.0</ele><time>2026-04-19T07:30:30.986Z</time></trkpt><trkpt lat="43.7755531" lon="11.6912813"><ele>707.0</ele><time>2026-04-19T07:30:31.974Z</time></trkpt><trkpt lat="43.7754524" lon="11.6913392"><ele>707.0</ele><time>2026-04-19T07:30:32.979Z</time></trkpt><trkpt lat="43.7753481" lon="11.6914399"><ele>707.0</ele><time>2026-04-19T07:30:33.975Z</time></trkpt><trkpt lat="43.7752483" lon="11.6915168"><ele>706.6</ele><time>2026-04-19T07:30:34.974Z</time></trkpt><trkpt lat="43.7751556" lon="11.6915444"><ele>706.2</ele><time>2026-04-19T07:30:35.985Z</time></trkpt><trkpt lat="43.7750637" lon="11.6915278"><ele>705.8</ele><time>2026-04-19T07:30:36.978Z</time></trkpt><trkpt lat="43.7749883" lon="11.6914777"><ele>705.4</ele><time>2026-04-19T07:30:37.981Z</time></trkpt><trkpt lat="43.7749283" lon="11.6913718"><ele>705.0</ele><time>2026-04-19T07:30:38.986Z</time></trkpt><trkpt lat="43.7748976" lon="11.6912324"><ele>708.0</ele><time>2026-04-19T07:30:39.976Z</time></trkpt><trkpt lat="43.7748681" lon="11.6910842"><ele>711.0</ele><time>2026-04-19T07:30:40.986Z</time></trkpt><trkpt lat="43.7748312" lon="11.6908999"><ele>714.0</ele><time>2026-04-19T07:30:41.988Z</time></trkpt><trkpt lat="43.7747903" lon="11.6907061"><ele>717.0</ele><time>2026-04-19T07:30:42.965Z</time></trkpt><trkpt lat="43.7747426" lon="11.6905158"><ele>717.0</ele><time>2026-04-19T07:30:43.96Z</time></trkpt><trkpt lat="43.7747081" lon="11.690317"><ele>717.0</ele><time>2026-04-19T07:30:44.976Z</time></trkpt><trkpt lat="43.7746925" lon="11.6900842"><ele>717.0</ele><time>2026-04-19T07:30:45.963Z</time></trkpt><trkpt lat="43.7746982" lon="11.6898594"><ele>719.0</ele><time>2026-04-19T07:30:46.971Z</time></trkpt><trkpt lat="43.7747049" lon="11.6896563"><ele>721.0</ele><time>2026-04-19T07:30:47.971Z</time></trkpt><trkpt lat="43.7747067" lon="11.6894673"><ele>723.0</ele><time>2026-04-19T07:30:48.959Z</time></trkpt><trkpt lat="43.7747084" lon="11.6893014"><ele>725.0</ele><time>2026-04-19T07:30:49.977Z</time></trkpt><trkpt lat="43.7747098" lon="11.6891534"><ele>727.4</ele><time>2026-04-19T07:30:50.987Z</time></trkpt><trkpt lat="43.7747111" lon="11.6890047"><ele>729.8</ele><time>2026-04-19T07:30:51.983Z</time></trkpt><trkpt lat="43.77471" lon="11.6888555"><ele>732.2</ele><time>2026-04-19T07:30:52.985Z</time></trkpt><trkpt lat="43.7746986" lon="11.6887068"><ele>734.6</ele><time>2026-04-19T07:30:53.956Z</time></trkpt><trkpt lat="43.774681" lon="11.6885475"><ele>737.0</ele><time>2026-04-19T07:30:54.964Z</time></trkpt><trkpt lat="43.7746681" lon="11.6883846"><ele>737.75</ele><time>2026-04-19T07:30:55.97Z</time></trkpt><trkpt lat="43.7746818" lon="11.6882238"><ele>738.5</ele><time>2026-04-19T07:30:56.974Z</time></trkpt><trkpt lat="43.7747075" lon="11.6880642"><ele>739.25</ele><time>2026-04-19T07:30:57.978Z</time></trkpt><trkpt lat="43.7747383" lon="11.6879049"><ele>740.0</ele><time>2026-04-19T07:30:58.985Z</time></trkpt><trkpt lat="43.7747784" lon="11.687756"><ele>738.25</ele><time>2026-04-19T07:30:59.976Z</time></trkpt><trkpt lat="43.774847" lon="11.687618"><ele>736.5</ele><time>2026-04-19T07:31:00.977Z</time></trkpt><trkpt lat="43.7749237" lon="11.6874979"><ele>734.75</ele><time>2026-04-19T07:31:01.978Z</time></trkpt><trkpt lat="43.7749929" lon="11.6873649"><ele>733.0</ele><time>2026-04-19T07:31:02.974Z</time></trkpt><trkpt lat="43.7750315" lon="11.6872136"><ele>733.0</ele><time>2026-04-19T07:31:03.98Z</time></trkpt><trkpt lat="43.7750329" lon="11.687036"><ele>733.0</ele><time>2026-04-19T07:31:04.967Z</time></trkpt><trkpt lat="43.775019" lon="11.6868735"><ele>733.0</ele><time>2026-04-19T07:31:05.987Z</time></trkpt><trkpt lat="43.7750057" lon="11.686722"><ele>733.0</ele><time>2026-04-19T07:31:06.983Z</time></trkpt><trkpt lat="43.7750175" lon="11.6865648"><ele>732.25</ele><time>2026-04-19T07:31:07.979Z</time></trkpt><trkpt lat="43.7750686" lon="11.6864168"><ele>731.5</ele><time>2026-04-19T07:31:08.988Z</time></trkpt><trkpt lat="43.7751473" lon="11.6862835"><ele>730.75</ele><time>2026-04-19T07:31:09.987Z</time></trkpt><trkpt lat="43.7752667" lon="11.6861428"><ele>730.0</ele><time>2026-04-19T07:31:10.969Z</time></trkpt><trkpt lat="43.7753884" lon="11.6860101"><ele>733.75</ele><time>2026-04-19T07:31:11.98Z</time></trkpt><trkpt lat="43.7755095" lon="11.6858822"><ele>737.5</ele><time>2026-04-19T07:31:12.977Z</time></trkpt><trkpt lat="43.7756308" lon="11.6857755"><ele>741.25</ele><time>2026-04-19T07:31:13.982Z</time></trkpt><trkpt lat="43.7757437" lon="11.6856973"><ele>745.0</ele><time>2026-04-19T07:31:14.988Z</time></trkpt><trkpt lat="43.7758649" lon="11.6856269"><ele>745.0</ele><time>2026-04-19T07:31:15.976Z</time></trkpt><trkpt lat="43.7759934" lon="11.6855524"><ele>745.0</ele><time>2026-04-19T07:31:16.972Z</time></trkpt><trkpt lat="43.7761352" lon="11.6855013"><ele>745.0</ele><time>2026-04-19T07:31:17.965Z</time></trkpt><trkpt lat="43.7762735" lon="11.6854497"><ele>745.0</ele><time>2026-04-19T07:31:18.979Z</time></trkpt><trkpt lat="43.7764021" lon="11.6853799"><ele>747.25</ele><time>2026-04-19T07:31:19.979Z</time></trkpt><trkpt lat="43.7765153" lon="11.6852818"><ele>749.5</ele><time>2026-04-19T07:31:20.993Z</time></trkpt><trkpt lat="43.7766202" lon="11.6851452"><ele>751.75</ele><time>2026-04-19T07:31:21.982Z</time></trkpt><trkpt lat="43.7767163" lon="11.6849716"><ele>754.0</ele><time>2026-04-19T07:31:22.984Z</time></trkpt><trkpt lat="43.7768173" lon="11.6847553"><ele>760.0</ele><time>2026-04-19T07:31:23.98Z</time></trkpt><trkpt lat="43.776914" lon="11.684549"><ele>766.0</ele><time>2026-04-19T07:31:24.983Z</time></trkpt><trkpt lat="43.7770294" lon="11.684381"><ele>772.0</ele><time>2026-04-19T07:31:25.978Z</time></trkpt><trkpt lat="43.7771442" lon="11.6842301"><ele>772.0</ele><time>2026-04-19T07:31:27.003Z</time></trkpt><trkpt lat="43.7772522" lon="11.6840579"><ele>772.0</ele><time>2026-04-19T07:31:27.981Z</time></trkpt><trkpt lat="43.7773227" lon="11.683869"><ele>772.0</ele><time>2026-04-19T07:31:28.978Z</time></trkpt><trkpt lat="43.7773721" lon="11.6836521"><ele>770.6666666666666</ele><time>2026-04-19T07:31:29.981Z</time></trkpt><trkpt lat="43.7774477" lon="11.6834378"><ele>769.3333333333333</ele><time>2026-04-19T07:31:30.98Z</time></trkpt><trkpt lat="43.7775622" lon="11.6832357"><ele>768.0</ele><time>2026-04-19T07:31:31.987Z</time></trkpt><trkpt lat="43.7776779" lon="11.6830224"><ele>773.0</ele><time>2026-04-19T07:31:32.976Z</time></trkpt><trkpt lat="43.777779" lon="11.6827969"><ele>778.0</ele><time>2026-04-19T07:31:33.978Z</time></trkpt><trkpt lat="43.7778742" lon="11.6825991"><ele>783.0</ele><time>2026-04-19T07:31:34.984Z</time></trkpt><trkpt lat="43.7779585" lon="11.6823895"><ele>783.0</ele><time>2026-04-19T07:31:35.975Z</time></trkpt><trkpt lat="43.7780067" lon="11.6821405"><ele>783.0</ele><time>2026-04-19T07:31:36.991Z</time></trkpt><trkpt lat="43.7780152" lon="11.6818634"><ele>783.0</ele><time>2026-04-19T07:31:37.984Z</time></trkpt><trkpt lat="43.7779931" lon="11.6815749"><ele>783.0</ele><time>2026-04-19T07:31:38.978Z</time></trkpt><trkpt lat="43.7779575" lon="11.6812726"><ele>783.0</ele><time>2026-04-19T07:31:39.977Z</time></trkpt><trkpt lat="43.7779209" lon="11.6809677"><ele>783.0</ele><time>2026-04-19T07:31:40.979Z</time></trkpt><trkpt lat="43.7778857" lon="11.6806903"><ele>785.3333333333333</ele><time>2026-04-19T07:31:41.983Z</time></trkpt><trkpt lat="43.7778431" lon="11.6804221"><ele>787.6666666666666</ele><time>2026-04-19T07:31:42.971Z</time></trkpt><trkpt lat="43.7778125" lon="11.6801578"><ele>790.0</ele><time>2026-04-19T07:31:43.984Z</time></trkpt><trkpt lat="43.7777918" lon="11.6799092"><ele>794.0</ele><time>2026-04-19T07:31:44.977Z</time></trkpt><trkpt lat="43.7777962" lon="11.6796634"><ele>798.0</ele><time>2026-04-19T07:31:45.977Z</time></trkpt><trkpt lat="43.7778192" lon="11.6794144"><ele>802.0</ele><time>2026-04-19T07:31:46.977Z</time></trkpt><trkpt lat="43.7778562" lon="11.6791896"><ele>802.75</ele><time>2026-04-19T07:31:47.975Z</time></trkpt><trkpt lat="43.7778994" lon="11.6790033"><ele>803.5</ele><time>2026-04-19T07:31:48.97Z</time></trkpt><trkpt lat="43.777948" lon="11.678854"><ele>804.25</ele><time>2026-04-19T07:31:49.976Z</time></trkpt><trkpt lat="43.778014" lon="11.6787482"><ele>805.0</ele><time>2026-04-19T07:31:50.977Z</time></trkpt><trkpt lat="43.7781081" lon="11.6786689"><ele>805.0</ele><time>2026-04-19T07:31:51.981Z</time></trkpt><trkpt lat="43.7782292" lon="11.6786284"><ele>805.0</ele><time>2026-04-19T07:31:52.988Z</time></trkpt><trkpt lat="43.7783673" lon="11.6786087"><ele>805.0</ele><time>2026-04-19T07:31:53.977Z</time></trkpt><trkpt lat="43.7785184" lon="11.6785862"><ele>805.0</ele><time>2026-04-19T07:31:54.98Z</time></trkpt><trkpt lat="43.7786691" lon="11.6785652"><ele>808.0</ele><time>2026-04-19T07:31:55.979Z</time></trkpt><trkpt lat="43.7788055" lon="11.6785216"><ele>811.0</ele><time>2026-04-19T07:31:56.973Z</time></trkpt><trkpt lat="43.7789234" lon="11.6784694"><ele>814.0</ele><time>2026-04-19T07:31:57.964Z</time></trkpt><trkpt lat="43.7790266" lon="11.6783849"><ele>817.0</ele><time>2026-04-19T07:31:58.98Z</time></trkpt><trkpt lat="43.7791036" lon="11.6782357"><ele>817.0</ele><time>2026-04-19T07:31:59.975Z</time></trkpt><trkpt lat="43.7791583" lon="11.6780324"><ele>817.0</ele><time>2026-04-19T07:32:00.977Z</time></trkpt><trkpt lat="43.7792043" lon="11.677792"><ele>817.0</ele><time>2026-04-19T07:32:01.979Z</time></trkpt><trkpt lat="43.7792597" lon="11.6775294"><ele>816.3333333333333</ele><time>2026-04-19T07:32:02.979Z</time></trkpt><trkpt lat="43.779311" lon="11.6772676"><ele>815.6666666666667</ele><time>2026-04-19T07:32:03.983Z</time></trkpt><trkpt lat="43.7793663" lon="11.6769938"><ele>815.0</ele><time>2026-04-19T07:32:04.963Z</time></trkpt><trkpt lat="43.7794185" lon="11.6767026"><ele>826.0</ele><time>2026-04-19T07:32:05.961Z</time></trkpt><trkpt lat="43.7794735" lon="11.6763948"><ele>837.0</ele><time>2026-04-19T07:32:06.978Z</time></trkpt><trkpt lat="43.7795245" lon="11.6760688"><ele>838.5</ele><time>2026-04-19T07:32:07.982Z</time></trkpt><trkpt lat="43.7795677" lon="11.6757406"><ele>840.0</ele><time>2026-04-19T07:32:08.974Z</time></trkpt><trkpt lat="43.7796125" lon="11.6754111"><ele>841.0</ele><time>2026-04-19T07:32:09.981Z</time></trkpt><trkpt lat="43.779666" lon="11.6750886"><ele>842.0</ele><time>2026-04-19T07:32:10.984Z</time></trkpt><trkpt lat="43.7797316" lon="11.6747884"><ele>842.0</ele><time>2026-04-19T07:32:11.975Z</time></trkpt><trkpt lat="43.7797964" lon="11.6745266"><ele>842.0</ele><time>2026-04-19T07:32:12.986Z</time></trkpt><trkpt lat="43.7798394" lon="11.6742897"><ele>842.0</ele><time>2026-04-19T07:32:13.969Z</time></trkpt><trkpt lat="43.7798591" lon="11.674067"><ele>843.0</ele><time>2026-04-19T07:32:14.975Z</time></trkpt><trkpt lat="43.7798516" lon="11.6738884"><ele>844.0</ele><time>2026-04-19T07:32:15.988Z</time></trkpt><trkpt lat="43.7798328" lon="11.6737184"><ele>845.0</ele><time>2026-04-19T07:32:16.978Z</time></trkpt><trkpt lat="43.7798495" lon="11.6735748"><ele>846.0</ele><time>2026-04-19T07:32:17.971Z</time></trkpt><trkpt lat="43.7799034" lon="11.6734486"><ele>846.75</ele><time>2026-04-19T07:32:18.976Z</time></trkpt><trkpt lat="43.7799891" lon="11.6733307"><ele>847.5</ele><time>2026-04-19T07:32:19.975Z</time></trkpt><trkpt lat="43.7801004" lon="11.6732614"><ele>848.25</ele><time>2026-04-19T07:32:20.975Z</time></trkpt><trkpt lat="43.7802329" lon="11.6732096"><ele>849.0</ele><time>2026-04-19T07:32:21.971Z</time></trkpt><trkpt lat="43.7803682" lon="11.6731267"><ele>852.3333333333333</ele><time>2026-04-19T07:32:22.973Z</time></trkpt><trkpt lat="43.7804845" lon="11.6729802"><ele>855.6666666666666</ele><time>2026-04-19T07:32:23.961Z</time></trkpt><trkpt lat="43.7805873" lon="11.6727828"><ele>859.0</ele><time>2026-04-19T07:32:24.981Z</time></trkpt><trkpt lat="43.7806868" lon="11.672575"><ele>859.0</ele><time>2026-04-19T07:32:25.987Z</time></trkpt><trkpt lat="43.7807935" lon="11.6723525"><ele>859.0</ele><time>2026-04-19T07:32:26.985Z</time></trkpt><trkpt lat="43.7809028" lon="11.6721176"><ele>859.0</ele><time>2026-04-19T07:32:27.959Z</time></trkpt><trkpt lat="43.7810104" lon="11.6718748"><ele>866.6666666666666</ele><time>2026-04-19T07:32:28.988Z</time></trkpt><trkpt lat="43.7811124" lon="11.6716189"><ele>874.3333333333333</ele><time>2026-04-19T07:32:29.979Z</time></trkpt><trkpt lat="43.7812081" lon="11.6713601"><ele>882.0</ele><time>2026-04-19T07:32:30.999Z</time></trkpt><trkpt lat="43.7812888" lon="11.6710802"><ele>882.0</ele><time>2026-04-19T07:32:31.983Z</time></trkpt><trkpt lat="43.7813438" lon="11.6707912"><ele>882.0</ele><time>2026-04-19T07:32:32.982Z</time></trkpt><trkpt lat="43.7814011" lon="11.6705094"><ele>882.0</ele><time>2026-04-19T07:32:33.994Z</time></trkpt><trkpt lat="43.7814413" lon="11.6702695"><ele>883.0</ele><time>2026-04-19T07:32:34.984Z</time></trkpt><trkpt lat="43.7814645" lon="11.6700313"><ele>884.0</ele><time>2026-04-19T07:32:35.968Z</time></trkpt><trkpt lat="43.7814586" lon="11.6697744"><ele>885.0</ele><time>2026-04-19T07:32:36.986Z</time></trkpt><trkpt lat="43.7814189" lon="11.6695132"><ele>890.0</ele><time>2026-04-19T07:32:37.967Z</time></trkpt><trkpt lat="43.781353" lon="11.669262"><ele>895.0</ele><time>2026-04-19T07:32:38.976Z</time></trkpt><trkpt lat="43.7812828" lon="11.6690498"><ele>900.0</ele><time>2026-04-19T07:32:39.978Z</time></trkpt><trkpt lat="43.7812455" lon="11.6688627"><ele>900.0</ele><time>2026-04-19T07:32:40.979Z</time></trkpt><trkpt lat="43.781226" lon="11.6686847"><ele>900.0</ele><time>2026-04-19T07:32:41.987Z</time></trkpt><trkpt lat="43.7812329" lon="11.6684549"><ele>900.0</ele><time>2026-04-19T07:32:42.98Z</time></trkpt><trkpt lat="43.7812435" lon="11.6681944"><ele>901.75</ele><time>2026-04-19T07:32:43.971Z</time></trkpt><trkpt lat="43.7812429" lon="11.6679688"><ele>903.5</ele><time>2026-04-19T07:32:44.967Z</time></trkpt><trkpt lat="43.7812405" lon="11.6677933"><ele>905.25</ele><time>2026-04-19T07:32:45.981Z</time></trkpt><trkpt lat="43.7812141" lon="11.6676109"><ele>907.0</ele><time>2026-04-19T07:32:46.977Z</time></trkpt><trkpt lat="43.7811554" lon="11.6674246"><ele>907.6666666666666</ele><time>2026-04-19T07:32:47.976Z</time></trkpt><trkpt lat="43.7810596" lon="11.6672512"><ele>908.3333333333333</ele><time>2026-04-19T07:32:48.985Z</time></trkpt><trkpt lat="43.7809617" lon="11.6670812"><ele>909.0</ele><time>2026-04-19T07:32:49.971Z</time></trkpt><trkpt lat="43.780878" lon="11.6669156"><ele>907.25</ele><time>2026-04-19T07:32:50.992Z</time></trkpt><trkpt lat="43.7808337" lon="11.6667413"><ele>905.5</ele><time>2026-04-19T07:32:51.987Z</time></trkpt><trkpt lat="43.7808125" lon="11.6665437"><ele>903.75</ele><time>2026-04-19T07:32:52.983Z</time></trkpt><trkpt lat="43.7808083" lon="11.6663314"><ele>902.0</ele><time>2026-04-19T07:32:53.985Z</time></trkpt><trkpt lat="43.7808236" lon="11.6660891"><ele>902.0</ele><time>2026-04-19T07:32:54.984Z</time></trkpt><trkpt lat="43.7808368" lon="11.6658438"><ele>902.0</ele><time>2026-04-19T07:32:55.97Z</time></trkpt><trkpt lat="43.7808561" lon="11.6656187"><ele>902.0</ele><time>2026-04-19T07:32:56.976Z</time></trkpt><trkpt lat="43.7808899" lon="11.6654165"><ele>902.6666666666667</ele><time>2026-04-19T07:32:57.98Z</time></trkpt><trkpt lat="43.7809601" lon="11.6652113"><ele>903.3333333333333</ele><time>2026-04-19T07:32:58.986Z</time></trkpt><trkpt lat="43.7810545" lon="11.6650047"><ele>904.0</ele><time>2026-04-19T07:32:59.971Z</time></trkpt><trkpt lat="43.7811505" lon="11.6647811"><ele>912.0</ele><time>2026-04-19T07:33:00.977Z</time></trkpt><trkpt lat="43.7812588" lon="11.6645515"><ele>920.0</ele><time>2026-04-19T07:33:01.981Z</time></trkpt><trkpt lat="43.7813745" lon="11.6643081"><ele>928.0</ele><time>2026-04-19T07:33:02.971Z</time></trkpt><trkpt lat="43.7814872" lon="11.6640651"><ele>928.0</ele><time>2026-04-19T07:33:03.978Z</time></trkpt><trkpt lat="43.7815885" lon="11.663838"><ele>928.0</ele><time>2026-04-19T07:33:04.967Z</time></trkpt><trkpt lat="43.781671" lon="11.6636319"><ele>928.0</ele><time>2026-04-19T07:33:05.969Z</time></trkpt><trkpt lat="43.7817292" lon="11.6634176"><ele>928.6666666666666</ele><time>2026-04-19T07:33:06.979Z</time></trkpt><trkpt lat="43.7817616" lon="11.6631759"><ele>929.3333333333333</ele><time>2026-04-19T07:33:07.967Z</time></trkpt><trkpt lat="43.78176" lon="11.6629205"><ele>930.0</ele><time>2026-04-19T07:33:08.98Z</time></trkpt><trkpt lat="43.781733" lon="11.6626737"><ele>930.0</ele><time>2026-04-19T07:33:09.963Z</time></trkpt><trkpt lat="43.78169" lon="11.6624045"><ele>930.0</ele><time>2026-04-19T07:33:10.975Z</time></trkpt><trkpt lat="43.7816343" lon="11.6621305"><ele>930.0</ele><time>2026-04-19T07:33:11.975Z</time></trkpt><trkpt lat="43.7815677" lon="11.6618544"><ele>932.3333333333333</ele><time>2026-04-19T07:33:12.982Z</time></trkpt><trkpt lat="43.781504" lon="11.6615991"><ele>934.6666666666666</ele><time>2026-04-19T07:33:13.968Z</time></trkpt><trkpt lat="43.781445" lon="11.6614039"><ele>937.0</ele><time>2026-04-19T07:33:14.984Z</time></trkpt><trkpt lat="43.7814115" lon="11.6612365"><ele>938.25</ele><time>2026-04-19T07:33:15.973Z</time></trkpt><trkpt lat="43.781413" lon="11.6610669"><ele>939.5</ele><time>2026-04-19T07:33:16.976Z</time></trkpt><trkpt lat="43.7814465" lon="11.6608914"><ele>940.75</ele><time>2026-04-19T07:33:17.98Z</time></trkpt><trkpt lat="43.7815232" lon="11.6606945"><ele>942.0</ele><time>2026-04-19T07:33:18.963Z</time></trkpt><trkpt lat="43.7815901" lon="11.6604919"><ele>943.3333333333333</ele><time>2026-04-19T07:33:19.977Z</time></trkpt><trkpt lat="43.7816174" lon="11.6602756"><ele>944.6666666666666</ele><time>2026-04-19T07:33:20.973Z</time></trkpt><trkpt lat="43.7815991" lon="11.6600558"><ele>946.0</ele><time>2026-04-19T07:33:21.981Z</time></trkpt><trkpt lat="43.7815561" lon="11.6598172"><ele>946.0</ele><time>2026-04-19T07:33:22.983Z</time></trkpt><trkpt lat="43.78151" lon="11.6595631"><ele>946.0</ele><time>2026-04-19T07:33:23.972Z</time></trkpt><trkpt lat="43.7814838" lon="11.6592934"><ele>946.0</ele><time>2026-04-19T07:33:24.974Z</time></trkpt><trkpt lat="43.7814668" lon="11.6590042"><ele>947.3333333333333</ele><time>2026-04-19T07:33:25.987Z</time></trkpt><trkpt lat="43.7814582" lon="11.6587091"><ele>948.6666666666667</ele><time>2026-04-19T07:33:26.971Z</time></trkpt><trkpt lat="43.7814452" lon="11.6584314"><ele>950.0</ele><time>2026-04-19T07:33:27.984Z</time></trkpt><trkpt lat="43.7814445" lon="11.6581709"><ele>950.6666666666667</ele><time>2026-04-19T07:33:28.986Z</time></trkpt><trkpt lat="43.7814486" lon="11.6579475"><ele>951.3333333333333</ele><time>2026-04-19T07:33:29.979Z</time></trkpt><trkpt lat="43.7814624" lon="11.6577491"><ele>952.0</ele><time>2026-04-19T07:33:30.966Z</time></trkpt><trkpt lat="43.7815007" lon="11.6575544"><ele>954.0</ele><time>2026-04-19T07:33:31.994Z</time></trkpt><trkpt lat="43.7815805" lon="11.6573681"><ele>956.0</ele><time>2026-04-19T07:33:32.962Z</time></trkpt><trkpt lat="43.7817092" lon="11.657213"><ele>958.0</ele><time>2026-04-19T07:33:33.981Z</time></trkpt><trkpt lat="43.7818682" lon="11.65708"><ele>953.6666666666666</ele><time>2026-04-19T07:33:34.98Z</time></trkpt><trkpt lat="43.7820329" lon="11.6569453"><ele>949.3333333333333</ele><time>2026-04-19T07:33:35.989Z</time></trkpt><trkpt lat="43.7821791" lon="11.6568075"><ele>945.0</ele><time>2026-04-19T07:33:36.968Z</time></trkpt><trkpt lat="43.7822952" lon="11.6566741"><ele>945.0</ele><time>2026-04-19T07:33:37.967Z</time></trkpt><trkpt lat="43.7823875" lon="11.6565029"><ele>945.0</ele><time>2026-04-19T07:33:38.982Z</time></trkpt><trkpt lat="43.7824573" lon="11.656291"><ele>945.0</ele><time>2026-04-19T07:33:39.971Z</time></trkpt><trkpt lat="43.7824938" lon="11.6560631"><ele>944.0</ele><time>2026-04-19T07:33:40.986Z</time></trkpt><trkpt lat="43.7824989" lon="11.6558347"><ele>943.0</ele><time>2026-04-19T07:33:41.957Z</time></trkpt><trkpt lat="43.7824701" lon="11.6555905"><ele>942.0</ele><time>2026-04-19T07:33:42.984Z</time></trkpt><trkpt lat="43.7824123" lon="11.6553825"><ele>944.3333333333333</ele><time>2026-04-19T07:33:43.98Z</time></trkpt><trkpt lat="43.7822983" lon="11.655166"><ele>946.6666666666666</ele><time>2026-04-19T07:33:44.967Z</time></trkpt><trkpt lat="43.7821478" lon="11.6549688"><ele>949.0</ele><time>2026-04-19T07:33:45.977Z</time></trkpt><trkpt lat="43.7819763" lon="11.6547654"><ele>946.3333333333333</ele><time>2026-04-19T07:33:46.98Z</time></trkpt><trkpt lat="43.7818201" lon="11.6545676"><ele>943.6666666666667</ele><time>2026-04-19T07:33:47.978Z</time></trkpt><trkpt lat="43.781687" lon="11.6543894"><ele>941.0</ele><time>2026-04-19T07:33:48.992Z</time></trkpt><trkpt lat="43.7815779" lon="11.6542268"><ele>941.0</ele><time>2026-04-19T07:33:49.977Z</time></trkpt><trkpt lat="43.7814891" lon="11.6540307"><ele>941.0</ele><time>2026-04-19T07:33:50.966Z</time></trkpt><trkpt lat="43.7814316" lon="11.6538002"><ele>941.0</ele><time>2026-04-19T07:33:51.98Z</time></trkpt><trkpt lat="43.7813999" lon="11.6535527"><ele>945.0</ele><time>2026-04-19T07:33:52.98Z</time></trkpt><trkpt lat="43.781369" lon="11.6533112"><ele>949.0</ele><time>2026-04-19T07:33:53.986Z</time></trkpt><trkpt lat="43.7813291" lon="11.653069"><ele>953.0</ele><time>2026-04-19T07:33:54.978Z</time></trkpt><trkpt lat="43.7812644" lon="11.6528613"><ele>954.3333333333334</ele><time>2026-04-19T07:33:55.991Z</time></trkpt><trkpt lat="43.7811923" lon="11.6526673"><ele>955.6666666666667</ele><time>2026-04-19T07:33:56.985Z</time></trkpt><trkpt lat="43.7811766" lon="11.6524252"><ele>957.0</ele><time>2026-04-19T07:33:57.987Z</time></trkpt><trkpt lat="43.7812059" lon="11.652178"><ele>957.3333333333333</ele><time>2026-04-19T07:33:58.974Z</time></trkpt><trkpt lat="43.7812314" lon="11.6519181"><ele>957.6666666666666</ele><time>2026-04-19T07:33:59.98Z</time></trkpt><trkpt lat="43.7812616" lon="11.6516515"><ele>958.0</ele><time>2026-04-19T07:34:00.977Z</time></trkpt><trkpt lat="43.7812872" lon="11.6514299"><ele>958.0</ele><time>2026-04-19T07:34:01.991Z</time></trkpt><trkpt lat="43.7813109" lon="11.6512481"><ele>958.0</ele><time>2026-04-19T07:34:02.979Z</time></trkpt><trkpt lat="43.7813661" lon="11.6510732"><ele>958.0</ele><time>2026-04-19T07:34:03.99Z</time></trkpt><trkpt lat="43.7814688" lon="11.6509079"><ele>958.0</ele><time>2026-04-19T07:34:04.967Z</time></trkpt><trkpt lat="43.7816102" lon="11.6507689"><ele>954.0</ele><time>2026-04-19T07:34:05.981Z</time></trkpt><trkpt lat="43.7817677" lon="11.650639"><ele>950.0</ele><time>2026-04-19T07:34:06.974Z</time></trkpt><trkpt lat="43.7819471" lon="11.6505159"><ele>946.0</ele><time>2026-04-19T07:34:07.972Z</time></trkpt><trkpt lat="43.7821382" lon="11.6503704"><ele>945.6666666666666</ele><time>2026-04-19T07:34:08.981Z</time></trkpt><trkpt lat="43.7823214" lon="11.650204"><ele>945.3333333333333</ele><time>2026-04-19T07:34:09.985Z</time></trkpt><trkpt lat="43.7824906" lon="11.6500335"><ele>945.0</ele><time>2026-04-19T07:34:10.962Z</time></trkpt><trkpt lat="43.7826619" lon="11.6498953"><ele>949.3333333333333</ele><time>2026-04-19T07:34:11.965Z</time></trkpt><trkpt lat="43.7828369" lon="11.6498057"><ele>953.6666666666666</ele><time>2026-04-19T07:34:12.978Z</time></trkpt><trkpt lat="43.7830404" lon="11.6497502"><ele>958.0</ele><time>2026-04-19T07:34:13.976Z</time></trkpt><trkpt lat="43.7832529" lon="11.6497213"><ele>958.0</ele><time>2026-04-19T07:34:14.982Z</time></trkpt><trkpt lat="43.7834393" lon="11.6497049"><ele>958.0</ele><time>2026-04-19T07:34:15.98Z</time></trkpt><trkpt lat="43.7836092" lon="11.6497257"><ele>958.0</ele><time>2026-04-19T07:34:16.975Z</time></trkpt><trkpt lat="43.7837735" lon="11.6497781"><ele>957.0</ele><time>2026-04-19T07:34:17.958Z</time></trkpt><trkpt lat="43.7839552" lon="11.6498583"><ele>956.0</ele><time>2026-04-19T07:34:18.967Z</time></trkpt><trkpt lat="43.7841413" lon="11.6499721"><ele>955.0</ele><time>2026-04-19T07:34:19.983Z</time></trkpt><trkpt lat="43.7843387" lon="11.6500947"><ele>955.0</ele><time>2026-04-19T07:34:20.967Z</time></trkpt><trkpt lat="43.7845298" lon="11.6502096"><ele>955.0</ele><time>2026-04-19T07:34:21.979Z</time></trkpt><trkpt lat="43.7847137" lon="11.6503295"><ele>955.0</ele><time>2026-04-19T07:34:22.978Z</time></trkpt><trkpt lat="43.784891" lon="11.6504292"><ele>955.0</ele><time>2026-04-19T07:34:23.974Z</time></trkpt><trkpt lat="43.7850608" lon="11.6505028"><ele>955.0</ele><time>2026-04-19T07:34:24.979Z</time></trkpt><trkpt lat="43.7852298" lon="11.6505541"><ele>955.0</ele><time>2026-04-19T07:34:25.972Z</time></trkpt><trkpt lat="43.7853926" lon="11.6505654"><ele>955.3333333333333</ele><time>2026-04-19T07:34:26.987Z</time></trkpt><trkpt lat="43.7855473" lon="11.650538"><ele>955.6666666666667</ele><time>2026-04-19T07:34:27.979Z</time></trkpt><trkpt lat="43.7857172" lon="11.6504703"><ele>956.0</ele><time>2026-04-19T07:34:28.968Z</time></trkpt><trkpt lat="43.7858908" lon="11.6503519"><ele>956.0</ele><time>2026-04-19T07:34:29.972Z</time></trkpt><trkpt lat="43.7860502" lon="11.6502278"><ele>956.0</ele><time>2026-04-19T07:34:30.981Z</time></trkpt><trkpt lat="43.7861909" lon="11.6501181"><ele>956.0</ele><time>2026-04-19T07:34:31.966Z</time></trkpt><trkpt lat="43.7863057" lon="11.6499871"><ele>956.0</ele><time>2026-04-19T07:34:32.971Z</time></trkpt><trkpt lat="43.7864029" lon="11.6498272"><ele>956.0</ele><time>2026-04-19T07:34:33.973Z</time></trkpt><trkpt lat="43.7864733" lon="11.6496292"><ele>956.0</ele><time>2026-04-19T07:34:34.981Z</time></trkpt><trkpt lat="43.7865305" lon="11.6494011"><ele>954.3333333333334</ele><time>2026-04-19T07:34:35.976Z</time></trkpt><trkpt lat="43.7865702" lon="11.6491497"><ele>952.6666666666667</ele><time>2026-04-19T07:34:36.984Z</time></trkpt><trkpt lat="43.7865883" lon="11.648882"><ele>951.0</ele><time>2026-04-19T07:34:37.985Z</time></trkpt><trkpt lat="43.7865817" lon="11.6486066"><ele>950.0</ele><time>2026-04-19T07:34:38.979Z</time></trkpt><trkpt lat="43.7865691" lon="11.6483505"><ele>949.0</ele><time>2026-04-19T07:34:39.988Z</time></trkpt><trkpt lat="43.7865609" lon="11.6481246"><ele>948.0</ele><time>2026-04-19T07:34:40.982Z</time></trkpt><trkpt lat="43.7865671" lon="11.6479133"><ele>947.6666666666667</ele><time>2026-04-19T07:34:41.991Z</time></trkpt><trkpt lat="43.786591" lon="11.6477"><ele>947.3333333333334</ele><time>2026-04-19T07:34:42.985Z</time></trkpt><trkpt lat="43.7866369" lon="11.6474836"><ele>947.0</ele><time>2026-04-19T07:34:43.984Z</time></trkpt><trkpt lat="43.7867091" lon="11.6472479"><ele>947.0</ele><time>2026-04-19T07:34:44.983Z</time></trkpt><trkpt lat="43.786791" lon="11.6469961"><ele>947.0</ele><time>2026-04-19T07:34:45.969Z</time></trkpt><trkpt lat="43.7868691" lon="11.6467351"><ele>947.0</ele><time>2026-04-19T07:34:46.991Z</time></trkpt><trkpt lat="43.786946" lon="11.6464729"><ele>952.0</ele><time>2026-04-19T07:34:47.977Z</time></trkpt><trkpt lat="43.7870232" lon="11.6462163"><ele>957.0</ele><time>2026-04-19T07:34:48.987Z</time></trkpt><trkpt lat="43.7871061" lon="11.6459744"><ele>962.0</ele><time>2026-04-19T07:34:49.98Z</time></trkpt><trkpt lat="43.7871922" lon="11.6457423"><ele>962.0</ele><time>2026-04-19T07:34:50.982Z</time></trkpt><trkpt lat="43.7872797" lon="11.6455149"><ele>962.0</ele><time>2026-04-19T07:34:51.986Z</time></trkpt><trkpt lat="43.7873575" lon="11.6453022"><ele>962.0</ele><time>2026-04-19T07:34:52.977Z</time></trkpt><trkpt lat="43.7874214" lon="11.645113"><ele>960.3333333333334</ele><time>2026-04-19T07:34:53.978Z</time></trkpt><trkpt lat="43.7874601" lon="11.6449202"><ele>958.6666666666667</ele><time>2026-04-19T07:34:54.983Z</time></trkpt><trkpt lat="43.7874676" lon="11.6447003"><ele>957.0</ele><time>2026-04-19T07:34:55.979Z</time></trkpt><trkpt lat="43.7874392" lon="11.6444882"><ele>958.3333333333333</ele><time>2026-04-19T07:34:56.979Z</time></trkpt><trkpt lat="43.787382" lon="11.6442768"><ele>959.6666666666666</ele><time>2026-04-19T07:34:57.959Z</time></trkpt><trkpt lat="43.7872985" lon="11.6440712"><ele>961.0</ele><time>2026-04-19T07:34:58.967Z</time></trkpt><trkpt lat="43.7872024" lon="11.6438671"><ele>961.0</ele><time>2026-04-19T07:34:59.984Z</time></trkpt><trkpt lat="43.787121" lon="11.6436701"><ele>961.0</ele><time>2026-04-19T07:35:00.982Z</time></trkpt><trkpt lat="43.7870566" lon="11.6434661"><ele>961.0</ele><time>2026-04-19T07:35:01.961Z</time></trkpt><trkpt lat="43.7870128" lon="11.6432431"><ele>961.6666666666666</ele><time>2026-04-19T07:35:02.983Z</time></trkpt><trkpt lat="43.787006" lon="11.6429958"><ele>962.3333333333333</ele><time>2026-04-19T07:35:03.982Z</time></trkpt><trkpt lat="43.7870071" lon="11.642732"><ele>963.0</ele><time>2026-04-19T07:35:04.984Z</time></trkpt><trkpt lat="43.7870081" lon="11.6425047"><ele>962.3333333333333</ele><time>2026-04-19T07:35:05.987Z</time></trkpt><trkpt lat="43.7870268" lon="11.6422897"><ele>961.6666666666666</ele><time>2026-04-19T07:35:06.976Z</time></trkpt><trkpt lat="43.7870649" lon="11.642068"><ele>961.0</ele><time>2026-04-19T07:35:07.977Z</time></trkpt><trkpt lat="43.787111" lon="11.6418466"><ele>961.0</ele><time>2026-04-19T07:35:08.991Z</time></trkpt><trkpt lat="43.7871697" lon="11.6416381"><ele>961.0</ele><time>2026-04-19T07:35:09.985Z</time></trkpt><trkpt lat="43.7872208" lon="11.6414427"><ele>961.0</ele><time>2026-04-19T07:35:10.975Z</time></trkpt><trkpt lat="43.7872656" lon="11.6412719"><ele>961.0</ele><time>2026-04-19T07:35:11.979Z</time></trkpt><trkpt lat="43.7872932" lon="11.6411107"><ele>962.25</ele><time>2026-04-19T07:35:12.97Z</time></trkpt><trkpt lat="43.7872875" lon="11.6409281"><ele>963.5</ele><time>2026-04-19T07:35:13.979Z</time></trkpt><trkpt lat="43.7872484" lon="11.6407675"><ele>964.75</ele><time>2026-04-19T07:35:14.979Z</time></trkpt><trkpt lat="43.7871806" lon="11.6405961"><ele>966.0</ele><time>2026-04-19T07:35:15.975Z</time></trkpt><trkpt lat="43.7871093" lon="11.6404357"><ele>966.0</ele><time>2026-04-19T07:35:16.98Z</time></trkpt><trkpt lat="43.787042" lon="11.6402999"><ele>965.9999999999999</ele><time>2026-04-19T07:35:17.963Z</time></trkpt><trkpt lat="43.7869885" lon="11.6401924"><ele>965.9999999999999</ele><time>2026-04-19T07:35:18.987Z</time></trkpt><trkpt lat="43.7869603" lon="11.6400789"><ele>966.0</ele><time>2026-04-19T07:35:19.986Z</time></trkpt><trkpt lat="43.7869606" lon="11.6399444"><ele>966.0</ele><time>2026-04-19T07:35:20.971Z</time></trkpt><trkpt lat="43.7869937" lon="11.63983"><ele>965.75</ele><time>2026-04-19T07:35:21.981Z</time></trkpt><trkpt lat="43.7870618" lon="11.639721"><ele>965.5</ele><time>2026-04-19T07:35:22.959Z</time></trkpt><trkpt lat="43.787164" lon="11.6396602"><ele>965.25</ele><time>2026-04-19T07:35:23.961Z</time></trkpt><trkpt lat="43.7873048" lon="11.6396004"><ele>965.0</ele><time>2026-04-19T07:35:24.962Z</time></trkpt><trkpt lat="43.7874508" lon="11.6395532"><ele>965.0</ele><time>2026-04-19T07:35:25.963Z</time></trkpt><trkpt lat="43.7875718" lon="11.6394978"><ele>965.0</ele><time>2026-04-19T07:35:26.961Z</time></trkpt><trkpt lat="43.7876778" lon="11.639423"><ele>965.0</ele><time>2026-04-19T07:35:27.974Z</time></trkpt><trkpt lat="43.7877671" lon="11.6392981"><ele>965.0</ele><time>2026-04-19T07:35:28.98Z</time></trkpt><trkpt lat="43.7878401" lon="11.6391314"><ele>963.5</ele><time>2026-04-19T07:35:29.976Z</time></trkpt><trkpt lat="43.7878847" lon="11.6389587"><ele>962.0</ele><time>2026-04-19T07:35:30.973Z</time></trkpt><trkpt lat="43.7879175" lon="11.638787"><ele>960.5</ele><time>2026-04-19T07:35:31.975Z</time></trkpt><trkpt lat="43.7879427" lon="11.6386039"><ele>959.0</ele><time>2026-04-19T07:35:32.978Z</time></trkpt><trkpt lat="43.7879646" lon="11.6384062"><ele>959.0</ele><time>2026-04-19T07:35:33.98Z</time></trkpt><trkpt lat="43.7879765" lon="11.6381981"><ele>959.0</ele><time>2026-04-19T07:35:34.985Z</time></trkpt><trkpt lat="43.7879608" lon="11.6379922"><ele>959.0</ele><time>2026-04-19T07:35:35.981Z</time></trkpt><trkpt lat="43.7879456" lon="11.6377805"><ele>961.3333333333334</ele><time>2026-04-19T07:35:36.976Z</time></trkpt><trkpt lat="43.7879357" lon="11.6375576"><ele>963.6666666666667</ele><time>2026-04-19T07:35:37.98Z</time></trkpt><trkpt lat="43.7879356" lon="11.6373413"><ele>966.0</ele><time>2026-04-19T07:35:38.973Z</time></trkpt><trkpt lat="43.7879541" lon="11.6371203"><ele>967.6666666666667</ele><time>2026-04-19T07:35:39.986Z</time></trkpt><trkpt lat="43.7879703" lon="11.6368962"><ele>969.3333333333334</ele><time>2026-04-19T07:35:40.982Z</time></trkpt><trkpt lat="43.7879769" lon="11.6366638"><ele>971.0</ele><time>2026-04-19T07:35:41.979Z</time></trkpt><trkpt lat="43.7879803" lon="11.6364345"><ele>971.0</ele><time>2026-04-19T07:35:42.972Z</time></trkpt><trkpt lat="43.7879618" lon="11.6362142"><ele>971.0</ele><time>2026-04-19T07:35:43.98Z</time></trkpt><trkpt lat="43.7879194" lon="11.6360027"><ele>971.0</ele><time>2026-04-19T07:35:44.983Z</time></trkpt><trkpt lat="43.7878906" lon="11.6358075"><ele>970.5</ele><time>2026-04-19T07:35:45.98Z</time></trkpt><trkpt lat="43.7878851" lon="11.6356131"><ele>970.0</ele><time>2026-04-19T07:35:46.983Z</time></trkpt><trkpt lat="43.7879066" lon="11.6353985"><ele>969.5</ele><time>2026-04-19T07:35:47.974Z</time></trkpt><trkpt lat="43.7879458" lon="11.6352012"><ele>969.0</ele><time>2026-04-19T07:35:48.979Z</time></trkpt><trkpt lat="43.7879975" lon="11.6350397"><ele>967.25</ele><time>2026-04-19T07:35:49.974Z</time></trkpt><trkpt lat="43.7880758" lon="11.6348767"><ele>965.5</ele><time>2026-04-19T07:35:50.977Z</time></trkpt><trkpt lat="43.788174" lon="11.6347061"><ele>963.75</ele><time>2026-04-19T07:35:51.985Z</time></trkpt><trkpt lat="43.7882689" lon="11.634559"><ele>962.0</ele><time>2026-04-19T07:35:52.979Z</time></trkpt><trkpt lat="43.788352" lon="11.6343981"><ele>959.6666666666667</ele><time>2026-04-19T07:35:53.994Z</time></trkpt><trkpt lat="43.7884102" lon="11.6342123"><ele>957.3333333333333</ele><time>2026-04-19T07:35:54.972Z</time></trkpt><trkpt lat="43.7884394" lon="11.6339889"><ele>955.0</ele><time>2026-04-19T07:35:55.986Z</time></trkpt><trkpt lat="43.7884276" lon="11.6337371"><ele>954.6666666666666</ele><time>2026-04-19T07:35:56.967Z</time></trkpt><trkpt lat="43.788398" lon="11.6334794"><ele>954.3333333333333</ele><time>2026-04-19T07:35:57.979Z</time></trkpt><trkpt lat="43.7883689" lon="11.6331934"><ele>954.0</ele><time>2026-04-19T07:35:58.98Z</time></trkpt><trkpt lat="43.7883374" lon="11.6329043"><ele>956.3333333333333</ele><time>2026-04-19T07:35:59.989Z</time></trkpt><trkpt lat="43.788317" lon="11.6326026"><ele>958.6666666666666</ele><time>2026-04-19T07:36:00.99Z</time></trkpt><trkpt lat="43.7882964" lon="11.6323156"><ele>961.0</ele><time>2026-04-19T07:36:01.979Z</time></trkpt><trkpt lat="43.7882654" lon="11.6320582"><ele>962.0</ele><time>2026-04-19T07:36:02.987Z</time></trkpt><trkpt lat="43.7882165" lon="11.6318372"><ele>963.0</ele><time>2026-04-19T07:36:03.978Z</time></trkpt><trkpt lat="43.7881475" lon="11.6316605"><ele>964.0</ele><time>2026-04-19T07:36:04.987Z</time></trkpt><trkpt lat="43.7880411" lon="11.6315072"><ele>964.0</ele><time>2026-04-19T07:36:05.974Z</time></trkpt><trkpt lat="43.7879014" lon="11.6313955"><ele>964.0</ele><time>2026-04-19T07:36:06.976Z</time></trkpt><trkpt lat="43.7877451" lon="11.6313119"><ele>964.0</ele><time>2026-04-19T07:36:07.985Z</time></trkpt><trkpt lat="43.787593" lon="11.6311784"><ele>966.25</ele><time>2026-04-19T07:36:08.972Z</time></trkpt><trkpt lat="43.7874579" lon="11.6310369"><ele>968.5</ele><time>2026-04-19T07:36:09.979Z</time></trkpt><trkpt lat="43.7873578" lon="11.6308993"><ele>970.75</ele><time>2026-04-19T07:36:10.985Z</time></trkpt><trkpt lat="43.7872956" lon="11.6307424"><ele>973.0</ele><time>2026-04-19T07:36:11.976Z</time></trkpt><trkpt lat="43.7872676" lon="11.6305594"><ele>973.0</ele><time>2026-04-19T07:36:12.992Z</time></trkpt><trkpt lat="43.7872766" lon="11.6303663"><ele>973.0</ele><time>2026-04-19T07:36:13.978Z</time></trkpt><trkpt lat="43.7873252" lon="11.630154"><ele>973.0</ele><time>2026-04-19T07:36:14.986Z</time></trkpt><trkpt lat="43.7874117" lon="11.6299494"><ele>974.0</ele><time>2026-04-19T07:36:15.982Z</time></trkpt><trkpt lat="43.7875367" lon="11.6297746"><ele>975.0</ele><time>2026-04-19T07:36:16.983Z</time></trkpt><trkpt lat="43.7876556" lon="11.6296267"><ele>976.0</ele><time>2026-04-19T07:36:17.976Z</time></trkpt><trkpt lat="43.7877517" lon="11.6294923"><ele>975.25</ele><time>2026-04-19T07:36:18.986Z</time></trkpt><trkpt lat="43.787793" lon="11.6293388"><ele>974.5</ele><time>2026-04-19T07:36:19.971Z</time></trkpt><trkpt lat="43.7877963" lon="11.6291944"><ele>973.75</ele><time>2026-04-19T07:36:20.975Z</time></trkpt><trkpt lat="43.7877533" lon="11.6290511"><ele>973.0</ele><time>2026-04-19T07:36:21.956Z</time></trkpt><trkpt lat="43.7876564" lon="11.6289104"><ele>973.0</ele><time>2026-04-19T07:36:22.966Z</time></trkpt><trkpt lat="43.7875362" lon="11.6287747"><ele>973.0</ele><time>2026-04-19T07:36:23.988Z</time></trkpt><trkpt lat="43.7874593" lon="11.62865"><ele>973.0</ele><time>2026-04-19T07:36:24.98Z</time></trkpt><trkpt lat="43.7874287" lon="11.6285357"><ele>973.0</ele><time>2026-04-19T07:36:25.986Z</time></trkpt><trkpt lat="43.787443" lon="11.6284216"><ele>973.0</ele><time>2026-04-19T07:36:26.986Z</time></trkpt><trkpt lat="43.7875" lon="11.6282669"><ele>974.5</ele><time>2026-04-19T07:36:27.985Z</time></trkpt><trkpt lat="43.7876063" lon="11.6281496"><ele>976.0</ele><time>2026-04-19T07:36:28.966Z</time></trkpt><trkpt lat="43.7877397" lon="11.628053"><ele>977.5</ele><time>2026-04-19T07:36:29.972Z</time></trkpt><trkpt lat="43.7878844" lon="11.6279967"><ele>979.0</ele><time>2026-04-19T07:36:30.982Z</time></trkpt><trkpt lat="43.7879892" lon="11.6279382"><ele>979.8000000000001</ele><time>2026-04-19T07:36:31.98Z</time></trkpt><trkpt lat="43.7880568" lon="11.6278361"><ele>980.6000000000001</ele><time>2026-04-19T07:36:32.99Z</time></trkpt><trkpt lat="43.7880934" lon="11.627708"><ele>981.4</ele><time>2026-04-19T07:36:33.978Z</time></trkpt><trkpt lat="43.7880958" lon="11.6275679"><ele>982.2</ele><time>2026-04-19T07:36:34.98Z</time></trkpt><trkpt lat="43.7880167" lon="11.6274101"><ele>983.0</ele><time>2026-04-19T07:36:35.959Z</time></trkpt><trkpt lat="43.787902" lon="11.6272324"><ele>983.0</ele><time>2026-04-19T07:36:36.983Z</time></trkpt><trkpt lat="43.7877938" lon="11.6270473"><ele>983.0</ele><time>2026-04-19T07:36:37.986Z</time></trkpt><trkpt lat="43.7876865" lon="11.6268348"><ele>983.0</ele><time>2026-04-19T07:36:38.976Z</time></trkpt><trkpt lat="43.7875693" lon="11.6266192"><ele>976.3333333333334</ele><time>2026-04-19T07:36:39.984Z</time></trkpt><trkpt lat="43.7874396" lon="11.6264338"><ele>969.6666666666667</ele><time>2026-04-19T07:36:40.971Z</time></trkpt><trkpt lat="43.7872948" lon="11.6262522"><ele>963.0</ele><time>2026-04-19T07:36:41.988Z</time></trkpt><trkpt lat="43.787182" lon="11.62606"><ele>962.6666666666667</ele><time>2026-04-19T07:36:42.966Z</time></trkpt><trkpt lat="43.7870982" lon="11.6258574"><ele>962.3333333333334</ele><time>2026-04-19T07:36:43.959Z</time></trkpt><trkpt lat="43.7870343" lon="11.6256439"><ele>962.0</ele><time>2026-04-19T07:36:44.978Z</time></trkpt><trkpt lat="43.7870032" lon="11.6254342"><ele>959.25</ele><time>2026-04-19T07:36:45.975Z</time></trkpt><trkpt lat="43.7869978" lon="11.6252654"><ele>956.5</ele><time>2026-04-19T07:36:46.975Z</time></trkpt><trkpt lat="43.7870289" lon="11.625099"><ele>953.75</ele><time>2026-04-19T07:36:47.971Z</time></trkpt><trkpt lat="43.7871053" lon="11.6249235"><ele>951.0</ele><time>2026-04-19T07:36:48.978Z</time></trkpt><trkpt lat="43.7871966" lon="11.6247698"><ele>951.0</ele><time>2026-04-19T07:36:49.973Z</time></trkpt><trkpt lat="43.7873" lon="11.6246494"><ele>951.0</ele><time>2026-04-19T07:36:50.968Z</time></trkpt><trkpt lat="43.7874261" lon="11.6245625"><ele>951.0</ele><time>2026-04-19T07:36:51.974Z</time></trkpt><trkpt lat="43.7875849" lon="11.6244785"><ele>951.0</ele><time>2026-04-19T07:36:52.969Z</time></trkpt><trkpt lat="43.7877576" lon="11.6243884"><ele>948.0</ele><time>2026-04-19T07:36:53.976Z</time></trkpt><trkpt lat="43.7879255" lon="11.6243042"><ele>945.0</ele><time>2026-04-19T07:36:54.97Z</time></trkpt><trkpt lat="43.7880713" lon="11.6242326"><ele>942.0</ele><time>2026-04-19T07:36:55.979Z</time></trkpt><trkpt lat="43.7881958" lon="11.62417"><ele>942.0</ele><time>2026-04-19T07:36:56.962Z</time></trkpt><trkpt lat="43.7882975" lon="11.624073"><ele>942.0</ele><time>2026-04-19T07:36:57.977Z</time></trkpt><trkpt lat="43.7883702" lon="11.6239495"><ele>942.0</ele><time>2026-04-19T07:36:58.96Z</time></trkpt><trkpt lat="43.7884076" lon="11.6237745"><ele>942.0</ele><time>2026-04-19T07:36:59.981Z</time></trkpt><trkpt lat="43.7884073" lon="11.6235706"><ele>937.6666666666667</ele><time>2026-04-19T07:37:00.973Z</time></trkpt><trkpt lat="43.7883582" lon="11.6233641"><ele>933.3333333333334</ele><time>2026-04-19T07:37:01.974Z</time></trkpt><trkpt lat="43.7882922" lon="11.6231499"><ele>929.0</ele><time>2026-04-19T07:37:02.973Z</time></trkpt><trkpt lat="43.7882163" lon="11.6229131"><ele>929.0</ele><time>2026-04-19T07:37:03.979Z</time></trkpt><trkpt lat="43.7881297" lon="11.6226701"><ele>929.0</ele><time>2026-04-19T07:37:04.981Z</time></trkpt><trkpt lat="43.7880266" lon="11.6224328"><ele>929.0</ele><time>2026-04-19T07:37:05.973Z</time></trkpt><trkpt lat="43.7878914" lon="11.6222139"><ele>929.0</ele><time>2026-04-19T07:37:06.989Z</time></trkpt><trkpt lat="43.7877381" lon="11.6219955"><ele>929.0</ele><time>2026-04-19T07:37:07.981Z</time></trkpt><trkpt lat="43.7875789" lon="11.6217703"><ele>929.0</ele><time>2026-04-19T07:37:08.978Z</time></trkpt><trkpt lat="43.787419" lon="11.6215304"><ele>932.5</ele><time>2026-04-19T07:37:09.98Z</time></trkpt><trkpt lat="43.7872526" lon="11.6212963"><ele>936.0</ele><time>2026-04-19T07:37:10.972Z</time></trkpt><trkpt lat="43.7870762" lon="11.6210515"><ele>937.0</ele><time>2026-04-19T07:37:11.972Z</time></trkpt><trkpt lat="43.7869034" lon="11.6208125"><ele>938.0</ele><time>2026-04-19T07:37:12.987Z</time></trkpt><trkpt lat="43.7867488" lon="11.6205929"><ele>938.0</ele><time>2026-04-19T07:37:13.966Z</time></trkpt><trkpt lat="43.7865897" lon="11.6203914"><ele>938.0</ele><time>2026-04-19T07:37:14.976Z</time></trkpt><trkpt lat="43.7864138" lon="11.6202079"><ele>938.0</ele><time>2026-04-19T07:37:15.978Z</time></trkpt><trkpt lat="43.7862358" lon="11.6200508"><ele>940.6666666666667</ele><time>2026-04-19T07:37:16.978Z</time></trkpt><trkpt lat="43.7860629" lon="11.6199178"><ele>943.3333333333333</ele><time>2026-04-19T07:37:17.968Z</time></trkpt><trkpt lat="43.7859056" lon="11.6197974"><ele>946.0</ele><time>2026-04-19T07:37:18.977Z</time></trkpt><trkpt lat="43.785766" lon="11.6196936"><ele>946.25</ele><time>2026-04-19T07:37:19.98Z</time></trkpt><trkpt lat="43.7856351" lon="11.619604"><ele>946.5</ele><time>2026-04-19T07:37:20.964Z</time></trkpt><trkpt lat="43.785512" lon="11.6195406"><ele>946.75</ele><time>2026-04-19T07:37:21.98Z</time></trkpt><trkpt lat="43.7853816" lon="11.6195122"><ele>947.0</ele><time>2026-04-19T07:37:22.971Z</time></trkpt><trkpt lat="43.7852499" lon="11.6195394"><ele>948.0</ele><time>2026-04-19T07:37:23.983Z</time></trkpt><trkpt lat="43.7851342" lon="11.6195979"><ele>949.0</ele><time>2026-04-19T07:37:24.973Z</time></trkpt><trkpt lat="43.7850208" lon="11.619662"><ele>950.0</ele><time>2026-04-19T07:37:25.973Z</time></trkpt><trkpt lat="43.784903" lon="11.6196895"><ele>951.0</ele><time>2026-04-19T07:37:26.987Z</time></trkpt><trkpt lat="43.7847846" lon="11.6196664"><ele>951.0</ele><time>2026-04-19T07:37:27.977Z</time></trkpt><trkpt lat="43.7846508" lon="11.6195858"><ele>951.0</ele><time>2026-04-19T07:37:28.981Z</time></trkpt><trkpt lat="43.784531" lon="11.619491"><ele>951.0</ele><time>2026-04-19T07:37:29.978Z</time></trkpt><trkpt lat="43.7844274" lon="11.6193947"><ele>951.0</ele><time>2026-04-19T07:37:30.981Z</time></trkpt><trkpt lat="43.7843496" lon="11.6192816"><ele>953.25</ele><time>2026-04-19T07:37:31.972Z</time></trkpt><trkpt lat="43.7843004" lon="11.6191368"><ele>955.5</ele><time>2026-04-19T07:37:32.979Z</time></trkpt><trkpt lat="43.784279" lon="11.6189717"><ele>957.75</ele><time>2026-04-19T07:37:33.979Z</time></trkpt><trkpt lat="43.78428" lon="11.6188003"><ele>960.0</ele><time>2026-04-19T07:37:35.002Z</time></trkpt><trkpt lat="43.7842931" lon="11.6186208"><ele>963.0</ele><time>2026-04-19T07:37:35.982Z</time></trkpt><trkpt lat="43.7843083" lon="11.6184193"><ele>966.0</ele><time>2026-04-19T07:37:36.993Z</time></trkpt><trkpt lat="43.7843162" lon="11.6182098"><ele>969.0</ele><time>2026-04-19T07:37:37.986Z</time></trkpt><trkpt lat="43.7843242" lon="11.6179837"><ele>972.0</ele><time>2026-04-19T07:37:38.99Z</time></trkpt><trkpt lat="43.7843365" lon="11.6175133"><ele>975.0</ele><time>2026-04-19T07:37:40.978Z</time></trkpt><trkpt lat="43.7843193" lon="11.6172711"><ele>975.0</ele><time>2026-04-19T07:37:41.979Z</time></trkpt><trkpt lat="43.784296" lon="11.6170288"><ele>975.0</ele><time>2026-04-19T07:37:42.977Z</time></trkpt><trkpt lat="43.7842831" lon="11.6168143"><ele>975.0</ele><time>2026-04-19T07:37:43.979Z</time></trkpt><trkpt lat="43.7842898" lon="11.616592"><ele>977.3333333333333</ele><time>2026-04-19T07:37:44.976Z</time></trkpt><trkpt lat="43.7843194" lon="11.6163784"><ele>979.6666666666666</ele><time>2026-04-19T07:37:45.986Z</time></trkpt><trkpt lat="43.7843789" lon="11.6161823"><ele>982.0</ele><time>2026-04-19T07:37:46.985Z</time></trkpt><trkpt lat="43.7844681" lon="11.616002"><ele>985.3333333333333</ele><time>2026-04-19T07:37:47.976Z</time></trkpt><trkpt lat="43.784582" lon="11.6158473"><ele>988.6666666666667</ele><time>2026-04-19T07:37:48.975Z</time></trkpt><trkpt lat="43.7847024" lon="11.6156765"><ele>992.0</ele><time>2026-04-19T07:37:49.978Z</time></trkpt><trkpt lat="43.7848043" lon="11.6154755"><ele>992.0</ele><time>2026-04-19T07:37:50.979Z</time></trkpt><trkpt lat="43.7848862" lon="11.6152537"><ele>992.0</ele><time>2026-04-19T07:37:51.978Z</time></trkpt><trkpt lat="43.7849443" lon="11.6149995"><ele>992.0</ele><time>2026-04-19T07:37:52.978Z</time></trkpt><trkpt lat="43.7849911" lon="11.6147341"><ele>993.0</ele><time>2026-04-19T07:37:53.983Z</time></trkpt><trkpt lat="43.7850273" lon="11.6144753"><ele>994.0</ele><time>2026-04-19T07:37:54.978Z</time></trkpt><trkpt lat="43.7850595" lon="11.6142522"><ele>995.0</ele><time>2026-04-19T07:37:55.971Z</time></trkpt><trkpt lat="43.785096" lon="11.6140504"><ele>995.0</ele><time>2026-04-19T07:37:56.97Z</time></trkpt><trkpt lat="43.7851317" lon="11.6138713"><ele>995.0</ele><time>2026-04-19T07:37:57.986Z</time></trkpt><trkpt lat="43.7851806" lon="11.613724"><ele>995.0</ele><time>2026-04-19T07:37:58.975Z</time></trkpt><trkpt lat="43.7852613" lon="11.6136057"><ele>995.0</ele><time>2026-04-19T07:37:59.978Z</time></trkpt><trkpt lat="43.7853682" lon="11.6135157"><ele>999.0</ele><time>2026-04-19T07:38:00.974Z</time></trkpt><trkpt lat="43.7854926" lon="11.6134423"><ele>1003.0</ele><time>2026-04-19T07:38:01.966Z</time></trkpt><trkpt lat="43.7856397" lon="11.6133856"><ele>1007.0</ele><time>2026-04-19T07:38:02.967Z</time></trkpt><trkpt lat="43.7857726" lon="11.6133317"><ele>1011.0</ele><time>2026-04-19T07:38:03.976Z</time></trkpt><trkpt lat="43.7859006" lon="11.6132817"><ele>1011.0</ele><time>2026-04-19T07:38:04.986Z</time></trkpt><trkpt lat="43.7859897" lon="11.6132158"><ele>1010.9999999999999</ele><time>2026-04-19T07:38:05.976Z</time></trkpt><trkpt lat="43.7860508" lon="11.6131154"><ele>1010.9999999999999</ele><time>2026-04-19T07:38:06.98Z</time></trkpt><trkpt lat="43.7860853" lon="11.613001"><ele>1011.0</ele><time>2026-04-19T07:38:07.991Z</time></trkpt><trkpt lat="43.7861009" lon="11.6128709"><ele>1011.0</ele><time>2026-04-19T07:38:08.976Z</time></trkpt><trkpt lat="43.7860826" lon="11.6127136"><ele>1008.5</ele><time>2026-04-19T07:38:09.976Z</time></trkpt><trkpt lat="43.7860341" lon="11.6125382"><ele>1006.0</ele><time>2026-04-19T07:38:10.979Z</time></trkpt><trkpt lat="43.7859955" lon="11.6123471"><ele>1003.5</ele><time>2026-04-19T07:38:11.977Z</time></trkpt><trkpt lat="43.7859675" lon="11.6121444"><ele>1001.0</ele><time>2026-04-19T07:38:12.991Z</time></trkpt><trkpt lat="43.7859543" lon="11.6119266"><ele>1008.6666666666667</ele><time>2026-04-19T07:38:13.989Z</time></trkpt><trkpt lat="43.7859201" lon="11.6117055"><ele>1016.3333333333333</ele><time>2026-04-19T07:38:14.987Z</time></trkpt><trkpt lat="43.7858483" lon="11.6115043"><ele>1024.0</ele><time>2026-04-19T07:38:15.993Z</time></trkpt><trkpt lat="43.7857672" lon="11.6113083"><ele>1023.3333333333333</ele><time>2026-04-19T07:38:16.989Z</time></trkpt><trkpt lat="43.7856779" lon="11.6111328"><ele>1022.6666666666667</ele><time>2026-04-19T07:38:17.98Z</time></trkpt><trkpt lat="43.7855763" lon="11.6109385"><ele>1022.0</ele><time>2026-04-19T07:38:18.985Z</time></trkpt><trkpt lat="43.7854832" lon="11.6107479"><ele>1022.0</ele><time>2026-04-19T07:38:19.983Z</time></trkpt><trkpt lat="43.7854077" lon="11.6105417"><ele>1022.0</ele><time>2026-04-19T07:38:20.992Z</time></trkpt><trkpt lat="43.7853515" lon="11.6103135"><ele>1022.0</ele><time>2026-04-19T07:38:21.972Z</time></trkpt><trkpt lat="43.7853142" lon="11.6100633"><ele>1022.0</ele><time>2026-04-19T07:38:22.968Z</time></trkpt><trkpt lat="43.7852899" lon="11.6098013"><ele>1022.0</ele><time>2026-04-19T07:38:23.977Z</time></trkpt><trkpt lat="43.7852502" lon="11.609529"><ele>1022.0</ele><time>2026-04-19T07:38:24.99Z</time></trkpt><trkpt lat="43.7852101" lon="11.6092376"><ele>1027.5</ele><time>2026-04-19T07:38:25.983Z</time></trkpt><trkpt lat="43.7851771" lon="11.6089424"><ele>1033.0</ele><time>2026-04-19T07:38:26.981Z</time></trkpt><trkpt lat="43.7851197" lon="11.6086275"><ele>1033.0</ele><time>2026-04-19T07:38:27.976Z</time></trkpt><trkpt lat="43.7850838" lon="11.6083124"><ele>1033.0</ele><time>2026-04-19T07:38:28.981Z</time></trkpt><trkpt lat="43.7850333" lon="11.6079854"><ele>1034.0</ele><time>2026-04-19T07:38:29.978Z</time></trkpt><trkpt lat="43.7849663" lon="11.607679"><ele>1035.0</ele><time>2026-04-19T07:38:30.991Z</time></trkpt><trkpt lat="43.7848937" lon="11.6073973"><ele>1036.0</ele><time>2026-04-19T07:38:31.98Z</time></trkpt><trkpt lat="43.784847" lon="11.6071387"><ele>1038.0</ele><time>2026-04-19T07:38:32.98Z</time></trkpt><trkpt lat="43.784819" lon="11.6069091"><ele>1040.0</ele><time>2026-04-19T07:38:33.978Z</time></trkpt><trkpt lat="43.7848145" lon="11.6066799"><ele>1042.0</ele><time>2026-04-19T07:38:34.982Z</time></trkpt><trkpt lat="43.7848495" lon="11.6064453"><ele>1042.0</ele><time>2026-04-19T07:38:35.973Z</time></trkpt><trkpt lat="43.7849183" lon="11.606208"><ele>1042.0</ele><time>2026-04-19T07:38:36.976Z</time></trkpt><trkpt lat="43.785012" lon="11.6059772"><ele>1042.0</ele><time>2026-04-19T07:38:37.979Z</time></trkpt><trkpt lat="43.7851002" lon="11.6057311"><ele>1045.3333333333333</ele><time>2026-04-19T07:38:38.984Z</time></trkpt><trkpt lat="43.7852011" lon="11.6054965"><ele>1048.6666666666667</ele><time>2026-04-19T07:38:39.986Z</time></trkpt><trkpt lat="43.785304" lon="11.6052804"><ele>1052.0</ele><time>2026-04-19T07:38:40.978Z</time></trkpt><trkpt lat="43.7853914" lon="11.6050846"><ele>1052.75</ele><time>2026-04-19T07:38:41.987Z</time></trkpt><trkpt lat="43.7854727" lon="11.6049019"><ele>1053.5</ele><time>2026-04-19T07:38:42.974Z</time></trkpt><trkpt lat="43.7855277" lon="11.6047452"><ele>1054.25</ele><time>2026-04-19T07:38:43.983Z</time></trkpt><trkpt lat="43.7855504" lon="11.6045936"><ele>1055.0</ele><time>2026-04-19T07:38:44.976Z</time></trkpt><trkpt lat="43.7855326" lon="11.6044338"><ele>1055.0</ele><time>2026-04-19T07:38:45.971Z</time></trkpt><trkpt lat="43.7854715" lon="11.6042953"><ele>1055.0</ele><time>2026-04-19T07:38:46.978Z</time></trkpt><trkpt lat="43.785364" lon="11.6041914"><ele>1055.0</ele><time>2026-04-19T07:38:47.973Z</time></trkpt><trkpt lat="43.7852429" lon="11.6041247"><ele>1055.0</ele><time>2026-04-19T07:38:48.979Z</time></trkpt><trkpt lat="43.7851073" lon="11.6040759"><ele>1055.0</ele><time>2026-04-19T07:38:49.979Z</time></trkpt><trkpt lat="43.7849514" lon="11.604035"><ele>1055.0</ele><time>2026-04-19T07:38:50.983Z</time></trkpt><trkpt lat="43.7847895" lon="11.6039885"><ele>1055.0</ele><time>2026-04-19T07:38:51.977Z</time></trkpt><trkpt lat="43.7846498" lon="11.6039602"><ele>1055.0</ele><time>2026-04-19T07:38:52.97Z</time></trkpt><trkpt lat="43.7845337" lon="11.60392"><ele>1055.0</ele><time>2026-04-19T07:38:53.979Z</time></trkpt><trkpt lat="43.7844278" lon="11.6038432"><ele>1055.0</ele><time>2026-04-19T07:38:54.977Z</time></trkpt><trkpt lat="43.7843324" lon="11.6037265"><ele>1055.0</ele><time>2026-04-19T07:38:55.987Z</time></trkpt><trkpt lat="43.7842452" lon="11.603572"><ele>1057.3333333333335</ele><time>2026-04-19T07:38:56.987Z</time></trkpt><trkpt lat="43.7841479" lon="11.603395"><ele>1059.6666666666667</ele><time>2026-04-19T07:38:57.987Z</time></trkpt><trkpt lat="43.7840484" lon="11.6032098"><ele>1062.0</ele><time>2026-04-19T07:38:58.988Z</time></trkpt><trkpt lat="43.7839405" lon="11.6030153"><ele>1066.6666666666667</ele><time>2026-04-19T07:38:59.976Z</time></trkpt><trkpt lat="43.7838259" lon="11.6028161"><ele>1071.3333333333335</ele><time>2026-04-19T07:39:00.977Z</time></trkpt><trkpt lat="43.7837142" lon="11.6026173"><ele>1076.0</ele><time>2026-04-19T07:39:01.983Z</time></trkpt><trkpt lat="43.7836062" lon="11.60243"><ele>1067.0</ele><time>2026-04-19T07:39:02.966Z</time></trkpt><trkpt lat="43.7834955" lon="11.6022684"><ele>1058.0</ele><time>2026-04-19T07:39:03.968Z</time></trkpt><trkpt lat="43.7833719" lon="11.6021241"><ele>1049.0</ele><time>2026-04-19T07:39:04.959Z</time></trkpt><trkpt lat="43.783237" lon="11.6020247"><ele>1052.8</ele><time>2026-04-19T07:39:05.974Z</time></trkpt><trkpt lat="43.7831168" lon="11.6019274"><ele>1056.6000000000001</ele><time>2026-04-19T07:39:06.983Z</time></trkpt><trkpt lat="43.7830337" lon="11.6018184"><ele>1060.4</ele><time>2026-04-19T07:39:07.981Z</time></trkpt><trkpt lat="43.7829884" lon="11.601711"><ele>1064.2</ele><time>2026-04-19T07:39:08.963Z</time></trkpt><trkpt lat="43.7829537" lon="11.6015977"><ele>1068.0</ele><time>2026-04-19T07:39:09.967Z</time></trkpt><trkpt lat="43.7829346" lon="11.6014925"><ele>1068.0</ele><time>2026-04-19T07:39:10.987Z</time></trkpt><trkpt lat="43.7829288" lon="11.6013838"><ele>1068.0</ele><time>2026-04-19T07:39:11.977Z</time></trkpt><trkpt lat="43.7829349" lon="11.601252"><ele>1068.0</ele><time>2026-04-19T07:39:12.988Z</time></trkpt><trkpt lat="43.7829493" lon="11.6011049"><ele>1068.0</ele><time>2026-04-19T07:39:13.985Z</time></trkpt><trkpt lat="43.7829663" lon="11.6009574"><ele>1068.0</ele><time>2026-04-19T07:39:14.958Z</time></trkpt><trkpt lat="43.7829784" lon="11.6008254"><ele>1067.6</ele><time>2026-04-19T07:39:15.96Z</time></trkpt><trkpt lat="43.7829845" lon="11.6006895"><ele>1067.1999999999998</ele><time>2026-04-19T07:39:16.974Z</time></trkpt><trkpt lat="43.7829834" lon="11.6005476"><ele>1066.8</ele><time>2026-04-19T07:39:17.967Z</time></trkpt><trkpt lat="43.782978" lon="11.6004003"><ele>1066.3999999999999</ele><time>2026-04-19T07:39:18.981Z</time></trkpt><trkpt lat="43.782974" lon="11.6002553"><ele>1066.0</ele><time>2026-04-19T07:39:19.978Z</time></trkpt><trkpt lat="43.782961" lon="11.6001169"><ele>1064.0</ele><time>2026-04-19T07:39:20.985Z</time></trkpt><trkpt lat="43.7829536" lon="11.5999754"><ele>1062.0</ele><time>2026-04-19T07:39:21.979Z</time></trkpt><trkpt lat="43.7829453" lon="11.5998421"><ele>1060.0</ele><time>2026-04-19T07:39:22.987Z</time></trkpt><trkpt lat="43.7829334" lon="11.5997151"><ele>1058.0</ele><time>2026-04-19T07:39:23.981Z</time></trkpt><trkpt lat="43.7829244" lon="11.5995916"><ele>1056.0</ele><time>2026-04-19T07:39:24.979Z</time></trkpt><trkpt lat="43.7829189" lon="11.5994873"><ele>1056.0</ele><time>2026-04-19T07:39:25.978Z</time></trkpt><trkpt lat="43.7828943" lon="11.5993883"><ele>1056.0</ele><time>2026-04-19T07:39:27.979Z</time></trkpt><trkpt lat="43.7828948" lon="11.5995"><ele>1056.0</ele><time>2026-04-19T07:39:46.981Z</time></trkpt><trkpt lat="43.7829061" lon="11.5996124"><ele>1056.0</ele><time>2026-04-19T07:39:48.997Z</time></trkpt><trkpt lat="43.7829025" lon="11.5997105"><ele>1056.0</ele><time>2026-04-19T07:39:49.984Z</time></trkpt><trkpt lat="43.7829021" lon="11.5998078"><ele>1056.0</ele><time>2026-04-19T07:39:50.983Z</time></trkpt><trkpt lat="43.7829065" lon="11.5999226"><ele>1056.0</ele><time>2026-04-19T07:39:51.993Z</time></trkpt><trkpt lat="43.7829164" lon="11.6000384"><ele>1056.0</ele><time>2026-04-19T07:39:52.982Z</time></trkpt><trkpt lat="43.7829263" lon="11.6001433"><ele>1056.0</ele><time>2026-04-19T07:39:53.978Z</time></trkpt><trkpt lat="43.7829272" lon="11.6002528"><ele>1056.0</ele><time>2026-04-19T07:39:54.984Z</time></trkpt><trkpt lat="43.7829107" lon="11.6003613"><ele>1056.0</ele><time>2026-04-19T07:39:55.958Z</time></trkpt><trkpt lat="43.7828813" lon="11.6004742"><ele>1056.0</ele><time>2026-04-19T07:39:56.983Z</time></trkpt><trkpt lat="43.7828508" lon="11.6005949"><ele>1057.6666666666667</ele><time>2026-04-19T07:39:57.973Z</time></trkpt><trkpt lat="43.7828322" lon="11.6007168"><ele>1059.3333333333333</ele><time>2026-04-19T07:39:58.986Z</time></trkpt><trkpt lat="43.782817" lon="11.6008432"><ele>1061.0</ele><time>2026-04-19T07:39:59.979Z</time></trkpt><trkpt lat="43.782805" lon="11.6009592"><ele>1062.6666666666665</ele><time>2026-04-19T07:40:00.987Z</time></trkpt><trkpt lat="43.7827899" lon="11.6010456"><ele>1064.3333333333333</ele><time>2026-04-19T07:40:01.98Z</time></trkpt><trkpt lat="43.7827656" lon="11.6012034"><ele>1066.0</ele><time>2026-04-19T07:40:03.969Z</time></trkpt><trkpt lat="43.7827614" lon="11.60135"><ele>1066.2857142857142</ele><time>2026-04-19T07:40:05.974Z</time></trkpt><trkpt lat="43.7827882" lon="11.6014599"><ele>1066.5714285714284</ele><time>2026-04-19T07:40:07.979Z</time></trkpt><trkpt lat="43.7828237" lon="11.6015685"><ele>1066.857142857143</ele><time>2026-04-19T07:40:10.99Z</time></trkpt><trkpt lat="43.7828014" lon="11.6016568"><ele>1067.142857142857</ele><time>2026-04-19T07:40:58.971Z</time></trkpt><trkpt lat="43.7827742" lon="11.6015588"><ele>1067.4285714285716</ele><time>2026-04-19T07:41:25.963Z</time></trkpt><trkpt lat="43.7827606" lon="11.6014699"><ele>1067.7142857142858</ele><time>2026-04-19T07:41:46.968Z</time></trkpt><trkpt lat="43.7827167" lon="11.6014053"><ele>1068.0</ele><time>2026-04-19T07:41:54.969Z</time></trkpt><trkpt lat="43.782741" lon="11.6013219"><ele>1068.0</ele><time>2026-04-19T07:44:26.523Z</time></trkpt><trkpt lat="43.7827613" lon="11.6014106"><ele>1068.0</ele><time>2026-04-19T07:48:41.188Z</time></trkpt><trkpt lat="43.7827764" lon="11.6015107"><ele>1068.0</ele><time>2026-04-19T07:48:52.192Z</time></trkpt><trkpt lat="43.7827943" lon="11.6016033"><ele>1068.0</ele><time>2026-04-19T07:48:58.18Z</time></trkpt><trkpt lat="43.7828545" lon="11.6016563"><ele>1068.0</ele><time>2026-04-19T07:52:20.189Z</time></trkpt><trkpt lat="43.7829018" lon="11.6015698"><ele>1068.0</ele><time>2026-04-19T07:52:23.193Z</time></trkpt><trkpt lat="43.7829205" lon="11.6013884"><ele>1068.0</ele><time>2026-04-19T07:52:25.19Z</time></trkpt><trkpt lat="43.7829299" lon="11.6012872"><ele>1068.0</ele><time>2026-04-19T07:52:26.183Z</time></trkpt><trkpt lat="43.7829391" lon="11.6011769"><ele>1068.0</ele><time>2026-04-19T07:52:27.185Z</time></trkpt><trkpt lat="43.7829563" lon="11.6010664"><ele>1068.0</ele><time>2026-04-19T07:52:28.189Z</time></trkpt><trkpt lat="43.7829758" lon="11.6009566"><ele>1068.0</ele><time>2026-04-19T07:52:29.178Z</time></trkpt><trkpt lat="43.7829882" lon="11.6008481"><ele>1068.0</ele><time>2026-04-19T07:52:30.194Z</time></trkpt><trkpt lat="43.7829955" lon="11.6007345"><ele>1067.6</ele><time>2026-04-19T07:52:31.199Z</time></trkpt><trkpt lat="43.7829958" lon="11.6006106"><ele>1067.1999999999998</ele><time>2026-04-19T07:52:32.183Z</time></trkpt><trkpt lat="43.7829895" lon="11.6004655"><ele>1066.8</ele><time>2026-04-19T07:52:33.184Z</time></trkpt><trkpt lat="43.7829784" lon="11.6003137"><ele>1066.3999999999999</ele><time>2026-04-19T07:52:34.201Z</time></trkpt><trkpt lat="43.7829682" lon="11.6001447"><ele>1066.0</ele><time>2026-04-19T07:52:35.199Z</time></trkpt><trkpt lat="43.7829556" lon="11.5999719"><ele>1063.5</ele><time>2026-04-19T07:52:36.189Z</time></trkpt><trkpt lat="43.7829441" lon="11.5997939"><ele>1061.0</ele><time>2026-04-19T07:52:37.194Z</time></trkpt><trkpt lat="43.7829369" lon="11.5996146"><ele>1058.5</ele><time>2026-04-19T07:52:38.194Z</time></trkpt><trkpt lat="43.7829259" lon="11.5994373"><ele>1056.0</ele><time>2026-04-19T07:52:39.197Z</time></trkpt><trkpt lat="43.7829133" lon="11.5992633"><ele>1056.5</ele><time>2026-04-19T07:52:40.199Z</time></trkpt><trkpt lat="43.7828995" lon="11.5990923"><ele>1057.0</ele><time>2026-04-19T07:52:41.202Z</time></trkpt><trkpt lat="43.7828754" lon="11.5989331"><ele>1057.5</ele><time>2026-04-19T07:52:42.203Z</time></trkpt><trkpt lat="43.7828306" lon="11.5987792"><ele>1058.0</ele><time>2026-04-19T07:52:43.198Z</time></trkpt><trkpt lat="43.7827769" lon="11.59863"><ele>1058.0</ele><time>2026-04-19T07:52:44.201Z</time></trkpt><trkpt lat="43.7827183" lon="11.5984838"><ele>1058.0</ele><time>2026-04-19T07:52:45.198Z</time></trkpt><trkpt lat="43.7826546" lon="11.5983418"><ele>1058.0</ele><time>2026-04-19T07:52:46.207Z</time></trkpt><trkpt lat="43.7825837" lon="11.5982006"><ele>1058.0</ele><time>2026-04-19T07:52:47.188Z</time></trkpt><trkpt lat="43.7824863" lon="11.5980747"><ele>1053.5</ele><time>2026-04-19T07:52:48.215Z</time></trkpt><trkpt lat="43.7823705" lon="11.5979746"><ele>1049.0</ele><time>2026-04-19T07:52:49.199Z</time></trkpt><trkpt lat="43.7822356" lon="11.597888"><ele>1044.5</ele><time>2026-04-19T07:52:50.198Z</time></trkpt><trkpt lat="43.7820979" lon="11.5978008"><ele>1040.0</ele><time>2026-04-19T07:52:51.195Z</time></trkpt><trkpt lat="43.7819639" lon="11.5977116"><ele>1036.25</ele><time>2026-04-19T07:52:52.187Z</time></trkpt><trkpt lat="43.7818324" lon="11.5976262"><ele>1032.5</ele><time>2026-04-19T07:52:53.192Z</time></trkpt><trkpt lat="43.7817068" lon="11.5975306"><ele>1028.75</ele><time>2026-04-19T07:52:54.199Z</time></trkpt><trkpt lat="43.7815904" lon="11.5974273"><ele>1025.0</ele><time>2026-04-19T07:52:55.196Z</time></trkpt><trkpt lat="43.7814861" lon="11.5973314"><ele>1025.0</ele><time>2026-04-19T07:52:56.192Z</time></trkpt><trkpt lat="43.781395" lon="11.59723"><ele>1025.0</ele><time>2026-04-19T07:52:57.193Z</time></trkpt><trkpt lat="43.7813156" lon="11.5971058"><ele>1025.0</ele><time>2026-04-19T07:52:58.194Z</time></trkpt><trkpt lat="43.7812428" lon="11.5969691"><ele>1025.0</ele><time>2026-04-19T07:52:59.197Z</time></trkpt><trkpt lat="43.7811793" lon="11.5968455"><ele>1024.4</ele><time>2026-04-19T07:53:00.188Z</time></trkpt><trkpt lat="43.7811247" lon="11.5967291"><ele>1023.8</ele><time>2026-04-19T07:53:01.183Z</time></trkpt><trkpt lat="43.7810748" lon="11.5966299"><ele>1023.2</ele><time>2026-04-19T07:53:02.188Z</time></trkpt><trkpt lat="43.7810219" lon="11.5965354"><ele>1022.6</ele><time>2026-04-19T07:53:03.191Z</time></trkpt><trkpt lat="43.78096" lon="11.5964463"><ele>1022.0</ele><time>2026-04-19T07:53:04.207Z</time></trkpt><trkpt lat="43.7808788" lon="11.5963684"><ele>1022.0</ele><time>2026-04-19T07:53:05.199Z</time></trkpt><trkpt lat="43.7807852" lon="11.5962887"><ele>1022.0</ele><time>2026-04-19T07:53:06.199Z</time></trkpt><trkpt lat="43.7806905" lon="11.5961891"><ele>1022.0</ele><time>2026-04-19T07:53:07.194Z</time></trkpt><trkpt lat="43.7805942" lon="11.5960797"><ele>1022.0</ele><time>2026-04-19T07:53:08.206Z</time></trkpt><trkpt lat="43.7804951" lon="11.5959705"><ele>1022.75</ele><time>2026-04-19T07:53:09.199Z</time></trkpt><trkpt lat="43.7803932" lon="11.5958648"><ele>1023.5</ele><time>2026-04-19T07:53:10.195Z</time></trkpt><trkpt lat="43.780292" lon="11.5957591"><ele>1024.25</ele><time>2026-04-19T07:53:11.202Z</time></trkpt><trkpt lat="43.7801891" lon="11.59565"><ele>1025.0</ele><time>2026-04-19T07:53:12.19Z</time></trkpt><trkpt lat="43.780084" lon="11.5955416"><ele>1025.0</ele><time>2026-04-19T07:53:13.196Z</time></trkpt><trkpt lat="43.7799794" lon="11.5954225"><ele>1025.0</ele><time>2026-04-19T07:53:14.203Z</time></trkpt><trkpt lat="43.7798801" lon="11.5952903"><ele>1025.0</ele><time>2026-04-19T07:53:15.198Z</time></trkpt><trkpt lat="43.7797884" lon="11.5951544"><ele>1025.0</ele><time>2026-04-19T07:53:16.192Z</time></trkpt><trkpt lat="43.779725" lon="11.5949979"><ele>1023.25</ele><time>2026-04-19T07:53:17.194Z</time></trkpt><trkpt lat="43.7796818" lon="11.5948167"><ele>1021.5</ele><time>2026-04-19T07:53:18.192Z</time></trkpt><trkpt lat="43.7796532" lon="11.5946151"><ele>1019.75</ele><time>2026-04-19T07:53:19.193Z</time></trkpt><trkpt lat="43.77964" lon="11.5944075"><ele>1018.0</ele><time>2026-04-19T07:53:20.196Z</time></trkpt><trkpt lat="43.7796298" lon="11.5942056"><ele>1018.25</ele><time>2026-04-19T07:53:21.195Z</time></trkpt><trkpt lat="43.7796077" lon="11.5940212"><ele>1018.5</ele><time>2026-04-19T07:53:22.2Z</time></trkpt><trkpt lat="43.7795844" lon="11.593846"><ele>1018.75</ele><time>2026-04-19T07:53:23.182Z</time></trkpt><trkpt lat="43.7795825" lon="11.5936854"><ele>1019.0</ele><time>2026-04-19T07:53:24.19Z</time></trkpt><trkpt lat="43.7796045" lon="11.593543"><ele>1019.0</ele><time>2026-04-19T07:53:25.198Z</time></trkpt><trkpt lat="43.7796333" lon="11.593408"><ele>1019.0000000000001</ele><time>2026-04-19T07:53:26.194Z</time></trkpt><trkpt lat="43.7796549" lon="11.5932718"><ele>1019.0000000000001</ele><time>2026-04-19T07:53:27.198Z</time></trkpt><trkpt lat="43.7796646" lon="11.5931315"><ele>1019.0</ele><time>2026-04-19T07:53:28.193Z</time></trkpt><trkpt lat="43.7796508" lon="11.5929906"><ele>1019.0</ele><time>2026-04-19T07:53:29.208Z</time></trkpt><trkpt lat="43.779627" lon="11.5928575"><ele>1018.8000000000001</ele><time>2026-04-19T07:53:30.194Z</time></trkpt><trkpt lat="43.7795927" lon="11.5927298"><ele>1018.6000000000001</ele><time>2026-04-19T07:53:31.199Z</time></trkpt><trkpt lat="43.7795365" lon="11.5926123"><ele>1018.4</ele><time>2026-04-19T07:53:32.193Z</time></trkpt><trkpt lat="43.7794517" lon="11.5925228"><ele>1018.2</ele><time>2026-04-19T07:53:33.184Z</time></trkpt><trkpt lat="43.7793482" lon="11.5924529"><ele>1018.0</ele><time>2026-04-19T07:53:34.193Z</time></trkpt><trkpt lat="43.7792405" lon="11.5924047"><ele>1019.0</ele><time>2026-04-19T07:53:35.2Z</time></trkpt><trkpt lat="43.7791281" lon="11.5923716"><ele>1020.0</ele><time>2026-04-19T07:53:36.201Z</time></trkpt><trkpt lat="43.7790049" lon="11.5923694"><ele>1021.0</ele><time>2026-04-19T07:53:37.207Z</time></trkpt><trkpt lat="43.7788842" lon="11.5923815"><ele>1022.0</ele><time>2026-04-19T07:53:38.192Z</time></trkpt><trkpt lat="43.7787561" lon="11.5924289"><ele>1022.0</ele><time>2026-04-19T07:53:39.204Z</time></trkpt><trkpt lat="43.7786332" lon="11.5924948"><ele>1022.0</ele><time>2026-04-19T07:53:40.201Z</time></trkpt><trkpt lat="43.7785146" lon="11.5925625"><ele>1022.0</ele><time>2026-04-19T07:53:41.206Z</time></trkpt><trkpt lat="43.7784042" lon="11.592617"><ele>1022.0</ele><time>2026-04-19T07:53:42.203Z</time></trkpt><trkpt lat="43.7783106" lon="11.5926289"><ele>1022.4000000000001</ele><time>2026-04-19T07:53:43.191Z</time></trkpt><trkpt lat="43.778246" lon="11.5925913"><ele>1022.8000000000001</ele><time>2026-04-19T07:53:44.194Z</time></trkpt><trkpt lat="43.7781695" lon="11.5924631"><ele>1023.2</ele><time>2026-04-19T07:53:46.188Z</time></trkpt><trkpt lat="43.7781553" lon="11.5923683"><ele>1023.6</ele><time>2026-04-19T07:53:47.186Z</time></trkpt><trkpt lat="43.778164" lon="11.5922463"><ele>1024.0</ele><time>2026-04-19T07:53:48.199Z</time></trkpt><trkpt lat="43.7782077" lon="11.5921037"><ele>1023.25</ele><time>2026-04-19T07:53:49.196Z</time></trkpt><trkpt lat="43.77826" lon="11.5919459"><ele>1022.5</ele><time>2026-04-19T07:53:50.193Z</time></trkpt><trkpt lat="43.7783053" lon="11.5917766"><ele>1021.75</ele><time>2026-04-19T07:53:51.201Z</time></trkpt><trkpt lat="43.7783428" lon="11.591614"><ele>1021.0</ele><time>2026-04-19T07:53:52.194Z</time></trkpt><trkpt lat="43.7783644" lon="11.5914419"><ele>1021.0</ele><time>2026-04-19T07:53:53.197Z</time></trkpt><trkpt lat="43.7783535" lon="11.5912473"><ele>1021.0</ele><time>2026-04-19T07:53:54.197Z</time></trkpt><trkpt lat="43.7783243" lon="11.5910301"><ele>1021.0</ele><time>2026-04-19T07:53:55.195Z</time></trkpt><trkpt lat="43.7782946" lon="11.590816"><ele>1021.0</ele><time>2026-04-19T07:53:56.193Z</time></trkpt><trkpt lat="43.7782669" lon="11.5905962"><ele>1021.0</ele><time>2026-04-19T07:53:57.184Z</time></trkpt><trkpt lat="43.778253" lon="11.5903862"><ele>1021.0</ele><time>2026-04-19T07:53:58.198Z</time></trkpt><trkpt lat="43.7782675" lon="11.5901832"><ele>1021.5</ele><time>2026-04-19T07:53:59.197Z</time></trkpt><trkpt lat="43.7783074" lon="11.5899883"><ele>1022.0</ele><time>2026-04-19T07:54:00.198Z</time></trkpt><trkpt lat="43.7783839" lon="11.5897997"><ele>1022.5</ele><time>2026-04-19T07:54:01.191Z</time></trkpt><trkpt lat="43.7784819" lon="11.5896493"><ele>1023.0</ele><time>2026-04-19T07:54:02.197Z</time></trkpt><trkpt lat="43.7785855" lon="11.5895207"><ele>1018.5</ele><time>2026-04-19T07:54:03.196Z</time></trkpt><trkpt lat="43.7786877" lon="11.5893959"><ele>1014.0</ele><time>2026-04-19T07:54:04.204Z</time></trkpt><trkpt lat="43.7787762" lon="11.5892364"><ele>1009.5</ele><time>2026-04-19T07:54:05.193Z</time></trkpt><trkpt lat="43.7788557" lon="11.5890326"><ele>1005.0</ele><time>2026-04-19T07:54:06.196Z</time></trkpt><trkpt lat="43.7789287" lon="11.58883"><ele>1006.6666666666667</ele><time>2026-04-19T07:54:07.192Z</time></trkpt><trkpt lat="43.7789737" lon="11.5886024"><ele>1008.3333333333334</ele><time>2026-04-19T07:54:08.204Z</time></trkpt><trkpt lat="43.7789876" lon="11.588339"><ele>1010.0</ele><time>2026-04-19T07:54:09.196Z</time></trkpt><trkpt lat="43.7789797" lon="11.5880739"><ele>1011.3333333333334</ele><time>2026-04-19T07:54:10.201Z</time></trkpt><trkpt lat="43.7789698" lon="11.5878269"><ele>1012.6666666666667</ele><time>2026-04-19T07:54:11.2Z</time></trkpt><trkpt lat="43.7789682" lon="11.5875837"><ele>1014.0</ele><time>2026-04-19T07:54:12.192Z</time></trkpt><trkpt lat="43.7789839" lon="11.587359"><ele>1014.0</ele><time>2026-04-19T07:54:13.206Z</time></trkpt><trkpt lat="43.779032" lon="11.5871601"><ele>1014.0</ele><time>2026-04-19T07:54:14.196Z</time></trkpt><trkpt lat="43.7791013" lon="11.5869583"><ele>1014.0</ele><time>2026-04-19T07:54:15.189Z</time></trkpt><trkpt lat="43.7791931" lon="11.5867565"><ele>1015.0</ele><time>2026-04-19T07:54:16.189Z</time></trkpt><trkpt lat="43.7793076" lon="11.5865795"><ele>1016.0</ele><time>2026-04-19T07:54:17.2Z</time></trkpt><trkpt lat="43.7794194" lon="11.5864436"><ele>1017.0</ele><time>2026-04-19T07:54:18.191Z</time></trkpt><trkpt lat="43.779513" lon="11.5863176"><ele>1017.0</ele><time>2026-04-19T07:54:19.191Z</time></trkpt><trkpt lat="43.7795737" lon="11.5861932"><ele>1017.0</ele><time>2026-04-19T07:54:20.195Z</time></trkpt><trkpt lat="43.7796115" lon="11.5860533"><ele>1017.0</ele><time>2026-04-19T07:54:21.198Z</time></trkpt><trkpt lat="43.7796214" lon="11.5859143"><ele>1017.0</ele><time>2026-04-19T07:54:22.193Z</time></trkpt><trkpt lat="43.7796208" lon="11.5857769"><ele>1017.0</ele><time>2026-04-19T07:54:23.204Z</time></trkpt><trkpt lat="43.779633" lon="11.5856624"><ele>1017.2</ele><time>2026-04-19T07:54:24.193Z</time></trkpt><trkpt lat="43.7796757" lon="11.5855724"><ele>1017.4000000000001</ele><time>2026-04-19T07:54:25.199Z</time></trkpt><trkpt lat="43.7797558" lon="11.5855002"><ele>1017.5999999999999</ele><time>2026-04-19T07:54:26.2Z</time></trkpt><trkpt lat="43.7798568" lon="11.5854431"><ele>1017.8</ele><time>2026-04-19T07:54:27.205Z</time></trkpt><trkpt lat="43.779969" lon="11.5853809"><ele>1018.0</ele><time>2026-04-19T07:54:28.206Z</time></trkpt><trkpt lat="43.7800813" lon="11.5853015"><ele>1014.6666666666666</ele><time>2026-04-19T07:54:29.194Z</time></trkpt><trkpt lat="43.7801907" lon="11.5851915"><ele>1011.3333333333333</ele><time>2026-04-19T07:54:30.201Z</time></trkpt><trkpt lat="43.7802972" lon="11.5850486"><ele>1008.0</ele><time>2026-04-19T07:54:31.205Z</time></trkpt><trkpt lat="43.7804107" lon="11.5848758"><ele>1008.0</ele><time>2026-04-19T07:54:32.194Z</time></trkpt><trkpt lat="43.7805241" lon="11.5847231"><ele>1008.0</ele><time>2026-04-19T07:54:33.194Z</time></trkpt><trkpt lat="43.7806288" lon="11.5845824"><ele>1008.0</ele><time>2026-04-19T07:54:34.195Z</time></trkpt><trkpt lat="43.780722" lon="11.5844601"><ele>1008.0</ele><time>2026-04-19T07:54:35.2Z</time></trkpt><trkpt lat="43.7807995" lon="11.5843244"><ele>1004.75</ele><time>2026-04-19T07:54:36.203Z</time></trkpt><trkpt lat="43.7808442" lon="11.5841631"><ele>1001.5</ele><time>2026-04-19T07:54:37.2Z</time></trkpt><trkpt lat="43.7808651" lon="11.5839935"><ele>998.25</ele><time>2026-04-19T07:54:38.202Z</time></trkpt><trkpt lat="43.7808709" lon="11.5838353"><ele>995.0</ele><time>2026-04-19T07:54:39.192Z</time></trkpt><trkpt lat="43.7808866" lon="11.5837089"><ele>995.8333333333334</ele><time>2026-04-19T07:54:40.202Z</time></trkpt><trkpt lat="43.7809363" lon="11.5836225"><ele>996.6666666666667</ele><time>2026-04-19T07:54:41.197Z</time></trkpt><trkpt lat="43.7809911" lon="11.5835573"><ele>997.5</ele><time>2026-04-19T07:54:42.196Z</time></trkpt><trkpt lat="43.7810625" lon="11.5835261"><ele>998.3333333333333</ele><time>2026-04-19T07:54:43.198Z</time></trkpt><trkpt lat="43.7811433" lon="11.5834962"><ele>999.1666666666666</ele><time>2026-04-19T07:54:44.199Z</time></trkpt><trkpt lat="43.7812153" lon="11.5834318"><ele>1000.0</ele><time>2026-04-19T07:54:45.195Z</time></trkpt><trkpt lat="43.7812674" lon="11.5833554"><ele>1000.0</ele><time>2026-04-19T07:54:46.201Z</time></trkpt><trkpt lat="43.7812967" lon="11.5832428"><ele>1000.0</ele><time>2026-04-19T07:54:47.207Z</time></trkpt><trkpt lat="43.7813049" lon="11.5830954"><ele>1000.0</ele><time>2026-04-19T07:54:48.21Z</time></trkpt><trkpt lat="43.7813129" lon="11.5829348"><ele>1000.0</ele><time>2026-04-19T07:54:49.191Z</time></trkpt><trkpt lat="43.7813242" lon="11.5827624"><ele>1000.0</ele><time>2026-04-19T07:54:50.204Z</time></trkpt><trkpt lat="43.7813381" lon="11.5825931"><ele>997.8</ele><time>2026-04-19T07:54:51.202Z</time></trkpt><trkpt lat="43.781352" lon="11.5824344"><ele>995.6</ele><time>2026-04-19T07:54:52.196Z</time></trkpt><trkpt lat="43.781362" lon="11.5822999"><ele>993.4000000000001</ele><time>2026-04-19T07:54:53.203Z</time></trkpt><trkpt lat="43.7813926" lon="11.5821842"><ele>991.2</ele><time>2026-04-19T07:54:54.19Z</time></trkpt><trkpt lat="43.7814491" lon="11.5820737"><ele>989.0</ele><time>2026-04-19T07:54:55.199Z</time></trkpt><trkpt lat="43.7815273" lon="11.5819825"><ele>986.5</ele><time>2026-04-19T07:54:56.195Z</time></trkpt><trkpt lat="43.7816389" lon="11.5819161"><ele>984.0</ele><time>2026-04-19T07:54:57.201Z</time></trkpt><trkpt lat="43.7817791" lon="11.5818758"><ele>981.5</ele><time>2026-04-19T07:54:58.201Z</time></trkpt><trkpt lat="43.7819221" lon="11.5818162"><ele>979.0</ele><time>2026-04-19T07:54:59.206Z</time></trkpt><trkpt lat="43.782059" lon="11.5817315"><ele>979.0</ele><time>2026-04-19T07:55:00.207Z</time></trkpt><trkpt lat="43.7821895" lon="11.5816378"><ele>979.0</ele><time>2026-04-19T07:55:01.181Z</time></trkpt><trkpt lat="43.7823113" lon="11.5815233"><ele>979.0</ele><time>2026-04-19T07:55:02.18Z</time></trkpt><trkpt lat="43.7824126" lon="11.5813565"><ele>977.3333333333333</ele><time>2026-04-19T07:55:03.195Z</time></trkpt><trkpt lat="43.7825218" lon="11.5811508"><ele>975.6666666666667</ele><time>2026-04-19T07:55:04.186Z</time></trkpt><trkpt lat="43.7826232" lon="11.5809724"><ele>974.0</ele><time>2026-04-19T07:55:05.195Z</time></trkpt><trkpt lat="43.7827252" lon="11.5807979"><ele>974.0</ele><time>2026-04-19T07:55:06.186Z</time></trkpt><trkpt lat="43.7828051" lon="11.5806192"><ele>974.0</ele><time>2026-04-19T07:55:07.196Z</time></trkpt><trkpt lat="43.782856" lon="11.5804358"><ele>974.0</ele><time>2026-04-19T07:55:08.196Z</time></trkpt><trkpt lat="43.7829023" lon="11.5802565"><ele>974.0</ele><time>2026-04-19T07:55:09.203Z</time></trkpt><trkpt lat="43.7829651" lon="11.580098"><ele>969.0</ele><time>2026-04-19T07:55:10.202Z</time></trkpt><trkpt lat="43.7830652" lon="11.5799684"><ele>964.0</ele><time>2026-04-19T07:55:11.188Z</time></trkpt><trkpt lat="43.7831958" lon="11.5798449"><ele>959.0</ele><time>2026-04-19T07:55:12.193Z</time></trkpt><trkpt lat="43.7833304" lon="11.5797387"><ele>959.0</ele><time>2026-04-19T07:55:13.192Z</time></trkpt><trkpt lat="43.7834657" lon="11.5796518"><ele>959.0</ele><time>2026-04-19T07:55:14.195Z</time></trkpt><trkpt lat="43.7835924" lon="11.5795727"><ele>959.0</ele><time>2026-04-19T07:55:15.201Z</time></trkpt><trkpt lat="43.783712" lon="11.579518"><ele>959.0</ele><time>2026-04-19T07:55:16.191Z</time></trkpt><trkpt lat="43.7838023" lon="11.5794541"><ele>957.2</ele><time>2026-04-19T07:55:17.195Z</time></trkpt><trkpt lat="43.7838584" lon="11.5793665"><ele>955.4000000000001</ele><time>2026-04-19T07:55:18.199Z</time></trkpt><trkpt lat="43.7838947" lon="11.579243"><ele>953.6</ele><time>2026-04-19T07:55:19.179Z</time></trkpt><trkpt lat="43.7839281" lon="11.5790962"><ele>951.8</ele><time>2026-04-19T07:55:20.206Z</time></trkpt><trkpt lat="43.7839869" lon="11.5789569"><ele>950.0</ele><time>2026-04-19T07:55:21.196Z</time></trkpt><trkpt lat="43.7840813" lon="11.5788332"><ele>950.0</ele><time>2026-04-19T07:55:22.201Z</time></trkpt><trkpt lat="43.784194" lon="11.5787118"><ele>950.0</ele><time>2026-04-19T07:55:23.192Z</time></trkpt><trkpt lat="43.7843179" lon="11.5786047"><ele>950.0</ele><time>2026-04-19T07:55:24.195Z</time></trkpt><trkpt lat="43.78445" lon="11.5785483"><ele>950.0</ele><time>2026-04-19T07:55:25.196Z</time></trkpt><trkpt lat="43.7845884" lon="11.5785133"><ele>947.75</ele><time>2026-04-19T07:55:26.203Z</time></trkpt><trkpt lat="43.7847071" lon="11.5784717"><ele>945.5</ele><time>2026-04-19T07:55:27.193Z</time></trkpt><trkpt lat="43.7848166" lon="11.5783997"><ele>943.25</ele><time>2026-04-19T07:55:28.191Z</time></trkpt><trkpt lat="43.784912" lon="11.5782899"><ele>941.0</ele><time>2026-04-19T07:55:29.197Z</time></trkpt><trkpt lat="43.7849887" lon="11.5781475"><ele>941.0</ele><time>2026-04-19T07:55:30.195Z</time></trkpt><trkpt lat="43.7850544" lon="11.5779675"><ele>941.0</ele><time>2026-04-19T07:55:31.198Z</time></trkpt><trkpt lat="43.7851036" lon="11.5777632"><ele>941.0</ele><time>2026-04-19T07:55:32.203Z</time></trkpt><trkpt lat="43.7851451" lon="11.5775381"><ele>939.0</ele><time>2026-04-19T07:55:33.203Z</time></trkpt><trkpt lat="43.7851946" lon="11.5773061"><ele>937.0</ele><time>2026-04-19T07:55:34.196Z</time></trkpt><trkpt lat="43.7852608" lon="11.5770703"><ele>935.0</ele><time>2026-04-19T07:55:35.201Z</time></trkpt><trkpt lat="43.785331" lon="11.5768429"><ele>932.0</ele><time>2026-04-19T07:55:36.206Z</time></trkpt><trkpt lat="43.7853834" lon="11.5766409"><ele>929.0</ele><time>2026-04-19T07:55:37.211Z</time></trkpt><trkpt lat="43.7854199" lon="11.5764493"><ele>926.0</ele><time>2026-04-19T07:55:38.201Z</time></trkpt><trkpt lat="43.7854413" lon="11.5762331"><ele>924.0</ele><time>2026-04-19T07:55:39.205Z</time></trkpt><trkpt lat="43.7854542" lon="11.5760309"><ele>922.0</ele><time>2026-04-19T07:55:40.206Z</time></trkpt><trkpt lat="43.7854707" lon="11.5758365"><ele>920.0</ele><time>2026-04-19T07:55:41.204Z</time></trkpt><trkpt lat="43.7855235" lon="11.5756412"><ele>918.0</ele><time>2026-04-19T07:55:42.199Z</time></trkpt><trkpt lat="43.7855981" lon="11.5754465"><ele>913.6666666666667</ele><time>2026-04-19T07:55:43.212Z</time></trkpt><trkpt lat="43.785685" lon="11.5752607"><ele>909.3333333333334</ele><time>2026-04-19T07:55:44.197Z</time></trkpt><trkpt lat="43.7857805" lon="11.5750806"><ele>905.0</ele><time>2026-04-19T07:55:45.197Z</time></trkpt><trkpt lat="43.7859044" lon="11.5749253"><ele>903.6666666666667</ele><time>2026-04-19T07:55:46.206Z</time></trkpt><trkpt lat="43.7860445" lon="11.5747946"><ele>902.3333333333333</ele><time>2026-04-19T07:55:47.196Z</time></trkpt><trkpt lat="43.7861825" lon="11.5746392"><ele>901.0</ele><time>2026-04-19T07:55:48.194Z</time></trkpt><trkpt lat="43.7863037" lon="11.5744428"><ele>901.0</ele><time>2026-04-19T07:55:49.199Z</time></trkpt><trkpt lat="43.786411" lon="11.5742246"><ele>901.0</ele><time>2026-04-19T07:55:50.19Z</time></trkpt><trkpt lat="43.7865229" lon="11.574017"><ele>901.0</ele><time>2026-04-19T07:55:51.18Z</time></trkpt><trkpt lat="43.7866225" lon="11.573817"><ele>899.0</ele><time>2026-04-19T07:55:52.203Z</time></trkpt><trkpt lat="43.786724" lon="11.5736186"><ele>897.0</ele><time>2026-04-19T07:55:53.201Z</time></trkpt><trkpt lat="43.786838" lon="11.5734435"><ele>895.0</ele><time>2026-04-19T07:55:54.188Z</time></trkpt><trkpt lat="43.7869473" lon="11.573294"><ele>895.0</ele><time>2026-04-19T07:55:55.192Z</time></trkpt><trkpt lat="43.7870357" lon="11.5731693"><ele>895.0</ele><time>2026-04-19T07:55:56.199Z</time></trkpt><trkpt lat="43.7871112" lon="11.5730199"><ele>895.0</ele><time>2026-04-19T07:55:57.196Z</time></trkpt><trkpt lat="43.7871708" lon="11.5728323"><ele>895.0</ele><time>2026-04-19T07:55:58.194Z</time></trkpt><trkpt lat="43.78721" lon="11.5726078"><ele>893.0</ele><time>2026-04-19T07:55:59.204Z</time></trkpt><trkpt lat="43.7872403" lon="11.5723719"><ele>891.0</ele><time>2026-04-19T07:56:00.21Z</time></trkpt><trkpt lat="43.7872755" lon="11.5721272"><ele>889.0</ele><time>2026-04-19T07:56:01.201Z</time></trkpt><trkpt lat="43.7873161" lon="11.5718762"><ele>887.0</ele><time>2026-04-19T07:56:02.208Z</time></trkpt><trkpt lat="43.7873614" lon="11.5716363"><ele>885.0</ele><time>2026-04-19T07:56:03.204Z</time></trkpt><trkpt lat="43.7874104" lon="11.5713893"><ele>883.0</ele><time>2026-04-19T07:56:04.207Z</time></trkpt><trkpt lat="43.7874675" lon="11.5711562"><ele>879.3333333333333</ele><time>2026-04-19T07:56:05.196Z</time></trkpt><trkpt lat="43.7875343" lon="11.5709384"><ele>875.6666666666667</ele><time>2026-04-19T07:56:06.177Z</time></trkpt><trkpt lat="43.7876108" lon="11.5707432"><ele>872.0</ele><time>2026-04-19T07:56:07.208Z</time></trkpt><trkpt lat="43.7877087" lon="11.5705704"><ele>876.0</ele><time>2026-04-19T07:56:08.202Z</time></trkpt><trkpt lat="43.7878103" lon="11.5704118"><ele>880.0</ele><time>2026-04-19T07:56:09.191Z</time></trkpt><trkpt lat="43.787906" lon="11.5702642"><ele>884.0</ele><time>2026-04-19T07:56:10.201Z</time></trkpt><trkpt lat="43.7879928" lon="11.5701113"><ele>888.0</ele><time>2026-04-19T07:56:11.194Z</time></trkpt><trkpt lat="43.7880626" lon="11.5699431"><ele>888.0</ele><time>2026-04-19T07:56:12.199Z</time></trkpt><trkpt lat="43.7881004" lon="11.5697264"><ele>888.0</ele><time>2026-04-19T07:56:13.191Z</time></trkpt><trkpt lat="43.788136" lon="11.5694849"><ele>888.0</ele><time>2026-04-19T07:56:14.195Z</time></trkpt><trkpt lat="43.7881715" lon="11.5692309"><ele>884.3333333333333</ele><time>2026-04-19T07:56:15.195Z</time></trkpt><trkpt lat="43.7882018" lon="11.5689774"><ele>880.6666666666666</ele><time>2026-04-19T07:56:16.211Z</time></trkpt><trkpt lat="43.7882238" lon="11.5687396"><ele>877.0</ele><time>2026-04-19T07:56:17.188Z</time></trkpt><trkpt lat="43.7882401" lon="11.5685231"><ele>874.5</ele><time>2026-04-19T07:56:18.2Z</time></trkpt><trkpt lat="43.7882337" lon="11.5683169"><ele>872.0</ele><time>2026-04-19T07:56:19.176Z</time></trkpt><trkpt lat="43.7882299" lon="11.5681319"><ele>869.5</ele><time>2026-04-19T07:56:20.201Z</time></trkpt><trkpt lat="43.7882467" lon="11.5679724"><ele>867.0</ele><time>2026-04-19T07:56:21.194Z</time></trkpt><trkpt lat="43.7882962" lon="11.5678196"><ele>871.0</ele><time>2026-04-19T07:56:22.191Z</time></trkpt><trkpt lat="43.7883879" lon="11.5676571"><ele>875.0</ele><time>2026-04-19T07:56:23.182Z</time></trkpt><trkpt lat="43.7884995" lon="11.5674846"><ele>879.0</ele><time>2026-04-19T07:56:24.206Z</time></trkpt><trkpt lat="43.7886252" lon="11.5673057"><ele>879.0</ele><time>2026-04-19T07:56:25.194Z</time></trkpt><trkpt lat="43.788741" lon="11.5671095"><ele>879.0</ele><time>2026-04-19T07:56:26.203Z</time></trkpt><trkpt lat="43.7888336" lon="11.5669096"><ele>879.0</ele><time>2026-04-19T07:56:27.194Z</time></trkpt><trkpt lat="43.7888995" lon="11.5667048"><ele>873.0</ele><time>2026-04-19T07:56:28.195Z</time></trkpt><trkpt lat="43.7889661" lon="11.566493"><ele>867.0</ele><time>2026-04-19T07:56:29.194Z</time></trkpt><trkpt lat="43.7890525" lon="11.566277"><ele>861.0</ele><time>2026-04-19T07:56:30.18Z</time></trkpt><trkpt lat="43.7891773" lon="11.566091"><ele>862.0</ele><time>2026-04-19T07:56:31.183Z</time></trkpt><trkpt lat="43.7893252" lon="11.5658978"><ele>863.0</ele><time>2026-04-19T07:56:32.203Z</time></trkpt><trkpt lat="43.7894823" lon="11.5657279"><ele>864.0</ele><time>2026-04-19T07:56:33.197Z</time></trkpt><trkpt lat="43.7896278" lon="11.5655652"><ele>864.0</ele><time>2026-04-19T07:56:34.202Z</time></trkpt><trkpt lat="43.7897352" lon="11.5654191"><ele>864.0</ele><time>2026-04-19T07:56:35.197Z</time></trkpt><trkpt lat="43.7898214" lon="11.5652505"><ele>864.0</ele><time>2026-04-19T07:56:36.193Z</time></trkpt><trkpt lat="43.7898832" lon="11.5650408"><ele>857.3333333333333</ele><time>2026-04-19T07:56:37.195Z</time></trkpt><trkpt lat="43.7899342" lon="11.5647972"><ele>850.6666666666666</ele><time>2026-04-19T07:56:38.197Z</time></trkpt><trkpt lat="43.7899899" lon="11.564529"><ele>844.0</ele><time>2026-04-19T07:56:39.189Z</time></trkpt><trkpt lat="43.7900504" lon="11.5642434"><ele>844.6666666666666</ele><time>2026-04-19T07:56:40.192Z</time></trkpt><trkpt lat="43.7901074" lon="11.5639519"><ele>845.3333333333333</ele><time>2026-04-19T07:56:41.187Z</time></trkpt><trkpt lat="43.7901521" lon="11.5636889"><ele>846.0</ele><time>2026-04-19T07:56:42.177Z</time></trkpt><trkpt lat="43.7901755" lon="11.563417"><ele>846.0</ele><time>2026-04-19T07:56:43.202Z</time></trkpt><trkpt lat="43.7901769" lon="11.5631247"><ele>846.0</ele><time>2026-04-19T07:56:44.21Z</time></trkpt><trkpt lat="43.7901655" lon="11.5628292"><ele>846.0</ele><time>2026-04-19T07:56:45.208Z</time></trkpt><trkpt lat="43.7901336" lon="11.5625618"><ele>842.0</ele><time>2026-04-19T07:56:46.2Z</time></trkpt><trkpt lat="43.790103" lon="11.5623106"><ele>838.0</ele><time>2026-04-19T07:56:47.198Z</time></trkpt><trkpt lat="43.790068" lon="11.5620909"><ele>834.0</ele><time>2026-04-19T07:56:48.198Z</time></trkpt><trkpt lat="43.7900413" lon="11.5618747"><ele>834.0</ele><time>2026-04-19T07:56:49.204Z</time></trkpt><trkpt lat="43.7900424" lon="11.561633"><ele>834.0</ele><time>2026-04-19T07:56:50.206Z</time></trkpt><trkpt lat="43.7900782" lon="11.5613818"><ele>834.0</ele><time>2026-04-19T07:56:51.198Z</time></trkpt><trkpt lat="43.7901261" lon="11.5611525"><ele>838.0</ele><time>2026-04-19T07:56:52.182Z</time></trkpt><trkpt lat="43.7901981" lon="11.560956"><ele>842.0</ele><time>2026-04-19T07:56:53.202Z</time></trkpt><trkpt lat="43.790269" lon="11.5607831"><ele>846.0</ele><time>2026-04-19T07:56:54.205Z</time></trkpt><trkpt lat="43.7903317" lon="11.5606208"><ele>850.0</ele><time>2026-04-19T07:56:55.189Z</time></trkpt><trkpt lat="43.7903901" lon="11.5604464"><ele>846.0</ele><time>2026-04-19T07:56:56.208Z</time></trkpt><trkpt lat="43.7904395" lon="11.5602554"><ele>842.0</ele><time>2026-04-19T07:56:57.206Z</time></trkpt><trkpt lat="43.7904764" lon="11.5600519"><ele>838.0</ele><time>2026-04-19T07:56:58.199Z</time></trkpt><trkpt lat="43.7905064" lon="11.5598353"><ele>838.0</ele><time>2026-04-19T07:56:59.197Z</time></trkpt><trkpt lat="43.7905338" lon="11.5596148"><ele>838.0</ele><time>2026-04-19T07:57:00.188Z</time></trkpt><trkpt lat="43.7905704" lon="11.5593981"><ele>838.0</ele><time>2026-04-19T07:57:01.193Z</time></trkpt><trkpt lat="43.7906185" lon="11.5591841"><ele>836.3333333333333</ele><time>2026-04-19T07:57:02.219Z</time></trkpt><trkpt lat="43.7906875" lon="11.5589812"><ele>834.6666666666667</ele><time>2026-04-19T07:57:03.198Z</time></trkpt><trkpt lat="43.7907928" lon="11.5587994"><ele>833.0</ele><time>2026-04-19T07:57:04.203Z</time></trkpt><trkpt lat="43.7909184" lon="11.5586276"><ele>830.0</ele><time>2026-04-19T07:57:05.203Z</time></trkpt><trkpt lat="43.7910492" lon="11.5584681"><ele>827.0</ele><time>2026-04-19T07:57:06.193Z</time></trkpt><trkpt lat="43.7911997" lon="11.558325"><ele>824.0</ele><time>2026-04-19T07:57:07.205Z</time></trkpt><trkpt lat="43.7913566" lon="11.5582098"><ele>824.0</ele><time>2026-04-19T07:57:08.195Z</time></trkpt><trkpt lat="43.7915038" lon="11.5580994"><ele>824.0</ele><time>2026-04-19T07:57:09.198Z</time></trkpt><trkpt lat="43.7916235" lon="11.5579962"><ele>824.0</ele><time>2026-04-19T07:57:10.196Z</time></trkpt><trkpt lat="43.7917049" lon="11.5579018"><ele>824.0</ele><time>2026-04-19T07:57:11.199Z</time></trkpt><trkpt lat="43.7917712" lon="11.5578018"><ele>825.8000000000001</ele><time>2026-04-19T07:57:12.197Z</time></trkpt><trkpt lat="43.7917897" lon="11.5576703"><ele>827.6</ele><time>2026-04-19T07:57:13.195Z</time></trkpt><trkpt lat="43.7917754" lon="11.5574941"><ele>829.4</ele><time>2026-04-19T07:57:14.195Z</time></trkpt><trkpt lat="43.7917419" lon="11.5573497"><ele>831.2</ele><time>2026-04-19T07:57:15.196Z</time></trkpt><trkpt lat="43.7917518" lon="11.5572244"><ele>833.0</ele><time>2026-04-19T07:57:16.199Z</time></trkpt><trkpt lat="43.7917969" lon="11.5571025"><ele>827.0</ele><time>2026-04-19T07:57:17.199Z</time></trkpt><trkpt lat="43.7918865" lon="11.557011"><ele>821.0</ele><time>2026-04-19T07:57:18.198Z</time></trkpt><trkpt lat="43.7919906" lon="11.5569252"><ele>815.0</ele><time>2026-04-19T07:57:19.19Z</time></trkpt><trkpt lat="43.7920781" lon="11.5568359"><ele>809.0</ele><time>2026-04-19T07:57:20.207Z</time></trkpt><trkpt lat="43.7921558" lon="11.5567391"><ele>803.0</ele><time>2026-04-19T07:57:21.196Z</time></trkpt><trkpt lat="43.7921986" lon="11.5566332"><ele>803.0</ele><time>2026-04-19T07:57:22.195Z</time></trkpt><trkpt lat="43.7921968" lon="11.5564803"><ele>803.0</ele><time>2026-04-19T07:57:23.189Z</time></trkpt><trkpt lat="43.7921801" lon="11.5563475"><ele>803.0</ele><time>2026-04-19T07:57:24.191Z</time></trkpt><trkpt lat="43.7921224" lon="11.5561863"><ele>803.0</ele><time>2026-04-19T07:57:25.195Z</time></trkpt><trkpt lat="43.7920305" lon="11.5560324"><ele>802.25</ele><time>2026-04-19T07:57:26.201Z</time></trkpt><trkpt lat="43.7919145" lon="11.5558913"><ele>801.5</ele><time>2026-04-19T07:57:27.212Z</time></trkpt><trkpt lat="43.7918018" lon="11.5557506"><ele>800.75</ele><time>2026-04-19T07:57:28.186Z</time></trkpt><trkpt lat="43.7917279" lon="11.5556033"><ele>800.0</ele><time>2026-04-19T07:57:29.204Z</time></trkpt><trkpt lat="43.7916884" lon="11.5554499"><ele>801.0</ele><time>2026-04-19T07:57:30.201Z</time></trkpt><trkpt lat="43.7916892" lon="11.5552853"><ele>802.0</ele><time>2026-04-19T07:57:31.205Z</time></trkpt><trkpt lat="43.7917263" lon="11.5551301"><ele>803.0</ele><time>2026-04-19T07:57:32.202Z</time></trkpt><trkpt lat="43.7917898" lon="11.554986"><ele>804.0</ele><time>2026-04-19T07:57:33.2Z</time></trkpt><trkpt lat="43.7918965" lon="11.5548652"><ele>804.0</ele><time>2026-04-19T07:57:34.202Z</time></trkpt><trkpt lat="43.7920245" lon="11.5547393"><ele>804.0</ele><time>2026-04-19T07:57:35.199Z</time></trkpt><trkpt lat="43.7921515" lon="11.5546007"><ele>804.0</ele><time>2026-04-19T07:57:36.209Z</time></trkpt><trkpt lat="43.7922686" lon="11.5544178"><ele>805.6666666666667</ele><time>2026-04-19T07:57:37.201Z</time></trkpt><trkpt lat="43.792384" lon="11.5542067"><ele>807.3333333333334</ele><time>2026-04-19T07:57:38.194Z</time></trkpt><trkpt lat="43.7924999" lon="11.5539934"><ele>809.0</ele><time>2026-04-19T07:57:39.201Z</time></trkpt><trkpt lat="43.7926265" lon="11.5537783"><ele>806.6666666666667</ele><time>2026-04-19T07:57:40.187Z</time></trkpt><trkpt lat="43.79275" lon="11.5535843"><ele>804.3333333333333</ele><time>2026-04-19T07:57:41.183Z</time></trkpt><trkpt lat="43.7928648" lon="11.5534251"><ele>802.0</ele><time>2026-04-19T07:57:42.208Z</time></trkpt><trkpt lat="43.7929643" lon="11.553298"><ele>802.0</ele><time>2026-04-19T07:57:43.202Z</time></trkpt><trkpt lat="43.7930525" lon="11.5531752"><ele>802.0</ele><time>2026-04-19T07:57:44.192Z</time></trkpt><trkpt lat="43.7931122" lon="11.5530355"><ele>802.0</ele><time>2026-04-19T07:57:45.192Z</time></trkpt><trkpt lat="43.793142" lon="11.5528697"><ele>802.0</ele><time>2026-04-19T07:57:46.188Z</time></trkpt><trkpt lat="43.7931445" lon="11.5526528"><ele>801.3333333333333</ele><time>2026-04-19T07:57:47.195Z</time></trkpt><trkpt lat="43.7931251" lon="11.5524166"><ele>800.6666666666667</ele><time>2026-04-19T07:57:48.197Z</time></trkpt><trkpt lat="43.793095" lon="11.5521607"><ele>800.0</ele><time>2026-04-19T07:57:49.198Z</time></trkpt><trkpt lat="43.7930653" lon="11.5518838"><ele>797.0</ele><time>2026-04-19T07:57:50.198Z</time></trkpt><trkpt lat="43.7930371" lon="11.5516075"><ele>794.0</ele><time>2026-04-19T07:57:51.191Z</time></trkpt><trkpt lat="43.7930151" lon="11.5513375"><ele>791.0</ele><time>2026-04-19T07:57:52.201Z</time></trkpt><trkpt lat="43.7929902" lon="11.5510891"><ele>789.6666666666667</ele><time>2026-04-19T07:57:53.197Z</time></trkpt><trkpt lat="43.7929677" lon="11.5508315"><ele>788.3333333333333</ele><time>2026-04-19T07:57:54.189Z</time></trkpt><trkpt lat="43.7929522" lon="11.5505727"><ele>787.0</ele><time>2026-04-19T07:57:55.2Z</time></trkpt><trkpt lat="43.7929491" lon="11.5503107"><ele>784.6666666666666</ele><time>2026-04-19T07:57:56.199Z</time></trkpt><trkpt lat="43.7929587" lon="11.5500476"><ele>782.3333333333333</ele><time>2026-04-19T07:57:57.202Z</time></trkpt><trkpt lat="43.7929678" lon="11.5497854"><ele>780.0</ele><time>2026-04-19T07:57:58.204Z</time></trkpt><trkpt lat="43.7929862" lon="11.5495055"><ele>779.0</ele><time>2026-04-19T07:57:59.2Z</time></trkpt><trkpt lat="43.7930069" lon="11.5492075"><ele>778.0</ele><time>2026-04-19T07:58:00.212Z</time></trkpt><trkpt lat="43.7930145" lon="11.5489074"><ele>777.0</ele><time>2026-04-19T07:58:01.192Z</time></trkpt><trkpt lat="43.793023" lon="11.5486282"><ele>777.0</ele><time>2026-04-19T07:58:02.198Z</time></trkpt><trkpt lat="43.793035" lon="11.5483852"><ele>777.0</ele><time>2026-04-19T07:58:03.195Z</time></trkpt><trkpt lat="43.7930472" lon="11.5481927"><ele>777.0</ele><time>2026-04-19T07:58:04.195Z</time></trkpt><trkpt lat="43.7930779" lon="11.5480246"><ele>777.0</ele><time>2026-04-19T07:58:05.196Z</time></trkpt><trkpt lat="43.7931185" lon="11.5478777"><ele>777.75</ele><time>2026-04-19T07:58:06.199Z</time></trkpt><trkpt lat="43.7931919" lon="11.5477384"><ele>778.5</ele><time>2026-04-19T07:58:07.182Z</time></trkpt><trkpt lat="43.7932901" lon="11.5476199"><ele>779.25</ele><time>2026-04-19T07:58:08.196Z</time></trkpt><trkpt lat="43.7934083" lon="11.5475313"><ele>780.0</ele><time>2026-04-19T07:58:09.19Z</time></trkpt><trkpt lat="43.7935309" lon="11.5474619"><ele>780.0</ele><time>2026-04-19T07:58:10.193Z</time></trkpt><trkpt lat="43.79367" lon="11.5474425"><ele>780.0</ele><time>2026-04-19T07:58:11.199Z</time></trkpt><trkpt lat="43.7938267" lon="11.5474369"><ele>780.0</ele><time>2026-04-19T07:58:12.194Z</time></trkpt><trkpt lat="43.7939813" lon="11.5474281"><ele>780.0</ele><time>2026-04-19T07:58:13.19Z</time></trkpt><trkpt lat="43.7941242" lon="11.5474251"><ele>780.0</ele><time>2026-04-19T07:58:14.201Z</time></trkpt><trkpt lat="43.7942602" lon="11.5474167"><ele>780.0</ele><time>2026-04-19T07:58:15.197Z</time></trkpt><trkpt lat="43.7943803" lon="11.5473988"><ele>780.0</ele><time>2026-04-19T07:58:16.193Z</time></trkpt><trkpt lat="43.7944861" lon="11.5473598"><ele>777.0</ele><time>2026-04-19T07:58:17.2Z</time></trkpt><trkpt lat="43.7945751" lon="11.5472987"><ele>774.0</ele><time>2026-04-19T07:58:18.192Z</time></trkpt><trkpt lat="43.7946566" lon="11.5471893"><ele>771.0</ele><time>2026-04-19T07:58:19.177Z</time></trkpt><trkpt lat="43.7947136" lon="11.5470366"><ele>768.0</ele><time>2026-04-19T07:58:20.205Z</time></trkpt><trkpt lat="43.7947336" lon="11.5468632"><ele>768.0</ele><time>2026-04-19T07:58:21.198Z</time></trkpt><trkpt lat="43.7947347" lon="11.5466882"><ele>768.0</ele><time>2026-04-19T07:58:22.194Z</time></trkpt><trkpt lat="43.7947238" lon="11.5465178"><ele>768.0</ele><time>2026-04-19T07:58:23.19Z</time></trkpt><trkpt lat="43.7947141" lon="11.5463085"><ele>768.0</ele><time>2026-04-19T07:58:24.196Z</time></trkpt><trkpt lat="43.7947244" lon="11.5460758"><ele>767.3333333333334</ele><time>2026-04-19T07:58:25.202Z</time></trkpt><trkpt lat="43.7947651" lon="11.5458389"><ele>766.6666666666667</ele><time>2026-04-19T07:58:26.179Z</time></trkpt><trkpt lat="43.7948212" lon="11.5456091"><ele>766.0</ele><time>2026-04-19T07:58:27.196Z</time></trkpt><trkpt lat="43.7948804" lon="11.545396"><ele>767.0</ele><time>2026-04-19T07:58:28.204Z</time></trkpt><trkpt lat="43.7949439" lon="11.5451908"><ele>768.0</ele><time>2026-04-19T07:58:29.194Z</time></trkpt><trkpt lat="43.7949984" lon="11.5450045"><ele>769.0</ele><time>2026-04-19T07:58:30.185Z</time></trkpt><trkpt lat="43.7950467" lon="11.54482"><ele>770.0</ele><time>2026-04-19T07:58:31.202Z</time></trkpt><trkpt lat="43.7950914" lon="11.5446424"><ele>770.4</ele><time>2026-04-19T07:58:32.2Z</time></trkpt><trkpt lat="43.7951202" lon="11.5444713"><ele>770.8</ele><time>2026-04-19T07:58:33.186Z</time></trkpt><trkpt lat="43.7951331" lon="11.5443209"><ele>771.2</ele><time>2026-04-19T07:58:34.204Z</time></trkpt><trkpt lat="43.7951495" lon="11.5441804"><ele>771.6</ele><time>2026-04-19T07:58:35.196Z</time></trkpt><trkpt lat="43.7951659" lon="11.54405"><ele>772.0</ele><time>2026-04-19T07:58:36.21Z</time></trkpt><trkpt lat="43.7951816" lon="11.5439202"><ele>767.1666666666666</ele><time>2026-04-19T07:58:37.203Z</time></trkpt><trkpt lat="43.7951988" lon="11.5438033"><ele>762.3333333333333</ele><time>2026-04-19T07:58:38.204Z</time></trkpt><trkpt lat="43.795213" lon="11.5436937"><ele>757.5</ele><time>2026-04-19T07:58:39.204Z</time></trkpt><trkpt lat="43.7952347" lon="11.5435869"><ele>752.6666666666666</ele><time>2026-04-19T07:58:40.195Z</time></trkpt><trkpt lat="43.7952551" lon="11.5434749"><ele>747.8333333333333</ele><time>2026-04-19T07:58:41.205Z</time></trkpt><trkpt lat="43.7952777" lon="11.5433487"><ele>743.0</ele><time>2026-04-19T07:58:42.205Z</time></trkpt><trkpt lat="43.7953011" lon="11.5432338"><ele>743.0</ele><time>2026-04-19T07:58:43.191Z</time></trkpt><trkpt lat="43.7953247" lon="11.5431116"><ele>743.0</ele><time>2026-04-19T07:58:44.202Z</time></trkpt><trkpt lat="43.7953475" lon="11.5429934"><ele>743.0</ele><time>2026-04-19T07:58:45.198Z</time></trkpt><trkpt lat="43.7953647" lon="11.5428715"><ele>743.0</ele><time>2026-04-19T07:58:46.2Z</time></trkpt><trkpt lat="43.7953787" lon="11.5427428"><ele>743.0</ele><time>2026-04-19T07:58:47.201Z</time></trkpt><trkpt lat="43.7953844" lon="11.54262"><ele>743.5999999999999</ele><time>2026-04-19T07:58:48.194Z</time></trkpt><trkpt lat="43.7953917" lon="11.5424984"><ele>744.1999999999999</ele><time>2026-04-19T07:58:49.201Z</time></trkpt><trkpt lat="43.7953916" lon="11.5423698"><ele>744.8</ele><time>2026-04-19T07:58:50.2Z</time></trkpt><trkpt lat="43.795379" lon="11.542239"><ele>745.4</ele><time>2026-04-19T07:58:51.195Z</time></trkpt><trkpt lat="43.7953691" lon="11.5421121"><ele>746.0</ele><time>2026-04-19T07:58:52.197Z</time></trkpt><trkpt lat="43.7953547" lon="11.5419695"><ele>746.0</ele><time>2026-04-19T07:58:53.194Z</time></trkpt><trkpt lat="43.7953322" lon="11.5418243"><ele>746.0</ele><time>2026-04-19T07:58:54.196Z</time></trkpt><trkpt lat="43.7953127" lon="11.5416886"><ele>746.0</ele><time>2026-04-19T07:58:55.184Z</time></trkpt><trkpt lat="43.7952951" lon="11.5415559"><ele>746.0</ele><time>2026-04-19T07:58:56.199Z</time></trkpt><trkpt lat="43.7952859" lon="11.5414258"><ele>746.0</ele><time>2026-04-19T07:58:57.183Z</time></trkpt><trkpt lat="43.7952831" lon="11.541294"><ele>745.0</ele><time>2026-04-19T07:58:58.199Z</time></trkpt><trkpt lat="43.7952773" lon="11.5411688"><ele>744.0</ele><time>2026-04-19T07:58:59.195Z</time></trkpt><trkpt lat="43.7952737" lon="11.5410512"><ele>743.0</ele><time>2026-04-19T07:59:00.192Z</time></trkpt><trkpt lat="43.7952799" lon="11.5409342"><ele>742.0</ele><time>2026-04-19T07:59:01.203Z</time></trkpt><trkpt lat="43.7952889" lon="11.5408132"><ele>741.0</ele><time>2026-04-19T07:59:02.188Z</time></trkpt><trkpt lat="43.7953012" lon="11.5406899"><ele>740.0</ele><time>2026-04-19T07:59:03.197Z</time></trkpt><trkpt lat="43.7953116" lon="11.5405712"><ele>740.0</ele><time>2026-04-19T07:59:04.201Z</time></trkpt><trkpt lat="43.795328" lon="11.5404477"><ele>740.0</ele><time>2026-04-19T07:59:05.197Z</time></trkpt><trkpt lat="43.7953441" lon="11.5403195"><ele>740.0</ele><time>2026-04-19T07:59:06.18Z</time></trkpt><trkpt lat="43.7953532" lon="11.5401968"><ele>740.0</ele><time>2026-04-19T07:59:07.194Z</time></trkpt><trkpt lat="43.7953592" lon="11.5400734"><ele>740.0</ele><time>2026-04-19T07:59:08.192Z</time></trkpt><trkpt lat="43.7953544" lon="11.5399382"><ele>739.6</ele><time>2026-04-19T07:59:09.19Z</time></trkpt><trkpt lat="43.7953403" lon="11.539814"><ele>739.2</ele><time>2026-04-19T07:59:10.194Z</time></trkpt><trkpt lat="43.7953152" lon="11.5396871"><ele>738.8</ele><time>2026-04-19T07:59:11.187Z</time></trkpt><trkpt lat="43.7952719" lon="11.539577"><ele>738.4</ele><time>2026-04-19T07:59:12.205Z</time></trkpt><trkpt lat="43.7952224" lon="11.539468"><ele>738.0</ele><time>2026-04-19T07:59:13.195Z</time></trkpt><trkpt lat="43.7951507" lon="11.5393712"><ele>738.0</ele><time>2026-04-19T07:59:14.221Z</time></trkpt><trkpt lat="43.7950673" lon="11.5392897"><ele>738.0</ele><time>2026-04-19T07:59:15.197Z</time></trkpt><trkpt lat="43.7949809" lon="11.5392114"><ele>738.0</ele><time>2026-04-19T07:59:16.198Z</time></trkpt><trkpt lat="43.7948851" lon="11.5391438"><ele>738.0</ele><time>2026-04-19T07:59:17.173Z</time></trkpt><trkpt lat="43.794786" lon="11.5390724"><ele>738.0</ele><time>2026-04-19T07:59:18.203Z</time></trkpt><trkpt lat="43.7946854" lon="11.5390065"><ele>738.0</ele><time>2026-04-19T07:59:19.187Z</time></trkpt><trkpt lat="43.7945919" lon="11.5389296"><ele>738.0</ele><time>2026-04-19T07:59:20.193Z</time></trkpt><trkpt lat="43.794514" lon="11.538821"><ele>738.0</ele><time>2026-04-19T07:59:21.189Z</time></trkpt><trkpt lat="43.7944469" lon="11.5387038"><ele>738.0</ele><time>2026-04-19T07:59:22.193Z</time></trkpt><trkpt lat="43.7944109" lon="11.5385839"><ele>738.0</ele><time>2026-04-19T07:59:23.193Z</time></trkpt><trkpt lat="43.7944038" lon="11.5384417"><ele>738.75</ele><time>2026-04-19T07:59:24.199Z</time></trkpt><trkpt lat="43.7944291" lon="11.5382666"><ele>739.5</ele><time>2026-04-19T07:59:25.2Z</time></trkpt><trkpt lat="43.7944591" lon="11.5381128"><ele>740.25</ele><time>2026-04-19T07:59:26.196Z</time></trkpt><trkpt lat="43.794456" lon="11.537969"><ele>741.0</ele><time>2026-04-19T07:59:27.196Z</time></trkpt><trkpt lat="43.7944193" lon="11.5378256"><ele>742.25</ele><time>2026-04-19T07:59:28.202Z</time></trkpt><trkpt lat="43.7943613" lon="11.5376957"><ele>743.5</ele><time>2026-04-19T07:59:29.177Z</time></trkpt><trkpt lat="43.7942821" lon="11.5375675"><ele>744.75</ele><time>2026-04-19T07:59:30.197Z</time></trkpt><trkpt lat="43.7941942" lon="11.5374497"><ele>746.0</ele><time>2026-04-19T07:59:31.204Z</time></trkpt><trkpt lat="43.7940978" lon="11.5373313"><ele>746.75</ele><time>2026-04-19T07:59:32.198Z</time></trkpt><trkpt lat="43.794015" lon="11.5372082"><ele>747.5</ele><time>2026-04-19T07:59:33.19Z</time></trkpt><trkpt lat="43.7939267" lon="11.5370697"><ele>748.25</ele><time>2026-04-19T07:59:34.199Z</time></trkpt><trkpt lat="43.7938433" lon="11.536915"><ele>749.0</ele><time>2026-04-19T07:59:35.183Z</time></trkpt><trkpt lat="43.7937677" lon="11.5367357"><ele>749.0</ele><time>2026-04-19T07:59:36.184Z</time></trkpt><trkpt lat="43.7936901" lon="11.5365244"><ele>749.0</ele><time>2026-04-19T07:59:37.182Z</time></trkpt><trkpt lat="43.7936128" lon="11.536311"><ele>749.0</ele><time>2026-04-19T07:59:38.185Z</time></trkpt><trkpt lat="43.7935351" lon="11.5360737"><ele>745.0</ele><time>2026-04-19T07:59:39.196Z</time></trkpt><trkpt lat="43.7934568" lon="11.5358395"><ele>741.0</ele><time>2026-04-19T07:59:40.209Z</time></trkpt><trkpt lat="43.7933794" lon="11.5355997"><ele>737.0</ele><time>2026-04-19T07:59:41.203Z</time></trkpt><trkpt lat="43.7933044" lon="11.5353585"><ele>737.0</ele><time>2026-04-19T07:59:42.203Z</time></trkpt><trkpt lat="43.7932333" lon="11.5351193"><ele>737.0</ele><time>2026-04-19T07:59:43.198Z</time></trkpt><trkpt lat="43.7931727" lon="11.5348766"><ele>737.0</ele><time>2026-04-19T07:59:44.202Z</time></trkpt><trkpt lat="43.7931155" lon="11.5346454"><ele>739.6666666666666</ele><time>2026-04-19T07:59:45.211Z</time></trkpt><trkpt lat="43.7930701" lon="11.5344263"><ele>742.3333333333334</ele><time>2026-04-19T07:59:46.2Z</time></trkpt><trkpt lat="43.7930313" lon="11.5342219"><ele>745.0</ele><time>2026-04-19T07:59:47.187Z</time></trkpt><trkpt lat="43.7930145" lon="11.5340071"><ele>745.0</ele><time>2026-04-19T07:59:48.198Z</time></trkpt><trkpt lat="43.7930216" lon="11.5337712"><ele>745.0</ele><time>2026-04-19T07:59:49.189Z</time></trkpt><trkpt lat="43.79301" lon="11.5335145"><ele>745.0</ele><time>2026-04-19T07:59:50.208Z</time></trkpt><trkpt lat="43.792983" lon="11.5332664"><ele>745.6666666666667</ele><time>2026-04-19T07:59:51.187Z</time></trkpt><trkpt lat="43.7929657" lon="11.5330227"><ele>746.3333333333334</ele><time>2026-04-19T07:59:52.204Z</time></trkpt><trkpt lat="43.7929712" lon="11.5327669"><ele>747.0</ele><time>2026-04-19T07:59:53.203Z</time></trkpt><trkpt lat="43.7929944" lon="11.5324895"><ele>747.0</ele><time>2026-04-19T07:59:54.196Z</time></trkpt><trkpt lat="43.7930242" lon="11.5322296"><ele>747.0</ele><time>2026-04-19T07:59:55.208Z</time></trkpt><trkpt lat="43.7930427" lon="11.5319815"><ele>747.0</ele><time>2026-04-19T07:59:56.195Z</time></trkpt><trkpt lat="43.7930485" lon="11.5317347"><ele>745.3333333333334</ele><time>2026-04-19T07:59:57.197Z</time></trkpt><trkpt lat="43.7930528" lon="11.5314936"><ele>743.6666666666667</ele><time>2026-04-19T07:59:58.183Z</time></trkpt><trkpt lat="43.7930748" lon="11.5312772"><ele>742.0</ele><time>2026-04-19T07:59:59.177Z</time></trkpt><trkpt lat="43.793102" lon="11.5310932"><ele>741.4000000000001</ele><time>2026-04-19T08:00:00.176Z</time></trkpt><trkpt lat="43.7931195" lon="11.5309309"><ele>740.8000000000001</ele><time>2026-04-19T08:00:01.194Z</time></trkpt><trkpt lat="43.7931138" lon="11.530771"><ele>740.2</ele><time>2026-04-19T08:00:02.194Z</time></trkpt><trkpt lat="43.7930761" lon="11.5306317"><ele>739.6</ele><time>2026-04-19T08:00:03.195Z</time></trkpt><trkpt lat="43.7930054" lon="11.5305231"><ele>739.0</ele><time>2026-04-19T08:00:04.202Z</time></trkpt><trkpt lat="43.792896" lon="11.5304532"><ele>742.5</ele><time>2026-04-19T08:00:05.2Z</time></trkpt><trkpt lat="43.7927701" lon="11.5303749"><ele>746.0</ele><time>2026-04-19T08:00:06.194Z</time></trkpt><trkpt lat="43.7926373" lon="11.5302935"><ele>749.5</ele><time>2026-04-19T08:00:07.182Z</time></trkpt><trkpt lat="43.7925058" lon="11.5301882"><ele>753.0</ele><time>2026-04-19T08:00:08.195Z</time></trkpt><trkpt lat="43.7923794" lon="11.5300734"><ele>746.75</ele><time>2026-04-19T08:00:09.197Z</time></trkpt><trkpt lat="43.7922607" lon="11.5299538"><ele>740.5</ele><time>2026-04-19T08:00:10.193Z</time></trkpt><trkpt lat="43.7921569" lon="11.5298272"><ele>734.25</ele><time>2026-04-19T08:00:11.209Z</time></trkpt><trkpt lat="43.7920885" lon="11.5296706"><ele>728.0</ele><time>2026-04-19T08:00:12.195Z</time></trkpt><trkpt lat="43.7920329" lon="11.5294753"><ele>728.0</ele><time>2026-04-19T08:00:13.181Z</time></trkpt><trkpt lat="43.7920223" lon="11.5292416"><ele>728.0</ele><time>2026-04-19T08:00:14.179Z</time></trkpt><trkpt lat="43.7920077" lon="11.5289893"><ele>728.0</ele><time>2026-04-19T08:00:15.181Z</time></trkpt><trkpt lat="43.7919604" lon="11.5287445"><ele>729.3333333333333</ele><time>2026-04-19T08:00:16.198Z</time></trkpt><trkpt lat="43.7918747" lon="11.5284876"><ele>730.6666666666666</ele><time>2026-04-19T08:00:17.201Z</time></trkpt><trkpt lat="43.7917822" lon="11.5282493"><ele>732.0</ele><time>2026-04-19T08:00:18.2Z</time></trkpt><trkpt lat="43.7917074" lon="11.5280626"><ele>723.25</ele><time>2026-04-19T08:00:19.182Z</time></trkpt><trkpt lat="43.7916678" lon="11.5279081"><ele>714.5</ele><time>2026-04-19T08:00:20.197Z</time></trkpt><trkpt lat="43.7916492" lon="11.5277696"><ele>705.75</ele><time>2026-04-19T08:00:21.199Z</time></trkpt><trkpt lat="43.7916523" lon="11.5276085"><ele>697.0</ele><time>2026-04-19T08:00:22.195Z</time></trkpt><trkpt lat="43.7917099" lon="11.5274417"><ele>696.5</ele><time>2026-04-19T08:00:23.198Z</time></trkpt><trkpt lat="43.7917819" lon="11.5272772"><ele>696.0</ele><time>2026-04-19T08:00:24.197Z</time></trkpt><trkpt lat="43.7918318" lon="11.5271039"><ele>695.5</ele><time>2026-04-19T08:00:25.191Z</time></trkpt><trkpt lat="43.7918367" lon="11.5269045"><ele>695.0</ele><time>2026-04-19T08:00:26.202Z</time></trkpt><trkpt lat="43.7918149" lon="11.5266954"><ele>696.75</ele><time>2026-04-19T08:00:27.199Z</time></trkpt><trkpt lat="43.7918041" lon="11.5264989"><ele>698.5</ele><time>2026-04-19T08:00:28.196Z</time></trkpt><trkpt lat="43.7918238" lon="11.5262993"><ele>700.25</ele><time>2026-04-19T08:00:29.172Z</time></trkpt><trkpt lat="43.7918902" lon="11.5260963"><ele>702.0</ele><time>2026-04-19T08:00:30.192Z</time></trkpt><trkpt lat="43.7919704" lon="11.5258836"><ele>702.0</ele><time>2026-04-19T08:00:31.191Z</time></trkpt><trkpt lat="43.7920271" lon="11.5256802"><ele>702.0</ele><time>2026-04-19T08:00:32.182Z</time></trkpt><trkpt lat="43.7920733" lon="11.525498"><ele>702.0</ele><time>2026-04-19T08:00:33.192Z</time></trkpt><trkpt lat="43.7920949" lon="11.5253066"><ele>702.0</ele><time>2026-04-19T08:00:34.211Z</time></trkpt><trkpt lat="43.7920584" lon="11.5251161"><ele>699.4000000000001</ele><time>2026-04-19T08:00:35.188Z</time></trkpt><trkpt lat="43.7920027" lon="11.5249325"><ele>696.8000000000001</ele><time>2026-04-19T08:00:36.194Z</time></trkpt><trkpt lat="43.7919601" lon="11.5247836"><ele>694.2</ele><time>2026-04-19T08:00:37.194Z</time></trkpt><trkpt lat="43.7919507" lon="11.5246543"><ele>691.6</ele><time>2026-04-19T08:00:38.19Z</time></trkpt><trkpt lat="43.7919663" lon="11.5245306"><ele>689.0</ele><time>2026-04-19T08:00:39.194Z</time></trkpt><trkpt lat="43.7920273" lon="11.5244303"><ele>686.0</ele><time>2026-04-19T08:00:40.192Z</time></trkpt><trkpt lat="43.792126" lon="11.5243441"><ele>683.0</ele><time>2026-04-19T08:00:41.188Z</time></trkpt><trkpt lat="43.792233" lon="11.5242403"><ele>680.0</ele><time>2026-04-19T08:00:42.18Z</time></trkpt><trkpt lat="43.7923324" lon="11.5240848"><ele>677.0</ele><time>2026-04-19T08:00:43.189Z</time></trkpt><trkpt lat="43.7924116" lon="11.5239"><ele>672.0</ele><time>2026-04-19T08:00:44.188Z</time></trkpt><trkpt lat="43.7924879" lon="11.5236777"><ele>667.0</ele><time>2026-04-19T08:00:45.194Z</time></trkpt><trkpt lat="43.7925728" lon="11.5234483"><ele>662.0</ele><time>2026-04-19T08:00:46.175Z</time></trkpt><trkpt lat="43.7926557" lon="11.5232309"><ele>664.75</ele><time>2026-04-19T08:00:47.187Z</time></trkpt><trkpt lat="43.7927241" lon="11.5230451"><ele>667.5</ele><time>2026-04-19T08:00:48.196Z</time></trkpt><trkpt lat="43.7927713" lon="11.522862"><ele>670.25</ele><time>2026-04-19T08:00:49.192Z</time></trkpt><trkpt lat="43.792793" lon="11.5226919"><ele>673.0</ele><time>2026-04-19T08:00:50.198Z</time></trkpt><trkpt lat="43.7927829" lon="11.5224936"><ele>673.0</ele><time>2026-04-19T08:00:51.195Z</time></trkpt><trkpt lat="43.7927321" lon="11.5222632"><ele>673.0</ele><time>2026-04-19T08:00:52.198Z</time></trkpt><trkpt lat="43.7926914" lon="11.5220368"><ele>673.0</ele><time>2026-04-19T08:00:53.199Z</time></trkpt><trkpt lat="43.7926869" lon="11.5217967"><ele>671.0</ele><time>2026-04-19T08:00:54.192Z</time></trkpt><trkpt lat="43.7926831" lon="11.5215219"><ele>669.0</ele><time>2026-04-19T08:00:55.198Z</time></trkpt><trkpt lat="43.7926674" lon="11.5212255"><ele>667.0</ele><time>2026-04-19T08:00:56.198Z</time></trkpt><trkpt lat="43.7926451" lon="11.5209578"><ele>657.6666666666667</ele><time>2026-04-19T08:00:57.203Z</time></trkpt><trkpt lat="43.7926174" lon="11.520717"><ele>648.3333333333334</ele><time>2026-04-19T08:00:58.193Z</time></trkpt><trkpt lat="43.7926035" lon="11.5205174"><ele>639.0</ele><time>2026-04-19T08:00:59.198Z</time></trkpt><trkpt lat="43.7926122" lon="11.5203279"><ele>642.6666666666666</ele><time>2026-04-19T08:01:00.186Z</time></trkpt><trkpt lat="43.7926565" lon="11.5201269"><ele>646.3333333333333</ele><time>2026-04-19T08:01:01.194Z</time></trkpt><trkpt lat="43.792752" lon="11.5199302"><ele>650.0</ele><time>2026-04-19T08:01:02.193Z</time></trkpt><trkpt lat="43.7928659" lon="11.5197556"><ele>650.0</ele><time>2026-04-19T08:01:03.199Z</time></trkpt><trkpt lat="43.7929949" lon="11.5195933"><ele>650.0</ele><time>2026-04-19T08:01:04.198Z</time></trkpt><trkpt lat="43.7931332" lon="11.519458"><ele>650.0</ele><time>2026-04-19T08:01:05.203Z</time></trkpt><trkpt lat="43.7932538" lon="11.5193223"><ele>645.0</ele><time>2026-04-19T08:01:06.208Z</time></trkpt><trkpt lat="43.7933498" lon="11.5191891"><ele>640.0</ele><time>2026-04-19T08:01:07.198Z</time></trkpt><trkpt lat="43.7934315" lon="11.5190405"><ele>635.0</ele><time>2026-04-19T08:01:08.195Z</time></trkpt><trkpt lat="43.793485" lon="11.5189005"><ele>630.0</ele><time>2026-04-19T08:01:09.192Z</time></trkpt><trkpt lat="43.7935054" lon="11.5187507"><ele>628.5</ele><time>2026-04-19T08:01:10.176Z</time></trkpt><trkpt lat="43.7934759" lon="11.518606"><ele>627.0</ele><time>2026-04-19T08:01:11.185Z</time></trkpt><trkpt lat="43.7934149" lon="11.5184557"><ele>625.5</ele><time>2026-04-19T08:01:12.192Z</time></trkpt><trkpt lat="43.7933329" lon="11.5183142"><ele>624.0</ele><time>2026-04-19T08:01:13.194Z</time></trkpt><trkpt lat="43.7932338" lon="11.5181523"><ele>624.0</ele><time>2026-04-19T08:01:14.193Z</time></trkpt><trkpt lat="43.7931176" lon="11.5179852"><ele>624.0</ele><time>2026-04-19T08:01:15.196Z</time></trkpt><trkpt lat="43.7929911" lon="11.5177926"><ele>624.0</ele><time>2026-04-19T08:01:16.195Z</time></trkpt><trkpt lat="43.7928686" lon="11.5176019"><ele>627.6666666666666</ele><time>2026-04-19T08:01:17.184Z</time></trkpt><trkpt lat="43.79275" lon="11.5174175"><ele>631.3333333333333</ele><time>2026-04-19T08:01:18.195Z</time></trkpt><trkpt lat="43.7926282" lon="11.5172479"><ele>635.0</ele><time>2026-04-19T08:01:19.184Z</time></trkpt><trkpt lat="43.7924852" lon="11.517095"><ele>629.6666666666666</ele><time>2026-04-19T08:01:20.19Z</time></trkpt><trkpt lat="43.7923206" lon="11.5169584"><ele>624.3333333333334</ele><time>2026-04-19T08:01:21.197Z</time></trkpt><trkpt lat="43.7921604" lon="11.5168128"><ele>619.0</ele><time>2026-04-19T08:01:22.2Z</time></trkpt><trkpt lat="43.7919921" lon="11.5166574"><ele>619.0</ele><time>2026-04-19T08:01:23.197Z</time></trkpt><trkpt lat="43.7918409" lon="11.5164588"><ele>619.0</ele><time>2026-04-19T08:01:24.205Z</time></trkpt><trkpt lat="43.7916951" lon="11.5162686"><ele>619.0</ele><time>2026-04-19T08:01:25.198Z</time></trkpt><trkpt lat="43.791574" lon="11.5161029"><ele>615.0</ele><time>2026-04-19T08:01:26.198Z</time></trkpt><trkpt lat="43.7914628" lon="11.515961"><ele>611.0</ele><time>2026-04-19T08:01:27.187Z</time></trkpt><trkpt lat="43.7913669" lon="11.5158303"><ele>607.0</ele><time>2026-04-19T08:01:28.193Z</time></trkpt><trkpt lat="43.7912874" lon="11.5157026"><ele>603.0</ele><time>2026-04-19T08:01:29.201Z</time></trkpt><trkpt lat="43.7912234" lon="11.5155916"><ele>603.0</ele><time>2026-04-19T08:01:30.207Z</time></trkpt><trkpt lat="43.7911889" lon="11.5154775"><ele>603.0</ele><time>2026-04-19T08:01:31.204Z</time></trkpt><trkpt lat="43.7911875" lon="11.5153494"><ele>603.0</ele><time>2026-04-19T08:01:32.178Z</time></trkpt><trkpt lat="43.7912169" lon="11.5152098"><ele>603.0</ele><time>2026-04-19T08:01:33.194Z</time></trkpt><trkpt lat="43.7912766" lon="11.5150872"><ele>603.0</ele><time>2026-04-19T08:01:34.196Z</time></trkpt><trkpt lat="43.7913816" lon="11.514965"><ele>601.0</ele><time>2026-04-19T08:01:35.193Z</time></trkpt><trkpt lat="43.7914938" lon="11.5148404"><ele>599.0</ele><time>2026-04-19T08:01:36.204Z</time></trkpt><trkpt lat="43.7916125" lon="11.5147115"><ele>597.0</ele><time>2026-04-19T08:01:37.192Z</time></trkpt><trkpt lat="43.791764" lon="11.5145842"><ele>593.3333333333334</ele><time>2026-04-19T08:01:38.203Z</time></trkpt><trkpt lat="43.7919251" lon="11.5144889"><ele>589.6666666666667</ele><time>2026-04-19T08:01:39.173Z</time></trkpt><trkpt lat="43.7920816" lon="11.5144025"><ele>586.0</ele><time>2026-04-19T08:01:40.196Z</time></trkpt><trkpt lat="43.7922084" lon="11.5143239"><ele>586.0</ele><time>2026-04-19T08:01:41.195Z</time></trkpt><trkpt lat="43.7923171" lon="11.5142455"><ele>586.0</ele><time>2026-04-19T08:01:42.191Z</time></trkpt><trkpt lat="43.792403" lon="11.5141554"><ele>586.0</ele><time>2026-04-19T08:01:43.196Z</time></trkpt><trkpt lat="43.7924691" lon="11.5140083"><ele>586.0</ele><time>2026-04-19T08:01:44.186Z</time></trkpt><trkpt lat="43.792515" lon="11.5138549"><ele>583.4</ele><time>2026-04-19T08:01:45.189Z</time></trkpt><trkpt lat="43.7925232" lon="11.5137072"><ele>580.8</ele><time>2026-04-19T08:01:46.18Z</time></trkpt><trkpt lat="43.7925031" lon="11.5135547"><ele>578.1999999999999</ele><time>2026-04-19T08:01:47.188Z</time></trkpt><trkpt lat="43.7924537" lon="11.5134239"><ele>575.6</ele><time>2026-04-19T08:01:48.174Z</time></trkpt><trkpt lat="43.792368" lon="11.5133203"><ele>573.0</ele><time>2026-04-19T08:01:49.184Z</time></trkpt><trkpt lat="43.792256" lon="11.5132293"><ele>573.0</ele><time>2026-04-19T08:01:50.182Z</time></trkpt><trkpt lat="43.792119" lon="11.51317"><ele>573.0</ele><time>2026-04-19T08:01:51.195Z</time></trkpt><trkpt lat="43.7919591" lon="11.5131271"><ele>573.0</ele><time>2026-04-19T08:01:52.196Z</time></trkpt><trkpt lat="43.7917823" lon="11.5130705"><ele>570.6666666666666</ele><time>2026-04-19T08:01:53.193Z</time></trkpt><trkpt lat="43.7916117" lon="11.513025"><ele>568.3333333333333</ele><time>2026-04-19T08:01:54.201Z</time></trkpt><trkpt lat="43.7914493" lon="11.5129839"><ele>566.0</ele><time>2026-04-19T08:01:55.202Z</time></trkpt><trkpt lat="43.7912963" lon="11.5129444"><ele>566.0</ele><time>2026-04-19T08:01:56.214Z</time></trkpt><trkpt lat="43.7911452" lon="11.5129101"><ele>566.0</ele><time>2026-04-19T08:01:57.205Z</time></trkpt><trkpt lat="43.7909797" lon="11.5129227"><ele>566.0</ele><time>2026-04-19T08:01:58.202Z</time></trkpt><trkpt lat="43.7908024" lon="11.5129768"><ele>562.6666666666666</ele><time>2026-04-19T08:01:59.2Z</time></trkpt><trkpt lat="43.7906117" lon="11.5130275"><ele>559.3333333333334</ele><time>2026-04-19T08:02:00.196Z</time></trkpt><trkpt lat="43.7904133" lon="11.5130757"><ele>556.0</ele><time>2026-04-19T08:02:01.185Z</time></trkpt><trkpt lat="43.7902145" lon="11.5131174"><ele>552.0</ele><time>2026-04-19T08:02:02.196Z</time></trkpt><trkpt lat="43.7900224" lon="11.5131713"><ele>548.0</ele><time>2026-04-19T08:02:03.198Z</time></trkpt><trkpt lat="43.7898392" lon="11.5132287"><ele>544.0</ele><time>2026-04-19T08:02:04.208Z</time></trkpt><trkpt lat="43.7896523" lon="11.5132771"><ele>544.0</ele><time>2026-04-19T08:02:05.182Z</time></trkpt><trkpt lat="43.7894573" lon="11.5133008"><ele>544.0</ele><time>2026-04-19T08:02:06.199Z</time></trkpt><trkpt lat="43.7892723" lon="11.5132941"><ele>544.0</ele><time>2026-04-19T08:02:07.192Z</time></trkpt><trkpt lat="43.7891178" lon="11.5132791"><ele>541.3333333333334</ele><time>2026-04-19T08:02:08.198Z</time></trkpt><trkpt lat="43.7889629" lon="11.5132214"><ele>538.6666666666666</ele><time>2026-04-19T08:02:09.192Z</time></trkpt><trkpt lat="43.788806" lon="11.5131047"><ele>536.0</ele><time>2026-04-19T08:02:10.179Z</time></trkpt><trkpt lat="43.7886659" lon="11.5129476"><ele>534.6666666666666</ele><time>2026-04-19T08:02:11.18Z</time></trkpt><trkpt lat="43.788532" lon="11.5127831"><ele>533.3333333333334</ele><time>2026-04-19T08:02:12.192Z</time></trkpt><trkpt lat="43.7884125" lon="11.5126234"><ele>532.0</ele><time>2026-04-19T08:02:13.183Z</time></trkpt><trkpt lat="43.7882959" lon="11.5124671"><ele>531.0</ele><time>2026-04-19T08:02:14.201Z</time></trkpt><trkpt lat="43.7881791" lon="11.5123159"><ele>530.0</ele><time>2026-04-19T08:02:15.194Z</time></trkpt><trkpt lat="43.7880622" lon="11.5121662"><ele>529.0</ele><time>2026-04-19T08:02:16.197Z</time></trkpt><trkpt lat="43.7879523" lon="11.5120197"><ele>528.0</ele><time>2026-04-19T08:02:17.201Z</time></trkpt><trkpt lat="43.7878454" lon="11.5118709"><ele>527.0</ele><time>2026-04-19T08:02:18.194Z</time></trkpt><trkpt lat="43.7877386" lon="11.5117388"><ele>526.0</ele><time>2026-04-19T08:02:19.189Z</time></trkpt><trkpt lat="43.7876304" lon="11.5115988"><ele>525.0</ele><time>2026-04-19T08:02:20.2Z</time></trkpt><trkpt lat="43.7875216" lon="11.5114514"><ele>525.0</ele><time>2026-04-19T08:02:21.199Z</time></trkpt><trkpt lat="43.7874087" lon="11.5113024"><ele>525.0</ele><time>2026-04-19T08:02:22.202Z</time></trkpt><trkpt lat="43.7873021" lon="11.5111638"><ele>525.0</ele><time>2026-04-19T08:02:23.196Z</time></trkpt><trkpt lat="43.7872086" lon="11.5110426"><ele>525.0</ele><time>2026-04-19T08:02:24.216Z</time></trkpt><trkpt lat="43.7871351" lon="11.5109411"><ele>525.1666666666666</ele><time>2026-04-19T08:02:25.201Z</time></trkpt><trkpt lat="43.7870781" lon="11.510866"><ele>525.3333333333334</ele><time>2026-04-19T08:02:26.181Z</time></trkpt><trkpt lat="43.787026" lon="11.5108023"><ele>525.5</ele><time>2026-04-19T08:02:27.207Z</time></trkpt><trkpt lat="43.7869722" lon="11.510737"><ele>525.6666666666667</ele><time>2026-04-19T08:02:28.19Z</time></trkpt><trkpt lat="43.7869143" lon="11.5106582"><ele>525.8333333333334</ele><time>2026-04-19T08:02:29.204Z</time></trkpt><trkpt lat="43.7868543" lon="11.510583"><ele>526.0</ele><time>2026-04-19T08:02:30.193Z</time></trkpt><trkpt lat="43.7867845" lon="11.5104996"><ele>526.0</ele><time>2026-04-19T08:02:31.202Z</time></trkpt><trkpt lat="43.7867163" lon="11.510416"><ele>526.0</ele><time>2026-04-19T08:02:32.202Z</time></trkpt><trkpt lat="43.7866424" lon="11.5103303"><ele>526.0</ele><time>2026-04-19T08:02:33.193Z</time></trkpt><trkpt lat="43.786566" lon="11.5102388"><ele>526.0</ele><time>2026-04-19T08:02:34.189Z</time></trkpt><trkpt lat="43.7864844" lon="11.5101446"><ele>526.0</ele><time>2026-04-19T08:02:35.207Z</time></trkpt><trkpt lat="43.7864057" lon="11.5100425"><ele>523.75</ele><time>2026-04-19T08:02:36.208Z</time></trkpt><trkpt lat="43.7863196" lon="11.5099378"><ele>521.5</ele><time>2026-04-19T08:02:37.193Z</time></trkpt><trkpt lat="43.7862335" lon="11.5098284"><ele>519.25</ele><time>2026-04-19T08:02:38.188Z</time></trkpt><trkpt lat="43.7861458" lon="11.5097219"><ele>517.0</ele><time>2026-04-19T08:02:39.198Z</time></trkpt><trkpt lat="43.7860519" lon="11.5096205"><ele>516.5</ele><time>2026-04-19T08:02:40.21Z</time></trkpt><trkpt lat="43.7859605" lon="11.5095153"><ele>516.0</ele><time>2026-04-19T08:02:41.203Z</time></trkpt><trkpt lat="43.7858768" lon="11.5094059"><ele>515.5</ele><time>2026-04-19T08:02:42.202Z</time></trkpt><trkpt lat="43.7858022" lon="11.5092814"><ele>515.0</ele><time>2026-04-19T08:02:43.196Z</time></trkpt><trkpt lat="43.7857396" lon="11.5091569"><ele>515.0</ele><time>2026-04-19T08:02:44.199Z</time></trkpt><trkpt lat="43.7856825" lon="11.5090202"><ele>515.0</ele><time>2026-04-19T08:02:45.197Z</time></trkpt><trkpt lat="43.7856262" lon="11.5088864"><ele>515.0</ele><time>2026-04-19T08:02:46.193Z</time></trkpt><trkpt lat="43.7855738" lon="11.5087409"><ele>515.0</ele><time>2026-04-19T08:02:47.19Z</time></trkpt><trkpt lat="43.7855197" lon="11.5085886"><ele>513.5</ele><time>2026-04-19T08:02:48.21Z</time></trkpt><trkpt lat="43.7854603" lon="11.508435"><ele>512.0</ele><time>2026-04-19T08:02:49.214Z</time></trkpt><trkpt lat="43.7854029" lon="11.5082661"><ele>510.5</ele><time>2026-04-19T08:02:50.206Z</time></trkpt><trkpt lat="43.7853492" lon="11.5080936"><ele>509.0</ele><time>2026-04-19T08:02:51.2Z</time></trkpt><trkpt lat="43.7852925" lon="11.5079154"><ele>507.5</ele><time>2026-04-19T08:02:52.207Z</time></trkpt><trkpt lat="43.7852428" lon="11.5077285"><ele>506.0</ele><time>2026-04-19T08:02:53.197Z</time></trkpt><trkpt lat="43.7851995" lon="11.5075446"><ele>504.5</ele><time>2026-04-19T08:02:54.194Z</time></trkpt><trkpt lat="43.7851608" lon="11.507356"><ele>503.0</ele><time>2026-04-19T08:02:55.2Z</time></trkpt><trkpt lat="43.785126" lon="11.5071677"><ele>502.0</ele><time>2026-04-19T08:02:56.201Z</time></trkpt><trkpt lat="43.7850907" lon="11.5069871"><ele>501.0</ele><time>2026-04-19T08:02:57.203Z</time></trkpt><trkpt lat="43.7850594" lon="11.506805"><ele>500.0</ele><time>2026-04-19T08:02:58.203Z</time></trkpt><trkpt lat="43.7850328" lon="11.5066187"><ele>499.0</ele><time>2026-04-19T08:02:59.196Z</time></trkpt><trkpt lat="43.7849978" lon="11.5064364"><ele>499.0</ele><time>2026-04-19T08:03:00.203Z</time></trkpt><trkpt lat="43.7849709" lon="11.506264"><ele>499.0</ele><time>2026-04-19T08:03:01.206Z</time></trkpt><trkpt lat="43.7849501" lon="11.5060838"><ele>499.0</ele><time>2026-04-19T08:03:02.203Z</time></trkpt><trkpt lat="43.7849318" lon="11.5059011"><ele>499.0</ele><time>2026-04-19T08:03:03.201Z</time></trkpt><trkpt lat="43.7849114" lon="11.5057245"><ele>497.25</ele><time>2026-04-19T08:03:04.199Z</time></trkpt><trkpt lat="43.7848913" lon="11.5055565"><ele>495.5</ele><time>2026-04-19T08:03:05.195Z</time></trkpt><trkpt lat="43.7848709" lon="11.5053957"><ele>493.75</ele><time>2026-04-19T08:03:06.2Z</time></trkpt><trkpt lat="43.7848559" lon="11.5052384"><ele>492.0</ele><time>2026-04-19T08:03:07.191Z</time></trkpt><trkpt lat="43.784833" lon="11.5050944"><ele>491.40000000000003</ele><time>2026-04-19T08:03:08.198Z</time></trkpt><trkpt lat="43.7848125" lon="11.5049551"><ele>490.80000000000007</ele><time>2026-04-19T08:03:09.181Z</time></trkpt><trkpt lat="43.7847882" lon="11.5048315"><ele>490.2</ele><time>2026-04-19T08:03:10.19Z</time></trkpt><trkpt lat="43.784763" lon="11.5047057"><ele>489.6</ele><time>2026-04-19T08:03:11.198Z</time></trkpt><trkpt lat="43.7847397" lon="11.5045924"><ele>489.0</ele><time>2026-04-19T08:03:12.186Z</time></trkpt><trkpt lat="43.7847194" lon="11.5044903"><ele>488.1666666666667</ele><time>2026-04-19T08:03:13.193Z</time></trkpt><trkpt lat="43.7847017" lon="11.504398"><ele>487.33333333333337</ele><time>2026-04-19T08:03:14.196Z</time></trkpt><trkpt lat="43.7846882" lon="11.5042996"><ele>486.5</ele><time>2026-04-19T08:03:15.188Z</time></trkpt><trkpt lat="43.7846712" lon="11.5041971"><ele>485.6666666666667</ele><time>2026-04-19T08:03:16.201Z</time></trkpt><trkpt lat="43.7846526" lon="11.504094"><ele>484.83333333333337</ele><time>2026-04-19T08:03:17.195Z</time></trkpt><trkpt lat="43.784633" lon="11.503984"><ele>484.0</ele><time>2026-04-19T08:03:18.188Z</time></trkpt><trkpt lat="43.7846077" lon="11.5038718"><ele>484.0</ele><time>2026-04-19T08:03:19.181Z</time></trkpt><trkpt lat="43.7845831" lon="11.503763"><ele>484.0</ele><time>2026-04-19T08:03:20.198Z</time></trkpt><trkpt lat="43.7845543" lon="11.5036396"><ele>484.0</ele><time>2026-04-19T08:03:21.188Z</time></trkpt><trkpt lat="43.7845323" lon="11.5035183"><ele>484.0</ele><time>2026-04-19T08:03:22.188Z</time></trkpt><trkpt lat="43.7845123" lon="11.5033857"><ele>484.0</ele><time>2026-04-19T08:03:23.191Z</time></trkpt><trkpt lat="43.7844992" lon="11.5032629"><ele>484.0</ele><time>2026-04-19T08:03:24.181Z</time></trkpt><trkpt lat="43.784497" lon="11.5031383"><ele>484.0</ele><time>2026-04-19T08:03:25.199Z</time></trkpt><trkpt lat="43.7845116" lon="11.5029982"><ele>484.0</ele><time>2026-04-19T08:03:26.194Z</time></trkpt><trkpt lat="43.784539" lon="11.5028664"><ele>484.0</ele><time>2026-04-19T08:03:27.187Z</time></trkpt><trkpt lat="43.7845572" lon="11.502738"><ele>484.0</ele><time>2026-04-19T08:03:28.201Z</time></trkpt><trkpt lat="43.7845859" lon="11.5026142"><ele>483.4</ele><time>2026-04-19T08:03:29.211Z</time></trkpt><trkpt lat="43.7846058" lon="11.5024986"><ele>482.79999999999995</ele><time>2026-04-19T08:03:30.196Z</time></trkpt><trkpt lat="43.7846297" lon="11.5023797"><ele>482.20000000000005</ele><time>2026-04-19T08:03:31.193Z</time></trkpt><trkpt lat="43.784651" lon="11.5022606"><ele>481.6</ele><time>2026-04-19T08:03:32.188Z</time></trkpt><trkpt lat="43.7846699" lon="11.5021333"><ele>481.0</ele><time>2026-04-19T08:03:33.204Z</time></trkpt><trkpt lat="43.7846807" lon="11.5020057"><ele>480.5</ele><time>2026-04-19T08:03:34.192Z</time></trkpt><trkpt lat="43.784661" lon="11.5018666"><ele>480.0</ele><time>2026-04-19T08:03:35.197Z</time></trkpt><trkpt lat="43.7846194" lon="11.5017098"><ele>479.5</ele><time>2026-04-19T08:03:36.182Z</time></trkpt><trkpt lat="43.7845685" lon="11.5015473"><ele>479.0</ele><time>2026-04-19T08:03:37.18Z</time></trkpt><trkpt lat="43.7845017" lon="11.5013789"><ele>477.5</ele><time>2026-04-19T08:03:38.186Z</time></trkpt><trkpt lat="43.784432" lon="11.501222"><ele>476.0</ele><time>2026-04-19T08:03:39.183Z</time></trkpt><trkpt lat="43.7843648" lon="11.5010604"><ele>474.5</ele><time>2026-04-19T08:03:40.2Z</time></trkpt><trkpt lat="43.7843177" lon="11.5009046"><ele>473.0</ele><time>2026-04-19T08:03:41.196Z</time></trkpt><trkpt lat="43.784278" lon="11.500744"><ele>473.0</ele><time>2026-04-19T08:03:42.196Z</time></trkpt><trkpt lat="43.7842569" lon="11.5005721"><ele>473.0</ele><time>2026-04-19T08:03:43.202Z</time></trkpt><trkpt lat="43.7842727" lon="11.5003764"><ele>473.0</ele><time>2026-04-19T08:03:44.201Z</time></trkpt><trkpt lat="43.7843141" lon="11.5001721"><ele>473.0</ele><time>2026-04-19T08:03:45.178Z</time></trkpt><trkpt lat="43.7843551" lon="11.4999683"><ele>470.5</ele><time>2026-04-19T08:03:46.198Z</time></trkpt><trkpt lat="43.7844" lon="11.4997615"><ele>468.0</ele><time>2026-04-19T08:03:47.204Z</time></trkpt><trkpt lat="43.7844416" lon="11.4995707"><ele>465.5</ele><time>2026-04-19T08:03:48.194Z</time></trkpt><trkpt lat="43.7844771" lon="11.4994015"><ele>463.0</ele><time>2026-04-19T08:03:49.205Z</time></trkpt><trkpt lat="43.7845065" lon="11.4992459"><ele>462.5</ele><time>2026-04-19T08:03:50.193Z</time></trkpt><trkpt lat="43.7844931" lon="11.499086"><ele>462.0</ele><time>2026-04-19T08:03:51.196Z</time></trkpt><trkpt lat="43.7844587" lon="11.4989039"><ele>461.5</ele><time>2026-04-19T08:03:52.206Z</time></trkpt><trkpt lat="43.7844012" lon="11.4987282"><ele>461.0</ele><time>2026-04-19T08:03:53.198Z</time></trkpt><trkpt lat="43.7843227" lon="11.4985622"><ele>460.75</ele><time>2026-04-19T08:03:54.184Z</time></trkpt><trkpt lat="43.7842393" lon="11.4983954"><ele>460.5</ele><time>2026-04-19T08:03:55.18Z</time></trkpt><trkpt lat="43.7841505" lon="11.4982348"><ele>460.25</ele><time>2026-04-19T08:03:56.184Z</time></trkpt><trkpt lat="43.7840516" lon="11.4981004"><ele>460.0</ele><time>2026-04-19T08:03:57.196Z</time></trkpt><trkpt lat="43.7839485" lon="11.4979872"><ele>459.4</ele><time>2026-04-19T08:03:58.191Z</time></trkpt><trkpt lat="43.78386" lon="11.4978841"><ele>458.8</ele><time>2026-04-19T08:03:59.2Z</time></trkpt><trkpt lat="43.7837903" lon="11.4977758"><ele>458.20000000000005</ele><time>2026-04-19T08:04:00.182Z</time></trkpt><trkpt lat="43.7837508" lon="11.4976537"><ele>457.6</ele><time>2026-04-19T08:04:01.209Z</time></trkpt><trkpt lat="43.7837244" lon="11.4975181"><ele>457.0</ele><time>2026-04-19T08:04:02.209Z</time></trkpt><trkpt lat="43.7837144" lon="11.4973672"><ele>457.0</ele><time>2026-04-19T08:04:03.199Z</time></trkpt><trkpt lat="43.7837728" lon="11.4972147"><ele>457.0</ele><time>2026-04-19T08:04:04.204Z</time></trkpt><trkpt lat="43.7838573" lon="11.4970517"><ele>457.0</ele><time>2026-04-19T08:04:05.197Z</time></trkpt><trkpt lat="43.7839287" lon="11.4968736"><ele>457.0</ele><time>2026-04-19T08:04:06.181Z</time></trkpt><trkpt lat="43.7839822" lon="11.4966642"><ele>455.33333333333337</ele><time>2026-04-19T08:04:07.19Z</time></trkpt><trkpt lat="43.7840146" lon="11.4964352"><ele>453.66666666666663</ele><time>2026-04-19T08:04:08.191Z</time></trkpt><trkpt lat="43.7840114" lon="11.4962144"><ele>452.0</ele><time>2026-04-19T08:04:09.185Z</time></trkpt><trkpt lat="43.7839878" lon="11.4959647"><ele>449.66666666666663</ele><time>2026-04-19T08:04:10.203Z</time></trkpt><trkpt lat="43.7839516" lon="11.4957182"><ele>447.33333333333337</ele><time>2026-04-19T08:04:11.194Z</time></trkpt><trkpt lat="43.783901" lon="11.4954539"><ele>445.0</ele><time>2026-04-19T08:04:12.188Z</time></trkpt><trkpt lat="43.7838355" lon="11.4952049"><ele>443.0</ele><time>2026-04-19T08:04:13.192Z</time></trkpt><trkpt lat="43.7837717" lon="11.4949496"><ele>441.0</ele><time>2026-04-19T08:04:14.185Z</time></trkpt><trkpt lat="43.7837228" lon="11.4947118"><ele>439.0</ele><time>2026-04-19T08:04:15.186Z</time></trkpt><trkpt lat="43.7836979" lon="11.494489"><ele>438.0</ele><time>2026-04-19T08:04:16.192Z</time></trkpt><trkpt lat="43.7836767" lon="11.4942896"><ele>437.0</ele><time>2026-04-19T08:04:17.195Z</time></trkpt><trkpt lat="43.783626" lon="11.4941246"><ele>436.0</ele><time>2026-04-19T08:04:18.188Z</time></trkpt><trkpt lat="43.7835289" lon="11.4939568"><ele>435.0</ele><time>2026-04-19T08:04:19.188Z</time></trkpt><trkpt lat="43.7834049" lon="11.4937877"><ele>431.66666666666663</ele><time>2026-04-19T08:04:20.192Z</time></trkpt><trkpt lat="43.783261" lon="11.4936274"><ele>428.3333333333333</ele><time>2026-04-19T08:04:21.174Z</time></trkpt><trkpt lat="43.783121" lon="11.4934765"><ele>425.0</ele><time>2026-04-19T08:04:22.191Z</time></trkpt><trkpt lat="43.7830013" lon="11.4933489"><ele>425.0</ele><time>2026-04-19T08:04:23.193Z</time></trkpt><trkpt lat="43.7828973" lon="11.4932252"><ele>425.0</ele><time>2026-04-19T08:04:24.202Z</time></trkpt><trkpt lat="43.7828137" lon="11.4930948"><ele>425.0</ele><time>2026-04-19T08:04:25.192Z</time></trkpt><trkpt lat="43.7827704" lon="11.4929503"><ele>425.0</ele><time>2026-04-19T08:04:26.192Z</time></trkpt><trkpt lat="43.7827615" lon="11.4927719"><ele>423.66666666666663</ele><time>2026-04-19T08:04:27.185Z</time></trkpt><trkpt lat="43.7827735" lon="11.4925636"><ele>422.33333333333337</ele><time>2026-04-19T08:04:28.181Z</time></trkpt><trkpt lat="43.7827843" lon="11.4923562"><ele>421.0</ele><time>2026-04-19T08:04:29.197Z</time></trkpt><trkpt lat="43.782781" lon="11.4921445"><ele>418.6666666666667</ele><time>2026-04-19T08:04:30.204Z</time></trkpt><trkpt lat="43.7827621" lon="11.4919161"><ele>416.33333333333337</ele><time>2026-04-19T08:04:31.204Z</time></trkpt><trkpt lat="43.7827337" lon="11.4916884"><ele>414.0</ele><time>2026-04-19T08:04:32.208Z</time></trkpt><trkpt lat="43.782696" lon="11.491459"><ele>409.33333333333337</ele><time>2026-04-19T08:04:33.193Z</time></trkpt><trkpt lat="43.7826587" lon="11.4912505"><ele>404.6666666666667</ele><time>2026-04-19T08:04:34.196Z</time></trkpt><trkpt lat="43.7826214" lon="11.4910529"><ele>400.0</ele><time>2026-04-19T08:04:35.19Z</time></trkpt><trkpt lat="43.7825784" lon="11.4908579"><ele>400.0</ele><time>2026-04-19T08:04:36.181Z</time></trkpt><trkpt lat="43.7825115" lon="11.4906587"><ele>400.0</ele><time>2026-04-19T08:04:37.185Z</time></trkpt><trkpt lat="43.7824336" lon="11.4904729"><ele>400.0</ele><time>2026-04-19T08:04:38.18Z</time></trkpt><trkpt lat="43.7823311" lon="11.4903198"><ele>400.0</ele><time>2026-04-19T08:04:39.201Z</time></trkpt><trkpt lat="43.782199" lon="11.4901785"><ele>400.0</ele><time>2026-04-19T08:04:40.2Z</time></trkpt><trkpt lat="43.7820434" lon="11.4900471"><ele>400.0</ele><time>2026-04-19T08:04:41.191Z</time></trkpt><trkpt lat="43.7818891" lon="11.4899189"><ele>400.0</ele><time>2026-04-19T08:04:42.199Z</time></trkpt><trkpt lat="43.7817504" lon="11.4897883"><ele>400.0</ele><time>2026-04-19T08:04:43.194Z</time></trkpt><trkpt lat="43.7816128" lon="11.4896745"><ele>400.0</ele><time>2026-04-19T08:04:44.2Z</time></trkpt><trkpt lat="43.7814854" lon="11.4895597"><ele>400.0</ele><time>2026-04-19T08:04:45.188Z</time></trkpt><trkpt lat="43.7813683" lon="11.4894312"><ele>400.0</ele><time>2026-04-19T08:04:46.202Z</time></trkpt><trkpt lat="43.7812605" lon="11.4892855"><ele>400.0</ele><time>2026-04-19T08:04:47.192Z</time></trkpt><trkpt lat="43.7811622" lon="11.4891001"><ele>400.0</ele><time>2026-04-19T08:04:48.189Z</time></trkpt><trkpt lat="43.7810823" lon="11.4889057"><ele>400.0</ele><time>2026-04-19T08:04:49.187Z</time></trkpt><trkpt lat="43.7810144" lon="11.4887295"><ele>400.0</ele><time>2026-04-19T08:04:50.198Z</time></trkpt><trkpt lat="43.7809669" lon="11.4885563"><ele>400.0</ele><time>2026-04-19T08:04:51.203Z</time></trkpt><trkpt lat="43.7809493" lon="11.4883712"><ele>395.33333333333337</ele><time>2026-04-19T08:04:52.191Z</time></trkpt><trkpt lat="43.7809591" lon="11.4881766"><ele>390.66666666666663</ele><time>2026-04-19T08:04:53.2Z</time></trkpt><trkpt lat="43.7810073" lon="11.4879513"><ele>386.0</ele><time>2026-04-19T08:04:54.198Z</time></trkpt><trkpt lat="43.7810659" lon="11.4877285"><ele>385.66666666666663</ele><time>2026-04-19T08:04:55.177Z</time></trkpt><trkpt lat="43.7811143" lon="11.4875002"><ele>385.33333333333337</ele><time>2026-04-19T08:04:56.181Z</time></trkpt><trkpt lat="43.781149" lon="11.4872477"><ele>385.0</ele><time>2026-04-19T08:04:57.203Z</time></trkpt><trkpt lat="43.781179" lon="11.4869947"><ele>382.6666666666667</ele><time>2026-04-19T08:04:58.197Z</time></trkpt><trkpt lat="43.7812063" lon="11.4867477"><ele>380.33333333333337</ele><time>2026-04-19T08:04:59.207Z</time></trkpt><trkpt lat="43.7812327" lon="11.4865231"><ele>378.0</ele><time>2026-04-19T08:05:00.202Z</time></trkpt><trkpt lat="43.7812387" lon="11.4863188"><ele>377.3333333333333</ele><time>2026-04-19T08:05:01.202Z</time></trkpt><trkpt lat="43.7812166" lon="11.4861027"><ele>376.66666666666663</ele><time>2026-04-19T08:05:02.205Z</time></trkpt><trkpt lat="43.7811659" lon="11.4858906"><ele>376.0</ele><time>2026-04-19T08:05:03.201Z</time></trkpt><trkpt lat="43.7810782" lon="11.4856797"><ele>372.0</ele><time>2026-04-19T08:05:04.194Z</time></trkpt><trkpt lat="43.7809832" lon="11.4854468"><ele>368.0</ele><time>2026-04-19T08:05:05.187Z</time></trkpt><trkpt lat="43.7808845" lon="11.4852038"><ele>364.0</ele><time>2026-04-19T08:05:06.197Z</time></trkpt><trkpt lat="43.78079" lon="11.4849452"><ele>363.66666666666663</ele><time>2026-04-19T08:05:07.203Z</time></trkpt><trkpt lat="43.7807069" lon="11.4846898"><ele>363.3333333333333</ele><time>2026-04-19T08:05:08.209Z</time></trkpt><trkpt lat="43.7806239" lon="11.48445"><ele>363.0</ele><time>2026-04-19T08:05:09.2Z</time></trkpt><trkpt lat="43.7805525" lon="11.4842198"><ele>362.3333333333333</ele><time>2026-04-19T08:05:10.203Z</time></trkpt><trkpt lat="43.780493" lon="11.4840093"><ele>361.66666666666663</ele><time>2026-04-19T08:05:11.2Z</time></trkpt><trkpt lat="43.7804609" lon="11.4837945"><ele>361.0</ele><time>2026-04-19T08:05:12.206Z</time></trkpt><trkpt lat="43.7804462" lon="11.4835833"><ele>359.66666666666663</ele><time>2026-04-19T08:05:13.202Z</time></trkpt><trkpt lat="43.780432" lon="11.4833689"><ele>358.3333333333333</ele><time>2026-04-19T08:05:14.2Z</time></trkpt><trkpt lat="43.7803985" lon="11.4831612"><ele>357.0</ele><time>2026-04-19T08:05:15.189Z</time></trkpt><trkpt lat="43.7803386" lon="11.4829773"><ele>355.6666666666667</ele><time>2026-04-19T08:05:16.195Z</time></trkpt><trkpt lat="43.780243" lon="11.4827831"><ele>354.33333333333337</ele><time>2026-04-19T08:05:17.198Z</time></trkpt><trkpt lat="43.7801339" lon="11.4825862"><ele>353.0</ele><time>2026-04-19T08:05:18.195Z</time></trkpt><trkpt lat="43.7800274" lon="11.4823878"><ele>349.33333333333337</ele><time>2026-04-19T08:05:19.175Z</time></trkpt><trkpt lat="43.7799207" lon="11.4821889"><ele>345.6666666666667</ele><time>2026-04-19T08:05:20.197Z</time></trkpt><trkpt lat="43.7798168" lon="11.4819876"><ele>342.0</ele><time>2026-04-19T08:05:21.198Z</time></trkpt><trkpt lat="43.7797151" lon="11.4817968"><ele>342.0</ele><time>2026-04-19T08:05:22.196Z</time></trkpt><trkpt lat="43.779622" lon="11.4816158"><ele>342.0</ele><time>2026-04-19T08:05:23.204Z</time></trkpt><trkpt lat="43.7795306" lon="11.481455"><ele>342.0</ele><time>2026-04-19T08:05:24.203Z</time></trkpt><trkpt lat="43.7794247" lon="11.4813217"><ele>339.6666666666667</ele><time>2026-04-19T08:05:25.193Z</time></trkpt><trkpt lat="43.7792878" lon="11.4812124"><ele>337.33333333333337</ele><time>2026-04-19T08:05:26.194Z</time></trkpt><trkpt lat="43.7791277" lon="11.4811099"><ele>335.0</ele><time>2026-04-19T08:05:27.198Z</time></trkpt><trkpt lat="43.778981" lon="11.4810285"><ele>335.0</ele><time>2026-04-19T08:05:28.201Z</time></trkpt><trkpt lat="43.7788451" lon="11.4809436"><ele>335.0</ele><time>2026-04-19T08:05:29.186Z</time></trkpt><trkpt lat="43.77872" lon="11.4808437"><ele>335.0</ele><time>2026-04-19T08:05:30.202Z</time></trkpt><trkpt lat="43.7786041" lon="11.4807178"><ele>335.0</ele><time>2026-04-19T08:05:31.182Z</time></trkpt><trkpt lat="43.7784838" lon="11.4805536"><ele>331.6666666666667</ele><time>2026-04-19T08:05:32.185Z</time></trkpt><trkpt lat="43.7783705" lon="11.4803658"><ele>328.3333333333333</ele><time>2026-04-19T08:05:33.186Z</time></trkpt><trkpt lat="43.7782697" lon="11.4801683"><ele>325.0</ele><time>2026-04-19T08:05:34.177Z</time></trkpt><trkpt lat="43.7781806" lon="11.4799823"><ele>325.0</ele><time>2026-04-19T08:05:35.184Z</time></trkpt><trkpt lat="43.7780935" lon="11.4798076"><ele>325.0</ele><time>2026-04-19T08:05:36.179Z</time></trkpt><trkpt lat="43.7780132" lon="11.4796464"><ele>325.0</ele><time>2026-04-19T08:05:37.196Z</time></trkpt><trkpt lat="43.7779414" lon="11.4794911"><ele>325.0</ele><time>2026-04-19T08:05:38.207Z</time></trkpt><trkpt lat="43.7778682" lon="11.479373"><ele>326.5</ele><time>2026-04-19T08:05:39.194Z</time></trkpt><trkpt lat="43.7777679" lon="11.4792897"><ele>328.0</ele><time>2026-04-19T08:05:40.211Z</time></trkpt><trkpt lat="43.7776352" lon="11.4792412"><ele>329.5</ele><time>2026-04-19T08:05:41.191Z</time></trkpt><trkpt lat="43.777489" lon="11.4792086"><ele>331.0</ele><time>2026-04-19T08:05:42.197Z</time></trkpt><trkpt lat="43.7773258" lon="11.4791798"><ele>326.3333333333333</ele><time>2026-04-19T08:05:43.194Z</time></trkpt><trkpt lat="43.7771642" lon="11.4791479"><ele>321.6666666666667</ele><time>2026-04-19T08:05:44.199Z</time></trkpt><trkpt lat="43.777011" lon="11.4791202"><ele>317.0</ele><time>2026-04-19T08:05:45.187Z</time></trkpt><trkpt lat="43.7768683" lon="11.4790881"><ele>315.4</ele><time>2026-04-19T08:05:46.197Z</time></trkpt><trkpt lat="43.7767509" lon="11.479053"><ele>313.79999999999995</ele><time>2026-04-19T08:05:47.198Z</time></trkpt><trkpt lat="43.7766462" lon="11.4790058"><ele>312.2</ele><time>2026-04-19T08:05:48.183Z</time></trkpt><trkpt lat="43.7765566" lon="11.4789492"><ele>310.59999999999997</ele><time>2026-04-19T08:05:49.194Z</time></trkpt><trkpt lat="43.7764953" lon="11.4788494"><ele>309.0</ele><time>2026-04-19T08:05:50.186Z</time></trkpt><trkpt lat="43.7764569" lon="11.4787197"><ele>309.0</ele><time>2026-04-19T08:05:51.204Z</time></trkpt><trkpt lat="43.7764218" lon="11.4785528"><ele>309.0</ele><time>2026-04-19T08:05:52.197Z</time></trkpt><trkpt lat="43.7763858" lon="11.4783545"><ele>309.0</ele><time>2026-04-19T08:05:53.193Z</time></trkpt><trkpt lat="43.7763365" lon="11.4781641"><ele>309.0</ele><time>2026-04-19T08:05:54.2Z</time></trkpt><trkpt lat="43.7762722" lon="11.4779794"><ele>309.0</ele><time>2026-04-19T08:05:55.197Z</time></trkpt><trkpt lat="43.7761922" lon="11.4777979"><ele>309.0</ele><time>2026-04-19T08:05:56.202Z</time></trkpt><trkpt lat="43.7760886" lon="11.4776336"><ele>309.0</ele><time>2026-04-19T08:05:57.202Z</time></trkpt><trkpt lat="43.7759818" lon="11.4774743"><ele>305.0</ele><time>2026-04-19T08:05:58.199Z</time></trkpt><trkpt lat="43.775868" lon="11.4773224"><ele>301.0</ele><time>2026-04-19T08:05:59.207Z</time></trkpt><trkpt lat="43.7757381" lon="11.4772"><ele>297.0</ele><time>2026-04-19T08:06:00.198Z</time></trkpt><trkpt lat="43.7755886" lon="11.477088"><ele>297.0</ele><time>2026-04-19T08:06:01.205Z</time></trkpt><trkpt lat="43.7754273" lon="11.4769861"><ele>297.0</ele><time>2026-04-19T08:06:02.203Z</time></trkpt><trkpt lat="43.7752702" lon="11.4768897"><ele>297.0</ele><time>2026-04-19T08:06:03.198Z</time></trkpt><trkpt lat="43.7751288" lon="11.4767969"><ele>295.0</ele><time>2026-04-19T08:06:04.2Z</time></trkpt><trkpt lat="43.7749906" lon="11.4767058"><ele>293.0</ele><time>2026-04-19T08:06:05.197Z</time></trkpt><trkpt lat="43.7748614" lon="11.4766286"><ele>291.0</ele><time>2026-04-19T08:06:06.195Z</time></trkpt><trkpt lat="43.7747501" lon="11.4765606"><ele>289.0</ele><time>2026-04-19T08:06:07.199Z</time></trkpt><trkpt lat="43.7746489" lon="11.4764963"><ele>289.0</ele><time>2026-04-19T08:06:08.201Z</time></trkpt><trkpt lat="43.774559" lon="11.47644"><ele>289.0</ele><time>2026-04-19T08:06:09.19Z</time></trkpt><trkpt lat="43.77447" lon="11.4763823"><ele>289.0</ele><time>2026-04-19T08:06:10.194Z</time></trkpt><trkpt lat="43.7743814" lon="11.476314"><ele>289.0</ele><time>2026-04-19T08:06:11.205Z</time></trkpt><trkpt lat="43.7742988" lon="11.4762335"><ele>289.0</ele><time>2026-04-19T08:06:12.199Z</time></trkpt><trkpt lat="43.7742225" lon="11.4761429"><ele>288.0</ele><time>2026-04-19T08:06:13.194Z</time></trkpt><trkpt lat="43.7741468" lon="11.4760453"><ele>287.0</ele><time>2026-04-19T08:06:14.197Z</time></trkpt><trkpt lat="43.774066" lon="11.4759425"><ele>286.0</ele><time>2026-04-19T08:06:15.196Z</time></trkpt><trkpt lat="43.7739801" lon="11.4758368"><ele>285.0</ele><time>2026-04-19T08:06:16.202Z</time></trkpt><trkpt lat="43.7738928" lon="11.475729"><ele>284.0</ele><time>2026-04-19T08:06:17.191Z</time></trkpt><trkpt lat="43.7738021" lon="11.4756224"><ele>284.0</ele><time>2026-04-19T08:06:18.194Z</time></trkpt><trkpt lat="43.7737056" lon="11.4755143"><ele>284.0</ele><time>2026-04-19T08:06:19.185Z</time></trkpt><trkpt lat="43.7736119" lon="11.4754075"><ele>284.0</ele><time>2026-04-19T08:06:20.195Z</time></trkpt><trkpt lat="43.773522" lon="11.4752964"><ele>284.0</ele><time>2026-04-19T08:06:21.2Z</time></trkpt><trkpt lat="43.7734504" lon="11.4751613"><ele>281.75</ele><time>2026-04-19T08:06:22.2Z</time></trkpt><trkpt lat="43.7733947" lon="11.4749937"><ele>279.5</ele><time>2026-04-19T08:06:23.195Z</time></trkpt><trkpt lat="43.7733574" lon="11.4748052"><ele>277.25</ele><time>2026-04-19T08:06:24.2Z</time></trkpt><trkpt lat="43.7733321" lon="11.4746249"><ele>275.0</ele><time>2026-04-19T08:06:25.199Z</time></trkpt><trkpt lat="43.7732951" lon="11.4744525"><ele>274.5</ele><time>2026-04-19T08:06:26.193Z</time></trkpt><trkpt lat="43.7732568" lon="11.474284"><ele>274.0</ele><time>2026-04-19T08:06:27.199Z</time></trkpt><trkpt lat="43.7732208" lon="11.4741219"><ele>273.5</ele><time>2026-04-19T08:06:28.197Z</time></trkpt><trkpt lat="43.7731882" lon="11.4739603"><ele>273.0</ele><time>2026-04-19T08:06:29.197Z</time></trkpt><trkpt lat="43.7731531" lon="11.4738148"><ele>272.75</ele><time>2026-04-19T08:06:30.202Z</time></trkpt><trkpt lat="43.7730982" lon="11.4736732"><ele>272.5</ele><time>2026-04-19T08:06:31.201Z</time></trkpt><trkpt lat="43.7730152" lon="11.4735356"><ele>272.25</ele><time>2026-04-19T08:06:32.198Z</time></trkpt><trkpt lat="43.772923" lon="11.4734099"><ele>272.0</ele><time>2026-04-19T08:06:33.204Z</time></trkpt><trkpt lat="43.7728183" lon="11.4732982"><ele>272.0</ele><time>2026-04-19T08:06:34.206Z</time></trkpt><trkpt lat="43.7727132" lon="11.4731843"><ele>272.0</ele><time>2026-04-19T08:06:35.197Z</time></trkpt><trkpt lat="43.7726078" lon="11.4730828"><ele>272.0</ele><time>2026-04-19T08:06:36.191Z</time></trkpt><trkpt lat="43.7725032" lon="11.472979"><ele>272.0</ele><time>2026-04-19T08:06:37.184Z</time></trkpt><trkpt lat="43.7724057" lon="11.4728732"><ele>270.25</ele><time>2026-04-19T08:06:38.187Z</time></trkpt><trkpt lat="43.772314" lon="11.4727704"><ele>268.5</ele><time>2026-04-19T08:06:39.2Z</time></trkpt><trkpt lat="43.7722151" lon="11.472687"><ele>266.75</ele><time>2026-04-19T08:06:40.198Z</time></trkpt><trkpt lat="43.7721048" lon="11.4726207"><ele>265.0</ele><time>2026-04-19T08:06:41.197Z</time></trkpt><trkpt lat="43.7719827" lon="11.4725923"><ele>262.5</ele><time>2026-04-19T08:06:42.198Z</time></trkpt><trkpt lat="43.771856" lon="11.4725814"><ele>260.0</ele><time>2026-04-19T08:06:43.198Z</time></trkpt><trkpt lat="43.7717356" lon="11.4725948"><ele>257.5</ele><time>2026-04-19T08:06:44.204Z</time></trkpt><trkpt lat="43.7716198" lon="11.4726173"><ele>255.0</ele><time>2026-04-19T08:06:45.177Z</time></trkpt><trkpt lat="43.7715029" lon="11.4726529"><ele>255.0</ele><time>2026-04-19T08:06:46.183Z</time></trkpt><trkpt lat="43.7713892" lon="11.472693"><ele>255.0</ele><time>2026-04-19T08:06:47.19Z</time></trkpt><trkpt lat="43.7712807" lon="11.4727299"><ele>255.0</ele><time>2026-04-19T08:06:48.196Z</time></trkpt><trkpt lat="43.7711751" lon="11.4727568"><ele>255.0</ele><time>2026-04-19T08:06:49.182Z</time></trkpt><trkpt lat="43.7710747" lon="11.4727539"><ele>255.0</ele><time>2026-04-19T08:06:50.196Z</time></trkpt><trkpt lat="43.7709968" lon="11.4727014"><ele>252.25</ele><time>2026-04-19T08:06:51.192Z</time></trkpt><trkpt lat="43.7709066" lon="11.4725863"><ele>249.5</ele><time>2026-04-19T08:06:52.197Z</time></trkpt><trkpt lat="43.7708281" lon="11.4724535"><ele>246.75</ele><time>2026-04-19T08:06:53.197Z</time></trkpt><trkpt lat="43.7707436" lon="11.4723357"><ele>244.0</ele><time>2026-04-19T08:06:54.192Z</time></trkpt><trkpt lat="43.7706504" lon="11.4722459"><ele>244.0</ele><time>2026-04-19T08:06:55.178Z</time></trkpt><trkpt lat="43.7705414" lon="11.4721624"><ele>244.0</ele><time>2026-04-19T08:06:56.194Z</time></trkpt><trkpt lat="43.770419" lon="11.4720895"><ele>244.0</ele><time>2026-04-19T08:06:57.197Z</time></trkpt><trkpt lat="43.7702866" lon="11.4720179"><ele>244.0</ele><time>2026-04-19T08:06:58.195Z</time></trkpt><trkpt lat="43.7701519" lon="11.4719484"><ele>242.25</ele><time>2026-04-19T08:06:59.194Z</time></trkpt><trkpt lat="43.7700314" lon="11.4718749"><ele>240.5</ele><time>2026-04-19T08:07:00.198Z</time></trkpt><trkpt lat="43.7699274" lon="11.4717865"><ele>238.75</ele><time>2026-04-19T08:07:01.197Z</time></trkpt><trkpt lat="43.7698328" lon="11.4716838"><ele>237.0</ele><time>2026-04-19T08:07:02.201Z</time></trkpt><trkpt lat="43.7697454" lon="11.4715616"><ele>237.0</ele><time>2026-04-19T08:07:03.201Z</time></trkpt><trkpt lat="43.769666" lon="11.4714523"><ele>237.0</ele><time>2026-04-19T08:07:04.216Z</time></trkpt><trkpt lat="43.7695986" lon="11.4713571"><ele>237.0</ele><time>2026-04-19T08:07:05.202Z</time></trkpt><trkpt lat="43.7695411" lon="11.4712692"><ele>237.0</ele><time>2026-04-19T08:07:06.197Z</time></trkpt><trkpt lat="43.7694989" lon="11.4711828"><ele>237.0</ele><time>2026-04-19T08:07:07.2Z</time></trkpt><trkpt lat="43.7694726" lon="11.471089"><ele>237.0</ele><time>2026-04-19T08:07:08.205Z</time></trkpt><trkpt lat="43.7694618" lon="11.4709911"><ele>236.16666666666666</ele><time>2026-04-19T08:07:09.207Z</time></trkpt><trkpt lat="43.7694737" lon="11.4708875"><ele>235.33333333333331</ele><time>2026-04-19T08:07:10.182Z</time></trkpt><trkpt lat="43.769523" lon="11.4707988"><ele>234.5</ele><time>2026-04-19T08:07:11.205Z</time></trkpt><trkpt lat="43.7695929" lon="11.4707532"><ele>233.66666666666666</ele><time>2026-04-19T08:07:12.198Z</time></trkpt><trkpt lat="43.7696814" lon="11.4707258"><ele>232.83333333333331</ele><time>2026-04-19T08:07:13.197Z</time></trkpt><trkpt lat="43.7697783" lon="11.4707282"><ele>232.0</ele><time>2026-04-19T08:07:14.181Z</time></trkpt><trkpt lat="43.769878" lon="11.4707254"><ele>232.0</ele><time>2026-04-19T08:07:15.192Z</time></trkpt><trkpt lat="43.7699771" lon="11.4707241"><ele>232.0</ele><time>2026-04-19T08:07:16.195Z</time></trkpt><trkpt lat="43.7700811" lon="11.4707122"><ele>232.0</ele><time>2026-04-19T08:07:17.2Z</time></trkpt><trkpt lat="43.7701776" lon="11.4706882"><ele>232.0</ele><time>2026-04-19T08:07:18.199Z</time></trkpt><trkpt lat="43.770265" lon="11.4706392"><ele>232.0</ele><time>2026-04-19T08:07:19.189Z</time></trkpt><trkpt lat="43.7703431" lon="11.4705616"><ele>231.0</ele><time>2026-04-19T08:07:20.195Z</time></trkpt><trkpt lat="43.7704064" lon="11.4704598"><ele>230.0</ele><time>2026-04-19T08:07:21.197Z</time></trkpt><trkpt lat="43.7704438" lon="11.4703468"><ele>229.0</ele><time>2026-04-19T08:07:22.191Z</time></trkpt><trkpt lat="43.7704613" lon="11.4702099"><ele>228.0</ele><time>2026-04-19T08:07:23.201Z</time></trkpt><trkpt lat="43.770467" lon="11.4700643"><ele>227.0</ele><time>2026-04-19T08:07:24.177Z</time></trkpt><trkpt lat="43.7704652" lon="11.4698986"><ele>227.0</ele><time>2026-04-19T08:07:25.198Z</time></trkpt><trkpt lat="43.7704569" lon="11.4697238"><ele>227.0</ele><time>2026-04-19T08:07:26.198Z</time></trkpt><trkpt lat="43.7704426" lon="11.469551"><ele>227.0</ele><time>2026-04-19T08:07:27.195Z</time></trkpt><trkpt lat="43.7704252" lon="11.4693767"><ele>227.0</ele><time>2026-04-19T08:07:28.196Z</time></trkpt><trkpt lat="43.7704105" lon="11.4691936"><ele>225.25</ele><time>2026-04-19T08:07:29.19Z</time></trkpt><trkpt lat="43.7704044" lon="11.4690113"><ele>223.5</ele><time>2026-04-19T08:07:30.195Z</time></trkpt><trkpt lat="43.7703916" lon="11.4688303"><ele>221.75</ele><time>2026-04-19T08:07:31.198Z</time></trkpt><trkpt lat="43.7703761" lon="11.4686533"><ele>220.0</ele><time>2026-04-19T08:07:32.195Z</time></trkpt><trkpt lat="43.7703567" lon="11.4684881"><ele>218.0</ele><time>2026-04-19T08:07:33.192Z</time></trkpt><trkpt lat="43.7703465" lon="11.4683015"><ele>216.0</ele><time>2026-04-19T08:07:34.197Z</time></trkpt><trkpt lat="43.77034" lon="11.4681134"><ele>214.0</ele><time>2026-04-19T08:07:35.185Z</time></trkpt><trkpt lat="43.7703288" lon="11.4679202"><ele>212.0</ele><time>2026-04-19T08:07:36.193Z</time></trkpt><trkpt lat="43.7703165" lon="11.4677176"><ele>210.75</ele><time>2026-04-19T08:07:37.199Z</time></trkpt><trkpt lat="43.770313" lon="11.4675153"><ele>209.5</ele><time>2026-04-19T08:07:38.19Z</time></trkpt><trkpt lat="43.7703099" lon="11.4673149"><ele>208.25</ele><time>2026-04-19T08:07:39.196Z</time></trkpt><trkpt lat="43.7703142" lon="11.4671221"><ele>207.0</ele><time>2026-04-19T08:07:40.195Z</time></trkpt><trkpt lat="43.7703186" lon="11.4669413"><ele>206.5</ele><time>2026-04-19T08:07:41.193Z</time></trkpt><trkpt lat="43.7703259" lon="11.4667648"><ele>206.0</ele><time>2026-04-19T08:07:42.201Z</time></trkpt><trkpt lat="43.7703338" lon="11.4665925"><ele>205.5</ele><time>2026-04-19T08:07:43.198Z</time></trkpt><trkpt lat="43.7703425" lon="11.4664291"><ele>205.0</ele><time>2026-04-19T08:07:44.21Z</time></trkpt><trkpt lat="43.7703522" lon="11.4662966"><ele>203.99999999999997</ele><time>2026-04-19T08:07:45.194Z</time></trkpt><trkpt lat="43.7703663" lon="11.4661751"><ele>203.0</ele><time>2026-04-19T08:07:46.206Z</time></trkpt><trkpt lat="43.7703951" lon="11.4660698"><ele>202.0</ele><time>2026-04-19T08:07:47.209Z</time></trkpt><trkpt lat="43.7704317" lon="11.4659765"><ele>201.0</ele><time>2026-04-19T08:07:48.186Z</time></trkpt><trkpt lat="43.7704543" lon="11.4658659"><ele>199.99999999999997</ele><time>2026-04-19T08:07:49.191Z</time></trkpt><trkpt lat="43.7704616" lon="11.4657432"><ele>199.0</ele><time>2026-04-19T08:07:50.204Z</time></trkpt><trkpt lat="43.770458" lon="11.4656199"><ele>199.0</ele><time>2026-04-19T08:07:51.198Z</time></trkpt><trkpt lat="43.7704725" lon="11.4654854"><ele>199.0</ele><time>2026-04-19T08:07:52.211Z</time></trkpt><trkpt lat="43.7705" lon="11.4653336"><ele>199.0</ele><time>2026-04-19T08:07:53.195Z</time></trkpt><trkpt lat="43.7705427" lon="11.4651843"><ele>199.0</ele><time>2026-04-19T08:07:54.182Z</time></trkpt><trkpt lat="43.7705901" lon="11.4650257"><ele>198.5</ele><time>2026-04-19T08:07:55.197Z</time></trkpt><trkpt lat="43.7706421" lon="11.464864"><ele>198.0</ele><time>2026-04-19T08:07:56.194Z</time></trkpt><trkpt lat="43.7706871" lon="11.464705"><ele>197.5</ele><time>2026-04-19T08:07:57.194Z</time></trkpt><trkpt lat="43.7707231" lon="11.4645525"><ele>197.0</ele><time>2026-04-19T08:07:58.196Z</time></trkpt><trkpt lat="43.7707455" lon="11.464403"><ele>196.0</ele><time>2026-04-19T08:07:59.186Z</time></trkpt><trkpt lat="43.770758" lon="11.4642592"><ele>195.0</ele><time>2026-04-19T08:08:00.207Z</time></trkpt><trkpt lat="43.7707672" lon="11.4641119"><ele>194.0</ele><time>2026-04-19T08:08:01.191Z</time></trkpt><trkpt lat="43.7707623" lon="11.4639518"><ele>193.0</ele><time>2026-04-19T08:08:02.197Z</time></trkpt><trkpt lat="43.7707524" lon="11.4637887"><ele>192.0</ele><time>2026-04-19T08:08:03.181Z</time></trkpt><trkpt lat="43.7707452" lon="11.4636268"><ele>191.2</ele><time>2026-04-19T08:08:04.188Z</time></trkpt><trkpt lat="43.7707377" lon="11.4634715"><ele>190.39999999999998</ele><time>2026-04-19T08:08:05.175Z</time></trkpt><trkpt lat="43.770732" lon="11.4633199"><ele>189.60000000000002</ele><time>2026-04-19T08:08:06.186Z</time></trkpt><trkpt lat="43.7707244" lon="11.4631691"><ele>188.8</ele><time>2026-04-19T08:08:07.199Z</time></trkpt><trkpt lat="43.770722" lon="11.4630206"><ele>188.0</ele><time>2026-04-19T08:08:08.197Z</time></trkpt><trkpt lat="43.7707146" lon="11.4628793"><ele>186.8</ele><time>2026-04-19T08:08:09.201Z</time></trkpt><trkpt lat="43.7707046" lon="11.462746"><ele>185.60000000000002</ele><time>2026-04-19T08:08:10.204Z</time></trkpt><trkpt lat="43.7706975" lon="11.4626042"><ele>184.39999999999998</ele><time>2026-04-19T08:08:11.185Z</time></trkpt><trkpt lat="43.7706879" lon="11.4624539"><ele>183.2</ele><time>2026-04-19T08:08:12.204Z</time></trkpt><trkpt lat="43.7706825" lon="11.4623082"><ele>182.0</ele><time>2026-04-19T08:08:13.205Z</time></trkpt><trkpt lat="43.770694" lon="11.4621772"><ele>181.66666666666666</ele><time>2026-04-19T08:08:14.201Z</time></trkpt><trkpt lat="43.7707192" lon="11.4620804"><ele>181.33333333333331</ele><time>2026-04-19T08:08:15.205Z</time></trkpt><trkpt lat="43.7707598" lon="11.4620119"><ele>181.0</ele><time>2026-04-19T08:08:16.202Z</time></trkpt><trkpt lat="43.7708369" lon="11.4619432"><ele>180.66666666666666</ele><time>2026-04-19T08:08:17.195Z</time></trkpt><trkpt lat="43.7709317" lon="11.4618849"><ele>180.33333333333334</ele><time>2026-04-19T08:08:18.195Z</time></trkpt><trkpt lat="43.7710316" lon="11.4618207"><ele>180.0</ele><time>2026-04-19T08:08:19.191Z</time></trkpt><trkpt lat="43.7711314" lon="11.4617614"><ele>180.0</ele><time>2026-04-19T08:08:20.2Z</time></trkpt><trkpt lat="43.7712351" lon="11.4616853"><ele>180.0</ele><time>2026-04-19T08:08:21.19Z</time></trkpt><trkpt lat="43.7713485" lon="11.4616161"><ele>180.0</ele><time>2026-04-19T08:08:22.193Z</time></trkpt><trkpt lat="43.7714664" lon="11.4615514"><ele>180.0</ele><time>2026-04-19T08:08:23.194Z</time></trkpt><trkpt lat="43.7715877" lon="11.461486"><ele>180.0</ele><time>2026-04-19T08:08:24.193Z</time></trkpt><trkpt lat="43.7717093" lon="11.4614291"><ele>180.0</ele><time>2026-04-19T08:08:25.197Z</time></trkpt><trkpt lat="43.771827" lon="11.4613759"><ele>180.0</ele><time>2026-04-19T08:08:26.179Z</time></trkpt><trkpt lat="43.7719454" lon="11.4613353"><ele>180.0</ele><time>2026-04-19T08:08:27.201Z</time></trkpt><trkpt lat="43.7720634" lon="11.4613041"><ele>175.25</ele><time>2026-04-19T08:08:28.197Z</time></trkpt><trkpt lat="43.7721755" lon="11.4612686"><ele>170.5</ele><time>2026-04-19T08:08:29.193Z</time></trkpt><trkpt lat="43.7722851" lon="11.4612248"><ele>165.75</ele><time>2026-04-19T08:08:30.183Z</time></trkpt><trkpt lat="43.772385" lon="11.4611604"><ele>161.0</ele><time>2026-04-19T08:08:31.189Z</time></trkpt><trkpt lat="43.7724769" lon="11.4610648"><ele>161.0</ele><time>2026-04-19T08:08:32.187Z</time></trkpt><trkpt lat="43.772557" lon="11.4609489"><ele>161.0</ele><time>2026-04-19T08:08:33.182Z</time></trkpt><trkpt lat="43.7726081" lon="11.4607789"><ele>161.0</ele><time>2026-04-19T08:08:34.195Z</time></trkpt><trkpt lat="43.7726489" lon="11.4605876"><ele>161.0</ele><time>2026-04-19T08:08:35.191Z</time></trkpt><trkpt lat="43.7726848" lon="11.4604055"><ele>163.5</ele><time>2026-04-19T08:08:36.191Z</time></trkpt><trkpt lat="43.7727335" lon="11.4602458"><ele>166.0</ele><time>2026-04-19T08:08:37.193Z</time></trkpt><trkpt lat="43.7727932" lon="11.4600962"><ele>168.5</ele><time>2026-04-19T08:08:38.192Z</time></trkpt><trkpt lat="43.7728473" lon="11.4599719"><ele>171.0</ele><time>2026-04-19T08:08:39.198Z</time></trkpt><trkpt lat="43.7728975" lon="11.4598509"><ele>171.0</ele><time>2026-04-19T08:08:40.192Z</time></trkpt><trkpt lat="43.772924" lon="11.4597159"><ele>171.0</ele><time>2026-04-19T08:08:41.203Z</time></trkpt><trkpt lat="43.7729286" lon="11.4595841"><ele>171.0</ele><time>2026-04-19T08:08:42.197Z</time></trkpt><trkpt lat="43.7729169" lon="11.4594449"><ele>171.0</ele><time>2026-04-19T08:08:43.212Z</time></trkpt><trkpt lat="43.7729" lon="11.4592907"><ele>171.0</ele><time>2026-04-19T08:08:44.2Z</time></trkpt><trkpt lat="43.772894" lon="11.4591384"><ele>170.0</ele><time>2026-04-19T08:08:45.196Z</time></trkpt><trkpt lat="43.7729017" lon="11.4589742"><ele>169.0</ele><time>2026-04-19T08:08:46.184Z</time></trkpt><trkpt lat="43.7729376" lon="11.458828"><ele>168.0</ele><time>2026-04-19T08:08:47.201Z</time></trkpt><trkpt lat="43.7729831" lon="11.4586796"><ele>167.0</ele><time>2026-04-19T08:08:48.194Z</time></trkpt><trkpt lat="43.7730252" lon="11.4585392"><ele>166.2</ele><time>2026-04-19T08:08:49.202Z</time></trkpt><trkpt lat="43.7730475" lon="11.4584023"><ele>165.39999999999998</ele><time>2026-04-19T08:08:50.194Z</time></trkpt><trkpt lat="43.7730424" lon="11.4582626"><ele>164.60000000000002</ele><time>2026-04-19T08:08:51.188Z</time></trkpt><trkpt lat="43.7730153" lon="11.4581111"><ele>163.8</ele><time>2026-04-19T08:08:52.192Z</time></trkpt><trkpt lat="43.7729578" lon="11.4579676"><ele>163.0</ele><time>2026-04-19T08:08:53.196Z</time></trkpt><trkpt lat="43.7728893" lon="11.4578421"><ele>163.0</ele><time>2026-04-19T08:08:54.189Z</time></trkpt><trkpt lat="43.772829" lon="11.4577135"><ele>163.0</ele><time>2026-04-19T08:08:55.201Z</time></trkpt><trkpt lat="43.7727693" lon="11.4575769"><ele>163.0</ele><time>2026-04-19T08:08:56.196Z</time></trkpt><trkpt lat="43.7727142" lon="11.4574299"><ele>163.0</ele><time>2026-04-19T08:08:57.194Z</time></trkpt><trkpt lat="43.7726658" lon="11.4572673"><ele>154.5</ele><time>2026-04-19T08:08:58.187Z</time></trkpt><trkpt lat="43.7726261" lon="11.4570976"><ele>146.0</ele><time>2026-04-19T08:08:59.192Z</time></trkpt><trkpt lat="43.772607" lon="11.4569349"><ele>137.5</ele><time>2026-04-19T08:09:00.189Z</time></trkpt><trkpt lat="43.7725904" lon="11.4567657"><ele>129.0</ele><time>2026-04-19T08:09:01.19Z</time></trkpt><trkpt lat="43.7725741" lon="11.4565899"><ele>129.0</ele><time>2026-04-19T08:09:02.199Z</time></trkpt><trkpt lat="43.7725598" lon="11.45642"><ele>129.0</ele><time>2026-04-19T08:09:03.197Z</time></trkpt><trkpt lat="43.7725427" lon="11.4562546"><ele>129.0</ele><time>2026-04-19T08:09:04.201Z</time></trkpt><trkpt lat="43.7725282" lon="11.4560838"><ele>129.0</ele><time>2026-04-19T08:09:05.2Z</time></trkpt><trkpt lat="43.7725183" lon="11.4559113"><ele>128.6</ele><time>2026-04-19T08:09:06.191Z</time></trkpt><trkpt lat="43.7725197" lon="11.4557467"><ele>128.2</ele><time>2026-04-19T08:09:07.204Z</time></trkpt><trkpt lat="43.7725378" lon="11.455611"><ele>127.79999999999998</ele><time>2026-04-19T08:09:08.19Z</time></trkpt><trkpt lat="43.772567" lon="11.4554963"><ele>127.39999999999999</ele><time>2026-04-19T08:09:09.195Z</time></trkpt><trkpt lat="43.772613" lon="11.4553945"><ele>127.0</ele><time>2026-04-19T08:09:10.198Z</time></trkpt><trkpt lat="43.7726664" lon="11.4552797"><ele>129.75</ele><time>2026-04-19T08:09:11.175Z</time></trkpt><trkpt lat="43.7727305" lon="11.4551467"><ele>132.5</ele><time>2026-04-19T08:09:12.187Z</time></trkpt><trkpt lat="43.7727954" lon="11.455005"><ele>135.25</ele><time>2026-04-19T08:09:13.194Z</time></trkpt><trkpt lat="43.7728564" lon="11.4548691"><ele>138.0</ele><time>2026-04-19T08:09:14.192Z</time></trkpt><trkpt lat="43.7729151" lon="11.4547311"><ele>135.25</ele><time>2026-04-19T08:09:15.189Z</time></trkpt><trkpt lat="43.7729745" lon="11.454584"><ele>132.5</ele><time>2026-04-19T08:09:16.192Z</time></trkpt><trkpt lat="43.7730278" lon="11.4544262"><ele>129.75</ele><time>2026-04-19T08:09:17.189Z</time></trkpt><trkpt lat="43.7730702" lon="11.4542657"><ele>127.0</ele><time>2026-04-19T08:09:18.199Z</time></trkpt><trkpt lat="43.7731027" lon="11.4540995"><ele>127.0</ele><time>2026-04-19T08:09:19.173Z</time></trkpt><trkpt lat="43.7731404" lon="11.4539301"><ele>127.0</ele><time>2026-04-19T08:09:20.19Z</time></trkpt><trkpt lat="43.7731791" lon="11.4537616"><ele>127.0</ele><time>2026-04-19T08:09:21.182Z</time></trkpt><trkpt lat="43.7732254" lon="11.4535901"><ele>127.0</ele><time>2026-04-19T08:09:22.191Z</time></trkpt><trkpt lat="43.7732741" lon="11.4534166"><ele>128.0</ele><time>2026-04-19T08:09:23.195Z</time></trkpt><trkpt lat="43.7733288" lon="11.453249"><ele>129.0</ele><time>2026-04-19T08:09:24.186Z</time></trkpt><trkpt lat="43.7733948" lon="11.4530761"><ele>130.0</ele><time>2026-04-19T08:09:25.197Z</time></trkpt><trkpt lat="43.7734647" lon="11.4529048"><ele>131.0</ele><time>2026-04-19T08:09:26.201Z</time></trkpt><trkpt lat="43.7735388" lon="11.4527354"><ele>131.0</ele><time>2026-04-19T08:09:27.191Z</time></trkpt><trkpt lat="43.7736077" lon="11.4525713"><ele>131.0</ele><time>2026-04-19T08:09:28.201Z</time></trkpt><trkpt lat="43.7736743" lon="11.4524075"><ele>131.0</ele><time>2026-04-19T08:09:29.199Z</time></trkpt><trkpt lat="43.7737405" lon="11.4522452"><ele>131.0</ele><time>2026-04-19T08:09:30.196Z</time></trkpt><trkpt lat="43.7737999" lon="11.4521037"><ele>127.4</ele><time>2026-04-19T08:09:31.212Z</time></trkpt><trkpt lat="43.773852" lon="11.4519859"><ele>123.8</ele><time>2026-04-19T08:09:32.201Z</time></trkpt><trkpt lat="43.7738943" lon="11.451888"><ele>120.20000000000002</ele><time>2026-04-19T08:09:33.199Z</time></trkpt><trkpt lat="43.7739221" lon="11.4518046"><ele>116.60000000000001</ele><time>2026-04-19T08:09:34.194Z</time></trkpt><trkpt lat="43.7739395" lon="11.4516678"><ele>113.0</ele><time>2026-04-19T08:09:36.198Z</time></trkpt><trkpt lat="43.7738888" lon="11.4515419"><ele>112.99999999999999</ele><time>2026-04-19T08:09:38.198Z</time></trkpt><trkpt lat="43.7738346" lon="11.4514825"><ele>113.0</ele><time>2026-04-19T08:09:39.205Z</time></trkpt><trkpt lat="43.7737781" lon="11.4514157"><ele>113.0</ele><time>2026-04-19T08:09:40.188Z</time></trkpt><trkpt lat="43.7737351" lon="11.4513267"><ele>113.0</ele><time>2026-04-19T08:09:41.201Z</time></trkpt><trkpt lat="43.773706" lon="11.4512132"><ele>112.99999999999999</ele><time>2026-04-19T08:09:42.181Z</time></trkpt><trkpt lat="43.7736998" lon="11.4510788"><ele>113.0</ele><time>2026-04-19T08:09:43.192Z</time></trkpt><trkpt lat="43.7737047" lon="11.4509325"><ele>110.5</ele><time>2026-04-19T08:09:44.18Z</time></trkpt><trkpt lat="43.7737108" lon="11.4507734"><ele>108.0</ele><time>2026-04-19T08:09:45.198Z</time></trkpt><trkpt lat="43.7737048" lon="11.450609"><ele>105.5</ele><time>2026-04-19T08:09:46.202Z</time></trkpt><trkpt lat="43.773683" lon="11.4504384"><ele>103.0</ele><time>2026-04-19T08:09:47.195Z</time></trkpt><trkpt lat="43.77364" lon="11.4502573"><ele>102.0</ele><time>2026-04-19T08:09:48.199Z</time></trkpt><trkpt lat="43.773577" lon="11.4500905"><ele>101.0</ele><time>2026-04-19T08:09:49.201Z</time></trkpt><trkpt lat="43.77349" lon="11.4499376"><ele>100.0</ele><time>2026-04-19T08:09:50.195Z</time></trkpt><trkpt lat="43.773384" lon="11.4498021"><ele>99.0</ele><time>2026-04-19T08:09:51.205Z</time></trkpt><trkpt lat="43.773255" lon="11.4496723"><ele>96.66666666666667</ele><time>2026-04-19T08:09:52.199Z</time></trkpt><trkpt lat="43.7731098" lon="11.4495672"><ele>94.33333333333334</ele><time>2026-04-19T08:09:53.205Z</time></trkpt><trkpt lat="43.7729501" lon="11.4494866"><ele>92.0</ele><time>2026-04-19T08:09:54.196Z</time></trkpt><trkpt lat="43.772793" lon="11.4494108"><ele>90.66666666666667</ele><time>2026-04-19T08:09:55.185Z</time></trkpt><trkpt lat="43.7726484" lon="11.4493088"><ele>89.33333333333333</ele><time>2026-04-19T08:09:56.196Z</time></trkpt><trkpt lat="43.7725113" lon="11.4491606"><ele>88.0</ele><time>2026-04-19T08:09:57.197Z</time></trkpt><trkpt lat="43.772384" lon="11.448986"><ele>88.0</ele><time>2026-04-19T08:09:58.192Z</time></trkpt><trkpt lat="43.7722693" lon="11.4487952"><ele>88.0</ele><time>2026-04-19T08:09:59.199Z</time></trkpt><trkpt lat="43.7721529" lon="11.4485831"><ele>88.0</ele><time>2026-04-19T08:10:00.204Z</time></trkpt><trkpt lat="43.7720432" lon="11.448345"><ele>87.0</ele><time>2026-04-19T08:10:01.195Z</time></trkpt><trkpt lat="43.7719306" lon="11.4480916"><ele>86.0</ele><time>2026-04-19T08:10:02.199Z</time></trkpt><trkpt lat="43.7718267" lon="11.4478366"><ele>85.0</ele><time>2026-04-19T08:10:03.198Z</time></trkpt><trkpt lat="43.771733" lon="11.4475754"><ele>84.66666666666666</ele><time>2026-04-19T08:10:04.2Z</time></trkpt><trkpt lat="43.771655" lon="11.4472967"><ele>84.33333333333333</ele><time>2026-04-19T08:10:05.193Z</time></trkpt><trkpt lat="43.771593" lon="11.4470119"><ele>84.0</ele><time>2026-04-19T08:10:06.193Z</time></trkpt><trkpt lat="43.7715475" lon="11.4467134"><ele>84.0</ele><time>2026-04-19T08:10:07.198Z</time></trkpt><trkpt lat="43.7715112" lon="11.4464162"><ele>84.0</ele><time>2026-04-19T08:10:08.199Z</time></trkpt><trkpt lat="43.7714846" lon="11.4461189"><ele>84.0</ele><time>2026-04-19T08:10:09.188Z</time></trkpt><trkpt lat="43.7714563" lon="11.44582"><ele>83.66666666666667</ele><time>2026-04-19T08:10:10.194Z</time></trkpt><trkpt lat="43.7714282" lon="11.4455153"><ele>83.33333333333334</ele><time>2026-04-19T08:10:11.195Z</time></trkpt><trkpt lat="43.7714041" lon="11.4452092"><ele>83.0</ele><time>2026-04-19T08:10:12.201Z</time></trkpt><trkpt lat="43.7713836" lon="11.4449053"><ele>83.0</ele><time>2026-04-19T08:10:13.192Z</time></trkpt><trkpt lat="43.771359" lon="11.4446105"><ele>83.0</ele><time>2026-04-19T08:10:14.191Z</time></trkpt><trkpt lat="43.7713368" lon="11.444325"><ele>83.0</ele><time>2026-04-19T08:10:15.194Z</time></trkpt><trkpt lat="43.7713179" lon="11.4440407"><ele>82.33333333333334</ele><time>2026-04-19T08:10:16.194Z</time></trkpt><trkpt lat="43.7712953" lon="11.4437622"><ele>81.66666666666667</ele><time>2026-04-19T08:10:17.198Z</time></trkpt><trkpt lat="43.7712725" lon="11.443487"><ele>81.0</ele><time>2026-04-19T08:10:18.191Z</time></trkpt><trkpt lat="43.7712513" lon="11.4432176"><ele>80.66666666666667</ele><time>2026-04-19T08:10:19.18Z</time></trkpt><trkpt lat="43.7712295" lon="11.4429456"><ele>80.33333333333334</ele><time>2026-04-19T08:10:20.195Z</time></trkpt><trkpt lat="43.7712006" lon="11.4426745"><ele>80.0</ele><time>2026-04-19T08:10:21.202Z</time></trkpt><trkpt lat="43.7711705" lon="11.4424094"><ele>80.0</ele><time>2026-04-19T08:10:22.205Z</time></trkpt><trkpt lat="43.7711325" lon="11.4421488"><ele>80.0</ele><time>2026-04-19T08:10:23.195Z</time></trkpt><trkpt lat="43.7710859" lon="11.4418874"><ele>80.0</ele><time>2026-04-19T08:10:24.203Z</time></trkpt><trkpt lat="43.7710301" lon="11.4416309"><ele>80.0</ele><time>2026-04-19T08:10:25.198Z</time></trkpt><trkpt lat="43.7709667" lon="11.4413857"><ele>80.0</ele><time>2026-04-19T08:10:26.21Z</time></trkpt><trkpt lat="43.7709012" lon="11.4411575"><ele>80.0</ele><time>2026-04-19T08:10:27.187Z</time></trkpt><trkpt lat="43.7708294" lon="11.4409273"><ele>80.0</ele><time>2026-04-19T08:10:28.205Z</time></trkpt><trkpt lat="43.7707543" lon="11.4407006"><ele>80.0</ele><time>2026-04-19T08:10:29.2Z</time></trkpt><trkpt lat="43.7706749" lon="11.4404671"><ele>80.0</ele><time>2026-04-19T08:10:30.195Z</time></trkpt><trkpt lat="43.7705931" lon="11.4402327"><ele>80.66666666666667</ele><time>2026-04-19T08:10:31.189Z</time></trkpt><trkpt lat="43.7705093" lon="11.4399984"><ele>81.33333333333333</ele><time>2026-04-19T08:10:32.202Z</time></trkpt><trkpt lat="43.7704243" lon="11.4397693"><ele>82.0</ele><time>2026-04-19T08:10:33.202Z</time></trkpt><trkpt lat="43.7703394" lon="11.4395404"><ele>82.66666666666666</ele><time>2026-04-19T08:10:34.199Z</time></trkpt><trkpt lat="43.7702567" lon="11.4393157"><ele>83.33333333333333</ele><time>2026-04-19T08:10:35.198Z</time></trkpt><trkpt lat="43.7701783" lon="11.4391025"><ele>84.0</ele><time>2026-04-19T08:10:36.193Z</time></trkpt><trkpt lat="43.7701054" lon="11.4388961"><ele>83.66666666666667</ele><time>2026-04-19T08:10:37.203Z</time></trkpt><trkpt lat="43.7700354" lon="11.4386932"><ele>83.33333333333334</ele><time>2026-04-19T08:10:38.197Z</time></trkpt><trkpt lat="43.7699656" lon="11.4384844"><ele>83.0</ele><time>2026-04-19T08:10:39.188Z</time></trkpt><trkpt lat="43.7698961" lon="11.4382639"><ele>83.0</ele><time>2026-04-19T08:10:40.193Z</time></trkpt><trkpt lat="43.769827" lon="11.4380415"><ele>83.0</ele><time>2026-04-19T08:10:41.192Z</time></trkpt><trkpt lat="43.7697593" lon="11.4378143"><ele>83.0</ele><time>2026-04-19T08:10:42.191Z</time></trkpt><trkpt lat="43.7696939" lon="11.4375774"><ele>83.0</ele><time>2026-04-19T08:10:43.197Z</time></trkpt><trkpt lat="43.7696312" lon="11.4373393"><ele>83.0</ele><time>2026-04-19T08:10:44.198Z</time></trkpt><trkpt lat="43.7695766" lon="11.4371095"><ele>83.0</ele><time>2026-04-19T08:10:45.196Z</time></trkpt><trkpt lat="43.7695311" lon="11.4368907"><ele>83.0</ele><time>2026-04-19T08:10:46.195Z</time></trkpt><trkpt lat="43.7694926" lon="11.4366777"><ele>83.0</ele><time>2026-04-19T08:10:47.196Z</time></trkpt><trkpt lat="43.769457" lon="11.4364706"><ele>83.0</ele><time>2026-04-19T08:10:48.194Z</time></trkpt><trkpt lat="43.7694235" lon="11.4362605"><ele>83.33333333333334</ele><time>2026-04-19T08:10:49.192Z</time></trkpt><trkpt lat="43.7693992" lon="11.4360361"><ele>83.66666666666667</ele><time>2026-04-19T08:10:50.198Z</time></trkpt><trkpt lat="43.7693783" lon="11.4358029"><ele>84.0</ele><time>2026-04-19T08:10:51.195Z</time></trkpt><trkpt lat="43.7693642" lon="11.4355583"><ele>84.0</ele><time>2026-04-19T08:10:52.21Z</time></trkpt><trkpt lat="43.7693586" lon="11.4353115"><ele>84.0</ele><time>2026-04-19T08:10:53.198Z</time></trkpt><trkpt lat="43.7693564" lon="11.4350549"><ele>84.0</ele><time>2026-04-19T08:10:54.199Z</time></trkpt><trkpt lat="43.769362" lon="11.4347925"><ele>83.33333333333333</ele><time>2026-04-19T08:10:55.21Z</time></trkpt><trkpt lat="43.7693799" lon="11.4345292"><ele>82.66666666666666</ele><time>2026-04-19T08:10:56.187Z</time></trkpt><trkpt lat="43.7694059" lon="11.4342587"><ele>82.0</ele><time>2026-04-19T08:10:57.198Z</time></trkpt><trkpt lat="43.769439" lon="11.4339952"><ele>82.0</ele><time>2026-04-19T08:10:58.197Z</time></trkpt><trkpt lat="43.769476" lon="11.4337343"><ele>82.0</ele><time>2026-04-19T08:10:59.193Z</time></trkpt><trkpt lat="43.7695175" lon="11.4334684"><ele>82.0</ele><time>2026-04-19T08:11:00.193Z</time></trkpt><trkpt lat="43.7695626" lon="11.4332032"><ele>82.0</ele><time>2026-04-19T08:11:01.203Z</time></trkpt><trkpt lat="43.7696189" lon="11.4329427"><ele>82.0</ele><time>2026-04-19T08:11:02.182Z</time></trkpt><trkpt lat="43.7696809" lon="11.4326871"><ele>82.0</ele><time>2026-04-19T08:11:03.18Z</time></trkpt><trkpt lat="43.7697479" lon="11.4324385"><ele>82.0</ele><time>2026-04-19T08:11:04.192Z</time></trkpt><trkpt lat="43.7698274" lon="11.43219"><ele>82.0</ele><time>2026-04-19T08:11:05.201Z</time></trkpt><trkpt lat="43.7699161" lon="11.4319447"><ele>82.0</ele><time>2026-04-19T08:11:06.196Z</time></trkpt><trkpt lat="43.7700047" lon="11.4317014"><ele>82.0</ele><time>2026-04-19T08:11:07.19Z</time></trkpt><trkpt lat="43.7700848" lon="11.4314695"><ele>82.0</ele><time>2026-04-19T08:11:08.196Z</time></trkpt><trkpt lat="43.7701614" lon="11.4312421"><ele>82.0</ele><time>2026-04-19T08:11:09.195Z</time></trkpt><trkpt lat="43.7702392" lon="11.4310142"><ele>82.0</ele><time>2026-04-19T08:11:10.193Z</time></trkpt><trkpt lat="43.7703217" lon="11.4307851"><ele>82.0</ele><time>2026-04-19T08:11:11.211Z</time></trkpt><trkpt lat="43.7704051" lon="11.4305541"><ele>82.0</ele><time>2026-04-19T08:11:12.201Z</time></trkpt><trkpt lat="43.7704869" lon="11.4303267"><ele>81.66666666666666</ele><time>2026-04-19T08:11:13.208Z</time></trkpt><trkpt lat="43.7705738" lon="11.4300978"><ele>81.33333333333333</ele><time>2026-04-19T08:11:14.178Z</time></trkpt><trkpt lat="43.7706541" lon="11.4298687"><ele>81.0</ele><time>2026-04-19T08:11:15.201Z</time></trkpt><trkpt lat="43.7707265" lon="11.4296494"><ele>81.0</ele><time>2026-04-19T08:11:16.204Z</time></trkpt><trkpt lat="43.7707967" lon="11.4294306"><ele>81.0</ele><time>2026-04-19T08:11:17.204Z</time></trkpt><trkpt lat="43.7708551" lon="11.4292147"><ele>81.0</ele><time>2026-04-19T08:11:18.187Z</time></trkpt><trkpt lat="43.7709152" lon="11.4290033"><ele>81.0</ele><time>2026-04-19T08:11:19.201Z</time></trkpt><trkpt lat="43.7709718" lon="11.4287942"><ele>81.0</ele><time>2026-04-19T08:11:20.196Z</time></trkpt><trkpt lat="43.7710258" lon="11.4286037"><ele>81.0</ele><time>2026-04-19T08:11:21.2Z</time></trkpt><trkpt lat="43.7710754" lon="11.4284144"><ele>81.25</ele><time>2026-04-19T08:11:22.203Z</time></trkpt><trkpt lat="43.7711187" lon="11.4282273"><ele>81.5</ele><time>2026-04-19T08:11:23.191Z</time></trkpt><trkpt lat="43.7711583" lon="11.4280414"><ele>81.75</ele><time>2026-04-19T08:11:24.201Z</time></trkpt><trkpt lat="43.7712072" lon="11.4278511"><ele>82.0</ele><time>2026-04-19T08:11:25.199Z</time></trkpt><trkpt lat="43.7712531" lon="11.4276577"><ele>82.0</ele><time>2026-04-19T08:11:26.193Z</time></trkpt><trkpt lat="43.7713012" lon="11.4274601"><ele>82.0</ele><time>2026-04-19T08:11:27.197Z</time></trkpt><trkpt lat="43.7713499" lon="11.4272509"><ele>82.0</ele><time>2026-04-19T08:11:28.201Z</time></trkpt><trkpt lat="43.7714014" lon="11.4270423"><ele>81.66666666666666</ele><time>2026-04-19T08:11:29.201Z</time></trkpt><trkpt lat="43.7714515" lon="11.4268344"><ele>81.33333333333333</ele><time>2026-04-19T08:11:30.199Z</time></trkpt><trkpt lat="43.7714973" lon="11.4266303"><ele>81.0</ele><time>2026-04-19T08:11:31.206Z</time></trkpt><trkpt lat="43.7715431" lon="11.4264272"><ele>81.0</ele><time>2026-04-19T08:11:32.201Z</time></trkpt><trkpt lat="43.7715948" lon="11.4262221"><ele>81.0</ele><time>2026-04-19T08:11:33.197Z</time></trkpt><trkpt lat="43.7716471" lon="11.4260154"><ele>81.0</ele><time>2026-04-19T08:11:34.186Z</time></trkpt><trkpt lat="43.7716986" lon="11.4258051"><ele>81.0</ele><time>2026-04-19T08:11:35.208Z</time></trkpt><trkpt lat="43.7717501" lon="11.4255898"><ele>81.0</ele><time>2026-04-19T08:11:36.199Z</time></trkpt><trkpt lat="43.7717965" lon="11.4253748"><ele>81.0</ele><time>2026-04-19T08:11:37.207Z</time></trkpt><trkpt lat="43.7718449" lon="11.4251655"><ele>81.33333333333333</ele><time>2026-04-19T08:11:38.213Z</time></trkpt><trkpt lat="43.7718939" lon="11.4249479"><ele>81.66666666666666</ele><time>2026-04-19T08:11:39.204Z</time></trkpt><trkpt lat="43.7719461" lon="11.4247195"><ele>82.0</ele><time>2026-04-19T08:11:40.198Z</time></trkpt><trkpt lat="43.7719955" lon="11.424493"><ele>82.0</ele><time>2026-04-19T08:11:41.2Z</time></trkpt><trkpt lat="43.7720511" lon="11.4242568"><ele>82.0</ele><time>2026-04-19T08:11:42.204Z</time></trkpt><trkpt lat="43.7721078" lon="11.4240205"><ele>82.0</ele><time>2026-04-19T08:11:43.196Z</time></trkpt><trkpt lat="43.7721671" lon="11.4237786"><ele>82.0</ele><time>2026-04-19T08:11:44.186Z</time></trkpt><trkpt lat="43.7722251" lon="11.4235357"><ele>82.0</ele><time>2026-04-19T08:11:45.179Z</time></trkpt><trkpt lat="43.7722828" lon="11.4232878"><ele>82.0</ele><time>2026-04-19T08:11:46.2Z</time></trkpt><trkpt lat="43.7723415" lon="11.423042"><ele>81.66666666666666</ele><time>2026-04-19T08:11:47.195Z</time></trkpt><trkpt lat="43.7724018" lon="11.4227931"><ele>81.33333333333333</ele><time>2026-04-19T08:11:48.199Z</time></trkpt><trkpt lat="43.7724577" lon="11.4225494"><ele>81.0</ele><time>2026-04-19T08:11:49.197Z</time></trkpt><trkpt lat="43.7725158" lon="11.4223016"><ele>80.66666666666667</ele><time>2026-04-19T08:11:50.189Z</time></trkpt><trkpt lat="43.7725727" lon="11.4220488"><ele>80.33333333333334</ele><time>2026-04-19T08:11:51.202Z</time></trkpt><trkpt lat="43.7726279" lon="11.4217934"><ele>80.0</ele><time>2026-04-19T08:11:52.202Z</time></trkpt><trkpt lat="43.772683" lon="11.4215485"><ele>80.33333333333334</ele><time>2026-04-19T08:11:53.19Z</time></trkpt><trkpt lat="43.7727399" lon="11.4212984"><ele>80.66666666666667</ele><time>2026-04-19T08:11:54.205Z</time></trkpt><trkpt lat="43.7727996" lon="11.4210411"><ele>81.0</ele><time>2026-04-19T08:11:55.198Z</time></trkpt><trkpt lat="43.7728613" lon="11.4207809"><ele>81.0</ele><time>2026-04-19T08:11:56.211Z</time></trkpt><trkpt lat="43.7729251" lon="11.4205194"><ele>81.0</ele><time>2026-04-19T08:11:57.197Z</time></trkpt><trkpt lat="43.7729877" lon="11.4202629"><ele>81.0</ele><time>2026-04-19T08:11:58.203Z</time></trkpt><trkpt lat="43.7730503" lon="11.4200065"><ele>81.0</ele><time>2026-04-19T08:11:59.204Z</time></trkpt><trkpt lat="43.7731143" lon="11.4197506"><ele>81.0</ele><time>2026-04-19T08:12:00.199Z</time></trkpt><trkpt lat="43.7731778" lon="11.4194841"><ele>81.0</ele><time>2026-04-19T08:12:01.195Z</time></trkpt><trkpt lat="43.7732382" lon="11.4192225"><ele>81.0</ele><time>2026-04-19T08:12:02.205Z</time></trkpt><trkpt lat="43.7732969" lon="11.4189557"><ele>81.0</ele><time>2026-04-19T08:12:03.198Z</time></trkpt><trkpt lat="43.7733599" lon="11.4186916"><ele>81.0</ele><time>2026-04-19T08:12:04.211Z</time></trkpt><trkpt lat="43.7734188" lon="11.4184224"><ele>81.0</ele><time>2026-04-19T08:12:05.193Z</time></trkpt><trkpt lat="43.7734766" lon="11.4181647"><ele>81.0</ele><time>2026-04-19T08:12:06.206Z</time></trkpt><trkpt lat="43.7735352" lon="11.4179235"><ele>81.0</ele><time>2026-04-19T08:12:07.201Z</time></trkpt><trkpt lat="43.7736017" lon="11.4177205"><ele>81.0</ele><time>2026-04-19T08:12:08.192Z</time></trkpt><trkpt lat="43.7736844" lon="11.4175464"><ele>81.0</ele><time>2026-04-19T08:12:09.203Z</time></trkpt><trkpt lat="43.7737745" lon="11.4174048"><ele>81.0</ele><time>2026-04-19T08:12:10.179Z</time></trkpt><trkpt lat="43.7738605" lon="11.4172802"><ele>81.0</ele><time>2026-04-19T08:12:11.207Z</time></trkpt><trkpt lat="43.7739568" lon="11.4171752"><ele>81.0</ele><time>2026-04-19T08:12:12.197Z</time></trkpt><trkpt lat="43.7740472" lon="11.4170999"><ele>81.0</ele><time>2026-04-19T08:12:13.207Z</time></trkpt><trkpt lat="43.7741407" lon="11.4170611"><ele>81.0</ele><time>2026-04-19T08:12:14.187Z</time></trkpt><trkpt lat="43.7742454" lon="11.4170575"><ele>81.0</ele><time>2026-04-19T08:12:15.183Z</time></trkpt><trkpt lat="43.7743415" lon="11.4170699"><ele>81.0</ele><time>2026-04-19T08:12:16.197Z</time></trkpt><trkpt lat="43.7744433" lon="11.417057"><ele>81.25</ele><time>2026-04-19T08:12:17.201Z</time></trkpt><trkpt lat="43.7745432" lon="11.4170147"><ele>81.5</ele><time>2026-04-19T08:12:18.203Z</time></trkpt><trkpt lat="43.7746368" lon="11.4169399"><ele>81.75</ele><time>2026-04-19T08:12:19.196Z</time></trkpt><trkpt lat="43.7747298" lon="11.4168496"><ele>82.0</ele><time>2026-04-19T08:12:20.194Z</time></trkpt><trkpt lat="43.7748369" lon="11.4167453"><ele>82.0</ele><time>2026-04-19T08:12:21.19Z</time></trkpt><trkpt lat="43.7749468" lon="11.4166468"><ele>82.0</ele><time>2026-04-19T08:12:22.195Z</time></trkpt><trkpt lat="43.7750631" lon="11.416554"><ele>82.0</ele><time>2026-04-19T08:12:23.19Z</time></trkpt><trkpt lat="43.7751923" lon="11.4164596"><ele>82.0</ele><time>2026-04-19T08:12:24.197Z</time></trkpt><trkpt lat="43.7753281" lon="11.4163825"><ele>81.33333333333333</ele><time>2026-04-19T08:12:25.198Z</time></trkpt><trkpt lat="43.7754695" lon="11.4163063"><ele>80.66666666666667</ele><time>2026-04-19T08:12:26.202Z</time></trkpt><trkpt lat="43.7756144" lon="11.4162311"><ele>80.0</ele><time>2026-04-19T08:12:27.206Z</time></trkpt><trkpt lat="43.775761" lon="11.4161585"><ele>80.0</ele><time>2026-04-19T08:12:28.195Z</time></trkpt><trkpt lat="43.7759072" lon="11.4160769"><ele>80.0</ele><time>2026-04-19T08:12:29.2Z</time></trkpt><trkpt lat="43.7760502" lon="11.4159765"><ele>80.0</ele><time>2026-04-19T08:12:30.19Z</time></trkpt><trkpt lat="43.7761938" lon="11.4158403"><ele>81.0</ele><time>2026-04-19T08:12:31.195Z</time></trkpt><trkpt lat="43.7763269" lon="11.4156806"><ele>82.0</ele><time>2026-04-19T08:12:32.194Z</time></trkpt><trkpt lat="43.7764489" lon="11.4155162"><ele>83.0</ele><time>2026-04-19T08:12:33.191Z</time></trkpt><trkpt lat="43.7765608" lon="11.4153313"><ele>83.0</ele><time>2026-04-19T08:12:34.195Z</time></trkpt><trkpt lat="43.7766651" lon="11.4151253"><ele>83.0</ele><time>2026-04-19T08:12:35.194Z</time></trkpt><trkpt lat="43.776758" lon="11.4148999"><ele>83.0</ele><time>2026-04-19T08:12:36.192Z</time></trkpt><trkpt lat="43.7768341" lon="11.4146833"><ele>88.33333333333334</ele><time>2026-04-19T08:12:37.19Z</time></trkpt><trkpt lat="43.7769032" lon="11.4144746"><ele>93.66666666666667</ele><time>2026-04-19T08:12:38.195Z</time></trkpt><trkpt lat="43.7769736" lon="11.4142731"><ele>99.0</ele><time>2026-04-19T08:12:39.195Z</time></trkpt><trkpt lat="43.7770486" lon="11.4140709"><ele>99.0</ele><time>2026-04-19T08:12:40.187Z</time></trkpt><trkpt lat="43.7771341" lon="11.4138727"><ele>99.0</ele><time>2026-04-19T08:12:41.198Z</time></trkpt><trkpt lat="43.7772214" lon="11.4136732"><ele>99.0</ele><time>2026-04-19T08:12:42.197Z</time></trkpt><trkpt lat="43.7773069" lon="11.4134714"><ele>95.33333333333333</ele><time>2026-04-19T08:12:43.194Z</time></trkpt><trkpt lat="43.7773946" lon="11.413262"><ele>91.66666666666666</ele><time>2026-04-19T08:12:44.196Z</time></trkpt><trkpt lat="43.7774859" lon="11.4130557"><ele>88.0</ele><time>2026-04-19T08:12:45.195Z</time></trkpt><trkpt lat="43.7775864" lon="11.412849"><ele>92.66666666666666</ele><time>2026-04-19T08:12:46.204Z</time></trkpt><trkpt lat="43.7776985" lon="11.4126396"><ele>97.33333333333333</ele><time>2026-04-19T08:12:47.189Z</time></trkpt><trkpt lat="43.7778109" lon="11.4124335"><ele>102.0</ele><time>2026-04-19T08:12:48.199Z</time></trkpt><trkpt lat="43.7779287" lon="11.4122253"><ele>95.33333333333333</ele><time>2026-04-19T08:12:49.203Z</time></trkpt><trkpt lat="43.7780481" lon="11.4120198"><ele>88.66666666666666</ele><time>2026-04-19T08:12:50.19Z</time></trkpt><trkpt lat="43.778163" lon="11.4118167"><ele>82.0</ele><time>2026-04-19T08:12:51.204Z</time></trkpt><trkpt lat="43.7782808" lon="11.4116106"><ele>82.0</ele><time>2026-04-19T08:12:52.196Z</time></trkpt><trkpt lat="43.7784017" lon="11.4114019"><ele>82.0</ele><time>2026-04-19T08:12:53.197Z</time></trkpt><trkpt lat="43.7785235" lon="11.4111958"><ele>82.0</ele><time>2026-04-19T08:12:54.204Z</time></trkpt><trkpt lat="43.7786461" lon="11.4110055"><ele>82.66666666666666</ele><time>2026-04-19T08:12:55.195Z</time></trkpt><trkpt lat="43.7787679" lon="11.4108213"><ele>83.33333333333333</ele><time>2026-04-19T08:12:56.19Z</time></trkpt><trkpt lat="43.7788855" lon="11.4106446"><ele>84.0</ele><time>2026-04-19T08:12:57.192Z</time></trkpt><trkpt lat="43.7789995" lon="11.4104732"><ele>82.0</ele><time>2026-04-19T08:12:58.193Z</time></trkpt><trkpt lat="43.7791103" lon="11.4103062"><ele>80.0</ele><time>2026-04-19T08:12:59.176Z</time></trkpt><trkpt lat="43.7792126" lon="11.4101412"><ele>78.0</ele><time>2026-04-19T08:13:00.197Z</time></trkpt><trkpt lat="43.7792973" lon="11.4099566"><ele>80.0</ele><time>2026-04-19T08:13:01.193Z</time></trkpt><trkpt lat="43.7793712" lon="11.4097556"><ele>82.0</ele><time>2026-04-19T08:13:02.188Z</time></trkpt><trkpt lat="43.7794459" lon="11.4095442"><ele>84.0</ele><time>2026-04-19T08:13:03.19Z</time></trkpt><trkpt lat="43.7795137" lon="11.4093378"><ele>84.0</ele><time>2026-04-19T08:13:04.201Z</time></trkpt><trkpt lat="43.7795735" lon="11.4091317"><ele>84.0</ele><time>2026-04-19T08:13:05.197Z</time></trkpt><trkpt lat="43.7796287" lon="11.4089345"><ele>84.0</ele><time>2026-04-19T08:13:06.198Z</time></trkpt><trkpt lat="43.7797" lon="11.4087578"><ele>82.66666666666667</ele><time>2026-04-19T08:13:07.198Z</time></trkpt><trkpt lat="43.7797996" lon="11.4086022"><ele>81.33333333333334</ele><time>2026-04-19T08:13:08.186Z</time></trkpt><trkpt lat="43.7799115" lon="11.4084661"><ele>80.0</ele><time>2026-04-19T08:13:09.195Z</time></trkpt><trkpt lat="43.7800427" lon="11.4083353"><ele>80.0</ele><time>2026-04-19T08:13:10.197Z</time></trkpt><trkpt lat="43.7801743" lon="11.4082234"><ele>80.0</ele><time>2026-04-19T08:13:11.199Z</time></trkpt><trkpt lat="43.7803018" lon="11.4081061"><ele>80.0</ele><time>2026-04-19T08:13:12.198Z</time></trkpt><trkpt lat="43.78042" lon="11.4079876"><ele>80.75</ele><time>2026-04-19T08:13:13.193Z</time></trkpt><trkpt lat="43.7805271" lon="11.4078811"><ele>81.5</ele><time>2026-04-19T08:13:14.186Z</time></trkpt><trkpt lat="43.7806224" lon="11.4077845"><ele>82.25</ele><time>2026-04-19T08:13:15.185Z</time></trkpt><trkpt lat="43.7807091" lon="11.4077069"><ele>83.0</ele><time>2026-04-19T08:13:16.186Z</time></trkpt><trkpt lat="43.7807946" lon="11.4076341"><ele>83.0</ele><time>2026-04-19T08:13:17.199Z</time></trkpt><trkpt lat="43.7808814" lon="11.4075559"><ele>83.0</ele><time>2026-04-19T08:13:18.206Z</time></trkpt><trkpt lat="43.7809705" lon="11.4074762"><ele>83.0</ele><time>2026-04-19T08:13:19.194Z</time></trkpt><trkpt lat="43.7810547" lon="11.4073919"><ele>83.0</ele><time>2026-04-19T08:13:20.208Z</time></trkpt><trkpt lat="43.7811449" lon="11.4073045"><ele>83.0</ele><time>2026-04-19T08:13:21.222Z</time></trkpt><trkpt lat="43.781236" lon="11.4072223"><ele>83.0</ele><time>2026-04-19T08:13:22.203Z</time></trkpt><trkpt lat="43.7813303" lon="11.4071406"><ele>83.0</ele><time>2026-04-19T08:13:23.199Z</time></trkpt><trkpt lat="43.7814306" lon="11.4070642"><ele>83.0</ele><time>2026-04-19T08:13:24.202Z</time></trkpt><trkpt lat="43.7815379" lon="11.4069842"><ele>83.0</ele><time>2026-04-19T08:13:25.197Z</time></trkpt><trkpt lat="43.7816476" lon="11.4068972"><ele>83.0</ele><time>2026-04-19T08:13:26.198Z</time></trkpt><trkpt lat="43.7817641" lon="11.4068091"><ele>83.0</ele><time>2026-04-19T08:13:27.198Z</time></trkpt><trkpt lat="43.7818848" lon="11.4067335"><ele>83.0</ele><time>2026-04-19T08:13:28.184Z</time></trkpt><trkpt lat="43.782012" lon="11.4066608"><ele>83.0</ele><time>2026-04-19T08:13:29.225Z</time></trkpt><trkpt lat="43.7821386" lon="11.4065867"><ele>83.0</ele><time>2026-04-19T08:13:30.191Z</time></trkpt><trkpt lat="43.7822649" lon="11.4064988"><ele>83.0</ele><time>2026-04-19T08:13:31.195Z</time></trkpt><trkpt lat="43.7823791" lon="11.406387"><ele>83.0</ele><time>2026-04-19T08:13:32.191Z</time></trkpt><trkpt lat="43.78249" lon="11.4062505"><ele>83.0</ele><time>2026-04-19T08:13:33.195Z</time></trkpt><trkpt lat="43.782591" lon="11.4060953"><ele>83.33333333333334</ele><time>2026-04-19T08:13:34.202Z</time></trkpt><trkpt lat="43.7826856" lon="11.4059181"><ele>83.66666666666667</ele><time>2026-04-19T08:13:35.192Z</time></trkpt><trkpt lat="43.7827788" lon="11.4057312"><ele>84.0</ele><time>2026-04-19T08:13:36.188Z</time></trkpt><trkpt lat="43.7828734" lon="11.4055417"><ele>84.33333333333333</ele><time>2026-04-19T08:13:37.182Z</time></trkpt><trkpt lat="43.7829651" lon="11.4053507"><ele>84.66666666666666</ele><time>2026-04-19T08:13:38.198Z</time></trkpt><trkpt lat="43.7830559" lon="11.4051604"><ele>85.0</ele><time>2026-04-19T08:13:39.184Z</time></trkpt><trkpt lat="43.7831468" lon="11.4049591"><ele>85.0</ele><time>2026-04-19T08:13:40.193Z</time></trkpt><trkpt lat="43.7832371" lon="11.404751"><ele>85.0</ele><time>2026-04-19T08:13:41.196Z</time></trkpt><trkpt lat="43.7833236" lon="11.4045348"><ele>85.0</ele><time>2026-04-19T08:13:42.197Z</time></trkpt><trkpt lat="43.7834114" lon="11.4043253"><ele>84.66666666666666</ele><time>2026-04-19T08:13:43.21Z</time></trkpt><trkpt lat="43.7835055" lon="11.4041251"><ele>84.33333333333333</ele><time>2026-04-19T08:13:44.205Z</time></trkpt><trkpt lat="43.7836048" lon="11.4039321"><ele>84.0</ele><time>2026-04-19T08:13:45.202Z</time></trkpt><trkpt lat="43.7837176" lon="11.4037496"><ele>84.0</ele><time>2026-04-19T08:13:46.197Z</time></trkpt><trkpt lat="43.7838307" lon="11.4035642"><ele>84.0</ele><time>2026-04-19T08:13:47.206Z</time></trkpt><trkpt lat="43.7839424" lon="11.4033825"><ele>84.0</ele><time>2026-04-19T08:13:48.2Z</time></trkpt><trkpt lat="43.7840434" lon="11.4032155"><ele>84.0</ele><time>2026-04-19T08:13:49.197Z</time></trkpt><trkpt lat="43.7841414" lon="11.4030576"><ele>84.0</ele><time>2026-04-19T08:13:50.188Z</time></trkpt><trkpt lat="43.7842228" lon="11.4029023"><ele>84.0</ele><time>2026-04-19T08:13:51.201Z</time></trkpt><trkpt lat="43.7843057" lon="11.4027357"><ele>84.0</ele><time>2026-04-19T08:13:52.207Z</time></trkpt><trkpt lat="43.7843878" lon="11.4025651"><ele>83.75</ele><time>2026-04-19T08:13:53.191Z</time></trkpt><trkpt lat="43.7844657" lon="11.4023988"><ele>83.5</ele><time>2026-04-19T08:13:54.201Z</time></trkpt><trkpt lat="43.7845375" lon="11.4022379"><ele>83.25</ele><time>2026-04-19T08:13:55.198Z</time></trkpt><trkpt lat="43.7846038" lon="11.4020738"><ele>83.0</ele><time>2026-04-19T08:13:56.194Z</time></trkpt><trkpt lat="43.7846729" lon="11.4019121"><ele>83.0</ele><time>2026-04-19T08:13:57.198Z</time></trkpt><trkpt lat="43.7847357" lon="11.401766"><ele>83.0</ele><time>2026-04-19T08:13:58.198Z</time></trkpt><trkpt lat="43.7847959" lon="11.401621"><ele>83.0</ele><time>2026-04-19T08:13:59.185Z</time></trkpt><trkpt lat="43.7848577" lon="11.4014832"><ele>83.0</ele><time>2026-04-19T08:14:00.193Z</time></trkpt><trkpt lat="43.7849674" lon="11.4012179"><ele>83.0</ele><time>2026-04-19T08:14:02.195Z</time></trkpt><trkpt lat="43.7850219" lon="11.4010976"><ele>83.0</ele><time>2026-04-19T08:14:03.192Z</time></trkpt><trkpt lat="43.7850819" lon="11.4009731"><ele>83.0</ele><time>2026-04-19T08:14:04.2Z</time></trkpt><trkpt lat="43.7851442" lon="11.4008469"><ele>83.0</ele><time>2026-04-19T08:14:05.193Z</time></trkpt><trkpt lat="43.7852058" lon="11.4007236"><ele>83.0</ele><time>2026-04-19T08:14:06.193Z</time></trkpt><trkpt lat="43.7852676" lon="11.4005987"><ele>82.80000000000001</ele><time>2026-04-19T08:14:07.193Z</time></trkpt><trkpt lat="43.7853234" lon="11.4004794"><ele>82.6</ele><time>2026-04-19T08:14:08.198Z</time></trkpt><trkpt lat="43.7853858" lon="11.4003595"><ele>82.4</ele><time>2026-04-19T08:14:09.196Z</time></trkpt><trkpt lat="43.7854471" lon="11.4002358"><ele>82.19999999999999</ele><time>2026-04-19T08:14:10.207Z</time></trkpt><trkpt lat="43.7855089" lon="11.4001117"><ele>82.0</ele><time>2026-04-19T08:14:11.194Z</time></trkpt><trkpt lat="43.785569" lon="11.3999784"><ele>82.0</ele><time>2026-04-19T08:14:12.197Z</time></trkpt><trkpt lat="43.7856331" lon="11.3998445"><ele>82.0</ele><time>2026-04-19T08:14:13.199Z</time></trkpt><trkpt lat="43.7856967" lon="11.3997065"><ele>82.0</ele><time>2026-04-19T08:14:14.192Z</time></trkpt><trkpt lat="43.78576" lon="11.3995693"><ele>82.0</ele><time>2026-04-19T08:14:15.192Z</time></trkpt><trkpt lat="43.7858217" lon="11.3994304"><ele>81.39999999999999</ele><time>2026-04-19T08:14:16.202Z</time></trkpt><trkpt lat="43.7858815" lon="11.3992992"><ele>80.8</ele><time>2026-04-19T08:14:17.194Z</time></trkpt><trkpt lat="43.7859403" lon="11.3991619"><ele>80.2</ele><time>2026-04-19T08:14:18.201Z</time></trkpt><trkpt lat="43.7859978" lon="11.3990277"><ele>79.6</ele><time>2026-04-19T08:14:19.181Z</time></trkpt><trkpt lat="43.7860564" lon="11.3989098"><ele>79.0</ele><time>2026-04-19T08:14:20.196Z</time></trkpt><trkpt lat="43.7861017" lon="11.39878"><ele>79.0</ele><time>2026-04-19T08:14:21.202Z</time></trkpt><trkpt lat="43.7861472" lon="11.3986577"><ele>79.0</ele><time>2026-04-19T08:14:22.199Z</time></trkpt><trkpt lat="43.786184" lon="11.3985614"><ele>79.0</ele><time>2026-04-19T08:14:23.205Z</time></trkpt><trkpt lat="43.7862223" lon="11.398421"><ele>79.0</ele><time>2026-04-19T08:14:25.202Z</time></trkpt><trkpt lat="43.7862473" lon="11.3983207"><ele>79.0</ele><time>2026-04-19T08:14:27.199Z</time></trkpt><trkpt lat="43.7862858" lon="11.398241"><ele>79.0</ele><time>2026-04-19T08:14:29.193Z</time></trkpt><trkpt lat="43.7863395" lon="11.3981348"><ele>79.0</ele><time>2026-04-19T08:14:31.201Z</time></trkpt><trkpt lat="43.7864149" lon="11.3980156"><ele>79.0</ele><time>2026-04-19T08:14:33.183Z</time></trkpt><trkpt lat="43.7864486" lon="11.3979411"><ele>79.0</ele><time>2026-04-19T08:14:34.197Z</time></trkpt><trkpt lat="43.7864866" lon="11.3978533"><ele>79.0</ele><time>2026-04-19T08:14:35.194Z</time></trkpt><trkpt lat="43.7865253" lon="11.3977544"><ele>79.0</ele><time>2026-04-19T08:14:36.204Z</time></trkpt><trkpt lat="43.7865699" lon="11.3976502"><ele>79.0</ele><time>2026-04-19T08:14:37.199Z</time></trkpt><trkpt lat="43.7866191" lon="11.3975318"><ele>78.8</ele><time>2026-04-19T08:14:38.186Z</time></trkpt><trkpt lat="43.7866763" lon="11.3974011"><ele>78.60000000000001</ele><time>2026-04-19T08:14:39.197Z</time></trkpt><trkpt lat="43.7867343" lon="11.3972603"><ele>78.4</ele><time>2026-04-19T08:14:40.203Z</time></trkpt><trkpt lat="43.7867902" lon="11.3971258"><ele>78.2</ele><time>2026-04-19T08:14:41.199Z</time></trkpt><trkpt lat="43.7868456" lon="11.3969991"><ele>78.0</ele><time>2026-04-19T08:14:42.192Z</time></trkpt><trkpt lat="43.7868921" lon="11.3968685"><ele>78.0</ele><time>2026-04-19T08:14:43.202Z</time></trkpt><trkpt lat="43.786941" lon="11.3967467"><ele>78.0</ele><time>2026-04-19T08:14:44.198Z</time></trkpt><trkpt lat="43.7869741" lon="11.3966424"><ele>78.0</ele><time>2026-04-19T08:14:45.197Z</time></trkpt><trkpt lat="43.7870139" lon="11.3965396"><ele>78.0</ele><time>2026-04-19T08:14:47.189Z</time></trkpt><trkpt lat="43.7870527" lon="11.3964188"><ele>78.0</ele><time>2026-04-19T08:14:50.203Z</time></trkpt><trkpt lat="43.787088" lon="11.3963256"><ele>78.0</ele><time>2026-04-19T08:14:51.197Z</time></trkpt><trkpt lat="43.7871387" lon="11.3961934"><ele>78.0</ele><time>2026-04-19T08:14:52.197Z</time></trkpt><trkpt lat="43.7871966" lon="11.3960308"><ele>78.0</ele><time>2026-04-19T08:14:53.177Z</time></trkpt><trkpt lat="43.787273" lon="11.3958669"><ele>78.0</ele><time>2026-04-19T08:14:54.194Z</time></trkpt><trkpt lat="43.7873492" lon="11.3956942"><ele>78.0</ele><time>2026-04-19T08:14:55.203Z</time></trkpt><trkpt lat="43.7874235" lon="11.3955213"><ele>78.0</ele><time>2026-04-19T08:14:56.199Z</time></trkpt><trkpt lat="43.7874952" lon="11.3953533"><ele>78.0</ele><time>2026-04-19T08:14:57.199Z</time></trkpt><trkpt lat="43.7875762" lon="11.3952005"><ele>78.0</ele><time>2026-04-19T08:14:58.206Z</time></trkpt><trkpt lat="43.7876785" lon="11.395063"><ele>78.0</ele><time>2026-04-19T08:14:59.199Z</time></trkpt><trkpt lat="43.7877898" lon="11.3949548"><ele>78.0</ele><time>2026-04-19T08:15:00.204Z</time></trkpt><trkpt lat="43.7878903" lon="11.3948917"><ele>78.0</ele><time>2026-04-19T08:15:01.184Z</time></trkpt><trkpt lat="43.787968" lon="11.3948476"><ele>78.0</ele><time>2026-04-19T08:15:02.196Z</time></trkpt><trkpt lat="43.788063" lon="11.3948068"><ele>78.0</ele><time>2026-04-19T08:15:04.201Z</time></trkpt><trkpt lat="43.7881321" lon="11.3947595"><ele>78.0</ele><time>2026-04-19T08:15:08.195Z</time></trkpt><trkpt lat="43.7882078" lon="11.3947218"><ele>78.0</ele><time>2026-04-19T08:15:11.19Z</time></trkpt><trkpt lat="43.7882615" lon="11.3946749"><ele>78.0</ele><time>2026-04-19T08:15:15.197Z</time></trkpt><trkpt lat="43.7883188" lon="11.3946302"><ele>78.0</ele><time>2026-04-19T08:15:16.199Z</time></trkpt><trkpt lat="43.7883985" lon="11.3945624"><ele>78.0</ele><time>2026-04-19T08:15:17.19Z</time></trkpt><trkpt lat="43.7884851" lon="11.3944873"><ele>78.0</ele><time>2026-04-19T08:15:18.202Z</time></trkpt><trkpt lat="43.788577" lon="11.3944183"><ele>78.0</ele><time>2026-04-19T08:15:19.199Z</time></trkpt><trkpt lat="43.7886678" lon="11.3943413"><ele>78.0</ele><time>2026-04-19T08:15:20.205Z</time></trkpt><trkpt lat="43.7887649" lon="11.3942726"><ele>78.0</ele><time>2026-04-19T08:15:21.194Z</time></trkpt><trkpt lat="43.788862" lon="11.3942091"><ele>78.0</ele><time>2026-04-19T08:15:22.193Z</time></trkpt><trkpt lat="43.7889667" lon="11.3941347"><ele>78.0</ele><time>2026-04-19T08:15:23.204Z</time></trkpt><trkpt lat="43.7890776" lon="11.3940587"><ele>78.0</ele><time>2026-04-19T08:15:24.2Z</time></trkpt><trkpt lat="43.7891882" lon="11.3939727"><ele>78.0</ele><time>2026-04-19T08:15:25.203Z</time></trkpt><trkpt lat="43.7893047" lon="11.3938864"><ele>78.0</ele><time>2026-04-19T08:15:26.203Z</time></trkpt><trkpt lat="43.7894221" lon="11.3937964"><ele>78.0</ele><time>2026-04-19T08:15:27.194Z</time></trkpt><trkpt lat="43.7895434" lon="11.3937029"><ele>78.25</ele><time>2026-04-19T08:15:28.2Z</time></trkpt><trkpt lat="43.7896646" lon="11.3936001"><ele>78.5</ele><time>2026-04-19T08:15:29.2Z</time></trkpt><trkpt lat="43.7897754" lon="11.3934829"><ele>78.75</ele><time>2026-04-19T08:15:30.2Z</time></trkpt><trkpt lat="43.7898807" lon="11.3933698"><ele>79.0</ele><time>2026-04-19T08:15:31.206Z</time></trkpt><trkpt lat="43.7899796" lon="11.3932662"><ele>79.0</ele><time>2026-04-19T08:15:32.207Z</time></trkpt><trkpt lat="43.7900815" lon="11.393161"><ele>79.0</ele><time>2026-04-19T08:15:33.204Z</time></trkpt><trkpt lat="43.7901781" lon="11.3930666"><ele>79.0</ele><time>2026-04-19T08:15:34.196Z</time></trkpt><trkpt lat="43.7902769" lon="11.3929791"><ele>79.0</ele><time>2026-04-19T08:15:35.196Z</time></trkpt><trkpt lat="43.7903781" lon="11.3928986"><ele>78.25</ele><time>2026-04-19T08:15:36.2Z</time></trkpt><trkpt lat="43.7904779" lon="11.3928312"><ele>77.5</ele><time>2026-04-19T08:15:37.193Z</time></trkpt><trkpt lat="43.7905923" lon="11.3927848"><ele>76.75</ele><time>2026-04-19T08:15:38.197Z</time></trkpt><trkpt lat="43.7907044" lon="11.3927493"><ele>76.0</ele><time>2026-04-19T08:15:39.18Z</time></trkpt><trkpt lat="43.790811" lon="11.3927141"><ele>76.0</ele><time>2026-04-19T08:15:40.184Z</time></trkpt><trkpt lat="43.7909061" lon="11.3926767"><ele>76.0</ele><time>2026-04-19T08:15:41.179Z</time></trkpt><trkpt lat="43.7909965" lon="11.3926381"><ele>76.0</ele><time>2026-04-19T08:15:42.203Z</time></trkpt><trkpt lat="43.791084" lon="11.3925964"><ele>76.0</ele><time>2026-04-19T08:15:43.202Z</time></trkpt><trkpt lat="43.7911598" lon="11.392532"><ele>76.0</ele><time>2026-04-19T08:15:44.194Z</time></trkpt><trkpt lat="43.7912247" lon="11.3924418"><ele>76.2</ele><time>2026-04-19T08:15:45.202Z</time></trkpt><trkpt lat="43.7912692" lon="11.3923296"><ele>76.39999999999999</ele><time>2026-04-19T08:15:46.205Z</time></trkpt><trkpt lat="43.7912967" lon="11.3922129"><ele>76.6</ele><time>2026-04-19T08:15:47.198Z</time></trkpt><trkpt lat="43.7913173" lon="11.3920687"><ele>76.8</ele><time>2026-04-19T08:15:48.183Z</time></trkpt><trkpt lat="43.7913175" lon="11.3919025"><ele>77.0</ele><time>2026-04-19T08:15:49.183Z</time></trkpt><trkpt lat="43.7913112" lon="11.391739"><ele>77.0</ele><time>2026-04-19T08:15:50.191Z</time></trkpt><trkpt lat="43.7913197" lon="11.3915892"><ele>77.0</ele><time>2026-04-19T08:15:51.198Z</time></trkpt><trkpt lat="43.7913425" lon="11.3914461"><ele>77.0</ele><time>2026-04-19T08:15:52.196Z</time></trkpt><trkpt lat="43.7913897" lon="11.3913016"><ele>77.0</ele><time>2026-04-19T08:15:53.194Z</time></trkpt><trkpt lat="43.791467" lon="11.3911597"><ele>77.25</ele><time>2026-04-19T08:15:54.198Z</time></trkpt><trkpt lat="43.7915727" lon="11.3910194"><ele>77.5</ele><time>2026-04-19T08:15:55.197Z</time></trkpt><trkpt lat="43.7916893" lon="11.3908804"><ele>77.75</ele><time>2026-04-19T08:15:56.191Z</time></trkpt><trkpt lat="43.7918066" lon="11.3907577"><ele>78.0</ele><time>2026-04-19T08:15:57.201Z</time></trkpt><trkpt lat="43.7919266" lon="11.3906379"><ele>77.5</ele><time>2026-04-19T08:15:58.206Z</time></trkpt><trkpt lat="43.7920437" lon="11.3905042"><ele>77.0</ele><time>2026-04-19T08:15:59.194Z</time></trkpt><trkpt lat="43.7921467" lon="11.3903669"><ele>76.5</ele><time>2026-04-19T08:16:00.204Z</time></trkpt><trkpt lat="43.7922372" lon="11.3902321"><ele>76.0</ele><time>2026-04-19T08:16:01.195Z</time></trkpt><trkpt lat="43.7923125" lon="11.3901153"><ele>76.0</ele><time>2026-04-19T08:16:02.188Z</time></trkpt><trkpt lat="43.7923724" lon="11.3900083"><ele>76.0</ele><time>2026-04-19T08:16:03.2Z</time></trkpt><trkpt lat="43.7924231" lon="11.389937"><ele>76.0</ele><time>2026-04-19T08:16:04.201Z</time></trkpt><trkpt lat="43.7924851" lon="11.3898594"><ele>76.0</ele><time>2026-04-19T08:16:06.21Z</time></trkpt><trkpt lat="43.7925656" lon="11.3897707"><ele>76.0</ele><time>2026-04-19T08:16:56.183Z</time></trkpt><trkpt lat="43.7926483" lon="11.3896659"><ele>76.0</ele><time>2026-04-19T08:16:58.196Z</time></trkpt><trkpt lat="43.7927464" lon="11.389618"><ele>76.0</ele><time>2026-04-19T08:17:00.196Z</time></trkpt><trkpt lat="43.7928127" lon="11.3896159"><ele>76.0</ele><time>2026-04-19T08:17:01.187Z</time></trkpt><trkpt lat="43.7928811" lon="11.3896348"><ele>76.0</ele><time>2026-04-19T08:17:02.203Z</time></trkpt><trkpt lat="43.7929644" lon="11.3896682"><ele>76.0</ele><time>2026-04-19T08:17:03.218Z</time></trkpt><trkpt lat="43.7930469" lon="11.3897044"><ele>76.0</ele><time>2026-04-19T08:17:04.199Z</time></trkpt><trkpt lat="43.7931278" lon="11.3897537"><ele>76.0</ele><time>2026-04-19T08:17:05.198Z</time></trkpt><trkpt lat="43.7932138" lon="11.3898038"><ele>76.0</ele><time>2026-04-19T08:17:06.199Z</time></trkpt><trkpt lat="43.7933006" lon="11.3898456"><ele>76.0</ele><time>2026-04-19T08:17:07.187Z</time></trkpt><trkpt lat="43.7933925" lon="11.3899013"><ele>76.0</ele><time>2026-04-19T08:17:08.199Z</time></trkpt><trkpt lat="43.793483" lon="11.389968"><ele>76.0</ele><time>2026-04-19T08:17:09.196Z</time></trkpt><trkpt lat="43.7935853" lon="11.3900371"><ele>76.25</ele><time>2026-04-19T08:17:10.192Z</time></trkpt><trkpt lat="43.7936925" lon="11.3900849"><ele>76.5</ele><time>2026-04-19T08:17:11.201Z</time></trkpt><trkpt lat="43.7938077" lon="11.3901209"><ele>76.75</ele><time>2026-04-19T08:17:12.195Z</time></trkpt><trkpt lat="43.7939337" lon="11.390135"><ele>77.0</ele><time>2026-04-19T08:17:13.194Z</time></trkpt><trkpt lat="43.7940673" lon="11.3901245"><ele>77.0</ele><time>2026-04-19T08:17:14.197Z</time></trkpt><trkpt lat="43.7942077" lon="11.3900935"><ele>77.0</ele><time>2026-04-19T08:17:15.198Z</time></trkpt><trkpt lat="43.7943439" lon="11.3900539"><ele>77.0</ele><time>2026-04-19T08:17:16.194Z</time></trkpt><trkpt lat="43.7944789" lon="11.3900047"><ele>77.0</ele><time>2026-04-19T08:17:17.194Z</time></trkpt><trkpt lat="43.7946173" lon="11.389956"><ele>77.0</ele><time>2026-04-19T08:17:18.196Z</time></trkpt><trkpt lat="43.7947607" lon="11.3899077"><ele>77.0</ele><time>2026-04-19T08:17:19.189Z</time></trkpt><trkpt lat="43.7949041" lon="11.3898541"><ele>77.0</ele><time>2026-04-19T08:17:20.18Z</time></trkpt><trkpt lat="43.7950526" lon="11.3898029"><ele>77.0</ele><time>2026-04-19T08:17:21.184Z</time></trkpt><trkpt lat="43.7952065" lon="11.3897531"><ele>76.66666666666667</ele><time>2026-04-19T08:17:22.2Z</time></trkpt><trkpt lat="43.7953629" lon="11.3897132"><ele>76.33333333333333</ele><time>2026-04-19T08:17:23.205Z</time></trkpt><trkpt lat="43.7955229" lon="11.3896684"><ele>76.0</ele><time>2026-04-19T08:17:24.197Z</time></trkpt><trkpt lat="43.7956798" lon="11.3896343"><ele>76.5</ele><time>2026-04-19T08:17:25.194Z</time></trkpt><trkpt lat="43.795829" lon="11.3896017"><ele>77.0</ele><time>2026-04-19T08:17:26.205Z</time></trkpt><trkpt lat="43.7959681" lon="11.3895692"><ele>77.5</ele><time>2026-04-19T08:17:27.195Z</time></trkpt><trkpt lat="43.7960842" lon="11.3895359"><ele>78.0</ele><time>2026-04-19T08:17:28.192Z</time></trkpt><trkpt lat="43.7961472" lon="11.3895289"><ele>78.0</ele><time>2026-04-19T08:19:00.202Z</time></trkpt><trkpt lat="43.7962465" lon="11.3895302"><ele>78.0</ele><time>2026-04-19T08:19:02.195Z</time></trkpt><trkpt lat="43.7963486" lon="11.3895284"><ele>78.0</ele><time>2026-04-19T08:19:03.197Z</time></trkpt><trkpt lat="43.7964603" lon="11.3895262"><ele>78.0</ele><time>2026-04-19T08:19:04.2Z</time></trkpt><trkpt lat="43.7965765" lon="11.389534"><ele>78.0</ele><time>2026-04-19T08:19:05.201Z</time></trkpt><trkpt lat="43.7967015" lon="11.3895483"><ele>78.0</ele><time>2026-04-19T08:19:06.2Z</time></trkpt><trkpt lat="43.796832" lon="11.3895806"><ele>78.0</ele><time>2026-04-19T08:19:07.192Z</time></trkpt><trkpt lat="43.7969631" lon="11.3896264"><ele>78.0</ele><time>2026-04-19T08:19:08.196Z</time></trkpt><trkpt lat="43.7970969" lon="11.3896646"><ele>78.0</ele><time>2026-04-19T08:19:09.199Z</time></trkpt><trkpt lat="43.7972421" lon="11.3896929"><ele>79.0</ele><time>2026-04-19T08:19:10.199Z</time></trkpt><trkpt lat="43.7973963" lon="11.3897185"><ele>80.0</ele><time>2026-04-19T08:19:11.185Z</time></trkpt><trkpt lat="43.7975552" lon="11.3897396"><ele>81.0</ele><time>2026-04-19T08:19:12.189Z</time></trkpt><trkpt lat="43.797721" lon="11.3897665"><ele>81.66666666666667</ele><time>2026-04-19T08:19:13.193Z</time></trkpt><trkpt lat="43.7978913" lon="11.3897976"><ele>82.33333333333334</ele><time>2026-04-19T08:19:14.196Z</time></trkpt><trkpt lat="43.7980562" lon="11.3898205"><ele>83.0</ele><time>2026-04-19T08:19:15.194Z</time></trkpt><trkpt lat="43.7982081" lon="11.389844"><ele>83.0</ele><time>2026-04-19T08:19:16.194Z</time></trkpt><trkpt lat="43.7983579" lon="11.389893"><ele>83.0</ele><time>2026-04-19T08:19:17.197Z</time></trkpt><trkpt lat="43.7985068" lon="11.3899727"><ele>83.0</ele><time>2026-04-19T08:19:18.196Z</time></trkpt><trkpt lat="43.7986574" lon="11.3900836"><ele>82.66666666666667</ele><time>2026-04-19T08:19:19.191Z</time></trkpt><trkpt lat="43.7988161" lon="11.3902064"><ele>82.33333333333333</ele><time>2026-04-19T08:19:20.198Z</time></trkpt><trkpt lat="43.7989769" lon="11.3903088"><ele>82.0</ele><time>2026-04-19T08:19:21.195Z</time></trkpt><trkpt lat="43.7991355" lon="11.3904093"><ele>82.0</ele><time>2026-04-19T08:19:22.191Z</time></trkpt><trkpt lat="43.7992878" lon="11.3904929"><ele>82.0</ele><time>2026-04-19T08:19:23.191Z</time></trkpt><trkpt lat="43.7994446" lon="11.3905649"><ele>82.0</ele><time>2026-04-19T08:19:24.194Z</time></trkpt><trkpt lat="43.7996073" lon="11.3906237"><ele>87.66666666666666</ele><time>2026-04-19T08:19:25.197Z</time></trkpt><trkpt lat="43.7997732" lon="11.39066"><ele>93.33333333333333</ele><time>2026-04-19T08:19:26.194Z</time></trkpt><trkpt lat="43.7999361" lon="11.3906635"><ele>99.0</ele><time>2026-04-19T08:19:27.198Z</time></trkpt><trkpt lat="43.8000804" lon="11.3906536"><ele>98.0</ele><time>2026-04-19T08:19:28.196Z</time></trkpt><trkpt lat="43.8002066" lon="11.3906285"><ele>97.0</ele><time>2026-04-19T08:19:29.176Z</time></trkpt><trkpt lat="43.8003288" lon="11.3905831"><ele>96.0</ele><time>2026-04-19T08:19:30.196Z</time></trkpt><trkpt lat="43.8004474" lon="11.3905213"><ele>95.0</ele><time>2026-04-19T08:19:31.197Z</time></trkpt><trkpt lat="43.8005578" lon="11.3904321"><ele>95.0</ele><time>2026-04-19T08:19:32.182Z</time></trkpt><trkpt lat="43.8006655" lon="11.3903249"><ele>95.0</ele><time>2026-04-19T08:19:33.196Z</time></trkpt><trkpt lat="43.8007722" lon="11.3902221"><ele>95.0</ele><time>2026-04-19T08:19:34.206Z</time></trkpt><trkpt lat="43.80087" lon="11.390109"><ele>95.0</ele><time>2026-04-19T08:19:35.19Z</time></trkpt><trkpt lat="43.8009749" lon="11.3900167"><ele>94.6</ele><time>2026-04-19T08:19:36.189Z</time></trkpt><trkpt lat="43.8010928" lon="11.3899515"><ele>94.2</ele><time>2026-04-19T08:19:37.194Z</time></trkpt><trkpt lat="43.8011976" lon="11.3899275"><ele>93.80000000000001</ele><time>2026-04-19T08:19:38.198Z</time></trkpt><trkpt lat="43.8012907" lon="11.389923"><ele>93.4</ele><time>2026-04-19T08:19:39.184Z</time></trkpt><trkpt lat="43.801371" lon="11.3899523"><ele>93.0</ele><time>2026-04-19T08:19:40.198Z</time></trkpt><trkpt lat="43.8014571" lon="11.3900069"><ele>93.0</ele><time>2026-04-19T08:19:41.187Z</time></trkpt><trkpt lat="43.801565" lon="11.3900855"><ele>93.0</ele><time>2026-04-19T08:19:42.193Z</time></trkpt><trkpt lat="43.8016725" lon="11.3901704"><ele>93.0</ele><time>2026-04-19T08:19:43.197Z</time></trkpt><trkpt lat="43.8017968" lon="11.3902641"><ele>93.0</ele><time>2026-04-19T08:19:44.195Z</time></trkpt><trkpt lat="43.801922" lon="11.3903814"><ele>92.75</ele><time>2026-04-19T08:19:45.191Z</time></trkpt><trkpt lat="43.8020411" lon="11.3905087"><ele>92.5</ele><time>2026-04-19T08:19:46.201Z</time></trkpt><trkpt lat="43.8021529" lon="11.3906333"><ele>92.25</ele><time>2026-04-19T08:19:47.193Z</time></trkpt><trkpt lat="43.8022507" lon="11.3907552"><ele>92.0</ele><time>2026-04-19T08:19:48.204Z</time></trkpt><trkpt lat="43.80233" lon="11.3908608"><ele>92.0</ele><time>2026-04-19T08:19:49.179Z</time></trkpt><trkpt lat="43.8023998" lon="11.3909387"><ele>92.0</ele><time>2026-04-19T08:19:50.188Z</time></trkpt><trkpt lat="43.802477" lon="11.3909857"><ele>92.0</ele><time>2026-04-19T08:19:51.202Z</time></trkpt><trkpt lat="43.8025668" lon="11.3909969"><ele>92.0</ele><time>2026-04-19T08:19:52.206Z</time></trkpt><trkpt lat="43.8026601" lon="11.390976"><ele>92.0</ele><time>2026-04-19T08:19:53.181Z</time></trkpt><trkpt lat="43.8027613" lon="11.3909552"><ele>91.6</ele><time>2026-04-19T08:19:54.183Z</time></trkpt><trkpt lat="43.8028779" lon="11.3909535"><ele>91.19999999999999</ele><time>2026-04-19T08:19:55.196Z</time></trkpt><trkpt lat="43.8029945" lon="11.390955"><ele>90.8</ele><time>2026-04-19T08:19:56.193Z</time></trkpt><trkpt lat="43.803095" lon="11.3909547"><ele>90.4</ele><time>2026-04-19T08:19:57.195Z</time></trkpt><trkpt lat="43.8031865" lon="11.390961"><ele>90.0</ele><time>2026-04-19T08:19:58.188Z</time></trkpt><trkpt lat="43.8032861" lon="11.3909829"><ele>90.0</ele><time>2026-04-19T08:19:59.195Z</time></trkpt><trkpt lat="43.8033936" lon="11.3910192"><ele>90.0</ele><time>2026-04-19T08:20:00.192Z</time></trkpt><trkpt lat="43.8035137" lon="11.3910681"><ele>90.0</ele><time>2026-04-19T08:20:01.2Z</time></trkpt><trkpt lat="43.803639" lon="11.3911414"><ele>90.0</ele><time>2026-04-19T08:20:02.197Z</time></trkpt><trkpt lat="43.803772" lon="11.3912322"><ele>90.66666666666667</ele><time>2026-04-19T08:20:03.196Z</time></trkpt><trkpt lat="43.8039155" lon="11.391346"><ele>91.33333333333334</ele><time>2026-04-19T08:20:04.195Z</time></trkpt><trkpt lat="43.8040649" lon="11.3914696"><ele>92.0</ele><time>2026-04-19T08:20:05.194Z</time></trkpt><trkpt lat="43.8042203" lon="11.3915992"><ele>95.66666666666667</ele><time>2026-04-19T08:20:06.179Z</time></trkpt><trkpt lat="43.8043723" lon="11.3917357"><ele>99.33333333333334</ele><time>2026-04-19T08:20:07.194Z</time></trkpt><trkpt lat="43.8045269" lon="11.3918744"><ele>103.0</ele><time>2026-04-19T08:20:08.191Z</time></trkpt><trkpt lat="43.8046886" lon="11.3920215"><ele>103.66666666666667</ele><time>2026-04-19T08:20:09.201Z</time></trkpt><trkpt lat="43.8048552" lon="11.3921776"><ele>104.33333333333334</ele><time>2026-04-19T08:20:10.192Z</time></trkpt><trkpt lat="43.8050264" lon="11.3923226"><ele>105.0</ele><time>2026-04-19T08:20:11.195Z</time></trkpt><trkpt lat="43.8052076" lon="11.3924504"><ele>105.0</ele><time>2026-04-19T08:20:12.197Z</time></trkpt><trkpt lat="43.8053979" lon="11.3925563"><ele>105.0</ele><time>2026-04-19T08:20:13.197Z</time></trkpt><trkpt lat="43.805598" lon="11.3926458"><ele>105.0</ele><time>2026-04-19T08:20:14.201Z</time></trkpt><trkpt lat="43.8058073" lon="11.3927178"><ele>107.66666666666666</ele><time>2026-04-19T08:20:15.198Z</time></trkpt><trkpt lat="43.8060192" lon="11.392784"><ele>110.33333333333333</ele><time>2026-04-19T08:20:16.196Z</time></trkpt><trkpt lat="43.8062233" lon="11.3928441"><ele>113.0</ele><time>2026-04-19T08:20:17.2Z</time></trkpt><trkpt lat="43.8064148" lon="11.3929032"><ele>113.0</ele><time>2026-04-19T08:20:18.198Z</time></trkpt><trkpt lat="43.8065969" lon="11.3929536"><ele>113.0</ele><time>2026-04-19T08:20:19.193Z</time></trkpt><trkpt lat="43.8067939" lon="11.3929917"><ele>113.0</ele><time>2026-04-19T08:20:20.207Z</time></trkpt><trkpt lat="43.8069984" lon="11.3929971"><ele>112.66666666666666</ele><time>2026-04-19T08:20:21.198Z</time></trkpt><trkpt lat="43.8072063" lon="11.3929776"><ele>112.33333333333334</ele><time>2026-04-19T08:20:22.197Z</time></trkpt><trkpt lat="43.8074001" lon="11.3929516"><ele>112.0</ele><time>2026-04-19T08:20:23.193Z</time></trkpt><trkpt lat="43.8075638" lon="11.3929302"><ele>110.66666666666667</ele><time>2026-04-19T08:20:24.197Z</time></trkpt><trkpt lat="43.8077163" lon="11.3929389"><ele>109.33333333333334</ele><time>2026-04-19T08:20:25.193Z</time></trkpt><trkpt lat="43.8078763" lon="11.3929663"><ele>108.0</ele><time>2026-04-19T08:20:26.191Z</time></trkpt><trkpt lat="43.8080464" lon="11.3930249"><ele>105.0</ele><time>2026-04-19T08:20:27.192Z</time></trkpt><trkpt lat="43.808214" lon="11.3931334"><ele>102.0</ele><time>2026-04-19T08:20:28.192Z</time></trkpt><trkpt lat="43.8083815" lon="11.3932834"><ele>99.0</ele><time>2026-04-19T08:20:29.191Z</time></trkpt><trkpt lat="43.808544" lon="11.3934489"><ele>101.0</ele><time>2026-04-19T08:20:30.184Z</time></trkpt><trkpt lat="43.8087038" lon="11.3936389"><ele>103.0</ele><time>2026-04-19T08:20:31.175Z</time></trkpt><trkpt lat="43.8088617" lon="11.3938419"><ele>105.0</ele><time>2026-04-19T08:20:32.189Z</time></trkpt><trkpt lat="43.809012" lon="11.3940439"><ele>105.0</ele><time>2026-04-19T08:20:33.185Z</time></trkpt><trkpt lat="43.809155" lon="11.3942813"><ele>105.0</ele><time>2026-04-19T08:20:34.193Z</time></trkpt><trkpt lat="43.8092734" lon="11.394537"><ele>105.0</ele><time>2026-04-19T08:20:35.189Z</time></trkpt><trkpt lat="43.8093776" lon="11.3947994"><ele>107.33333333333334</ele><time>2026-04-19T08:20:36.194Z</time></trkpt><trkpt lat="43.8094665" lon="11.3950785"><ele>109.66666666666667</ele><time>2026-04-19T08:20:37.198Z</time></trkpt><trkpt lat="43.80954" lon="11.3953718"><ele>112.0</ele><time>2026-04-19T08:20:38.2Z</time></trkpt><trkpt lat="43.8095923" lon="11.3956859"><ele>112.0</ele><time>2026-04-19T08:20:39.181Z</time></trkpt><trkpt lat="43.809636" lon="11.3959915"><ele>112.0</ele><time>2026-04-19T08:20:40.184Z</time></trkpt><trkpt lat="43.8096738" lon="11.3962813"><ele>112.0</ele><time>2026-04-19T08:20:41.19Z</time></trkpt><trkpt lat="43.8097288" lon="11.3965541"><ele>110.66666666666667</ele><time>2026-04-19T08:20:42.192Z</time></trkpt><trkpt lat="43.8098012" lon="11.3968077"><ele>109.33333333333334</ele><time>2026-04-19T08:20:43.19Z</time></trkpt><trkpt lat="43.809894" lon="11.3970399"><ele>108.0</ele><time>2026-04-19T08:20:44.204Z</time></trkpt><trkpt lat="43.8100067" lon="11.3972596"><ele>109.0</ele><time>2026-04-19T08:20:45.198Z</time></trkpt><trkpt lat="43.8101344" lon="11.3974539"><ele>110.0</ele><time>2026-04-19T08:20:46.193Z</time></trkpt><trkpt lat="43.8102983" lon="11.3975895"><ele>111.0</ele><time>2026-04-19T08:20:47.197Z</time></trkpt><trkpt lat="43.8104873" lon="11.397688"><ele>111.0</ele><time>2026-04-19T08:20:48.206Z</time></trkpt><trkpt lat="43.8106923" lon="11.3977615"><ele>111.0</ele><time>2026-04-19T08:20:49.186Z</time></trkpt><trkpt lat="43.8109015" lon="11.3978104"><ele>111.0</ele><time>2026-04-19T08:20:50.188Z</time></trkpt><trkpt lat="43.8111218" lon="11.3978628"><ele>113.33333333333334</ele><time>2026-04-19T08:20:51.193Z</time></trkpt><trkpt lat="43.8113416" lon="11.3978932"><ele>115.66666666666667</ele><time>2026-04-19T08:20:52.19Z</time></trkpt><trkpt lat="43.8115598" lon="11.3979133"><ele>118.0</ele><time>2026-04-19T08:20:53.195Z</time></trkpt><trkpt lat="43.8117669" lon="11.397935"><ele>116.66666666666667</ele><time>2026-04-19T08:20:54.192Z</time></trkpt><trkpt lat="43.8119614" lon="11.3979585"><ele>115.33333333333334</ele><time>2026-04-19T08:20:55.201Z</time></trkpt><trkpt lat="43.8121505" lon="11.3979843"><ele>114.0</ele><time>2026-04-19T08:20:56.196Z</time></trkpt><trkpt lat="43.8123511" lon="11.3979775"><ele>114.0</ele><time>2026-04-19T08:20:57.175Z</time></trkpt><trkpt lat="43.8125557" lon="11.3979221"><ele>114.0</ele><time>2026-04-19T08:20:58.182Z</time></trkpt><trkpt lat="43.8127551" lon="11.3978453"><ele>114.0</ele><time>2026-04-19T08:20:59.175Z</time></trkpt><trkpt lat="43.8129424" lon="11.3977489"><ele>111.33333333333334</ele><time>2026-04-19T08:21:00.201Z</time></trkpt><trkpt lat="43.8131228" lon="11.3976209"><ele>108.66666666666667</ele><time>2026-04-19T08:21:01.203Z</time></trkpt><trkpt lat="43.8132927" lon="11.3974746"><ele>106.0</ele><time>2026-04-19T08:21:02.186Z</time></trkpt><trkpt lat="43.8134513" lon="11.3973229"><ele>107.33333333333334</ele><time>2026-04-19T08:21:03.182Z</time></trkpt><trkpt lat="43.8136033" lon="11.3971888"><ele>108.66666666666666</ele><time>2026-04-19T08:21:04.181Z</time></trkpt><trkpt lat="43.8137506" lon="11.3970544"><ele>110.0</ele><time>2026-04-19T08:21:05.186Z</time></trkpt><trkpt lat="43.8138989" lon="11.3969037"><ele>110.0</ele><time>2026-04-19T08:21:06.174Z</time></trkpt><trkpt lat="43.8140495" lon="11.3967608"><ele>110.0</ele><time>2026-04-19T08:21:07.192Z</time></trkpt><trkpt lat="43.8141986" lon="11.396607"><ele>110.0</ele><time>2026-04-19T08:21:08.193Z</time></trkpt><trkpt lat="43.8143425" lon="11.396457"><ele>110.33333333333333</ele><time>2026-04-19T08:21:09.194Z</time></trkpt><trkpt lat="43.8144852" lon="11.3963084"><ele>110.66666666666666</ele><time>2026-04-19T08:21:10.187Z</time></trkpt><trkpt lat="43.814632" lon="11.3961587"><ele>111.0</ele><time>2026-04-19T08:21:11.189Z</time></trkpt><trkpt lat="43.8147859" lon="11.3960062"><ele>111.0</ele><time>2026-04-19T08:21:12.197Z</time></trkpt><trkpt lat="43.8149396" lon="11.3958544"><ele>111.0</ele><time>2026-04-19T08:21:13.196Z</time></trkpt><trkpt lat="43.8150887" lon="11.3956957"><ele>111.0</ele><time>2026-04-19T08:21:14.195Z</time></trkpt><trkpt lat="43.8152364" lon="11.3955378"><ele>111.66666666666666</ele><time>2026-04-19T08:21:15.193Z</time></trkpt><trkpt lat="43.815382" lon="11.395378"><ele>112.33333333333333</ele><time>2026-04-19T08:21:16.189Z</time></trkpt><trkpt lat="43.8155286" lon="11.3952259"><ele>113.0</ele><time>2026-04-19T08:21:17.2Z</time></trkpt><trkpt lat="43.815681" lon="11.3950704"><ele>113.0</ele><time>2026-04-19T08:21:18.191Z</time></trkpt><trkpt lat="43.8158249" lon="11.3949193"><ele>113.0</ele><time>2026-04-19T08:21:19.199Z</time></trkpt><trkpt lat="43.8159588" lon="11.3947745"><ele>113.0</ele><time>2026-04-19T08:21:20.184Z</time></trkpt><trkpt lat="43.8160859" lon="11.3946477"><ele>113.66666666666666</ele><time>2026-04-19T08:21:21.175Z</time></trkpt><trkpt lat="43.8162208" lon="11.3945302"><ele>114.33333333333334</ele><time>2026-04-19T08:21:22.197Z</time></trkpt><trkpt lat="43.8163612" lon="11.394408"><ele>115.0</ele><time>2026-04-19T08:21:23.192Z</time></trkpt><trkpt lat="43.8165001" lon="11.3942977"><ele>115.0</ele><time>2026-04-19T08:21:24.196Z</time></trkpt><trkpt lat="43.8166292" lon="11.394189"><ele>115.0</ele><time>2026-04-19T08:21:25.193Z</time></trkpt><trkpt lat="43.816751" lon="11.3940987"><ele>115.0</ele><time>2026-04-19T08:21:26.188Z</time></trkpt><trkpt lat="43.8168819" lon="11.3940324"><ele>115.0</ele><time>2026-04-19T08:21:27.189Z</time></trkpt><trkpt lat="43.8170245" lon="11.3939934"><ele>115.66666666666667</ele><time>2026-04-19T08:21:28.192Z</time></trkpt><trkpt lat="43.8171789" lon="11.3939739"><ele>116.33333333333334</ele><time>2026-04-19T08:21:29.194Z</time></trkpt><trkpt lat="43.8173456" lon="11.3939655"><ele>117.0</ele><time>2026-04-19T08:21:30.177Z</time></trkpt><trkpt lat="43.8175135" lon="11.3939671"><ele>117.33333333333334</ele><time>2026-04-19T08:21:31.199Z</time></trkpt><trkpt lat="43.8176826" lon="11.3939587"><ele>117.66666666666667</ele><time>2026-04-19T08:21:32.194Z</time></trkpt><trkpt lat="43.8178385" lon="11.393939"><ele>118.0</ele><time>2026-04-19T08:21:33.197Z</time></trkpt><trkpt lat="43.8179852" lon="11.3938879"><ele>116.33333333333334</ele><time>2026-04-19T08:21:34.193Z</time></trkpt><trkpt lat="43.8181324" lon="11.3937947"><ele>114.66666666666666</ele><time>2026-04-19T08:21:35.188Z</time></trkpt><trkpt lat="43.8182743" lon="11.3936594"><ele>113.0</ele><time>2026-04-19T08:21:36.205Z</time></trkpt><trkpt lat="43.818418" lon="11.3935014"><ele>114.0</ele><time>2026-04-19T08:21:37.191Z</time></trkpt><trkpt lat="43.8185683" lon="11.3933411"><ele>115.0</ele><time>2026-04-19T08:21:38.193Z</time></trkpt><trkpt lat="43.8187188" lon="11.3931908"><ele>116.0</ele><time>2026-04-19T08:21:39.187Z</time></trkpt><trkpt lat="43.8188645" lon="11.3930478"><ele>115.66666666666666</ele><time>2026-04-19T08:21:40.196Z</time></trkpt><trkpt lat="43.8190116" lon="11.3929135"><ele>115.33333333333334</ele><time>2026-04-19T08:21:41.191Z</time></trkpt><trkpt lat="43.8191745" lon="11.392793"><ele>115.0</ele><time>2026-04-19T08:21:42.192Z</time></trkpt><trkpt lat="43.8193505" lon="11.3926909"><ele>115.0</ele><time>2026-04-19T08:21:43.196Z</time></trkpt><trkpt lat="43.8195408" lon="11.39263"><ele>115.0</ele><time>2026-04-19T08:21:44.196Z</time></trkpt><trkpt lat="43.8197409" lon="11.3925898"><ele>115.0</ele><time>2026-04-19T08:21:45.195Z</time></trkpt><trkpt lat="43.8199458" lon="11.3925565"><ele>115.33333333333334</ele><time>2026-04-19T08:21:46.19Z</time></trkpt><trkpt lat="43.8201555" lon="11.3925175"><ele>115.66666666666666</ele><time>2026-04-19T08:21:47.2Z</time></trkpt><trkpt lat="43.820366" lon="11.392481"><ele>116.0</ele><time>2026-04-19T08:21:48.193Z</time></trkpt><trkpt lat="43.8205779" lon="11.3924587"><ele>116.0</ele><time>2026-04-19T08:21:49.195Z</time></trkpt><trkpt lat="43.8207832" lon="11.3924375"><ele>116.0</ele><time>2026-04-19T08:21:50.177Z</time></trkpt><trkpt lat="43.8209761" lon="11.3924256"><ele>116.0</ele><time>2026-04-19T08:21:51.189Z</time></trkpt><trkpt lat="43.8211558" lon="11.3924331"><ele>116.33333333333333</ele><time>2026-04-19T08:21:52.197Z</time></trkpt><trkpt lat="43.8213331" lon="11.3924367"><ele>116.66666666666666</ele><time>2026-04-19T08:21:53.19Z</time></trkpt><trkpt lat="43.821519" lon="11.3923877"><ele>117.0</ele><time>2026-04-19T08:21:54.195Z</time></trkpt><trkpt lat="43.8217048" lon="11.392313"><ele>117.66666666666666</ele><time>2026-04-19T08:21:55.194Z</time></trkpt><trkpt lat="43.8218901" lon="11.3922313"><ele>118.33333333333333</ele><time>2026-04-19T08:21:56.186Z</time></trkpt><trkpt lat="43.8220768" lon="11.3921385"><ele>119.0</ele><time>2026-04-19T08:21:57.19Z</time></trkpt><trkpt lat="43.8222624" lon="11.3920093"><ele>119.0</ele><time>2026-04-19T08:21:58.192Z</time></trkpt><trkpt lat="43.8224402" lon="11.3918594"><ele>119.0</ele><time>2026-04-19T08:21:59.193Z</time></trkpt><trkpt lat="43.8226056" lon="11.3917288"><ele>119.0</ele><time>2026-04-19T08:22:00.189Z</time></trkpt><trkpt lat="43.8227917" lon="11.3916297"><ele>120.33333333333333</ele><time>2026-04-19T08:22:01.19Z</time></trkpt><trkpt lat="43.8229898" lon="11.3915548"><ele>121.66666666666666</ele><time>2026-04-19T08:22:02.2Z</time></trkpt><trkpt lat="43.8231706" lon="11.3914851"><ele>123.0</ele><time>2026-04-19T08:22:03.187Z</time></trkpt><trkpt lat="43.8233424" lon="11.3914087"><ele>124.66666666666666</ele><time>2026-04-19T08:22:04.196Z</time></trkpt><trkpt lat="43.8235054" lon="11.391298"><ele>126.33333333333333</ele><time>2026-04-19T08:22:05.194Z</time></trkpt><trkpt lat="43.8236646" lon="11.3911563"><ele>128.0</ele><time>2026-04-19T08:22:06.191Z</time></trkpt><trkpt lat="43.8238229" lon="11.3909817"><ele>128.0</ele><time>2026-04-19T08:22:07.207Z</time></trkpt><trkpt lat="43.8239865" lon="11.3908027"><ele>128.0</ele><time>2026-04-19T08:22:08.199Z</time></trkpt><trkpt lat="43.824152" lon="11.390627"><ele>128.0</ele><time>2026-04-19T08:22:09.205Z</time></trkpt><trkpt lat="43.8243134" lon="11.3904453"><ele>127.0</ele><time>2026-04-19T08:22:10.205Z</time></trkpt><trkpt lat="43.8244767" lon="11.3902653"><ele>126.0</ele><time>2026-04-19T08:22:11.196Z</time></trkpt><trkpt lat="43.8246529" lon="11.3900847"><ele>125.0</ele><time>2026-04-19T08:22:12.199Z</time></trkpt><trkpt lat="43.8248289" lon="11.3899009"><ele>125.0</ele><time>2026-04-19T08:22:13.202Z</time></trkpt><trkpt lat="43.8250002" lon="11.3897334"><ele>125.0</ele><time>2026-04-19T08:22:14.198Z</time></trkpt><trkpt lat="43.8251533" lon="11.3895769"><ele>125.0</ele><time>2026-04-19T08:22:15.19Z</time></trkpt><trkpt lat="43.8252951" lon="11.3894455"><ele>125.5</ele><time>2026-04-19T08:22:16.183Z</time></trkpt><trkpt lat="43.8254153" lon="11.3893364"><ele>126.0</ele><time>2026-04-19T08:22:17.197Z</time></trkpt><trkpt lat="43.8255134" lon="11.3892289"><ele>126.5</ele><time>2026-04-19T08:22:18.196Z</time></trkpt><trkpt lat="43.8255962" lon="11.3891167"><ele>127.0</ele><time>2026-04-19T08:22:19.202Z</time></trkpt><trkpt lat="43.8256731" lon="11.3889897"><ele>127.5</ele><time>2026-04-19T08:22:20.191Z</time></trkpt><trkpt lat="43.8257522" lon="11.3888408"><ele>128.0</ele><time>2026-04-19T08:22:21.196Z</time></trkpt><trkpt lat="43.825846" lon="11.3886824"><ele>128.5</ele><time>2026-04-19T08:22:22.193Z</time></trkpt><trkpt lat="43.8259413" lon="11.3885159"><ele>129.0</ele><time>2026-04-19T08:22:23.187Z</time></trkpt><trkpt lat="43.8260402" lon="11.3883417"><ele>132.0</ele><time>2026-04-19T08:22:24.207Z</time></trkpt><trkpt lat="43.8261417" lon="11.3881648"><ele>135.0</ele><time>2026-04-19T08:22:25.195Z</time></trkpt><trkpt lat="43.8262466" lon="11.387979"><ele>138.0</ele><time>2026-04-19T08:22:26.198Z</time></trkpt><trkpt lat="43.8263566" lon="11.3877794"><ele>138.0</ele><time>2026-04-19T08:22:27.188Z</time></trkpt><trkpt lat="43.8264716" lon="11.3875687"><ele>138.0</ele><time>2026-04-19T08:22:28.19Z</time></trkpt><trkpt lat="43.8265869" lon="11.3873599"><ele>138.0</ele><time>2026-04-19T08:22:29.194Z</time></trkpt><trkpt lat="43.8267059" lon="11.387141"><ele>140.0</ele><time>2026-04-19T08:22:30.196Z</time></trkpt><trkpt lat="43.8268291" lon="11.3869253"><ele>142.0</ele><time>2026-04-19T08:22:31.197Z</time></trkpt><trkpt lat="43.8269513" lon="11.386704"><ele>144.0</ele><time>2026-04-19T08:22:32.19Z</time></trkpt><trkpt lat="43.8270818" lon="11.3864704"><ele>141.66666666666666</ele><time>2026-04-19T08:22:33.189Z</time></trkpt><trkpt lat="43.8272141" lon="11.3862333"><ele>139.33333333333331</ele><time>2026-04-19T08:22:34.192Z</time></trkpt><trkpt lat="43.8273507" lon="11.3859862"><ele>137.0</ele><time>2026-04-19T08:22:35.192Z</time></trkpt><trkpt lat="43.827492" lon="11.3857376"><ele>135.5</ele><time>2026-04-19T08:22:36.194Z</time></trkpt><trkpt lat="43.8276379" lon="11.3854847"><ele>134.0</ele><time>2026-04-19T08:22:37.192Z</time></trkpt><trkpt lat="43.8277836" lon="11.3852255"><ele>139.5</ele><time>2026-04-19T08:22:38.189Z</time></trkpt><trkpt lat="43.8279288" lon="11.384971"><ele>145.0</ele><time>2026-04-19T08:22:39.186Z</time></trkpt><trkpt lat="43.828079" lon="11.3847137"><ele>141.5</ele><time>2026-04-19T08:22:40.19Z</time></trkpt><trkpt lat="43.8282267" lon="11.3844592"><ele>138.0</ele><time>2026-04-19T08:22:41.193Z</time></trkpt><trkpt lat="43.8283583" lon="11.3842184"><ele>138.0</ele><time>2026-04-19T08:22:42.189Z</time></trkpt><trkpt lat="43.8284735" lon="11.3840077"><ele>138.0</ele><time>2026-04-19T08:22:43.194Z</time></trkpt><trkpt lat="43.8285835" lon="11.383826"><ele>138.0</ele><time>2026-04-19T08:22:44.19Z</time></trkpt><trkpt lat="43.8286882" lon="11.3836551"><ele>140.0</ele><time>2026-04-19T08:22:45.196Z</time></trkpt><trkpt lat="43.8287868" lon="11.3834928"><ele>142.0</ele><time>2026-04-19T08:22:46.195Z</time></trkpt><trkpt lat="43.8289009" lon="11.3833446"><ele>144.0</ele><time>2026-04-19T08:22:47.193Z</time></trkpt><trkpt lat="43.8290292" lon="11.3832188"><ele>144.0</ele><time>2026-04-19T08:22:48.199Z</time></trkpt><trkpt lat="43.8291767" lon="11.3831194"><ele>144.0</ele><time>2026-04-19T08:22:49.195Z</time></trkpt><trkpt lat="43.829341" lon="11.383032"><ele>144.0</ele><time>2026-04-19T08:22:50.2Z</time></trkpt><trkpt lat="43.8295146" lon="11.3829568"><ele>144.66666666666666</ele><time>2026-04-19T08:22:51.197Z</time></trkpt><trkpt lat="43.8296995" lon="11.3828775"><ele>145.33333333333331</ele><time>2026-04-19T08:22:52.201Z</time></trkpt><trkpt lat="43.8298897" lon="11.3828087"><ele>146.0</ele><time>2026-04-19T08:22:53.19Z</time></trkpt><trkpt lat="43.8300856" lon="11.3827401"><ele>147.0</ele><time>2026-04-19T08:22:54.191Z</time></trkpt><trkpt lat="43.8302842" lon="11.382664"><ele>148.0</ele><time>2026-04-19T08:22:55.192Z</time></trkpt><trkpt lat="43.8304851" lon="11.382588"><ele>149.0</ele><time>2026-04-19T08:22:56.188Z</time></trkpt><trkpt lat="43.8306901" lon="11.3825104"><ele>149.0</ele><time>2026-04-19T08:22:57.192Z</time></trkpt><trkpt lat="43.8309029" lon="11.3824316"><ele>149.0</ele><time>2026-04-19T08:22:58.189Z</time></trkpt><trkpt lat="43.8311121" lon="11.3823576"><ele>149.0</ele><time>2026-04-19T08:22:59.194Z</time></trkpt><trkpt lat="43.8313197" lon="11.3822806"><ele>149.0</ele><time>2026-04-19T08:23:00.187Z</time></trkpt><trkpt lat="43.8315177" lon="11.3822133"><ele>149.0</ele><time>2026-04-19T08:23:01.195Z</time></trkpt><trkpt lat="43.8316977" lon="11.3821431"><ele>149.0</ele><time>2026-04-19T08:23:02.185Z</time></trkpt><trkpt lat="43.8318649" lon="11.3820842"><ele>149.66666666666666</ele><time>2026-04-19T08:23:03.192Z</time></trkpt><trkpt lat="43.8320147" lon="11.3820339"><ele>150.33333333333334</ele><time>2026-04-19T08:23:04.194Z</time></trkpt><trkpt lat="43.8321591" lon="11.3820125"><ele>151.0</ele><time>2026-04-19T08:23:05.202Z</time></trkpt><trkpt lat="43.8323143" lon="11.382024"><ele>151.0</ele><time>2026-04-19T08:23:06.189Z</time></trkpt><trkpt lat="43.8324767" lon="11.3820799"><ele>151.0</ele><time>2026-04-19T08:23:07.196Z</time></trkpt><trkpt lat="43.8326353" lon="11.3821595"><ele>151.0</ele><time>2026-04-19T08:23:08.198Z</time></trkpt><trkpt lat="43.8327866" lon="11.3822347"><ele>155.66666666666669</ele><time>2026-04-19T08:23:09.201Z</time></trkpt><trkpt lat="43.8329341" lon="11.3822902"><ele>160.33333333333334</ele><time>2026-04-19T08:23:10.198Z</time></trkpt><trkpt lat="43.8330817" lon="11.3823418"><ele>165.0</ele><time>2026-04-19T08:23:11.197Z</time></trkpt><trkpt lat="43.833233" lon="11.3823614"><ele>165.0</ele><time>2026-04-19T08:23:12.196Z</time></trkpt><trkpt lat="43.8334066" lon="11.3823356"><ele>165.0</ele><time>2026-04-19T08:23:13.194Z</time></trkpt><trkpt lat="43.8335862" lon="11.382265"><ele>165.0</ele><time>2026-04-19T08:23:14.196Z</time></trkpt><trkpt lat="43.8337748" lon="11.3821969"><ele>162.66666666666666</ele><time>2026-04-19T08:23:15.196Z</time></trkpt><trkpt lat="43.833968" lon="11.38213"><ele>160.33333333333331</ele><time>2026-04-19T08:23:16.198Z</time></trkpt><trkpt lat="43.8341526" lon="11.3820665"><ele>158.0</ele><time>2026-04-19T08:23:17.194Z</time></trkpt><trkpt lat="43.8343359" lon="11.3820011"><ele>158.0</ele><time>2026-04-19T08:23:18.197Z</time></trkpt><trkpt lat="43.8345204" lon="11.38194"><ele>158.0</ele><time>2026-04-19T08:23:19.198Z</time></trkpt><trkpt lat="43.8347012" lon="11.3818805"><ele>158.0</ele><time>2026-04-19T08:23:20.195Z</time></trkpt><trkpt lat="43.8348721" lon="11.3818253"><ele>158.0</ele><time>2026-04-19T08:23:21.196Z</time></trkpt><trkpt lat="43.8350291" lon="11.381773"><ele>158.0</ele><time>2026-04-19T08:23:22.196Z</time></trkpt><trkpt lat="43.8351809" lon="11.3817214"><ele>158.0</ele><time>2026-04-19T08:23:23.19Z</time></trkpt><trkpt lat="43.8353256" lon="11.381656"><ele>158.25</ele><time>2026-04-19T08:23:24.195Z</time></trkpt><trkpt lat="43.8354602" lon="11.3815747"><ele>158.5</ele><time>2026-04-19T08:23:25.192Z</time></trkpt><trkpt lat="43.8355868" lon="11.3814943"><ele>158.75</ele><time>2026-04-19T08:23:26.175Z</time></trkpt><trkpt lat="43.8357084" lon="11.3814106"><ele>159.0</ele><time>2026-04-19T08:23:27.176Z</time></trkpt><trkpt lat="43.8358301" lon="11.3813194"><ele>159.0</ele><time>2026-04-19T08:23:28.183Z</time></trkpt><trkpt lat="43.8359568" lon="11.3812308"><ele>159.0</ele><time>2026-04-19T08:23:29.194Z</time></trkpt><trkpt lat="43.8360792" lon="11.3811428"><ele>159.0</ele><time>2026-04-19T08:23:30.192Z</time></trkpt><trkpt lat="43.8361981" lon="11.381057"><ele>159.0</ele><time>2026-04-19T08:23:31.188Z</time></trkpt><trkpt lat="43.8363173" lon="11.3809677"><ele>160.0</ele><time>2026-04-19T08:23:32.197Z</time></trkpt><trkpt lat="43.8364397" lon="11.3808773"><ele>161.0</ele><time>2026-04-19T08:23:33.198Z</time></trkpt><trkpt lat="43.8365667" lon="11.3807856"><ele>162.0</ele><time>2026-04-19T08:23:34.2Z</time></trkpt><trkpt lat="43.836698" lon="11.3806913"><ele>163.0</ele><time>2026-04-19T08:23:35.212Z</time></trkpt><trkpt lat="43.8368231" lon="11.3806028"><ele>163.25</ele><time>2026-04-19T08:23:36.209Z</time></trkpt><trkpt lat="43.8369397" lon="11.3805219"><ele>163.5</ele><time>2026-04-19T08:23:37.196Z</time></trkpt><trkpt lat="43.8370448" lon="11.3804489"><ele>163.75</ele><time>2026-04-19T08:23:38.201Z</time></trkpt><trkpt lat="43.8371457" lon="11.380382"><ele>164.0</ele><time>2026-04-19T08:23:39.197Z</time></trkpt><trkpt lat="43.8372431" lon="11.3803158"><ele>164.0</ele><time>2026-04-19T08:23:40.199Z</time></trkpt><trkpt lat="43.8373479" lon="11.3802459"><ele>164.0</ele><time>2026-04-19T08:23:41.205Z</time></trkpt><trkpt lat="43.8374569" lon="11.3801702"><ele>164.0</ele><time>2026-04-19T08:23:42.189Z</time></trkpt><trkpt lat="43.8375644" lon="11.3800911"><ele>164.0</ele><time>2026-04-19T08:23:43.197Z</time></trkpt><trkpt lat="43.8376669" lon="11.3800132"><ele>164.75</ele><time>2026-04-19T08:23:44.197Z</time></trkpt><trkpt lat="43.8377643" lon="11.3799345"><ele>165.5</ele><time>2026-04-19T08:23:45.189Z</time></trkpt><trkpt lat="43.8378634" lon="11.3798415"><ele>166.25</ele><time>2026-04-19T08:23:46.193Z</time></trkpt><trkpt lat="43.8379659" lon="11.3797391"><ele>167.0</ele><time>2026-04-19T08:23:47.191Z</time></trkpt><trkpt lat="43.838077" lon="11.379613"><ele>167.0</ele><time>2026-04-19T08:23:48.179Z</time></trkpt><trkpt lat="43.8381866" lon="11.3794732"><ele>167.0</ele><time>2026-04-19T08:23:49.193Z</time></trkpt><trkpt lat="43.8382972" lon="11.3793272"><ele>167.0</ele><time>2026-04-19T08:23:50.183Z</time></trkpt><trkpt lat="43.8384113" lon="11.3791707"><ele>168.66666666666666</ele><time>2026-04-19T08:23:51.192Z</time></trkpt><trkpt lat="43.8385246" lon="11.3790153"><ele>170.33333333333334</ele><time>2026-04-19T08:23:52.198Z</time></trkpt><trkpt lat="43.8386406" lon="11.3788598"><ele>172.0</ele><time>2026-04-19T08:23:53.202Z</time></trkpt><trkpt lat="43.8387522" lon="11.3787089"><ele>172.0</ele><time>2026-04-19T08:23:54.198Z</time></trkpt><trkpt lat="43.8388583" lon="11.3785705"><ele>172.0</ele><time>2026-04-19T08:23:55.2Z</time></trkpt><trkpt lat="43.8389633" lon="11.3784358"><ele>172.0</ele><time>2026-04-19T08:23:56.2Z</time></trkpt><trkpt lat="43.8390879" lon="11.3783072"><ele>172.0</ele><time>2026-04-19T08:23:57.199Z</time></trkpt><trkpt lat="43.8392175" lon="11.3781909"><ele>172.75</ele><time>2026-04-19T08:23:58.193Z</time></trkpt><trkpt lat="43.8393496" lon="11.3780831"><ele>173.5</ele><time>2026-04-19T08:23:59.203Z</time></trkpt><trkpt lat="43.8394698" lon="11.3779935"><ele>174.25</ele><time>2026-04-19T08:24:00.201Z</time></trkpt><trkpt lat="43.8396051" lon="11.3779216"><ele>175.0</ele><time>2026-04-19T08:24:01.194Z</time></trkpt><trkpt lat="43.8397538" lon="11.3778726"><ele>175.0</ele><time>2026-04-19T08:24:02.193Z</time></trkpt><trkpt lat="43.8399065" lon="11.3778471"><ele>175.0</ele><time>2026-04-19T08:24:03.194Z</time></trkpt><trkpt lat="43.8400516" lon="11.3778222"><ele>175.0</ele><time>2026-04-19T08:24:04.196Z</time></trkpt><trkpt lat="43.8401824" lon="11.3777781"><ele>175.0</ele><time>2026-04-19T08:24:05.206Z</time></trkpt><trkpt lat="43.8402986" lon="11.3777059"><ele>176.25</ele><time>2026-04-19T08:24:06.189Z</time></trkpt><trkpt lat="43.8404121" lon="11.3775961"><ele>177.5</ele><time>2026-04-19T08:24:07.188Z</time></trkpt><trkpt lat="43.8405081" lon="11.3774343"><ele>178.75</ele><time>2026-04-19T08:24:08.195Z</time></trkpt><trkpt lat="43.8406079" lon="11.3772728"><ele>180.0</ele><time>2026-04-19T08:24:09.178Z</time></trkpt><trkpt lat="43.8407061" lon="11.3771116"><ele>180.66666666666666</ele><time>2026-04-19T08:24:10.192Z</time></trkpt><trkpt lat="43.8408159" lon="11.3769423"><ele>181.33333333333331</ele><time>2026-04-19T08:24:11.188Z</time></trkpt><trkpt lat="43.84093" lon="11.3767623"><ele>182.0</ele><time>2026-04-19T08:24:12.209Z</time></trkpt><trkpt lat="43.8410461" lon="11.3765808"><ele>184.33333333333331</ele><time>2026-04-19T08:24:13.194Z</time></trkpt><trkpt lat="43.8411683" lon="11.3763961"><ele>186.66666666666666</ele><time>2026-04-19T08:24:14.195Z</time></trkpt><trkpt lat="43.8412967" lon="11.3762124"><ele>189.0</ele><time>2026-04-19T08:24:15.195Z</time></trkpt><trkpt lat="43.8414254" lon="11.3760375"><ele>189.0</ele><time>2026-04-19T08:24:16.193Z</time></trkpt><trkpt lat="43.8415502" lon="11.3758761"><ele>189.0</ele><time>2026-04-19T08:24:17.194Z</time></trkpt><trkpt lat="43.8416728" lon="11.3757137"><ele>189.0</ele><time>2026-04-19T08:24:18.182Z</time></trkpt><trkpt lat="43.8418024" lon="11.3755568"><ele>192.33333333333331</ele><time>2026-04-19T08:24:19.19Z</time></trkpt><trkpt lat="43.84194" lon="11.3754086"><ele>195.66666666666666</ele><time>2026-04-19T08:24:20.198Z</time></trkpt><trkpt lat="43.8420845" lon="11.3752649"><ele>199.0</ele><time>2026-04-19T08:24:21.194Z</time></trkpt><trkpt lat="43.8422324" lon="11.37514"><ele>199.0</ele><time>2026-04-19T08:24:22.198Z</time></trkpt><trkpt lat="43.842394" lon="11.3750379"><ele>199.0</ele><time>2026-04-19T08:24:23.181Z</time></trkpt><trkpt lat="43.8425619" lon="11.3749643"><ele>199.0</ele><time>2026-04-19T08:24:24.204Z</time></trkpt><trkpt lat="43.8427375" lon="11.3749048"><ele>203.33333333333331</ele><time>2026-04-19T08:24:25.201Z</time></trkpt><trkpt lat="43.8429164" lon="11.3748462"><ele>207.66666666666669</ele><time>2026-04-19T08:24:26.193Z</time></trkpt><trkpt lat="43.8430977" lon="11.3747886"><ele>212.0</ele><time>2026-04-19T08:24:27.193Z</time></trkpt><trkpt lat="43.8432875" lon="11.3747283"><ele>213.66666666666669</ele><time>2026-04-19T08:24:28.182Z</time></trkpt><trkpt lat="43.8434825" lon="11.3746578"><ele>215.33333333333331</ele><time>2026-04-19T08:24:29.194Z</time></trkpt><trkpt lat="43.8436809" lon="11.3745925"><ele>217.0</ele><time>2026-04-19T08:24:30.196Z</time></trkpt><trkpt lat="43.8438846" lon="11.3745252"><ele>217.0</ele><time>2026-04-19T08:24:31.191Z</time></trkpt><trkpt lat="43.8440942" lon="11.3744589"><ele>217.0</ele><time>2026-04-19T08:24:32.205Z</time></trkpt><trkpt lat="43.8443052" lon="11.3743827"><ele>217.0</ele><time>2026-04-19T08:24:33.197Z</time></trkpt><trkpt lat="43.8445179" lon="11.3743122"><ele>220.33333333333331</ele><time>2026-04-19T08:24:34.201Z</time></trkpt><trkpt lat="43.8447207" lon="11.3742473"><ele>223.66666666666669</ele><time>2026-04-19T08:24:35.2Z</time></trkpt><trkpt lat="43.8449023" lon="11.3741991"><ele>227.0</ele><time>2026-04-19T08:24:36.202Z</time></trkpt><trkpt lat="43.8450701" lon="11.3741538"><ele>231.33333333333334</ele><time>2026-04-19T08:24:37.191Z</time></trkpt><trkpt lat="43.8452291" lon="11.374075"><ele>235.66666666666669</ele><time>2026-04-19T08:24:38.202Z</time></trkpt><trkpt lat="43.8453824" lon="11.373962"><ele>240.0</ele><time>2026-04-19T08:24:39.2Z</time></trkpt><trkpt lat="43.8455356" lon="11.3738254"><ele>241.66666666666669</ele><time>2026-04-19T08:24:40.197Z</time></trkpt><trkpt lat="43.8456879" lon="11.3736834"><ele>243.33333333333334</ele><time>2026-04-19T08:24:41.198Z</time></trkpt><trkpt lat="43.8458425" lon="11.3735587"><ele>245.0</ele><time>2026-04-19T08:24:42.192Z</time></trkpt><trkpt lat="43.8460049" lon="11.3734738"><ele>248.66666666666669</ele><time>2026-04-19T08:24:43.187Z</time></trkpt><trkpt lat="43.8461699" lon="11.3734282"><ele>252.33333333333331</ele><time>2026-04-19T08:24:44.176Z</time></trkpt><trkpt lat="43.8463296" lon="11.3734284"><ele>256.0</ele><time>2026-04-19T08:24:45.187Z</time></trkpt><trkpt lat="43.8464576" lon="11.3734586"><ele>256.0</ele><time>2026-04-19T08:24:46.174Z</time></trkpt><trkpt lat="43.8465692" lon="11.3735193"><ele>256.0</ele><time>2026-04-19T08:24:47.191Z</time></trkpt><trkpt lat="43.8466653" lon="11.3736228"><ele>256.0</ele><time>2026-04-19T08:24:48.186Z</time></trkpt><trkpt lat="43.8467453" lon="11.3737671"><ele>256.0</ele><time>2026-04-19T08:24:49.173Z</time></trkpt><trkpt lat="43.8468349" lon="11.3739046"><ele>256.66666666666663</ele><time>2026-04-19T08:24:50.199Z</time></trkpt><trkpt lat="43.846962" lon="11.3740027"><ele>257.3333333333333</ele><time>2026-04-19T08:24:51.202Z</time></trkpt><trkpt lat="43.8471153" lon="11.3740637"><ele>258.0</ele><time>2026-04-19T08:24:52.173Z</time></trkpt><trkpt lat="43.8472926" lon="11.3740885"><ele>258.0</ele><time>2026-04-19T08:24:53.186Z</time></trkpt><trkpt lat="43.8474696" lon="11.3740926"><ele>258.0</ele><time>2026-04-19T08:24:54.177Z</time></trkpt><trkpt lat="43.8476489" lon="11.3741027"><ele>258.0</ele><time>2026-04-19T08:24:55.19Z</time></trkpt><trkpt lat="43.8478026" lon="11.3741119"><ele>258.8</ele><time>2026-04-19T08:24:56.179Z</time></trkpt><trkpt lat="43.8479318" lon="11.3741167"><ele>259.6</ele><time>2026-04-19T08:24:57.191Z</time></trkpt><trkpt lat="43.8480424" lon="11.3740994"><ele>260.4</ele><time>2026-04-19T08:24:58.186Z</time></trkpt><trkpt lat="43.8481314" lon="11.3740398"><ele>261.2</ele><time>2026-04-19T08:24:59.197Z</time></trkpt><trkpt lat="43.8482081" lon="11.3739497"><ele>262.0</ele><time>2026-04-19T08:25:00.195Z</time></trkpt><trkpt lat="43.848261" lon="11.3738182"><ele>262.5</ele><time>2026-04-19T08:25:01.207Z</time></trkpt><trkpt lat="43.8482739" lon="11.3736623"><ele>263.0</ele><time>2026-04-19T08:25:02.201Z</time></trkpt><trkpt lat="43.8482483" lon="11.373493"><ele>263.5</ele><time>2026-04-19T08:25:03.204Z</time></trkpt><trkpt lat="43.8481936" lon="11.3733081"><ele>264.0</ele><time>2026-04-19T08:25:04.198Z</time></trkpt><trkpt lat="43.8481331" lon="11.3731235"><ele>266.3333333333333</ele><time>2026-04-19T08:25:05.207Z</time></trkpt><trkpt lat="43.8480736" lon="11.3729302"><ele>268.66666666666663</ele><time>2026-04-19T08:25:06.207Z</time></trkpt><trkpt lat="43.8480304" lon="11.3727251"><ele>271.0</ele><time>2026-04-19T08:25:07.197Z</time></trkpt><trkpt lat="43.8480161" lon="11.3725094"><ele>271.0</ele><time>2026-04-19T08:25:08.196Z</time></trkpt><trkpt lat="43.8480184" lon="11.3722942"><ele>271.0</ele><time>2026-04-19T08:25:09.203Z</time></trkpt><trkpt lat="43.8480294" lon="11.3720531"><ele>271.0</ele><time>2026-04-19T08:25:10.204Z</time></trkpt><trkpt lat="43.8480454" lon="11.3717916"><ele>274.0</ele><time>2026-04-19T08:25:11.201Z</time></trkpt><trkpt lat="43.848059" lon="11.3715363"><ele>277.0</ele><time>2026-04-19T08:25:12.21Z</time></trkpt><trkpt lat="43.8480745" lon="11.3712964"><ele>280.0</ele><time>2026-04-19T08:25:13.209Z</time></trkpt><trkpt lat="43.8481007" lon="11.371092"><ele>282.3333333333333</ele><time>2026-04-19T08:25:14.199Z</time></trkpt><trkpt lat="43.8481449" lon="11.3709017"><ele>284.6666666666667</ele><time>2026-04-19T08:25:15.197Z</time></trkpt><trkpt lat="43.8482258" lon="11.3707164"><ele>287.0</ele><time>2026-04-19T08:25:16.197Z</time></trkpt><trkpt lat="43.8483397" lon="11.3705353"><ele>287.0</ele><time>2026-04-19T08:25:17.191Z</time></trkpt><trkpt lat="43.8484532" lon="11.3703513"><ele>287.0</ele><time>2026-04-19T08:25:18.19Z</time></trkpt><trkpt lat="43.8485641" lon="11.370178"><ele>287.0</ele><time>2026-04-19T08:25:19.183Z</time></trkpt><trkpt lat="43.84867" lon="11.370019"><ele>288.0</ele><time>2026-04-19T08:25:20.198Z</time></trkpt><trkpt lat="43.8487632" lon="11.3698873"><ele>289.0</ele><time>2026-04-19T08:25:21.189Z</time></trkpt><trkpt lat="43.8488635" lon="11.3698001"><ele>290.0</ele><time>2026-04-19T08:25:22.191Z</time></trkpt><trkpt lat="43.8489879" lon="11.3697322"><ele>291.0</ele><time>2026-04-19T08:25:23.199Z</time></trkpt><trkpt lat="43.8491299" lon="11.3696777"><ele>291.0</ele><time>2026-04-19T08:25:24.2Z</time></trkpt><trkpt lat="43.8492875" lon="11.3696248"><ele>291.0</ele><time>2026-04-19T08:25:25.197Z</time></trkpt><trkpt lat="43.8494524" lon="11.3695675"><ele>291.0</ele><time>2026-04-19T08:25:26.206Z</time></trkpt><trkpt lat="43.8496197" lon="11.3695026"><ele>294.3333333333333</ele><time>2026-04-19T08:25:27.195Z</time></trkpt><trkpt lat="43.8497915" lon="11.3694409"><ele>297.66666666666663</ele><time>2026-04-19T08:25:28.22Z</time></trkpt><trkpt lat="43.8499679" lon="11.3693705"><ele>301.0</ele><time>2026-04-19T08:25:29.195Z</time></trkpt><trkpt lat="43.8501525" lon="11.3692951"><ele>304.0</ele><time>2026-04-19T08:25:30.178Z</time></trkpt><trkpt lat="43.8503403" lon="11.3692219"><ele>307.0</ele><time>2026-04-19T08:25:31.211Z</time></trkpt><trkpt lat="43.8505178" lon="11.3691521"><ele>310.0</ele><time>2026-04-19T08:25:32.191Z</time></trkpt><trkpt lat="43.8506805" lon="11.3690882"><ele>310.0</ele><time>2026-04-19T08:25:33.204Z</time></trkpt><trkpt lat="43.8508246" lon="11.3690037"><ele>310.0</ele><time>2026-04-19T08:25:34.198Z</time></trkpt><trkpt lat="43.8509498" lon="11.3688923"><ele>310.0</ele><time>2026-04-19T08:25:35.193Z</time></trkpt><trkpt lat="43.8510634" lon="11.3687398"><ele>312.0</ele><time>2026-04-19T08:25:36.2Z</time></trkpt><trkpt lat="43.8511551" lon="11.3685512"><ele>314.0</ele><time>2026-04-19T08:25:37.201Z</time></trkpt><trkpt lat="43.8512423" lon="11.3683271"><ele>316.0</ele><time>2026-04-19T08:25:38.203Z</time></trkpt><trkpt lat="43.851324" lon="11.3680963"><ele>317.0</ele><time>2026-04-19T08:25:39.201Z</time></trkpt><trkpt lat="43.8514095" lon="11.3678617"><ele>318.0</ele><time>2026-04-19T08:25:40.201Z</time></trkpt><trkpt lat="43.8514893" lon="11.3676353"><ele>319.0</ele><time>2026-04-19T08:25:41.203Z</time></trkpt><trkpt lat="43.8515627" lon="11.3674435"><ele>319.0</ele><time>2026-04-19T08:25:42.195Z</time></trkpt><trkpt lat="43.8516417" lon="11.3672947"><ele>319.0</ele><time>2026-04-19T08:25:43.186Z</time></trkpt><trkpt lat="43.8517434" lon="11.3671938"><ele>319.0</ele><time>2026-04-19T08:25:44.193Z</time></trkpt><trkpt lat="43.8518685" lon="11.3671179"><ele>319.0</ele><time>2026-04-19T08:25:45.186Z</time></trkpt><trkpt lat="43.8520067" lon="11.3670962"><ele>321.66666666666663</ele><time>2026-04-19T08:25:46.192Z</time></trkpt><trkpt lat="43.8521425" lon="11.3671349"><ele>324.3333333333333</ele><time>2026-04-19T08:25:47.188Z</time></trkpt><trkpt lat="43.8522916" lon="11.3672091"><ele>327.0</ele><time>2026-04-19T08:25:48.201Z</time></trkpt><trkpt lat="43.8524347" lon="11.367299"><ele>327.0</ele><time>2026-04-19T08:25:49.175Z</time></trkpt><trkpt lat="43.8525853" lon="11.3673854"><ele>327.0</ele><time>2026-04-19T08:25:50.195Z</time></trkpt><trkpt lat="43.8527423" lon="11.3674799"><ele>327.0</ele><time>2026-04-19T08:25:51.184Z</time></trkpt><trkpt lat="43.8529098" lon="11.3675711"><ele>331.0</ele><time>2026-04-19T08:25:52.198Z</time></trkpt><trkpt lat="43.8530771" lon="11.3676676"><ele>335.0</ele><time>2026-04-19T08:25:53.195Z</time></trkpt><trkpt lat="43.8532505" lon="11.3677594"><ele>339.0</ele><time>2026-04-19T08:25:54.181Z</time></trkpt><trkpt lat="43.8534241" lon="11.3678565"><ele>341.6666666666667</ele><time>2026-04-19T08:25:55.203Z</time></trkpt><trkpt lat="43.8535889" lon="11.3679584"><ele>344.33333333333337</ele><time>2026-04-19T08:25:56.177Z</time></trkpt><trkpt lat="43.8537584" lon="11.3680611"><ele>347.0</ele><time>2026-04-19T08:25:57.198Z</time></trkpt><trkpt lat="43.8539201" lon="11.3681487"><ele>347.25</ele><time>2026-04-19T08:25:58.196Z</time></trkpt><trkpt lat="43.8540646" lon="11.3682184"><ele>347.5</ele><time>2026-04-19T08:25:59.192Z</time></trkpt><trkpt lat="43.8541964" lon="11.3682696"><ele>347.75</ele><time>2026-04-19T08:26:00.2Z</time></trkpt><trkpt lat="43.8543413" lon="11.3682878"><ele>348.0</ele><time>2026-04-19T08:26:01.198Z</time></trkpt><trkpt lat="43.854477" lon="11.368274"><ele>352.6666666666667</ele><time>2026-04-19T08:26:02.204Z</time></trkpt><trkpt lat="43.8546235" lon="11.3682272"><ele>357.33333333333337</ele><time>2026-04-19T08:26:03.2Z</time></trkpt><trkpt lat="43.8547801" lon="11.3681671"><ele>362.0</ele><time>2026-04-19T08:26:04.203Z</time></trkpt><trkpt lat="43.8549448" lon="11.3681045"><ele>362.0</ele><time>2026-04-19T08:26:05.198Z</time></trkpt><trkpt lat="43.8551173" lon="11.3680422"><ele>362.0</ele><time>2026-04-19T08:26:06.207Z</time></trkpt><trkpt lat="43.8552849" lon="11.367955"><ele>362.0</ele><time>2026-04-19T08:26:07.197Z</time></trkpt><trkpt lat="43.8554525" lon="11.3678512"><ele>366.0</ele><time>2026-04-19T08:26:08.198Z</time></trkpt><trkpt lat="43.8556053" lon="11.3677312"><ele>370.0</ele><time>2026-04-19T08:26:09.189Z</time></trkpt><trkpt lat="43.8557521" lon="11.3676141"><ele>374.0</ele><time>2026-04-19T08:26:10.197Z</time></trkpt><trkpt lat="43.8558983" lon="11.3674971"><ele>379.25</ele><time>2026-04-19T08:26:11.194Z</time></trkpt><trkpt lat="43.856026" lon="11.3673918"><ele>384.5</ele><time>2026-04-19T08:26:12.181Z</time></trkpt><trkpt lat="43.8561313" lon="11.3672778"><ele>389.75</ele><time>2026-04-19T08:26:13.2Z</time></trkpt><trkpt lat="43.8562179" lon="11.3671526"><ele>395.0</ele><time>2026-04-19T08:26:14.21Z</time></trkpt><trkpt lat="43.856281" lon="11.3670112"><ele>395.0</ele><time>2026-04-19T08:26:15.201Z</time></trkpt><trkpt lat="43.8563212" lon="11.3668612"><ele>395.0</ele><time>2026-04-19T08:26:16.172Z</time></trkpt><trkpt lat="43.8563367" lon="11.3667062"><ele>395.0</ele><time>2026-04-19T08:26:17.175Z</time></trkpt><trkpt lat="43.8563259" lon="11.3665407"><ele>395.0</ele><time>2026-04-19T08:26:18.18Z</time></trkpt><trkpt lat="43.8562891" lon="11.3663669"><ele>395.25</ele><time>2026-04-19T08:26:19.198Z</time></trkpt><trkpt lat="43.8562476" lon="11.3661909"><ele>395.5</ele><time>2026-04-19T08:26:20.192Z</time></trkpt><trkpt lat="43.8562044" lon="11.3660195"><ele>395.75</ele><time>2026-04-19T08:26:21.194Z</time></trkpt><trkpt lat="43.8561641" lon="11.3658532"><ele>396.0</ele><time>2026-04-19T08:26:22.201Z</time></trkpt><trkpt lat="43.8561276" lon="11.3656996"><ele>396.0</ele><time>2026-04-19T08:26:23.193Z</time></trkpt><trkpt lat="43.8560984" lon="11.3655545"><ele>396.0</ele><time>2026-04-19T08:26:24.201Z</time></trkpt><trkpt lat="43.8560693" lon="11.3654289"><ele>396.0</ele><time>2026-04-19T08:26:25.192Z</time></trkpt><trkpt lat="43.8560377" lon="11.3653092"><ele>396.0</ele><time>2026-04-19T08:26:26.193Z</time></trkpt><trkpt lat="43.856015" lon="11.365196"><ele>396.0</ele><time>2026-04-19T08:26:27.201Z</time></trkpt><trkpt lat="43.8560088" lon="11.3650992"><ele>397.6</ele><time>2026-04-19T08:26:28.203Z</time></trkpt><trkpt lat="43.8560123" lon="11.3650116"><ele>399.20000000000005</ele><time>2026-04-19T08:26:29.202Z</time></trkpt><trkpt lat="43.8560488" lon="11.3648405"><ele>400.79999999999995</ele><time>2026-04-19T08:26:31.199Z</time></trkpt><trkpt lat="43.8560862" lon="11.3647531"><ele>402.4</ele><time>2026-04-19T08:26:32.195Z</time></trkpt><trkpt lat="43.8561329" lon="11.3646447"><ele>404.0</ele><time>2026-04-19T08:26:33.193Z</time></trkpt><trkpt lat="43.8561915" lon="11.3645155"><ele>404.0</ele><time>2026-04-19T08:26:34.193Z</time></trkpt><trkpt lat="43.8562652" lon="11.3643614"><ele>404.0</ele><time>2026-04-19T08:26:35.205Z</time></trkpt><trkpt lat="43.856347" lon="11.3642019"><ele>404.0</ele><time>2026-04-19T08:26:36.201Z</time></trkpt><trkpt lat="43.8564323" lon="11.3640422"><ele>404.0</ele><time>2026-04-19T08:26:37.198Z</time></trkpt><trkpt lat="43.8565083" lon="11.3638748"><ele>404.0</ele><time>2026-04-19T08:26:38.193Z</time></trkpt><trkpt lat="43.8565966" lon="11.3636888"><ele>404.0</ele><time>2026-04-19T08:26:39.198Z</time></trkpt><trkpt lat="43.8566904" lon="11.3635017"><ele>404.0</ele><time>2026-04-19T08:26:40.209Z</time></trkpt><trkpt lat="43.8567947" lon="11.3633133"><ele>407.3333333333333</ele><time>2026-04-19T08:26:41.215Z</time></trkpt><trkpt lat="43.8569104" lon="11.3631126"><ele>410.66666666666663</ele><time>2026-04-19T08:26:42.203Z</time></trkpt><trkpt lat="43.8570233" lon="11.3629186"><ele>414.0</ele><time>2026-04-19T08:26:43.2Z</time></trkpt><trkpt lat="43.8571298" lon="11.3627077"><ele>414.33333333333337</ele><time>2026-04-19T08:26:44.188Z</time></trkpt><trkpt lat="43.8572314" lon="11.3624898"><ele>414.6666666666667</ele><time>2026-04-19T08:26:45.177Z</time></trkpt><trkpt lat="43.8573212" lon="11.3622803"><ele>415.0</ele><time>2026-04-19T08:26:46.191Z</time></trkpt><trkpt lat="43.857405" lon="11.3620876"><ele>416.33333333333337</ele><time>2026-04-19T08:26:47.202Z</time></trkpt><trkpt lat="43.8574715" lon="11.3619032"><ele>417.66666666666663</ele><time>2026-04-19T08:26:48.199Z</time></trkpt><trkpt lat="43.8575367" lon="11.3616988"><ele>419.0</ele><time>2026-04-19T08:26:49.196Z</time></trkpt><trkpt lat="43.8576105" lon="11.3614808"><ele>428.0</ele><time>2026-04-19T08:26:50.193Z</time></trkpt><trkpt lat="43.8576908" lon="11.3612591"><ele>437.0</ele><time>2026-04-19T08:26:51.197Z</time></trkpt><trkpt lat="43.8577858" lon="11.3610391"><ele>446.0</ele><time>2026-04-19T08:26:52.192Z</time></trkpt><trkpt lat="43.8578845" lon="11.3608019"><ele>446.0</ele><time>2026-04-19T08:26:53.195Z</time></trkpt><trkpt lat="43.8579818" lon="11.3605656"><ele>446.0</ele><time>2026-04-19T08:26:54.199Z</time></trkpt><trkpt lat="43.8580753" lon="11.3603367"><ele>446.0</ele><time>2026-04-19T08:26:55.195Z</time></trkpt><trkpt lat="43.8581552" lon="11.3601251"><ele>443.0</ele><time>2026-04-19T08:26:56.197Z</time></trkpt><trkpt lat="43.8582235" lon="11.3599192"><ele>440.0</ele><time>2026-04-19T08:26:57.194Z</time></trkpt><trkpt lat="43.8582672" lon="11.3596832"><ele>437.0</ele><time>2026-04-19T08:26:58.203Z</time></trkpt><trkpt lat="43.8582722" lon="11.3594422"><ele>437.0</ele><time>2026-04-19T08:26:59.191Z</time></trkpt><trkpt lat="43.8582672" lon="11.3592042"><ele>437.0</ele><time>2026-04-19T08:27:00.188Z</time></trkpt><trkpt lat="43.8582531" lon="11.3589787"><ele>437.0</ele><time>2026-04-19T08:27:01.193Z</time></trkpt><trkpt lat="43.8582501" lon="11.3587798"><ele>438.0</ele><time>2026-04-19T08:27:02.2Z</time></trkpt><trkpt lat="43.8582906" lon="11.3585918"><ele>439.0</ele><time>2026-04-19T08:27:03.185Z</time></trkpt><trkpt lat="43.8583528" lon="11.3583957"><ele>440.0</ele><time>2026-04-19T08:27:04.202Z</time></trkpt><trkpt lat="43.8584281" lon="11.3582019"><ele>447.0</ele><time>2026-04-19T08:27:05.193Z</time></trkpt><trkpt lat="43.8585008" lon="11.3580005"><ele>454.0</ele><time>2026-04-19T08:27:06.198Z</time></trkpt><trkpt lat="43.8585862" lon="11.3578027"><ele>461.0</ele><time>2026-04-19T08:27:07.202Z</time></trkpt><trkpt lat="43.8586969" lon="11.3576223"><ele>461.0</ele><time>2026-04-19T08:27:08.201Z</time></trkpt><trkpt lat="43.8588292" lon="11.3574607"><ele>461.0</ele><time>2026-04-19T08:27:09.199Z</time></trkpt><trkpt lat="43.8589782" lon="11.3573096"><ele>461.0</ele><time>2026-04-19T08:27:10.2Z</time></trkpt><trkpt lat="43.8591228" lon="11.3571704"><ele>458.66666666666663</ele><time>2026-04-19T08:27:11.175Z</time></trkpt><trkpt lat="43.8592658" lon="11.357014"><ele>456.33333333333337</ele><time>2026-04-19T08:27:12.174Z</time></trkpt><trkpt lat="43.8594009" lon="11.356843"><ele>454.0</ele><time>2026-04-19T08:27:13.201Z</time></trkpt><trkpt lat="43.8595244" lon="11.356642"><ele>460.0</ele><time>2026-04-19T08:27:14.199Z</time></trkpt><trkpt lat="43.8596324" lon="11.3564172"><ele>466.0</ele><time>2026-04-19T08:27:15.205Z</time></trkpt><trkpt lat="43.8597278" lon="11.3561803"><ele>472.0</ele><time>2026-04-19T08:27:16.191Z</time></trkpt><trkpt lat="43.8598302" lon="11.355947"><ele>472.0</ele><time>2026-04-19T08:27:17.195Z</time></trkpt><trkpt lat="43.859936" lon="11.3557155"><ele>472.0</ele><time>2026-04-19T08:27:18.199Z</time></trkpt><trkpt lat="43.8600341" lon="11.3554811"><ele>472.0</ele><time>2026-04-19T08:27:19.198Z</time></trkpt><trkpt lat="43.8601413" lon="11.3552427"><ele>477.0</ele><time>2026-04-19T08:27:20.191Z</time></trkpt><trkpt lat="43.8602433" lon="11.3549908"><ele>482.0</ele><time>2026-04-19T08:27:21.189Z</time></trkpt><trkpt lat="43.8603516" lon="11.354736"><ele>487.0</ele><time>2026-04-19T08:27:22.199Z</time></trkpt><trkpt lat="43.8604601" lon="11.3544861"><ele>487.6666666666667</ele><time>2026-04-19T08:27:23.199Z</time></trkpt><trkpt lat="43.8605656" lon="11.3542329"><ele>488.33333333333337</ele><time>2026-04-19T08:27:24.193Z</time></trkpt><trkpt lat="43.8606711" lon="11.3539756"><ele>489.0</ele><time>2026-04-19T08:27:25.187Z</time></trkpt><trkpt lat="43.8607724" lon="11.3537303"><ele>489.0</ele><time>2026-04-19T08:27:26.199Z</time></trkpt><trkpt lat="43.8608668" lon="11.3534954"><ele>489.0</ele><time>2026-04-19T08:27:27.182Z</time></trkpt><trkpt lat="43.8609588" lon="11.3532846"><ele>489.0</ele><time>2026-04-19T08:27:28.192Z</time></trkpt><trkpt lat="43.8610571" lon="11.3530909"><ele>494.33333333333337</ele><time>2026-04-19T08:27:29.191Z</time></trkpt><trkpt lat="43.8611872" lon="11.3529203"><ele>499.6666666666667</ele><time>2026-04-19T08:27:30.178Z</time></trkpt><trkpt lat="43.8613376" lon="11.3527713"><ele>505.0</ele><time>2026-04-19T08:27:31.204Z</time></trkpt><trkpt lat="43.8614927" lon="11.3526194"><ele>505.0</ele><time>2026-04-19T08:27:32.196Z</time></trkpt><trkpt lat="43.8616519" lon="11.3524676"><ele>505.0</ele><time>2026-04-19T08:27:33.181Z</time></trkpt><trkpt lat="43.8618039" lon="11.3522867"><ele>505.0</ele><time>2026-04-19T08:27:34.192Z</time></trkpt><trkpt lat="43.8619517" lon="11.3521002"><ele>509.33333333333337</ele><time>2026-04-19T08:27:35.198Z</time></trkpt><trkpt lat="43.862104" lon="11.3519203"><ele>513.6666666666666</ele><time>2026-04-19T08:27:36.199Z</time></trkpt><trkpt lat="43.8622521" lon="11.3517586"><ele>518.0</ele><time>2026-04-19T08:27:37.194Z</time></trkpt><trkpt lat="43.8623818" lon="11.3515951"><ele>518.0</ele><time>2026-04-19T08:27:38.201Z</time></trkpt><trkpt lat="43.8625073" lon="11.3513958"><ele>518.0</ele><time>2026-04-19T08:27:39.205Z</time></trkpt><trkpt lat="43.8626131" lon="11.3511727"><ele>518.0</ele><time>2026-04-19T08:27:40.183Z</time></trkpt><trkpt lat="43.8627077" lon="11.3509427"><ele>524.3333333333333</ele><time>2026-04-19T08:27:41.183Z</time></trkpt><trkpt lat="43.8627969" lon="11.3506933"><ele>530.6666666666666</ele><time>2026-04-19T08:27:42.196Z</time></trkpt><trkpt lat="43.8628815" lon="11.3504437"><ele>537.0</ele><time>2026-04-19T08:27:43.208Z</time></trkpt><trkpt lat="43.8629714" lon="11.3501906"><ele>537.0</ele><time>2026-04-19T08:27:44.188Z</time></trkpt><trkpt lat="43.8630621" lon="11.3499389"><ele>537.0</ele><time>2026-04-19T08:27:45.195Z</time></trkpt><trkpt lat="43.8631514" lon="11.3496841"><ele>537.0</ele><time>2026-04-19T08:27:46.203Z</time></trkpt><trkpt lat="43.8632432" lon="11.3494266"><ele>537.3333333333334</ele><time>2026-04-19T08:27:47.197Z</time></trkpt><trkpt lat="43.8633375" lon="11.3491673"><ele>537.6666666666667</ele><time>2026-04-19T08:27:48.193Z</time></trkpt><trkpt lat="43.8634335" lon="11.3489052"><ele>538.0</ele><time>2026-04-19T08:27:49.187Z</time></trkpt><trkpt lat="43.8635185" lon="11.3486625"><ele>540.0</ele><time>2026-04-19T08:27:50.193Z</time></trkpt><trkpt lat="43.8636088" lon="11.3484416"><ele>542.0</ele><time>2026-04-19T08:27:51.191Z</time></trkpt><trkpt lat="43.8636799" lon="11.3482487"><ele>544.0</ele><time>2026-04-19T08:27:52.182Z</time></trkpt><trkpt lat="43.8637461" lon="11.3480614"><ele>542.6666666666667</ele><time>2026-04-19T08:27:53.195Z</time></trkpt><trkpt lat="43.8638016" lon="11.347847"><ele>541.3333333333334</ele><time>2026-04-19T08:27:54.182Z</time></trkpt><trkpt lat="43.8638256" lon="11.3475919"><ele>540.0</ele><time>2026-04-19T08:27:55.206Z</time></trkpt><trkpt lat="43.8638365" lon="11.3473246"><ele>538.3333333333334</ele><time>2026-04-19T08:27:56.204Z</time></trkpt><trkpt lat="43.863834" lon="11.347038"><ele>536.6666666666667</ele><time>2026-04-19T08:27:57.202Z</time></trkpt><trkpt lat="43.8638238" lon="11.3467612"><ele>535.0</ele><time>2026-04-19T08:27:58.209Z</time></trkpt><trkpt lat="43.863821" lon="11.34652"><ele>533.3333333333334</ele><time>2026-04-19T08:27:59.201Z</time></trkpt><trkpt lat="43.8638072" lon="11.3463035"><ele>531.6666666666666</ele><time>2026-04-19T08:28:00.199Z</time></trkpt><trkpt lat="43.8637837" lon="11.3461126"><ele>530.0</ele><time>2026-04-19T08:28:01.203Z</time></trkpt><trkpt lat="43.8637254" lon="11.3458944"><ele>530.0</ele><time>2026-04-19T08:28:02.209Z</time></trkpt><trkpt lat="43.8636219" lon="11.3456795"><ele>530.0</ele><time>2026-04-19T08:28:03.193Z</time></trkpt><trkpt lat="43.8635123" lon="11.3454715"><ele>530.0</ele><time>2026-04-19T08:28:04.195Z</time></trkpt><trkpt lat="43.8634146" lon="11.34528"><ele>530.3333333333333</ele><time>2026-04-19T08:28:05.199Z</time></trkpt><trkpt lat="43.8633227" lon="11.3451059"><ele>530.6666666666666</ele><time>2026-04-19T08:28:06.192Z</time></trkpt><trkpt lat="43.8632369" lon="11.3449378"><ele>531.0</ele><time>2026-04-19T08:28:07.196Z</time></trkpt><trkpt lat="43.8631566" lon="11.3447692"><ele>530.0</ele><time>2026-04-19T08:28:08.189Z</time></trkpt><trkpt lat="43.8630786" lon="11.3446086"><ele>529.0</ele><time>2026-04-19T08:28:09.183Z</time></trkpt><trkpt lat="43.863006" lon="11.3444404"><ele>528.0</ele><time>2026-04-19T08:28:10.179Z</time></trkpt><trkpt lat="43.8629422" lon="11.3442587"><ele>527.0</ele><time>2026-04-19T08:28:11.192Z</time></trkpt><trkpt lat="43.862888" lon="11.344071"><ele>527.0</ele><time>2026-04-19T08:28:12.197Z</time></trkpt><trkpt lat="43.8628482" lon="11.343885"><ele>527.0</ele><time>2026-04-19T08:28:13.193Z</time></trkpt><trkpt lat="43.8628129" lon="11.3436958"><ele>527.0</ele><time>2026-04-19T08:28:14.185Z</time></trkpt><trkpt lat="43.8627732" lon="11.3435131"><ele>527.0</ele><time>2026-04-19T08:28:15.188Z</time></trkpt><trkpt lat="43.862732" lon="11.3433301"><ele>526.25</ele><time>2026-04-19T08:28:16.182Z</time></trkpt><trkpt lat="43.8626842" lon="11.3431488"><ele>525.5</ele><time>2026-04-19T08:28:17.189Z</time></trkpt><trkpt lat="43.8626116" lon="11.3429702"><ele>524.75</ele><time>2026-04-19T08:28:18.199Z</time></trkpt><trkpt lat="43.8625266" lon="11.342804"><ele>524.0</ele><time>2026-04-19T08:28:19.202Z</time></trkpt><trkpt lat="43.8624359" lon="11.3426541"><ele>520.5</ele><time>2026-04-19T08:28:20.197Z</time></trkpt><trkpt lat="43.8623439" lon="11.3425135"><ele>517.0</ele><time>2026-04-19T08:28:21.191Z</time></trkpt><trkpt lat="43.8622546" lon="11.342384"><ele>513.5</ele><time>2026-04-19T08:28:22.202Z</time></trkpt><trkpt lat="43.8621693" lon="11.3422535"><ele>510.0</ele><time>2026-04-19T08:28:23.187Z</time></trkpt><trkpt lat="43.8621012" lon="11.3421236"><ele>508.4</ele><time>2026-04-19T08:28:24.217Z</time></trkpt><trkpt lat="43.86203" lon="11.3419895"><ele>506.8</ele><time>2026-04-19T08:28:25.181Z</time></trkpt><trkpt lat="43.8619779" lon="11.3418566"><ele>505.20000000000005</ele><time>2026-04-19T08:28:26.195Z</time></trkpt><trkpt lat="43.8619401" lon="11.341733"><ele>503.6</ele><time>2026-04-19T08:28:27.189Z</time></trkpt><trkpt lat="43.8619194" lon="11.3416202"><ele>502.0</ele><time>2026-04-19T08:28:28.195Z</time></trkpt><trkpt lat="43.8619067" lon="11.3415222"><ele>500.6</ele><time>2026-04-19T08:28:29.202Z</time></trkpt><trkpt lat="43.8619002" lon="11.3413748"><ele>499.20000000000005</ele><time>2026-04-19T08:28:31.195Z</time></trkpt><trkpt lat="43.8619075" lon="11.3412352"><ele>497.8</ele><time>2026-04-19T08:28:33.193Z</time></trkpt><trkpt lat="43.8619191" lon="11.341142"><ele>496.4</ele><time>2026-04-19T08:28:37.19Z</time></trkpt><trkpt lat="43.8620202" lon="11.3411081"><ele>495.0</ele><time>2026-04-19T08:28:40.184Z</time></trkpt><trkpt lat="43.8620947" lon="11.3411262"><ele>495.0</ele><time>2026-04-19T08:28:41.192Z</time></trkpt><trkpt lat="43.8621857" lon="11.3411503"><ele>495.0</ele><time>2026-04-19T08:28:42.206Z</time></trkpt><trkpt lat="43.8622908" lon="11.3411712"><ele>495.0</ele><time>2026-04-19T08:28:43.195Z</time></trkpt><trkpt lat="43.8624135" lon="11.3411648"><ele>495.0</ele><time>2026-04-19T08:28:44.201Z</time></trkpt><trkpt lat="43.8625279" lon="11.341121"><ele>495.0</ele><time>2026-04-19T08:28:45.18Z</time></trkpt><trkpt lat="43.8626447" lon="11.3410451"><ele>496.75</ele><time>2026-04-19T08:28:46.193Z</time></trkpt><trkpt lat="43.8627457" lon="11.3409588"><ele>498.5</ele><time>2026-04-19T08:28:47.195Z</time></trkpt><trkpt lat="43.8628296" lon="11.3408548"><ele>500.25</ele><time>2026-04-19T08:28:48.187Z</time></trkpt><trkpt lat="43.8628952" lon="11.3407235"><ele>502.0</ele><time>2026-04-19T08:28:49.19Z</time></trkpt><trkpt lat="43.8629654" lon="11.3405737"><ele>502.40000000000003</ele><time>2026-04-19T08:28:50.205Z</time></trkpt><trkpt lat="43.8630318" lon="11.3404208"><ele>502.80000000000007</ele><time>2026-04-19T08:28:51.195Z</time></trkpt><trkpt lat="43.863086" lon="11.3402851"><ele>503.2</ele><time>2026-04-19T08:28:52.196Z</time></trkpt><trkpt lat="43.8631362" lon="11.3401823"><ele>503.6</ele><time>2026-04-19T08:28:53.192Z</time></trkpt><trkpt lat="43.8631803" lon="11.3401055"><ele>504.0</ele><time>2026-04-19T08:28:54.186Z</time></trkpt><trkpt lat="43.8632783" lon="11.3400234"><ele>504.0</ele><time>2026-04-19T08:28:56.195Z</time></trkpt><trkpt lat="43.8633467" lon="11.3400104"><ele>504.0</ele><time>2026-04-19T08:28:57.197Z</time></trkpt><trkpt lat="43.8634334" lon="11.340026"><ele>504.0</ele><time>2026-04-19T08:28:58.185Z</time></trkpt><trkpt lat="43.8635307" lon="11.3400493"><ele>504.0</ele><time>2026-04-19T08:28:59.197Z</time></trkpt><trkpt lat="43.8636379" lon="11.3400856"><ele>504.0</ele><time>2026-04-19T08:29:00.207Z</time></trkpt><trkpt lat="43.8637541" lon="11.3401134"><ele>505.5</ele><time>2026-04-19T08:29:01.198Z</time></trkpt><trkpt lat="43.8638745" lon="11.3401606"><ele>507.0</ele><time>2026-04-19T08:29:02.198Z</time></trkpt><trkpt lat="43.8640044" lon="11.3401969"><ele>508.5</ele><time>2026-04-19T08:29:03.189Z</time></trkpt><trkpt lat="43.8641411" lon="11.3402443"><ele>510.0</ele><time>2026-04-19T08:29:04.211Z</time></trkpt><trkpt lat="43.8642849" lon="11.3402937"><ele>511.33333333333337</ele><time>2026-04-19T08:29:05.195Z</time></trkpt><trkpt lat="43.8644363" lon="11.3403526"><ele>512.6666666666667</ele><time>2026-04-19T08:29:06.202Z</time></trkpt><trkpt lat="43.864591" lon="11.3404253"><ele>514.0</ele><time>2026-04-19T08:29:07.181Z</time></trkpt><trkpt lat="43.8647491" lon="11.3405039"><ele>515.25</ele><time>2026-04-19T08:29:08.209Z</time></trkpt><trkpt lat="43.8648901" lon="11.3405759"><ele>516.5</ele><time>2026-04-19T08:29:09.198Z</time></trkpt><trkpt lat="43.8650196" lon="11.3406418"><ele>517.75</ele><time>2026-04-19T08:29:10.201Z</time></trkpt><trkpt lat="43.8651323" lon="11.3407213"><ele>519.0</ele><time>2026-04-19T08:29:11.206Z</time></trkpt><trkpt lat="43.8652282" lon="11.3408439"><ele>521.3333333333334</ele><time>2026-04-19T08:29:12.2Z</time></trkpt><trkpt lat="43.8653157" lon="11.3410015"><ele>523.6666666666667</ele><time>2026-04-19T08:29:13.203Z</time></trkpt><trkpt lat="43.8654051" lon="11.3411754"><ele>526.0</ele><time>2026-04-19T08:29:14.205Z</time></trkpt><trkpt lat="43.8655144" lon="11.341352"><ele>525.6666666666667</ele><time>2026-04-19T08:29:15.199Z</time></trkpt><trkpt lat="43.8656363" lon="11.3415168"><ele>525.3333333333334</ele><time>2026-04-19T08:29:16.198Z</time></trkpt><trkpt lat="43.865766" lon="11.3416767"><ele>525.0</ele><time>2026-04-19T08:29:17.194Z</time></trkpt><trkpt lat="43.8659106" lon="11.3418398"><ele>524.6666666666666</ele><time>2026-04-19T08:29:18.194Z</time></trkpt><trkpt lat="43.8660635" lon="11.341995"><ele>524.3333333333333</ele><time>2026-04-19T08:29:19.193Z</time></trkpt><trkpt lat="43.8662223" lon="11.3421356"><ele>524.0</ele><time>2026-04-19T08:29:20.201Z</time></trkpt><trkpt lat="43.8663815" lon="11.3422739"><ele>524.0</ele><time>2026-04-19T08:29:21.197Z</time></trkpt><trkpt lat="43.8665528" lon="11.3424148"><ele>524.0</ele><time>2026-04-19T08:29:22.201Z</time></trkpt><trkpt lat="43.8667299" lon="11.3425614"><ele>524.0</ele><time>2026-04-19T08:29:23.206Z</time></trkpt><trkpt lat="43.8669075" lon="11.3427204"><ele>525.0</ele><time>2026-04-19T08:29:24.179Z</time></trkpt><trkpt lat="43.8670821" lon="11.3428712"><ele>526.0</ele><time>2026-04-19T08:29:25.2Z</time></trkpt><trkpt lat="43.8672467" lon="11.3430172"><ele>527.0</ele><time>2026-04-19T08:29:26.192Z</time></trkpt><trkpt lat="43.8674014" lon="11.3431488"><ele>525.6666666666666</ele><time>2026-04-19T08:29:27.182Z</time></trkpt><trkpt lat="43.8675457" lon="11.3432778"><ele>524.3333333333334</ele><time>2026-04-19T08:29:28.198Z</time></trkpt><trkpt lat="43.8676757" lon="11.3434021"><ele>523.0</ele><time>2026-04-19T08:29:29.199Z</time></trkpt><trkpt lat="43.8677882" lon="11.3435373"><ele>523.0</ele><time>2026-04-19T08:29:30.213Z</time></trkpt><trkpt lat="43.8678828" lon="11.3436618"><ele>523.0</ele><time>2026-04-19T08:29:31.196Z</time></trkpt><trkpt lat="43.8679762" lon="11.3437625"><ele>523.0</ele><time>2026-04-19T08:29:32.204Z</time></trkpt><trkpt lat="43.8680891" lon="11.3438528"><ele>523.0</ele><time>2026-04-19T08:29:33.205Z</time></trkpt><trkpt lat="43.86823" lon="11.3439045"><ele>520.3333333333334</ele><time>2026-04-19T08:29:34.199Z</time></trkpt><trkpt lat="43.8684058" lon="11.3439089"><ele>517.6666666666666</ele><time>2026-04-19T08:29:35.201Z</time></trkpt><trkpt lat="43.8685926" lon="11.3438824"><ele>515.0</ele><time>2026-04-19T08:29:36.198Z</time></trkpt><trkpt lat="43.8687866" lon="11.3438652"><ele>515.0</ele><time>2026-04-19T08:29:37.195Z</time></trkpt><trkpt lat="43.8689766" lon="11.3438491"><ele>515.0</ele><time>2026-04-19T08:29:38.202Z</time></trkpt><trkpt lat="43.869157" lon="11.343836"><ele>515.0</ele><time>2026-04-19T08:29:39.197Z</time></trkpt><trkpt lat="43.8693313" lon="11.3438432"><ele>511.66666666666663</ele><time>2026-04-19T08:29:40.196Z</time></trkpt><trkpt lat="43.8695127" lon="11.34391"><ele>508.33333333333337</ele><time>2026-04-19T08:29:41.198Z</time></trkpt><trkpt lat="43.8696924" lon="11.344002"><ele>505.0</ele><time>2026-04-19T08:29:42.192Z</time></trkpt><trkpt lat="43.8698609" lon="11.3441108"><ele>505.0</ele><time>2026-04-19T08:29:43.196Z</time></trkpt><trkpt lat="43.8700052" lon="11.3441964"><ele>505.0</ele><time>2026-04-19T08:29:44.2Z</time></trkpt><trkpt lat="43.8701578" lon="11.3442522"><ele>505.0</ele><time>2026-04-19T08:29:45.194Z</time></trkpt><trkpt lat="43.8703197" lon="11.344276"><ele>504.33333333333337</ele><time>2026-04-19T08:29:46.194Z</time></trkpt><trkpt lat="43.8705035" lon="11.344255"><ele>503.66666666666663</ele><time>2026-04-19T08:29:47.197Z</time></trkpt><trkpt lat="43.870707" lon="11.3441995"><ele>503.0</ele><time>2026-04-19T08:29:48.203Z</time></trkpt><trkpt lat="43.8709219" lon="11.3441647"><ele>502.3333333333333</ele><time>2026-04-19T08:29:49.193Z</time></trkpt><trkpt lat="43.8711356" lon="11.3441524"><ele>501.66666666666663</ele><time>2026-04-19T08:29:50.203Z</time></trkpt><trkpt lat="43.8713355" lon="11.3441663"><ele>501.0</ele><time>2026-04-19T08:29:51.203Z</time></trkpt><trkpt lat="43.8715141" lon="11.3441978"><ele>501.0</ele><time>2026-04-19T08:29:52.198Z</time></trkpt><trkpt lat="43.871669" lon="11.3442319"><ele>501.0</ele><time>2026-04-19T08:29:53.207Z</time></trkpt><trkpt lat="43.8718108" lon="11.3442584"><ele>501.0</ele><time>2026-04-19T08:29:54.204Z</time></trkpt><trkpt lat="43.8719543" lon="11.3442729"><ele>501.0</ele><time>2026-04-19T08:29:55.202Z</time></trkpt><trkpt lat="43.8721178" lon="11.344262"><ele>499.0</ele><time>2026-04-19T08:29:56.202Z</time></trkpt><trkpt lat="43.8722909" lon="11.3442252"><ele>497.0</ele><time>2026-04-19T08:29:57.197Z</time></trkpt><trkpt lat="43.8724695" lon="11.3441531"><ele>495.0</ele><time>2026-04-19T08:29:58.191Z</time></trkpt><trkpt lat="43.8726489" lon="11.3440577"><ele>495.0</ele><time>2026-04-19T08:29:59.192Z</time></trkpt><trkpt lat="43.8728162" lon="11.3439547"><ele>495.0</ele><time>2026-04-19T08:30:00.196Z</time></trkpt><trkpt lat="43.8729746" lon="11.3438362"><ele>495.0</ele><time>2026-04-19T08:30:01.19Z</time></trkpt><trkpt lat="43.8731194" lon="11.3437072"><ele>495.0</ele><time>2026-04-19T08:30:02.204Z</time></trkpt><trkpt lat="43.8732506" lon="11.3435845"><ele>495.0</ele><time>2026-04-19T08:30:03.201Z</time></trkpt><trkpt lat="43.8733696" lon="11.3434682"><ele>495.0</ele><time>2026-04-19T08:30:04.2Z</time></trkpt><trkpt lat="43.8734777" lon="11.3433971"><ele>495.0</ele><time>2026-04-19T08:30:05.2Z</time></trkpt><trkpt lat="43.8735983" lon="11.3433519"><ele>494.0</ele><time>2026-04-19T08:30:06.197Z</time></trkpt><trkpt lat="43.873738" lon="11.3433274"><ele>493.0</ele><time>2026-04-19T08:30:07.193Z</time></trkpt><trkpt lat="43.8738847" lon="11.3433075"><ele>492.0</ele><time>2026-04-19T08:30:08.197Z</time></trkpt><trkpt lat="43.8740527" lon="11.3432802"><ele>492.0</ele><time>2026-04-19T08:30:09.197Z</time></trkpt><trkpt lat="43.8742297" lon="11.3432606"><ele>492.0</ele><time>2026-04-19T08:30:10.198Z</time></trkpt><trkpt lat="43.8744009" lon="11.3432375"><ele>492.0</ele><time>2026-04-19T08:30:11.204Z</time></trkpt><trkpt lat="43.8745617" lon="11.3432177"><ele>490.66666666666663</ele><time>2026-04-19T08:30:12.196Z</time></trkpt><trkpt lat="43.8747153" lon="11.3432003"><ele>489.3333333333333</ele><time>2026-04-19T08:30:13.193Z</time></trkpt><trkpt lat="43.8748787" lon="11.3431958"><ele>488.0</ele><time>2026-04-19T08:30:14.198Z</time></trkpt><trkpt lat="43.875046" lon="11.3432288"><ele>488.3333333333333</ele><time>2026-04-19T08:30:15.187Z</time></trkpt><trkpt lat="43.8752251" lon="11.3433186"><ele>488.66666666666663</ele><time>2026-04-19T08:30:16.194Z</time></trkpt><trkpt lat="43.8754044" lon="11.3434332"><ele>489.0</ele><time>2026-04-19T08:30:17.202Z</time></trkpt><trkpt lat="43.8755821" lon="11.3435503"><ele>489.0</ele><time>2026-04-19T08:30:18.2Z</time></trkpt><trkpt lat="43.8757476" lon="11.3436627"><ele>489.0</ele><time>2026-04-19T08:30:19.201Z</time></trkpt><trkpt lat="43.8759056" lon="11.3437804"><ele>489.0</ele><time>2026-04-19T08:30:20.192Z</time></trkpt><trkpt lat="43.8760574" lon="11.3438717"><ele>486.66666666666663</ele><time>2026-04-19T08:30:21.195Z</time></trkpt><trkpt lat="43.8762092" lon="11.3439395"><ele>484.3333333333333</ele><time>2026-04-19T08:30:22.195Z</time></trkpt><trkpt lat="43.8763775" lon="11.3439873"><ele>482.0</ele><time>2026-04-19T08:30:23.203Z</time></trkpt><trkpt lat="43.8765596" lon="11.3440121"><ele>482.0</ele><time>2026-04-19T08:30:24.199Z</time></trkpt><trkpt lat="43.8767552" lon="11.344029"><ele>482.0</ele><time>2026-04-19T08:30:25.212Z</time></trkpt><trkpt lat="43.8769602" lon="11.3440425"><ele>482.0</ele><time>2026-04-19T08:30:26.196Z</time></trkpt><trkpt lat="43.8771683" lon="11.3440627"><ele>482.0</ele><time>2026-04-19T08:30:27.203Z</time></trkpt><trkpt lat="43.8773836" lon="11.3440916"><ele>482.0</ele><time>2026-04-19T08:30:28.2Z</time></trkpt><trkpt lat="43.8775994" lon="11.3441469"><ele>482.0</ele><time>2026-04-19T08:30:29.193Z</time></trkpt><trkpt lat="43.8778015" lon="11.3442192"><ele>482.3333333333333</ele><time>2026-04-19T08:30:30.205Z</time></trkpt><trkpt lat="43.8779853" lon="11.3442936"><ele>482.66666666666663</ele><time>2026-04-19T08:30:31.195Z</time></trkpt><trkpt lat="43.8781491" lon="11.3443628"><ele>483.0</ele><time>2026-04-19T08:30:32.194Z</time></trkpt><trkpt lat="43.8783095" lon="11.344404"><ele>483.0</ele><time>2026-04-19T08:30:33.21Z</time></trkpt><trkpt lat="43.8784775" lon="11.3444149"><ele>483.0</ele><time>2026-04-19T08:30:34.198Z</time></trkpt><trkpt lat="43.8786469" lon="11.344396"><ele>483.0</ele><time>2026-04-19T08:30:35.199Z</time></trkpt><trkpt lat="43.8788104" lon="11.3443879"><ele>483.0</ele><time>2026-04-19T08:30:36.192Z</time></trkpt><trkpt lat="43.8789578" lon="11.3444219"><ele>483.0</ele><time>2026-04-19T08:30:37.191Z</time></trkpt><trkpt lat="43.8790906" lon="11.344477"><ele>483.0</ele><time>2026-04-19T08:30:38.196Z</time></trkpt><trkpt lat="43.879201" lon="11.3445806"><ele>483.0</ele><time>2026-04-19T08:30:39.194Z</time></trkpt><trkpt lat="43.8792928" lon="11.3447458"><ele>482.66666666666663</ele><time>2026-04-19T08:30:40.194Z</time></trkpt><trkpt lat="43.8793794" lon="11.3449418"><ele>482.3333333333333</ele><time>2026-04-19T08:30:41.193Z</time></trkpt><trkpt lat="43.8794726" lon="11.3451529"><ele>482.0</ele><time>2026-04-19T08:30:42.19Z</time></trkpt><trkpt lat="43.8795796" lon="11.3453737"><ele>478.66666666666663</ele><time>2026-04-19T08:30:43.203Z</time></trkpt><trkpt lat="43.879704" lon="11.345589"><ele>475.33333333333337</ele><time>2026-04-19T08:30:44.182Z</time></trkpt><trkpt lat="43.879848" lon="11.3457808"><ele>472.0</ele><time>2026-04-19T08:30:45.199Z</time></trkpt><trkpt lat="43.8799981" lon="11.3459565"><ele>475.6666666666667</ele><time>2026-04-19T08:30:46.185Z</time></trkpt><trkpt lat="43.8801364" lon="11.346106"><ele>479.33333333333337</ele><time>2026-04-19T08:30:47.213Z</time></trkpt><trkpt lat="43.880258" lon="11.3462287"><ele>483.0</ele><time>2026-04-19T08:30:48.199Z</time></trkpt><trkpt lat="43.880374" lon="11.3463339"><ele>478.66666666666663</ele><time>2026-04-19T08:30:49.201Z</time></trkpt><trkpt lat="43.8805207" lon="11.3464242"><ele>474.3333333333333</ele><time>2026-04-19T08:30:50.198Z</time></trkpt><trkpt lat="43.8806887" lon="11.3465042"><ele>470.0</ele><time>2026-04-19T08:30:51.203Z</time></trkpt><trkpt lat="43.8808691" lon="11.3465693"><ele>472.66666666666663</ele><time>2026-04-19T08:30:52.202Z</time></trkpt><trkpt lat="43.8810598" lon="11.3466439"><ele>475.33333333333337</ele><time>2026-04-19T08:30:53.199Z</time></trkpt><trkpt lat="43.8812447" lon="11.3467532"><ele>478.0</ele><time>2026-04-19T08:30:54.2Z</time></trkpt><trkpt lat="43.8814236" lon="11.34688"><ele>478.0</ele><time>2026-04-19T08:30:55.199Z</time></trkpt><trkpt lat="43.881571" lon="11.3470053"><ele>478.0</ele><time>2026-04-19T08:30:56.198Z</time></trkpt><trkpt lat="43.8816905" lon="11.3471312"><ele>478.0</ele><time>2026-04-19T08:30:57.192Z</time></trkpt><trkpt lat="43.8817976" lon="11.3472681"><ele>476.25</ele><time>2026-04-19T08:30:58.197Z</time></trkpt><trkpt lat="43.8818726" lon="11.3474328"><ele>474.5</ele><time>2026-04-19T08:30:59.197Z</time></trkpt><trkpt lat="43.8819191" lon="11.3476161"><ele>472.75</ele><time>2026-04-19T08:31:00.193Z</time></trkpt><trkpt lat="43.8819393" lon="11.3478171"><ele>471.0</ele><time>2026-04-19T08:31:01.199Z</time></trkpt><trkpt lat="43.8819386" lon="11.348016"><ele>469.0</ele><time>2026-04-19T08:31:02.193Z</time></trkpt><trkpt lat="43.8819416" lon="11.3481991"><ele>467.0</ele><time>2026-04-19T08:31:03.197Z</time></trkpt><trkpt lat="43.8819711" lon="11.348376"><ele>465.0</ele><time>2026-04-19T08:31:04.195Z</time></trkpt><trkpt lat="43.882029" lon="11.3485241"><ele>463.0</ele><time>2026-04-19T08:31:05.192Z</time></trkpt><trkpt lat="43.8821003" lon="11.3486566"><ele>463.0</ele><time>2026-04-19T08:31:06.193Z</time></trkpt><trkpt lat="43.882189" lon="11.3487952"><ele>463.0</ele><time>2026-04-19T08:31:07.19Z</time></trkpt><trkpt lat="43.8822818" lon="11.3489373"><ele>463.0</ele><time>2026-04-19T08:31:08.198Z</time></trkpt><trkpt lat="43.8823795" lon="11.3490669"><ele>463.0</ele><time>2026-04-19T08:31:09.193Z</time></trkpt><trkpt lat="43.8824712" lon="11.3491907"><ele>461.0</ele><time>2026-04-19T08:31:10.2Z</time></trkpt><trkpt lat="43.8825671" lon="11.3492954"><ele>459.0</ele><time>2026-04-19T08:31:11.201Z</time></trkpt><trkpt lat="43.8826831" lon="11.3493776"><ele>457.0</ele><time>2026-04-19T08:31:12.196Z</time></trkpt><trkpt lat="43.8828091" lon="11.3494269"><ele>455.0</ele><time>2026-04-19T08:31:13.195Z</time></trkpt><trkpt lat="43.8829441" lon="11.3494618"><ele>455.0</ele><time>2026-04-19T08:31:14.199Z</time></trkpt><trkpt lat="43.8830788" lon="11.349505"><ele>455.0</ele><time>2026-04-19T08:31:15.2Z</time></trkpt><trkpt lat="43.8832121" lon="11.3495338"><ele>455.0</ele><time>2026-04-19T08:31:16.196Z</time></trkpt><trkpt lat="43.8833376" lon="11.3495612"><ele>455.0</ele><time>2026-04-19T08:31:17.194Z</time></trkpt><trkpt lat="43.8834562" lon="11.349587"><ele>455.75</ele><time>2026-04-19T08:31:18.198Z</time></trkpt><trkpt lat="43.8835705" lon="11.3496156"><ele>456.5</ele><time>2026-04-19T08:31:19.197Z</time></trkpt><trkpt lat="43.8836797" lon="11.3496476"><ele>457.25</ele><time>2026-04-19T08:31:20.204Z</time></trkpt><trkpt lat="43.8837838" lon="11.349702"><ele>458.0</ele><time>2026-04-19T08:31:21.194Z</time></trkpt><trkpt lat="43.8838838" lon="11.3497804"><ele>455.25</ele><time>2026-04-19T08:31:22.198Z</time></trkpt><trkpt lat="43.8839721" lon="11.3498845"><ele>452.5</ele><time>2026-04-19T08:31:23.198Z</time></trkpt><trkpt lat="43.8840692" lon="11.3499974"><ele>449.75</ele><time>2026-04-19T08:31:24.202Z</time></trkpt><trkpt lat="43.8841617" lon="11.3501155"><ele>447.0</ele><time>2026-04-19T08:31:25.191Z</time></trkpt><trkpt lat="43.8842551" lon="11.3502362"><ele>446.0</ele><time>2026-04-19T08:31:26.188Z</time></trkpt><trkpt lat="43.8843496" lon="11.350361"><ele>445.0</ele><time>2026-04-19T08:31:27.2Z</time></trkpt><trkpt lat="43.8844396" lon="11.3504797"><ele>444.0</ele><time>2026-04-19T08:31:28.197Z</time></trkpt><trkpt lat="43.8845282" lon="11.3505894"><ele>443.0</ele><time>2026-04-19T08:31:29.193Z</time></trkpt><trkpt lat="43.8846155" lon="11.3506921"><ele>443.0</ele><time>2026-04-19T08:31:30.199Z</time></trkpt><trkpt lat="43.8847136" lon="11.3507757"><ele>442.99999999999994</ele><time>2026-04-19T08:31:31.196Z</time></trkpt><trkpt lat="43.8848171" lon="11.3508522"><ele>442.99999999999994</ele><time>2026-04-19T08:31:32.2Z</time></trkpt><trkpt lat="43.8849136" lon="11.3509164"><ele>443.0</ele><time>2026-04-19T08:31:33.194Z</time></trkpt><trkpt lat="43.8850068" lon="11.350968"><ele>443.0</ele><time>2026-04-19T08:31:34.194Z</time></trkpt><trkpt lat="43.8850964" lon="11.3510129"><ele>443.99999999999994</ele><time>2026-04-19T08:31:35.201Z</time></trkpt><trkpt lat="43.8851803" lon="11.351046"><ele>445.0</ele><time>2026-04-19T08:31:36.195Z</time></trkpt><trkpt lat="43.8852646" lon="11.3510804"><ele>446.0</ele><time>2026-04-19T08:31:37.196Z</time></trkpt><trkpt lat="43.8853476" lon="11.3511173"><ele>447.0</ele><time>2026-04-19T08:31:38.194Z</time></trkpt><trkpt lat="43.8854291" lon="11.35116"><ele>447.99999999999994</ele><time>2026-04-19T08:31:39.2Z</time></trkpt><trkpt lat="43.8855187" lon="11.3512047"><ele>449.0</ele><time>2026-04-19T08:31:40.201Z</time></trkpt><trkpt lat="43.8856169" lon="11.3512442"><ele>449.0</ele><time>2026-04-19T08:31:41.189Z</time></trkpt><trkpt lat="43.8857209" lon="11.3512945"><ele>449.0</ele><time>2026-04-19T08:31:42.188Z</time></trkpt><trkpt lat="43.8858289" lon="11.3513417"><ele>449.0</ele><time>2026-04-19T08:31:43.19Z</time></trkpt><trkpt lat="43.8859377" lon="11.3513955"><ele>449.0</ele><time>2026-04-19T08:31:44.181Z</time></trkpt><trkpt lat="43.8860545" lon="11.3514454"><ele>448.0</ele><time>2026-04-19T08:31:45.205Z</time></trkpt><trkpt lat="43.8861735" lon="11.3515015"><ele>447.0</ele><time>2026-04-19T08:31:46.207Z</time></trkpt><trkpt lat="43.8862969" lon="11.3515601"><ele>446.0</ele><time>2026-04-19T08:31:47.202Z</time></trkpt><trkpt lat="43.8864185" lon="11.3516286"><ele>445.0</ele><time>2026-04-19T08:31:48.205Z</time></trkpt><trkpt lat="43.8865403" lon="11.3517185"><ele>445.0</ele><time>2026-04-19T08:31:49.198Z</time></trkpt><trkpt lat="43.8866462" lon="11.3518077"><ele>445.0</ele><time>2026-04-19T08:31:50.193Z</time></trkpt><trkpt lat="43.8867418" lon="11.3518933"><ele>445.0</ele><time>2026-04-19T08:31:51.199Z</time></trkpt><trkpt lat="43.8868295" lon="11.3519622"><ele>445.0</ele><time>2026-04-19T08:31:52.203Z</time></trkpt><trkpt lat="43.8869256" lon="11.3520135"><ele>445.0</ele><time>2026-04-19T08:31:53.202Z</time></trkpt><trkpt lat="43.8870295" lon="11.3520275"><ele>447.75</ele><time>2026-04-19T08:31:54.192Z</time></trkpt><trkpt lat="43.887159" lon="11.3520205"><ele>450.5</ele><time>2026-04-19T08:31:55.19Z</time></trkpt><trkpt lat="43.8873076" lon="11.3519783"><ele>453.25</ele><time>2026-04-19T08:31:56.184Z</time></trkpt><trkpt lat="43.887465" lon="11.3519321"><ele>456.0</ele><time>2026-04-19T08:31:57.189Z</time></trkpt><trkpt lat="43.8876216" lon="11.3518795"><ele>458.25</ele><time>2026-04-19T08:31:58.197Z</time></trkpt><trkpt lat="43.8877701" lon="11.3518343"><ele>460.5</ele><time>2026-04-19T08:31:59.194Z</time></trkpt><trkpt lat="43.8879053" lon="11.3518102"><ele>462.75</ele><time>2026-04-19T08:32:00.197Z</time></trkpt><trkpt lat="43.8880284" lon="11.3518048"><ele>465.0</ele><time>2026-04-19T08:32:01.197Z</time></trkpt><trkpt lat="43.8881561" lon="11.3518252"><ele>465.0</ele><time>2026-04-19T08:32:02.188Z</time></trkpt><trkpt lat="43.8882872" lon="11.3518917"><ele>465.0</ele><time>2026-04-19T08:32:03.174Z</time></trkpt><trkpt lat="43.8884143" lon="11.3519849"><ele>465.0</ele><time>2026-04-19T08:32:04.185Z</time></trkpt><trkpt lat="43.8885354" lon="11.352085"><ele>465.0</ele><time>2026-04-19T08:32:05.196Z</time></trkpt><trkpt lat="43.8886536" lon="11.352186"><ele>460.0</ele><time>2026-04-19T08:32:06.19Z</time></trkpt><trkpt lat="43.8887668" lon="11.3523401"><ele>455.0</ele><time>2026-04-19T08:32:07.178Z</time></trkpt><trkpt lat="43.8888699" lon="11.3525201"><ele>450.0</ele><time>2026-04-19T08:32:08.187Z</time></trkpt><trkpt lat="43.8889821" lon="11.3526778"><ele>450.0</ele><time>2026-04-19T08:32:09.17Z</time></trkpt><trkpt lat="43.8891003" lon="11.3528335"><ele>450.0</ele><time>2026-04-19T08:32:10.18Z</time></trkpt><trkpt lat="43.8892211" lon="11.352991"><ele>450.0</ele><time>2026-04-19T08:32:11.191Z</time></trkpt><trkpt lat="43.8893538" lon="11.3531376"><ele>445.66666666666663</ele><time>2026-04-19T08:32:12.188Z</time></trkpt><trkpt lat="43.8894925" lon="11.3532626"><ele>441.3333333333333</ele><time>2026-04-19T08:32:13.196Z</time></trkpt><trkpt lat="43.8896187" lon="11.3533719"><ele>437.0</ele><time>2026-04-19T08:32:14.201Z</time></trkpt><trkpt lat="43.8897396" lon="11.3534737"><ele>437.0</ele><time>2026-04-19T08:32:15.188Z</time></trkpt><trkpt lat="43.889852" lon="11.3535651"><ele>437.0</ele><time>2026-04-19T08:32:16.178Z</time></trkpt><trkpt lat="43.8899748" lon="11.3536293"><ele>437.0</ele><time>2026-04-19T08:32:17.182Z</time></trkpt><trkpt lat="43.8901232" lon="11.3536768"><ele>437.0</ele><time>2026-04-19T08:32:18.188Z</time></trkpt><trkpt lat="43.8902869" lon="11.3537039"><ele>439.25</ele><time>2026-04-19T08:32:19.19Z</time></trkpt><trkpt lat="43.8904444" lon="11.3537276"><ele>441.5</ele><time>2026-04-19T08:32:20.186Z</time></trkpt><trkpt lat="43.8905851" lon="11.3537527"><ele>443.75</ele><time>2026-04-19T08:32:21.183Z</time></trkpt><trkpt lat="43.8907011" lon="11.3537925"><ele>446.0</ele><time>2026-04-19T08:32:22.189Z</time></trkpt><trkpt lat="43.8908065" lon="11.3538647"><ele>443.5</ele><time>2026-04-19T08:32:23.195Z</time></trkpt><trkpt lat="43.8909104" lon="11.3539537"><ele>441.0</ele><time>2026-04-19T08:32:24.193Z</time></trkpt><trkpt lat="43.8909991" lon="11.3540866"><ele>438.5</ele><time>2026-04-19T08:32:25.192Z</time></trkpt><trkpt lat="43.8910651" lon="11.3542593"><ele>436.0</ele><time>2026-04-19T08:32:26.194Z</time></trkpt><trkpt lat="43.8911137" lon="11.3544412"><ele>436.0</ele><time>2026-04-19T08:32:27.2Z</time></trkpt><trkpt lat="43.8911617" lon="11.3546222"><ele>436.0</ele><time>2026-04-19T08:32:28.183Z</time></trkpt><trkpt lat="43.8912211" lon="11.3548014"><ele>436.0</ele><time>2026-04-19T08:32:29.191Z</time></trkpt><trkpt lat="43.8912957" lon="11.3549516"><ele>436.0</ele><time>2026-04-19T08:32:30.192Z</time></trkpt><trkpt lat="43.8913895" lon="11.3550811"><ele>432.25</ele><time>2026-04-19T08:32:31.2Z</time></trkpt><trkpt lat="43.8914913" lon="11.3551931"><ele>428.5</ele><time>2026-04-19T08:32:32.199Z</time></trkpt><trkpt lat="43.8916172" lon="11.3552699"><ele>424.75</ele><time>2026-04-19T08:32:33.184Z</time></trkpt><trkpt lat="43.8917548" lon="11.3553062"><ele>421.0</ele><time>2026-04-19T08:32:34.189Z</time></trkpt><trkpt lat="43.8919108" lon="11.3553177"><ele>421.0</ele><time>2026-04-19T08:32:35.184Z</time></trkpt><trkpt lat="43.8920813" lon="11.3553122"><ele>421.0</ele><time>2026-04-19T08:32:36.193Z</time></trkpt><trkpt lat="43.8922693" lon="11.355291"><ele>421.0</ele><time>2026-04-19T08:32:37.191Z</time></trkpt><trkpt lat="43.8924616" lon="11.3552498"><ele>415.0</ele><time>2026-04-19T08:32:38.197Z</time></trkpt><trkpt lat="43.8926485" lon="11.3552051"><ele>409.0</ele><time>2026-04-19T08:32:39.198Z</time></trkpt><trkpt lat="43.8928274" lon="11.3551573"><ele>403.0</ele><time>2026-04-19T08:32:40.199Z</time></trkpt><trkpt lat="43.8930008" lon="11.3551254"><ele>403.0</ele><time>2026-04-19T08:32:41.201Z</time></trkpt><trkpt lat="43.8931594" lon="11.3551132"><ele>403.0</ele><time>2026-04-19T08:32:42.184Z</time></trkpt><trkpt lat="43.8932966" lon="11.3551129"><ele>403.0</ele><time>2026-04-19T08:32:43.188Z</time></trkpt><trkpt lat="43.8934181" lon="11.3551188"><ele>403.0</ele><time>2026-04-19T08:32:44.195Z</time></trkpt><trkpt lat="43.8935253" lon="11.3551536"><ele>403.0</ele><time>2026-04-19T08:32:45.199Z</time></trkpt><trkpt lat="43.8936247" lon="11.3552249"><ele>403.0</ele><time>2026-04-19T08:32:46.197Z</time></trkpt><trkpt lat="43.8937092" lon="11.3553442"><ele>403.0</ele><time>2026-04-19T08:32:47.188Z</time></trkpt><trkpt lat="43.8937786" lon="11.355477"><ele>403.0</ele><time>2026-04-19T08:32:48.199Z</time></trkpt><trkpt lat="43.8938369" lon="11.3556234"><ele>400.25</ele><time>2026-04-19T08:32:49.186Z</time></trkpt><trkpt lat="43.8939067" lon="11.3557686"><ele>397.5</ele><time>2026-04-19T08:32:50.201Z</time></trkpt><trkpt lat="43.8939969" lon="11.3559255"><ele>394.75</ele><time>2026-04-19T08:32:51.201Z</time></trkpt><trkpt lat="43.8941144" lon="11.3560642"><ele>392.0</ele><time>2026-04-19T08:32:52.192Z</time></trkpt><trkpt lat="43.8942393" lon="11.3562062"><ele>392.25</ele><time>2026-04-19T08:32:53.184Z</time></trkpt><trkpt lat="43.8943571" lon="11.3563517"><ele>392.5</ele><time>2026-04-19T08:32:54.191Z</time></trkpt><trkpt lat="43.8944597" lon="11.3564865"><ele>392.75</ele><time>2026-04-19T08:32:55.208Z</time></trkpt><trkpt lat="43.8945435" lon="11.3566279"><ele>393.0</ele><time>2026-04-19T08:32:56.194Z</time></trkpt><trkpt lat="43.8946134" lon="11.3567582"><ele>390.59999999999997</ele><time>2026-04-19T08:32:57.207Z</time></trkpt><trkpt lat="43.8946783" lon="11.3568564"><ele>388.2</ele><time>2026-04-19T08:32:58.196Z</time></trkpt><trkpt lat="43.8947612" lon="11.3569316"><ele>385.8</ele><time>2026-04-19T08:32:59.179Z</time></trkpt><trkpt lat="43.8948598" lon="11.3569578"><ele>383.4</ele><time>2026-04-19T08:33:00.213Z</time></trkpt><trkpt lat="43.8949617" lon="11.3569444"><ele>381.0</ele><time>2026-04-19T08:33:01.198Z</time></trkpt><trkpt lat="43.8950829" lon="11.3568813"><ele>380.0</ele><time>2026-04-19T08:33:02.199Z</time></trkpt><trkpt lat="43.8952298" lon="11.3568442"><ele>379.0</ele><time>2026-04-19T08:33:03.196Z</time></trkpt><trkpt lat="43.895392" lon="11.3568508"><ele>378.0</ele><time>2026-04-19T08:33:04.201Z</time></trkpt><trkpt lat="43.8955481" lon="11.3568781"><ele>378.0</ele><time>2026-04-19T08:33:05.202Z</time></trkpt><trkpt lat="43.8956947" lon="11.3569169"><ele>378.0</ele><time>2026-04-19T08:33:06.2Z</time></trkpt><trkpt lat="43.8958387" lon="11.3569268"><ele>378.0</ele><time>2026-04-19T08:33:07.183Z</time></trkpt><trkpt lat="43.8959807" lon="11.3569092"><ele>378.0</ele><time>2026-04-19T08:33:08.199Z</time></trkpt><trkpt lat="43.8961136" lon="11.35687"><ele>376.59999999999997</ele><time>2026-04-19T08:33:09.2Z</time></trkpt><trkpt lat="43.8962262" lon="11.3568252"><ele>375.2</ele><time>2026-04-19T08:33:10.213Z</time></trkpt><trkpt lat="43.8963304" lon="11.3567894"><ele>373.8</ele><time>2026-04-19T08:33:11.195Z</time></trkpt><trkpt lat="43.8964357" lon="11.356758"><ele>372.4</ele><time>2026-04-19T08:33:12.193Z</time></trkpt><trkpt lat="43.8965421" lon="11.3567303"><ele>371.0</ele><time>2026-04-19T08:33:13.193Z</time></trkpt><trkpt lat="43.8966523" lon="11.3566986"><ele>369.25</ele><time>2026-04-19T08:33:14.199Z</time></trkpt><trkpt lat="43.8967622" lon="11.3566621"><ele>367.5</ele><time>2026-04-19T08:33:15.192Z</time></trkpt><trkpt lat="43.8968739" lon="11.3566331"><ele>365.75</ele><time>2026-04-19T08:33:16.207Z</time></trkpt><trkpt lat="43.8969891" lon="11.3565965"><ele>364.0</ele><time>2026-04-19T08:33:17.196Z</time></trkpt><trkpt lat="43.8971079" lon="11.3565689"><ele>364.0</ele><time>2026-04-19T08:33:18.187Z</time></trkpt><trkpt lat="43.8972277" lon="11.3565356"><ele>364.0</ele><time>2026-04-19T08:33:19.206Z</time></trkpt><trkpt lat="43.8973468" lon="11.3565026"><ele>364.0</ele><time>2026-04-19T08:33:20.184Z</time></trkpt><trkpt lat="43.8974613" lon="11.3564748"><ele>364.0</ele><time>2026-04-19T08:33:21.192Z</time></trkpt><trkpt lat="43.8975763" lon="11.3564608"><ele>362.0</ele><time>2026-04-19T08:33:22.195Z</time></trkpt><trkpt lat="43.8976968" lon="11.356468"><ele>360.0</ele><time>2026-04-19T08:33:23.194Z</time></trkpt><trkpt lat="43.8978142" lon="11.356504"><ele>358.0</ele><time>2026-04-19T08:33:24.205Z</time></trkpt><trkpt lat="43.8979244" lon="11.3565677"><ele>356.0</ele><time>2026-04-19T08:33:25.184Z</time></trkpt><trkpt lat="43.8980198" lon="11.3566534"><ele>356.0</ele><time>2026-04-19T08:33:26.197Z</time></trkpt><trkpt lat="43.8980998" lon="11.3567757"><ele>356.0</ele><time>2026-04-19T08:33:27.199Z</time></trkpt><trkpt lat="43.8981602" lon="11.356917"><ele>356.0</ele><time>2026-04-19T08:33:28.178Z</time></trkpt><trkpt lat="43.8981891" lon="11.357076"><ele>356.0</ele><time>2026-04-19T08:33:29.183Z</time></trkpt><trkpt lat="43.8981951" lon="11.3572482"><ele>354.75</ele><time>2026-04-19T08:33:30.21Z</time></trkpt><trkpt lat="43.8981813" lon="11.357419"><ele>353.5</ele><time>2026-04-19T08:33:31.206Z</time></trkpt><trkpt lat="43.8981654" lon="11.3575919"><ele>352.25</ele><time>2026-04-19T08:33:32.198Z</time></trkpt><trkpt lat="43.8981439" lon="11.3577653"><ele>351.0</ele><time>2026-04-19T08:33:33.194Z</time></trkpt><trkpt lat="43.898107" lon="11.3579304"><ele>349.75</ele><time>2026-04-19T08:33:34.2Z</time></trkpt><trkpt lat="43.8980598" lon="11.3580728"><ele>348.5</ele><time>2026-04-19T08:33:35.202Z</time></trkpt><trkpt lat="43.8979902" lon="11.3582036"><ele>347.25</ele><time>2026-04-19T08:33:36.206Z</time></trkpt><trkpt lat="43.8979002" lon="11.3583089"><ele>346.0</ele><time>2026-04-19T08:33:37.191Z</time></trkpt><trkpt lat="43.8977993" lon="11.3583811"><ele>346.0</ele><time>2026-04-19T08:33:38.195Z</time></trkpt><trkpt lat="43.8976849" lon="11.3584431"><ele>346.0</ele><time>2026-04-19T08:33:39.192Z</time></trkpt><trkpt lat="43.8975587" lon="11.3584969"><ele>346.0</ele><time>2026-04-19T08:33:40.194Z</time></trkpt><trkpt lat="43.8974282" lon="11.3584994"><ele>346.0</ele><time>2026-04-19T08:33:41.194Z</time></trkpt><trkpt lat="43.8972978" lon="11.3584892"><ele>346.8</ele><time>2026-04-19T08:33:42.19Z</time></trkpt><trkpt lat="43.8971689" lon="11.3584777"><ele>347.6</ele><time>2026-04-19T08:33:43.203Z</time></trkpt><trkpt lat="43.8970613" lon="11.3584749"><ele>348.4</ele><time>2026-04-19T08:33:44.2Z</time></trkpt><trkpt lat="43.8969687" lon="11.3584918"><ele>349.2</ele><time>2026-04-19T08:33:45.199Z</time></trkpt><trkpt lat="43.8968995" lon="11.3585311"><ele>350.0</ele><time>2026-04-19T08:33:46.192Z</time></trkpt><trkpt lat="43.8968562" lon="11.3586119"><ele>350.0</ele><time>2026-04-19T08:33:47.199Z</time></trkpt><trkpt lat="43.896849" lon="11.3587062"><ele>350.0</ele><time>2026-04-19T08:33:48.198Z</time></trkpt><trkpt lat="43.8968819" lon="11.3588"><ele>350.0</ele><time>2026-04-19T08:33:49.192Z</time></trkpt><trkpt lat="43.8969576" lon="11.3588999"><ele>350.0</ele><time>2026-04-19T08:33:50.194Z</time></trkpt><trkpt lat="43.8970577" lon="11.3589997"><ele>350.0</ele><time>2026-04-19T08:33:51.182Z</time></trkpt><trkpt lat="43.897153" lon="11.359103"><ele>348.25</ele><time>2026-04-19T08:33:52.189Z</time></trkpt><trkpt lat="43.8972569" lon="11.3592061"><ele>346.5</ele><time>2026-04-19T08:33:53.186Z</time></trkpt><trkpt lat="43.8973597" lon="11.3593118"><ele>344.75</ele><time>2026-04-19T08:33:54.198Z</time></trkpt><trkpt lat="43.8974587" lon="11.3594201"><ele>343.0</ele><time>2026-04-19T08:33:55.183Z</time></trkpt><trkpt lat="43.8975645" lon="11.3595231"><ele>342.0</ele><time>2026-04-19T08:33:56.201Z</time></trkpt><trkpt lat="43.8976792" lon="11.3595998"><ele>341.0</ele><time>2026-04-19T08:33:57.192Z</time></trkpt><trkpt lat="43.8977976" lon="11.3596593"><ele>340.0</ele><time>2026-04-19T08:33:58.191Z</time></trkpt><trkpt lat="43.8979246" lon="11.3596854"><ele>339.0</ele><time>2026-04-19T08:33:59.202Z</time></trkpt><trkpt lat="43.8980608" lon="11.3596744"><ele>339.0</ele><time>2026-04-19T08:34:00.191Z</time></trkpt><trkpt lat="43.8981969" lon="11.3596298"><ele>339.0</ele><time>2026-04-19T08:34:01.192Z</time></trkpt><trkpt lat="43.8983397" lon="11.3595553"><ele>339.0</ele><time>2026-04-19T08:34:02.193Z</time></trkpt><trkpt lat="43.8984835" lon="11.3594621"><ele>336.25</ele><time>2026-04-19T08:34:03.185Z</time></trkpt><trkpt lat="43.8986175" lon="11.3593853"><ele>333.5</ele><time>2026-04-19T08:34:04.188Z</time></trkpt><trkpt lat="43.8987413" lon="11.3592993"><ele>330.75</ele><time>2026-04-19T08:34:05.199Z</time></trkpt><trkpt lat="43.8988572" lon="11.359186"><ele>328.0</ele><time>2026-04-19T08:34:06.193Z</time></trkpt><trkpt lat="43.8989705" lon="11.3590148"><ele>329.66666666666663</ele><time>2026-04-19T08:34:07.179Z</time></trkpt><trkpt lat="43.8990674" lon="11.3588179"><ele>331.3333333333333</ele><time>2026-04-19T08:34:08.197Z</time></trkpt><trkpt lat="43.8991676" lon="11.3586029"><ele>333.0</ele><time>2026-04-19T08:34:09.188Z</time></trkpt><trkpt lat="43.8992723" lon="11.3583805"><ele>330.3333333333333</ele><time>2026-04-19T08:34:10.202Z</time></trkpt><trkpt lat="43.8993805" lon="11.358165"><ele>327.66666666666663</ele><time>2026-04-19T08:34:11.192Z</time></trkpt><trkpt lat="43.8994911" lon="11.3579475"><ele>325.0</ele><time>2026-04-19T08:34:12.194Z</time></trkpt><trkpt lat="43.8995858" lon="11.3577441"><ele>325.0</ele><time>2026-04-19T08:34:13.197Z</time></trkpt><trkpt lat="43.8996676" lon="11.3575769"><ele>325.0</ele><time>2026-04-19T08:34:14.19Z</time></trkpt><trkpt lat="43.8997505" lon="11.3574172"><ele>325.0</ele><time>2026-04-19T08:34:15.19Z</time></trkpt><trkpt lat="43.8998543" lon="11.3572864"><ele>325.0</ele><time>2026-04-19T08:34:16.195Z</time></trkpt><trkpt lat="43.899996" lon="11.3571807"><ele>326.3333333333333</ele><time>2026-04-19T08:34:17.194Z</time></trkpt><trkpt lat="43.9001543" lon="11.357106"><ele>327.6666666666667</ele><time>2026-04-19T08:34:18.197Z</time></trkpt><trkpt lat="43.9003209" lon="11.357052"><ele>329.0</ele><time>2026-04-19T08:34:19.199Z</time></trkpt><trkpt lat="43.9004813" lon="11.357011"><ele>329.0</ele><time>2026-04-19T08:34:20.198Z</time></trkpt><trkpt lat="43.9006295" lon="11.3569659"><ele>329.0</ele><time>2026-04-19T08:34:21.195Z</time></trkpt><trkpt lat="43.9007665" lon="11.3568992"><ele>329.0</ele><time>2026-04-19T08:34:22.202Z</time></trkpt><trkpt lat="43.9008967" lon="11.3567971"><ele>329.0</ele><time>2026-04-19T08:34:23.201Z</time></trkpt><trkpt lat="43.9010133" lon="11.356681"><ele>326.25</ele><time>2026-04-19T08:34:24.194Z</time></trkpt><trkpt lat="43.9011249" lon="11.3565755"><ele>323.5</ele><time>2026-04-19T08:34:25.196Z</time></trkpt><trkpt lat="43.9012612" lon="11.3565313"><ele>320.75</ele><time>2026-04-19T08:34:26.193Z</time></trkpt><trkpt lat="43.9014244" lon="11.3565423"><ele>318.0</ele><time>2026-04-19T08:34:27.194Z</time></trkpt><trkpt lat="43.9015953" lon="11.3565539"><ele>314.6666666666667</ele><time>2026-04-19T08:34:28.192Z</time></trkpt><trkpt lat="43.9017754" lon="11.3565295"><ele>311.33333333333337</ele><time>2026-04-19T08:34:29.183Z</time></trkpt><trkpt lat="43.9019688" lon="11.3564806"><ele>308.0</ele><time>2026-04-19T08:34:30.188Z</time></trkpt><trkpt lat="43.9021579" lon="11.3564233"><ele>308.0</ele><time>2026-04-19T08:34:31.202Z</time></trkpt><trkpt lat="43.9023392" lon="11.3563796"><ele>308.0</ele><time>2026-04-19T08:34:32.197Z</time></trkpt><trkpt lat="43.9025086" lon="11.3563519"><ele>308.0</ele><time>2026-04-19T08:34:33.186Z</time></trkpt><trkpt lat="43.9026751" lon="11.3563452"><ele>307.0</ele><time>2026-04-19T08:34:34.191Z</time></trkpt><trkpt lat="43.9028554" lon="11.3563824"><ele>306.0</ele><time>2026-04-19T08:34:35.195Z</time></trkpt><trkpt lat="43.9030425" lon="11.3564603"><ele>305.0</ele><time>2026-04-19T08:34:36.179Z</time></trkpt><trkpt lat="43.9032104" lon="11.3565646"><ele>305.0</ele><time>2026-04-19T08:34:37.186Z</time></trkpt><trkpt lat="43.9033581" lon="11.3566984"><ele>305.0</ele><time>2026-04-19T08:34:38.179Z</time></trkpt><trkpt lat="43.9035009" lon="11.3568044"><ele>305.0</ele><time>2026-04-19T08:34:39.177Z</time></trkpt><trkpt lat="43.9036347" lon="11.3568785"><ele>304.0</ele><time>2026-04-19T08:34:40.194Z</time></trkpt><trkpt lat="43.9037685" lon="11.3569255"><ele>303.0</ele><time>2026-04-19T08:34:41.196Z</time></trkpt><trkpt lat="43.9039097" lon="11.3569403"><ele>302.0</ele><time>2026-04-19T08:34:42.19Z</time></trkpt><trkpt lat="43.9040494" lon="11.3569268"><ele>301.0</ele><time>2026-04-19T08:34:43.191Z</time></trkpt><trkpt lat="43.9041961" lon="11.3568686"><ele>300.3333333333333</ele><time>2026-04-19T08:34:44.194Z</time></trkpt><trkpt lat="43.9043434" lon="11.3567791"><ele>299.6666666666667</ele><time>2026-04-19T08:34:45.197Z</time></trkpt><trkpt lat="43.9044883" lon="11.3566796"><ele>299.0</ele><time>2026-04-19T08:34:46.182Z</time></trkpt><trkpt lat="43.9046249" lon="11.3565837"><ele>299.0</ele><time>2026-04-19T08:34:47.194Z</time></trkpt><trkpt lat="43.9047556" lon="11.3564968"><ele>299.0</ele><time>2026-04-19T08:34:48.174Z</time></trkpt><trkpt lat="43.9048772" lon="11.3564041"><ele>299.0</ele><time>2026-04-19T08:34:49.18Z</time></trkpt><trkpt lat="43.9049721" lon="11.3562581"><ele>299.0</ele><time>2026-04-19T08:34:50.188Z</time></trkpt><trkpt lat="43.9050573" lon="11.35605"><ele>299.0</ele><time>2026-04-19T08:34:51.191Z</time></trkpt><trkpt lat="43.9051385" lon="11.3558187"><ele>299.0</ele><time>2026-04-19T08:34:52.195Z</time></trkpt><trkpt lat="43.9052181" lon="11.3556023"><ele>299.0</ele><time>2026-04-19T08:34:53.192Z</time></trkpt><trkpt lat="43.9053055" lon="11.3553619"><ele>297.0</ele><time>2026-04-19T08:34:54.199Z</time></trkpt><trkpt lat="43.9053795" lon="11.3551094"><ele>295.0</ele><time>2026-04-19T08:34:55.194Z</time></trkpt><trkpt lat="43.9054497" lon="11.3548456"><ele>293.0</ele><time>2026-04-19T08:34:56.193Z</time></trkpt><trkpt lat="43.9055188" lon="11.3546125"><ele>293.0</ele><time>2026-04-19T08:34:57.194Z</time></trkpt><trkpt lat="43.9055801" lon="11.3543998"><ele>293.0</ele><time>2026-04-19T08:34:58.193Z</time></trkpt><trkpt lat="43.9056578" lon="11.3541816"><ele>293.0</ele><time>2026-04-19T08:34:59.202Z</time></trkpt><trkpt lat="43.9057731" lon="11.3539824"><ele>291.0</ele><time>2026-04-19T08:35:00.185Z</time></trkpt><trkpt lat="43.9058976" lon="11.3538267"><ele>289.0</ele><time>2026-04-19T08:35:01.193Z</time></trkpt><trkpt lat="43.9060564" lon="11.3536924"><ele>287.0</ele><time>2026-04-19T08:35:02.194Z</time></trkpt><trkpt lat="43.9062238" lon="11.3536033"><ele>287.0</ele><time>2026-04-19T08:35:03.195Z</time></trkpt><trkpt lat="43.9063895" lon="11.3535385"><ele>287.0</ele><time>2026-04-19T08:35:04.187Z</time></trkpt><trkpt lat="43.9065569" lon="11.3534969"><ele>287.0</ele><time>2026-04-19T08:35:05.19Z</time></trkpt><trkpt lat="43.9067374" lon="11.3534744"><ele>287.0</ele><time>2026-04-19T08:35:06.194Z</time></trkpt><trkpt lat="43.9069316" lon="11.3534715"><ele>287.0</ele><time>2026-04-19T08:35:07.201Z</time></trkpt><trkpt lat="43.9071274" lon="11.3534836"><ele>287.0</ele><time>2026-04-19T08:35:08.189Z</time></trkpt><trkpt lat="43.9073316" lon="11.3534848"><ele>287.0</ele><time>2026-04-19T08:35:09.188Z</time></trkpt><trkpt lat="43.9075426" lon="11.3534821"><ele>287.0</ele><time>2026-04-19T08:35:10.182Z</time></trkpt><trkpt lat="43.9077571" lon="11.353475"><ele>287.0</ele><time>2026-04-19T08:35:11.199Z</time></trkpt><trkpt lat="43.9079676" lon="11.3534712"><ele>285.6666666666667</ele><time>2026-04-19T08:35:12.195Z</time></trkpt><trkpt lat="43.908177" lon="11.3534702"><ele>284.3333333333333</ele><time>2026-04-19T08:35:13.194Z</time></trkpt><trkpt lat="43.9083814" lon="11.3534721"><ele>283.0</ele><time>2026-04-19T08:35:14.199Z</time></trkpt><trkpt lat="43.9085777" lon="11.3534708"><ele>282.66666666666663</ele><time>2026-04-19T08:35:15.202Z</time></trkpt><trkpt lat="43.9087672" lon="11.3534764"><ele>282.3333333333333</ele><time>2026-04-19T08:35:16.199Z</time></trkpt><trkpt lat="43.9089445" lon="11.3534785"><ele>282.0</ele><time>2026-04-19T08:35:17.195Z</time></trkpt><trkpt lat="43.9091151" lon="11.3534717"><ele>285.3333333333333</ele><time>2026-04-19T08:35:18.19Z</time></trkpt><trkpt lat="43.9092815" lon="11.3534668"><ele>288.66666666666663</ele><time>2026-04-19T08:35:19.197Z</time></trkpt><trkpt lat="43.9094443" lon="11.3534821"><ele>292.0</ele><time>2026-04-19T08:35:20.202Z</time></trkpt><trkpt lat="43.9096156" lon="11.353508"><ele>292.0</ele><time>2026-04-19T08:35:21.198Z</time></trkpt><trkpt lat="43.909792" lon="11.3535594"><ele>292.0</ele><time>2026-04-19T08:35:22.201Z</time></trkpt><trkpt lat="43.9099612" lon="11.3536271"><ele>292.0</ele><time>2026-04-19T08:35:23.199Z</time></trkpt><trkpt lat="43.9101274" lon="11.3537102"><ele>289.66666666666663</ele><time>2026-04-19T08:35:24.187Z</time></trkpt><trkpt lat="43.9102837" lon="11.3537891"><ele>287.3333333333333</ele><time>2026-04-19T08:35:25.196Z</time></trkpt><trkpt lat="43.9104367" lon="11.3538529"><ele>285.0</ele><time>2026-04-19T08:35:26.199Z</time></trkpt><trkpt lat="43.910595" lon="11.3539059"><ele>281.6666666666667</ele><time>2026-04-19T08:35:27.194Z</time></trkpt><trkpt lat="43.910761" lon="11.3539423"><ele>278.33333333333337</ele><time>2026-04-19T08:35:28.204Z</time></trkpt><trkpt lat="43.9109404" lon="11.3539391"><ele>275.0</ele><time>2026-04-19T08:35:29.205Z</time></trkpt><trkpt lat="43.9111288" lon="11.3539031"><ele>275.6666666666667</ele><time>2026-04-19T08:35:30.189Z</time></trkpt><trkpt lat="43.9113038" lon="11.3538393"><ele>276.3333333333333</ele><time>2026-04-19T08:35:31.198Z</time></trkpt><trkpt lat="43.9114802" lon="11.3537567"><ele>277.0</ele><time>2026-04-19T08:35:32.195Z</time></trkpt><trkpt lat="43.9116612" lon="11.3536634"><ele>277.3333333333333</ele><time>2026-04-19T08:35:33.189Z</time></trkpt><trkpt lat="43.9118393" lon="11.3535853"><ele>277.6666666666667</ele><time>2026-04-19T08:35:34.199Z</time></trkpt><trkpt lat="43.9120133" lon="11.3535163"><ele>278.0</ele><time>2026-04-19T08:35:35.194Z</time></trkpt><trkpt lat="43.9121764" lon="11.3534437"><ele>278.0</ele><time>2026-04-19T08:35:36.189Z</time></trkpt><trkpt lat="43.912335" lon="11.3533702"><ele>278.0</ele><time>2026-04-19T08:35:37.193Z</time></trkpt><trkpt lat="43.9124944" lon="11.3533063"><ele>278.0</ele><time>2026-04-19T08:35:38.187Z</time></trkpt><trkpt lat="43.9126695" lon="11.3532677"><ele>276.0</ele><time>2026-04-19T08:35:39.192Z</time></trkpt><trkpt lat="43.9128501" lon="11.3532505"><ele>274.0</ele><time>2026-04-19T08:35:40.197Z</time></trkpt><trkpt lat="43.9130352" lon="11.3532703"><ele>272.0</ele><time>2026-04-19T08:35:41.196Z</time></trkpt><trkpt lat="43.9132075" lon="11.3533092"><ele>272.0</ele><time>2026-04-19T08:35:42.202Z</time></trkpt><trkpt lat="43.9133699" lon="11.3533441"><ele>272.0</ele><time>2026-04-19T08:35:43.189Z</time></trkpt><trkpt lat="43.9135328" lon="11.3533563"><ele>272.0</ele><time>2026-04-19T08:35:44.198Z</time></trkpt><trkpt lat="43.913683" lon="11.3533448"><ele>273.0</ele><time>2026-04-19T08:35:45.197Z</time></trkpt><trkpt lat="43.9138375" lon="11.3532943"><ele>274.0</ele><time>2026-04-19T08:35:46.192Z</time></trkpt><trkpt lat="43.9139869" lon="11.3532442"><ele>275.0</ele><time>2026-04-19T08:35:47.204Z</time></trkpt><trkpt lat="43.914131" lon="11.3532202"><ele>274.0</ele><time>2026-04-19T08:35:48.205Z</time></trkpt><trkpt lat="43.9142751" lon="11.3532197"><ele>273.0</ele><time>2026-04-19T08:35:49.191Z</time></trkpt><trkpt lat="43.9144123" lon="11.353257"><ele>272.0</ele><time>2026-04-19T08:35:50.194Z</time></trkpt><trkpt lat="43.9145421" lon="11.3532848"><ele>271.0</ele><time>2026-04-19T08:35:51.195Z</time></trkpt><trkpt lat="43.9146734" lon="11.3532862"><ele>271.0</ele><time>2026-04-19T08:35:52.205Z</time></trkpt><trkpt lat="43.9148184" lon="11.3532397"><ele>271.0</ele><time>2026-04-19T08:35:53.194Z</time></trkpt><trkpt lat="43.9149825" lon="11.3531827"><ele>271.0</ele><time>2026-04-19T08:35:54.187Z</time></trkpt><trkpt lat="43.9151516" lon="11.3531252"><ele>271.66666666666663</ele><time>2026-04-19T08:35:55.192Z</time></trkpt><trkpt lat="43.9153298" lon="11.3530593"><ele>272.3333333333333</ele><time>2026-04-19T08:35:56.175Z</time></trkpt><trkpt lat="43.9155099" lon="11.352987"><ele>273.0</ele><time>2026-04-19T08:35:57.178Z</time></trkpt><trkpt lat="43.9156796" lon="11.3529134"><ele>273.0</ele><time>2026-04-19T08:35:58.198Z</time></trkpt><trkpt lat="43.9158421" lon="11.3528403"><ele>273.0</ele><time>2026-04-19T08:35:59.193Z</time></trkpt><trkpt lat="43.9159983" lon="11.3527799"><ele>273.0</ele><time>2026-04-19T08:36:00.2Z</time></trkpt><trkpt lat="43.916143" lon="11.3527273"><ele>275.3333333333333</ele><time>2026-04-19T08:36:01.189Z</time></trkpt><trkpt lat="43.9162924" lon="11.3527017"><ele>277.66666666666663</ele><time>2026-04-19T08:36:02.194Z</time></trkpt><trkpt lat="43.9164599" lon="11.3527159"><ele>280.0</ele><time>2026-04-19T08:36:03.188Z</time></trkpt><trkpt lat="43.9166211" lon="11.3527917"><ele>283.0</ele><time>2026-04-19T08:36:04.197Z</time></trkpt><trkpt lat="43.9167803" lon="11.3529057"><ele>286.0</ele><time>2026-04-19T08:36:05.191Z</time></trkpt><trkpt lat="43.9169201" lon="11.3530382"><ele>289.0</ele><time>2026-04-19T08:36:06.18Z</time></trkpt><trkpt lat="43.9170651" lon="11.353154"><ele>282.3333333333333</ele><time>2026-04-19T08:36:07.175Z</time></trkpt><trkpt lat="43.9172027" lon="11.3532374"><ele>275.6666666666667</ele><time>2026-04-19T08:36:08.184Z</time></trkpt><trkpt lat="43.9173502" lon="11.3532907"><ele>269.0</ele><time>2026-04-19T08:36:09.175Z</time></trkpt><trkpt lat="43.9175124" lon="11.353314"><ele>267.0</ele><time>2026-04-19T08:36:10.194Z</time></trkpt><trkpt lat="43.9176828" lon="11.3533228"><ele>265.0</ele><time>2026-04-19T08:36:11.193Z</time></trkpt><trkpt lat="43.9178582" lon="11.3533373"><ele>263.0</ele><time>2026-04-19T08:36:12.196Z</time></trkpt><trkpt lat="43.9180274" lon="11.3533513"><ele>263.0</ele><time>2026-04-19T08:36:13.17Z</time></trkpt><trkpt lat="43.9181895" lon="11.3533652"><ele>263.0</ele><time>2026-04-19T08:36:14.179Z</time></trkpt><trkpt lat="43.9183429" lon="11.3533723"><ele>263.0</ele><time>2026-04-19T08:36:15.198Z</time></trkpt><trkpt lat="43.9184899" lon="11.3533853"><ele>262.75</ele><time>2026-04-19T08:36:16.193Z</time></trkpt><trkpt lat="43.9186368" lon="11.3533953"><ele>262.5</ele><time>2026-04-19T08:36:17.194Z</time></trkpt><trkpt lat="43.9187743" lon="11.3534107"><ele>262.25</ele><time>2026-04-19T08:36:18.197Z</time></trkpt><trkpt lat="43.9189109" lon="11.3534245"><ele>262.0</ele><time>2026-04-19T08:36:19.182Z</time></trkpt><trkpt lat="43.9190415" lon="11.3534306"><ele>262.0</ele><time>2026-04-19T08:36:20.189Z</time></trkpt><trkpt lat="43.9191764" lon="11.3534192"><ele>262.0</ele><time>2026-04-19T08:36:21.184Z</time></trkpt><trkpt lat="43.9193102" lon="11.353387"><ele>262.0</ele><time>2026-04-19T08:36:22.192Z</time></trkpt><trkpt lat="43.9194433" lon="11.3533051"><ele>262.0</ele><time>2026-04-19T08:36:23.186Z</time></trkpt><trkpt lat="43.91956" lon="11.3531654"><ele>262.3333333333333</ele><time>2026-04-19T08:36:24.19Z</time></trkpt><trkpt lat="43.9196663" lon="11.3529882"><ele>262.6666666666667</ele><time>2026-04-19T08:36:25.179Z</time></trkpt><trkpt lat="43.9197677" lon="11.3528014"><ele>263.0</ele><time>2026-04-19T08:36:26.187Z</time></trkpt><trkpt lat="43.9198613" lon="11.3526129"><ele>263.0</ele><time>2026-04-19T08:36:27.192Z</time></trkpt><trkpt lat="43.9199524" lon="11.3524049"><ele>263.0</ele><time>2026-04-19T08:36:28.187Z</time></trkpt><trkpt lat="43.9200367" lon="11.3521859"><ele>263.0</ele><time>2026-04-19T08:36:29.2Z</time></trkpt><trkpt lat="43.9201101" lon="11.3519586"><ele>265.33333333333337</ele><time>2026-04-19T08:36:30.196Z</time></trkpt><trkpt lat="43.9201787" lon="11.3517163"><ele>267.6666666666667</ele><time>2026-04-19T08:36:31.194Z</time></trkpt><trkpt lat="43.9202515" lon="11.351481"><ele>270.0</ele><time>2026-04-19T08:36:32.2Z</time></trkpt><trkpt lat="43.9203175" lon="11.3512576"><ele>265.0</ele><time>2026-04-19T08:36:33.19Z</time></trkpt><trkpt lat="43.9203769" lon="11.3510422"><ele>260.0</ele><time>2026-04-19T08:36:34.182Z</time></trkpt><trkpt lat="43.9204598" lon="11.3508484"><ele>255.0</ele><time>2026-04-19T08:36:35.184Z</time></trkpt><trkpt lat="43.920574" lon="11.3506889"><ele>255.0</ele><time>2026-04-19T08:36:36.198Z</time></trkpt><trkpt lat="43.920721" lon="11.35055"><ele>255.0</ele><time>2026-04-19T08:36:37.192Z</time></trkpt><trkpt lat="43.9208823" lon="11.3504274"><ele>255.0</ele><time>2026-04-19T08:36:38.187Z</time></trkpt><trkpt lat="43.9210449" lon="11.350331"><ele>254.33333333333331</ele><time>2026-04-19T08:36:39.201Z</time></trkpt><trkpt lat="43.9212004" lon="11.3502344"><ele>253.66666666666666</ele><time>2026-04-19T08:36:40.189Z</time></trkpt><trkpt lat="43.9213394" lon="11.3501387"><ele>253.0</ele><time>2026-04-19T08:36:41.179Z</time></trkpt><trkpt lat="43.9214699" lon="11.3500562"><ele>253.0</ele><time>2026-04-19T08:36:42.197Z</time></trkpt><trkpt lat="43.9215916" lon="11.3499812"><ele>253.0</ele><time>2026-04-19T08:36:43.189Z</time></trkpt><trkpt lat="43.9217122" lon="11.3499021"><ele>253.0</ele><time>2026-04-19T08:36:44.194Z</time></trkpt><trkpt lat="43.9218267" lon="11.3498425"><ele>253.0</ele><time>2026-04-19T08:36:45.197Z</time></trkpt><trkpt lat="43.9219444" lon="11.3498071"><ele>253.0</ele><time>2026-04-19T08:36:46.189Z</time></trkpt><trkpt lat="43.9220659" lon="11.349795"><ele>253.0</ele><time>2026-04-19T08:36:47.196Z</time></trkpt><trkpt lat="43.9222018" lon="11.34981"><ele>253.0</ele><time>2026-04-19T08:36:48.199Z</time></trkpt><trkpt lat="43.9223395" lon="11.3498358"><ele>253.0</ele><time>2026-04-19T08:36:49.19Z</time></trkpt><trkpt lat="43.9224724" lon="11.349891"><ele>252.25</ele><time>2026-04-19T08:36:50.196Z</time></trkpt><trkpt lat="43.9226051" lon="11.349932"><ele>251.5</ele><time>2026-04-19T08:36:51.199Z</time></trkpt><trkpt lat="43.9227527" lon="11.3499338"><ele>250.75</ele><time>2026-04-19T08:36:52.201Z</time></trkpt><trkpt lat="43.9229001" lon="11.349888"><ele>250.0</ele><time>2026-04-19T08:36:53.192Z</time></trkpt><trkpt lat="43.9230425" lon="11.3498192"><ele>250.0</ele><time>2026-04-19T08:36:54.195Z</time></trkpt><trkpt lat="43.9231906" lon="11.3497426"><ele>250.0</ele><time>2026-04-19T08:36:55.193Z</time></trkpt><trkpt lat="43.9233305" lon="11.3496472"><ele>250.0</ele><time>2026-04-19T08:36:56.196Z</time></trkpt><trkpt lat="43.9234656" lon="11.3495306"><ele>248.25</ele><time>2026-04-19T08:36:57.193Z</time></trkpt><trkpt lat="43.9235853" lon="11.3493976"><ele>246.5</ele><time>2026-04-19T08:36:58.2Z</time></trkpt><trkpt lat="43.9236886" lon="11.3492717"><ele>244.75</ele><time>2026-04-19T08:36:59.197Z</time></trkpt><trkpt lat="43.9237761" lon="11.3491635"><ele>243.0</ele><time>2026-04-19T08:37:00.194Z</time></trkpt><trkpt lat="43.9238543" lon="11.3491133"><ele>243.0</ele><time>2026-04-19T08:37:01.201Z</time></trkpt><trkpt lat="43.9239284" lon="11.3491049"><ele>243.0</ele><time>2026-04-19T08:37:02.194Z</time></trkpt><trkpt lat="43.9239946" lon="11.3491371"><ele>243.0</ele><time>2026-04-19T08:37:03.179Z</time></trkpt><trkpt lat="43.9240601" lon="11.3492188"><ele>243.0</ele><time>2026-04-19T08:37:04.195Z</time></trkpt><trkpt lat="43.9241318" lon="11.3493225"><ele>243.0</ele><time>2026-04-19T08:37:05.19Z</time></trkpt><trkpt lat="43.924213" lon="11.3494259"><ele>243.0</ele><time>2026-04-19T08:37:06.19Z</time></trkpt><trkpt lat="43.9242931" lon="11.3495394"><ele>243.0</ele><time>2026-04-19T08:37:07.197Z</time></trkpt><trkpt lat="43.9243823" lon="11.3496666"><ele>243.0</ele><time>2026-04-19T08:37:08.206Z</time></trkpt><trkpt lat="43.9244727" lon="11.3498038"><ele>243.0</ele><time>2026-04-19T08:37:09.194Z</time></trkpt><trkpt lat="43.9245701" lon="11.3499434"><ele>243.0</ele><time>2026-04-19T08:37:10.185Z</time></trkpt><trkpt lat="43.9246724" lon="11.3500831"><ele>243.0</ele><time>2026-04-19T08:37:11.195Z</time></trkpt><trkpt lat="43.9247855" lon="11.3502309"><ele>243.0</ele><time>2026-04-19T08:37:12.194Z</time></trkpt><trkpt lat="43.9249108" lon="11.3503703"><ele>243.0</ele><time>2026-04-19T08:37:13.195Z</time></trkpt><trkpt lat="43.9250463" lon="11.3504937"><ele>242.33333333333331</ele><time>2026-04-19T08:37:14.198Z</time></trkpt><trkpt lat="43.9251846" lon="11.3506201"><ele>241.66666666666666</ele><time>2026-04-19T08:37:15.202Z</time></trkpt><trkpt lat="43.9253187" lon="11.3507425"><ele>241.0</ele><time>2026-04-19T08:37:16.177Z</time></trkpt><trkpt lat="43.925455" lon="11.3508696"><ele>241.0</ele><time>2026-04-19T08:37:17.199Z</time></trkpt><trkpt lat="43.9255845" lon="11.3509902"><ele>241.0</ele><time>2026-04-19T08:37:18.2Z</time></trkpt><trkpt lat="43.9257121" lon="11.3511103"><ele>241.0</ele><time>2026-04-19T08:37:19.195Z</time></trkpt><trkpt lat="43.92584" lon="11.3512111"><ele>241.0</ele><time>2026-04-19T08:37:20.195Z</time></trkpt><trkpt lat="43.9259796" lon="11.3512927"><ele>241.0</ele><time>2026-04-19T08:37:21.193Z</time></trkpt><trkpt lat="43.926141" lon="11.3513329"><ele>241.0</ele><time>2026-04-19T08:37:22.2Z</time></trkpt><trkpt lat="43.9263041" lon="11.3513334"><ele>241.0</ele><time>2026-04-19T08:37:23.193Z</time></trkpt><trkpt lat="43.9264658" lon="11.3513282"><ele>241.0</ele><time>2026-04-19T08:37:24.182Z</time></trkpt><trkpt lat="43.926632" lon="11.3513166"><ele>241.0</ele><time>2026-04-19T08:37:25.191Z</time></trkpt><trkpt lat="43.9268126" lon="11.3513026"><ele>241.0</ele><time>2026-04-19T08:37:26.197Z</time></trkpt><trkpt lat="43.9270003" lon="11.3512889"><ele>241.0</ele><time>2026-04-19T08:37:27.189Z</time></trkpt><trkpt lat="43.9271888" lon="11.3512779"><ele>241.0</ele><time>2026-04-19T08:37:28.189Z</time></trkpt><trkpt lat="43.9273843" lon="11.3512707"><ele>240.0</ele><time>2026-04-19T08:37:29.187Z</time></trkpt><trkpt lat="43.9275734" lon="11.3512526"><ele>239.0</ele><time>2026-04-19T08:37:30.186Z</time></trkpt><trkpt lat="43.927768" lon="11.3512065"><ele>238.0</ele><time>2026-04-19T08:37:31.203Z</time></trkpt><trkpt lat="43.9279553" lon="11.3511294"><ele>238.0</ele><time>2026-04-19T08:37:32.187Z</time></trkpt><trkpt lat="43.9281446" lon="11.3510271"><ele>238.0</ele><time>2026-04-19T08:37:33.191Z</time></trkpt><trkpt lat="43.928331" lon="11.3509266"><ele>238.0</ele><time>2026-04-19T08:37:34.191Z</time></trkpt><trkpt lat="43.9285133" lon="11.3508187"><ele>238.33333333333331</ele><time>2026-04-19T08:37:35.189Z</time></trkpt><trkpt lat="43.9286839" lon="11.3506905"><ele>238.66666666666669</ele><time>2026-04-19T08:37:36.177Z</time></trkpt><trkpt lat="43.9288489" lon="11.3505679"><ele>239.0</ele><time>2026-04-19T08:37:37.192Z</time></trkpt><trkpt lat="43.9290071" lon="11.3504564"><ele>243.66666666666669</ele><time>2026-04-19T08:37:38.192Z</time></trkpt><trkpt lat="43.9291568" lon="11.3503925"><ele>248.33333333333331</ele><time>2026-04-19T08:37:39.19Z</time></trkpt><trkpt lat="43.9293173" lon="11.3503512"><ele>253.0</ele><time>2026-04-19T08:37:40.196Z</time></trkpt><trkpt lat="43.9294917" lon="11.350334"><ele>256.66666666666663</ele><time>2026-04-19T08:37:41.194Z</time></trkpt><trkpt lat="43.9296656" lon="11.3503279"><ele>260.3333333333333</ele><time>2026-04-19T08:37:42.189Z</time></trkpt><trkpt lat="43.9298482" lon="11.3503372"><ele>264.0</ele><time>2026-04-19T08:37:43.2Z</time></trkpt><trkpt lat="43.9300208" lon="11.3503611"><ele>263.3333333333333</ele><time>2026-04-19T08:37:44.193Z</time></trkpt><trkpt lat="43.9301825" lon="11.3504149"><ele>262.66666666666663</ele><time>2026-04-19T08:37:45.194Z</time></trkpt><trkpt lat="43.9303326" lon="11.3504804"><ele>262.0</ele><time>2026-04-19T08:37:46.198Z</time></trkpt><trkpt lat="43.9304745" lon="11.3505608"><ele>255.33333333333331</ele><time>2026-04-19T08:37:47.193Z</time></trkpt><trkpt lat="43.9306271" lon="11.3506314"><ele>248.66666666666669</ele><time>2026-04-19T08:37:48.195Z</time></trkpt><trkpt lat="43.9307856" lon="11.3506841"><ele>242.0</ele><time>2026-04-19T08:37:49.2Z</time></trkpt><trkpt lat="43.9309423" lon="11.3507181"><ele>241.25</ele><time>2026-04-19T08:37:50.197Z</time></trkpt><trkpt lat="43.9310937" lon="11.3507371"><ele>240.5</ele><time>2026-04-19T08:37:51.203Z</time></trkpt><trkpt lat="43.9312275" lon="11.3507434"><ele>239.75</ele><time>2026-04-19T08:37:52.206Z</time></trkpt><trkpt lat="43.9313589" lon="11.3507448"><ele>239.0</ele><time>2026-04-19T08:37:53.191Z</time></trkpt><trkpt lat="43.9314794" lon="11.3507201"><ele>239.0</ele><time>2026-04-19T08:37:54.198Z</time></trkpt><trkpt lat="43.9315984" lon="11.3506536"><ele>239.0</ele><time>2026-04-19T08:37:55.19Z</time></trkpt><trkpt lat="43.9317168" lon="11.3505493"><ele>239.0</ele><time>2026-04-19T08:37:56.19Z</time></trkpt><trkpt lat="43.9318318" lon="11.3503986"><ele>239.0</ele><time>2026-04-19T08:37:57.192Z</time></trkpt><trkpt lat="43.9319456" lon="11.3502281"><ele>237.33333333333334</ele><time>2026-04-19T08:37:58.193Z</time></trkpt><trkpt lat="43.9320662" lon="11.3500712"><ele>235.66666666666669</ele><time>2026-04-19T08:37:59.191Z</time></trkpt><trkpt lat="43.9321854" lon="11.3499129"><ele>234.0</ele><time>2026-04-19T08:38:00.2Z</time></trkpt><trkpt lat="43.9323063" lon="11.3497622"><ele>234.66666666666669</ele><time>2026-04-19T08:38:01.2Z</time></trkpt><trkpt lat="43.9324281" lon="11.3496071"><ele>235.33333333333334</ele><time>2026-04-19T08:38:02.195Z</time></trkpt><trkpt lat="43.9325466" lon="11.3494565"><ele>236.0</ele><time>2026-04-19T08:38:03.196Z</time></trkpt><trkpt lat="43.9326685" lon="11.3493042"><ele>232.66666666666669</ele><time>2026-04-19T08:38:04.201Z</time></trkpt><trkpt lat="43.93279" lon="11.3491527"><ele>229.33333333333331</ele><time>2026-04-19T08:38:05.197Z</time></trkpt><trkpt lat="43.9329132" lon="11.3490067"><ele>226.0</ele><time>2026-04-19T08:38:06.198Z</time></trkpt><trkpt lat="43.9330409" lon="11.3488787"><ele>230.33333333333331</ele><time>2026-04-19T08:38:07.192Z</time></trkpt><trkpt lat="43.9331784" lon="11.3487905"><ele>234.66666666666669</ele><time>2026-04-19T08:38:08.191Z</time></trkpt><trkpt lat="43.9333237" lon="11.3486991"><ele>239.0</ele><time>2026-04-19T08:38:09.192Z</time></trkpt><trkpt lat="43.9334658" lon="11.3486354"><ele>242.66666666666669</ele><time>2026-04-19T08:38:10.192Z</time></trkpt><trkpt lat="43.9336205" lon="11.3485943"><ele>246.33333333333331</ele><time>2026-04-19T08:38:11.194Z</time></trkpt><trkpt lat="43.9337731" lon="11.3485879"><ele>250.0</ele><time>2026-04-19T08:38:12.192Z</time></trkpt><trkpt lat="43.933934" lon="11.3486335"><ele>250.0</ele><time>2026-04-19T08:38:13.195Z</time></trkpt><trkpt lat="43.9341003" lon="11.3487171"><ele>250.0</ele><time>2026-04-19T08:38:14.187Z</time></trkpt><trkpt lat="43.934249" lon="11.3488228"><ele>250.0</ele><time>2026-04-19T08:38:15.201Z</time></trkpt><trkpt lat="43.934394" lon="11.3489243"><ele>245.5</ele><time>2026-04-19T08:38:16.2Z</time></trkpt><trkpt lat="43.9345362" lon="11.349016"><ele>241.0</ele><time>2026-04-19T08:38:17.198Z</time></trkpt><trkpt lat="43.9346728" lon="11.3490985"><ele>236.5</ele><time>2026-04-19T08:38:18.193Z</time></trkpt><trkpt lat="43.9347956" lon="11.3491752"><ele>232.0</ele><time>2026-04-19T08:38:19.199Z</time></trkpt><trkpt lat="43.9349007" lon="11.3492244"><ele>232.0</ele><time>2026-04-19T08:38:20.202Z</time></trkpt><trkpt lat="43.9349815" lon="11.3492519"><ele>232.0</ele><time>2026-04-19T08:38:21.196Z</time></trkpt><trkpt lat="43.9350678" lon="11.3492391"><ele>232.0</ele><time>2026-04-19T08:38:22.18Z</time></trkpt><trkpt lat="43.935152" lon="11.3491686"><ele>232.0</ele><time>2026-04-19T08:38:23.195Z</time></trkpt><trkpt lat="43.9352073" lon="11.3490557"><ele>232.0</ele><time>2026-04-19T08:38:24.195Z</time></trkpt><trkpt lat="43.9352522" lon="11.3489256"><ele>230.99999999999997</ele><time>2026-04-19T08:38:25.195Z</time></trkpt><trkpt lat="43.9352798" lon="11.348792"><ele>230.0</ele><time>2026-04-19T08:38:26.196Z</time></trkpt><trkpt lat="43.9352939" lon="11.3486615"><ele>229.0</ele><time>2026-04-19T08:38:27.198Z</time></trkpt><trkpt lat="43.935314" lon="11.3485407"><ele>228.0</ele><time>2026-04-19T08:38:28.211Z</time></trkpt><trkpt lat="43.935327" lon="11.3484538"><ele>226.99999999999997</ele><time>2026-04-19T08:38:29.205Z</time></trkpt><trkpt lat="43.9353464" lon="11.3483442"><ele>226.0</ele><time>2026-04-19T08:38:31.197Z</time></trkpt><trkpt lat="43.9353691" lon="11.3482532"><ele>225.99999999999997</ele><time>2026-04-19T08:38:34.191Z</time></trkpt><trkpt lat="43.9353824" lon="11.3481466"><ele>226.0</ele><time>2026-04-19T08:38:57.2Z</time></trkpt><trkpt lat="43.9354209" lon="11.3480432"><ele>226.0</ele><time>2026-04-19T08:38:59.204Z</time></trkpt><trkpt lat="43.9354572" lon="11.3479272"><ele>226.0</ele><time>2026-04-19T08:39:01.206Z</time></trkpt><trkpt lat="43.9354998" lon="11.3478196"><ele>225.99999999999997</ele><time>2026-04-19T08:39:09.186Z</time></trkpt><trkpt lat="43.9355173" lon="11.3477051"><ele>226.0</ele><time>2026-04-19T08:39:11.192Z</time></trkpt><trkpt lat="43.9355366" lon="11.3475578"><ele>226.20000000000002</ele><time>2026-04-19T08:39:13.193Z</time></trkpt><trkpt lat="43.9355426" lon="11.3473953"><ele>226.40000000000003</ele><time>2026-04-19T08:39:15.193Z</time></trkpt><trkpt lat="43.9355506" lon="11.3472904"><ele>226.6</ele><time>2026-04-19T08:39:16.2Z</time></trkpt><trkpt lat="43.935556" lon="11.3471733"><ele>226.8</ele><time>2026-04-19T08:39:17.203Z</time></trkpt><trkpt lat="43.9355638" lon="11.3470513"><ele>227.0</ele><time>2026-04-19T08:39:18.202Z</time></trkpt><trkpt lat="43.935573" lon="11.3469215"><ele>227.0</ele><time>2026-04-19T08:39:19.198Z</time></trkpt><trkpt lat="43.9355799" lon="11.346791"><ele>227.0</ele><time>2026-04-19T08:39:20.197Z</time></trkpt><trkpt lat="43.9355888" lon="11.3466503"><ele>227.0</ele><time>2026-04-19T08:39:21.189Z</time></trkpt><trkpt lat="43.9356008" lon="11.3465149"><ele>227.0</ele><time>2026-04-19T08:39:22.192Z</time></trkpt><trkpt lat="43.9356137" lon="11.3463906"><ele>227.0</ele><time>2026-04-19T08:39:23.201Z</time></trkpt><trkpt lat="43.9356316" lon="11.3462691"><ele>226.8</ele><time>2026-04-19T08:39:24.203Z</time></trkpt><trkpt lat="43.9356545" lon="11.3461521"><ele>226.6</ele><time>2026-04-19T08:39:25.197Z</time></trkpt><trkpt lat="43.9356812" lon="11.3460444"><ele>226.40000000000003</ele><time>2026-04-19T08:39:26.199Z</time></trkpt><trkpt lat="43.9357209" lon="11.3459287"><ele>226.20000000000002</ele><time>2026-04-19T08:39:27.196Z</time></trkpt><trkpt lat="43.9357704" lon="11.345807"><ele>226.0</ele><time>2026-04-19T08:39:28.2Z</time></trkpt><trkpt lat="43.9358314" lon="11.3456891"><ele>225.20000000000002</ele><time>2026-04-19T08:39:29.197Z</time></trkpt><trkpt lat="43.9358938" lon="11.345584"><ele>224.40000000000003</ele><time>2026-04-19T08:39:30.201Z</time></trkpt><trkpt lat="43.9359684" lon="11.345483"><ele>223.6</ele><time>2026-04-19T08:39:31.195Z</time></trkpt><trkpt lat="43.9360657" lon="11.3453961"><ele>222.8</ele><time>2026-04-19T08:39:32.201Z</time></trkpt><trkpt lat="43.9361746" lon="11.3453045"><ele>222.0</ele><time>2026-04-19T08:39:33.203Z</time></trkpt><trkpt lat="43.9362931" lon="11.3452221"><ele>222.0</ele><time>2026-04-19T08:39:34.181Z</time></trkpt><trkpt lat="43.9364208" lon="11.3451474"><ele>222.0</ele><time>2026-04-19T08:39:35.194Z</time></trkpt><trkpt lat="43.9365429" lon="11.3450905"><ele>222.0</ele><time>2026-04-19T08:39:36.184Z</time></trkpt><trkpt lat="43.9366549" lon="11.3450485"><ele>222.0</ele><time>2026-04-19T08:39:37.176Z</time></trkpt><trkpt lat="43.9367607" lon="11.3450171"><ele>223.25</ele><time>2026-04-19T08:39:38.192Z</time></trkpt><trkpt lat="43.9368758" lon="11.345013"><ele>224.5</ele><time>2026-04-19T08:39:39.18Z</time></trkpt><trkpt lat="43.9369967" lon="11.3450381"><ele>225.75</ele><time>2026-04-19T08:39:40.183Z</time></trkpt><trkpt lat="43.9371232" lon="11.345088"><ele>227.0</ele><time>2026-04-19T08:39:41.177Z</time></trkpt><trkpt lat="43.9372511" lon="11.3451476"><ele>227.0</ele><time>2026-04-19T08:39:42.18Z</time></trkpt><trkpt lat="43.937384" lon="11.3452101"><ele>227.0</ele><time>2026-04-19T08:39:43.194Z</time></trkpt><trkpt lat="43.937527" lon="11.3452701"><ele>227.0</ele><time>2026-04-19T08:39:44.19Z</time></trkpt><trkpt lat="43.9376736" lon="11.3453265"><ele>227.0</ele><time>2026-04-19T08:39:45.181Z</time></trkpt><trkpt lat="43.9378247" lon="11.3453866"><ele>226.33333333333334</ele><time>2026-04-19T08:39:46.2Z</time></trkpt><trkpt lat="43.9379779" lon="11.3454461"><ele>225.66666666666669</ele><time>2026-04-19T08:39:47.202Z</time></trkpt><trkpt lat="43.9381319" lon="11.3455027"><ele>225.0</ele><time>2026-04-19T08:39:48.206Z</time></trkpt><trkpt lat="43.9382759" lon="11.345553"><ele>226.5</ele><time>2026-04-19T08:39:49.179Z</time></trkpt><trkpt lat="43.9384066" lon="11.345601"><ele>228.0</ele><time>2026-04-19T08:39:50.194Z</time></trkpt><trkpt lat="43.9385328" lon="11.3456552"><ele>229.5</ele><time>2026-04-19T08:39:51.194Z</time></trkpt><trkpt lat="43.9386546" lon="11.3457153"><ele>231.0</ele><time>2026-04-19T08:39:52.189Z</time></trkpt><trkpt lat="43.938764" lon="11.3457964"><ele>231.0</ele><time>2026-04-19T08:39:53.19Z</time></trkpt><trkpt lat="43.9388731" lon="11.3458965"><ele>231.0</ele><time>2026-04-19T08:39:54.199Z</time></trkpt><trkpt lat="43.938993" lon="11.3460071"><ele>231.0</ele><time>2026-04-19T08:39:55.197Z</time></trkpt><trkpt lat="43.9391155" lon="11.3461175"><ele>231.0</ele><time>2026-04-19T08:39:56.198Z</time></trkpt><trkpt lat="43.9392462" lon="11.3462161"><ele>231.75</ele><time>2026-04-19T08:39:57.184Z</time></trkpt><trkpt lat="43.9393744" lon="11.3463056"><ele>232.5</ele><time>2026-04-19T08:39:58.198Z</time></trkpt><trkpt lat="43.9394912" lon="11.3463921"><ele>233.25</ele><time>2026-04-19T08:39:59.205Z</time></trkpt><trkpt lat="43.9395997" lon="11.3464905"><ele>234.0</ele><time>2026-04-19T08:40:00.203Z</time></trkpt><trkpt lat="43.9396887" lon="11.3466029"><ele>234.0</ele><time>2026-04-19T08:40:01.198Z</time></trkpt><trkpt lat="43.9397629" lon="11.3467555"><ele>234.0</ele><time>2026-04-19T08:40:02.193Z</time></trkpt><trkpt lat="43.9398209" lon="11.3469264"><ele>234.0</ele><time>2026-04-19T08:40:03.204Z</time></trkpt><trkpt lat="43.9398536" lon="11.3471122"><ele>234.0</ele><time>2026-04-19T08:40:04.203Z</time></trkpt><trkpt lat="43.939863" lon="11.3473064"><ele>231.66666666666669</ele><time>2026-04-19T08:40:05.195Z</time></trkpt><trkpt lat="43.9398623" lon="11.3475193"><ele>229.33333333333334</ele><time>2026-04-19T08:40:06.191Z</time></trkpt><trkpt lat="43.9398708" lon="11.3477358"><ele>227.0</ele><time>2026-04-19T08:40:07.182Z</time></trkpt><trkpt lat="43.9398834" lon="11.3479653"><ele>226.66666666666669</ele><time>2026-04-19T08:40:08.188Z</time></trkpt><trkpt lat="43.939896" lon="11.3481932"><ele>226.33333333333331</ele><time>2026-04-19T08:40:09.186Z</time></trkpt><trkpt lat="43.9399218" lon="11.3484149"><ele>226.0</ele><time>2026-04-19T08:40:10.184Z</time></trkpt><trkpt lat="43.9399599" lon="11.3486284"><ele>226.0</ele><time>2026-04-19T08:40:11.196Z</time></trkpt><trkpt lat="43.940005" lon="11.348839"><ele>226.0</ele><time>2026-04-19T08:40:12.195Z</time></trkpt><trkpt lat="43.9400449" lon="11.3490518"><ele>226.0</ele><time>2026-04-19T08:40:13.205Z</time></trkpt><trkpt lat="43.9400876" lon="11.3492579"><ele>231.75</ele><time>2026-04-19T08:40:14.197Z</time></trkpt><trkpt lat="43.9401222" lon="11.3494582"><ele>237.5</ele><time>2026-04-19T08:40:15.199Z</time></trkpt><trkpt lat="43.9401491" lon="11.3496509"><ele>243.25</ele><time>2026-04-19T08:40:16.2Z</time></trkpt><trkpt lat="43.9401649" lon="11.3498475"><ele>249.0</ele><time>2026-04-19T08:40:17.187Z</time></trkpt><trkpt lat="43.9401722" lon="11.3500508"><ele>249.33333333333331</ele><time>2026-04-19T08:40:18.192Z</time></trkpt><trkpt lat="43.9401871" lon="11.3502637"><ele>249.66666666666666</ele><time>2026-04-19T08:40:19.188Z</time></trkpt><trkpt lat="43.9402093" lon="11.3504776"><ele>250.0</ele><time>2026-04-19T08:40:20.19Z</time></trkpt><trkpt lat="43.9402344" lon="11.350689"><ele>250.0</ele><time>2026-04-19T08:40:21.186Z</time></trkpt><trkpt lat="43.9402616" lon="11.3508859"><ele>250.0</ele><time>2026-04-19T08:40:22.193Z</time></trkpt><trkpt lat="43.9402862" lon="11.3510718"><ele>250.0</ele><time>2026-04-19T08:40:23.195Z</time></trkpt><trkpt lat="43.9403113" lon="11.3512272"><ele>250.0</ele><time>2026-04-19T08:40:24.207Z</time></trkpt><trkpt lat="43.9403252" lon="11.3513499"><ele>248.6</ele><time>2026-04-19T08:40:25.187Z</time></trkpt><trkpt lat="43.9403382" lon="11.3514603"><ele>247.2</ele><time>2026-04-19T08:40:26.18Z</time></trkpt><trkpt lat="43.9403415" lon="11.3516079"><ele>245.8</ele><time>2026-04-19T08:40:27.194Z</time></trkpt><trkpt lat="43.9403269" lon="11.3517659"><ele>244.4</ele><time>2026-04-19T08:40:28.192Z</time></trkpt><trkpt lat="43.9402957" lon="11.3519405"><ele>243.0</ele><time>2026-04-19T08:40:29.199Z</time></trkpt><trkpt lat="43.9402466" lon="11.3521179"><ele>240.75</ele><time>2026-04-19T08:40:30.176Z</time></trkpt><trkpt lat="43.9401982" lon="11.3522978"><ele>238.5</ele><time>2026-04-19T08:40:31.185Z</time></trkpt><trkpt lat="43.9401585" lon="11.3524771"><ele>236.25</ele><time>2026-04-19T08:40:32.199Z</time></trkpt><trkpt lat="43.940134" lon="11.3526571"><ele>234.0</ele><time>2026-04-19T08:40:33.199Z</time></trkpt><trkpt lat="43.9401239" lon="11.3528374"><ele>234.0</ele><time>2026-04-19T08:40:34.188Z</time></trkpt><trkpt lat="43.9401347" lon="11.3530252"><ele>234.0</ele><time>2026-04-19T08:40:35.201Z</time></trkpt><trkpt lat="43.9401642" lon="11.3532211"><ele>234.0</ele><time>2026-04-19T08:40:36.195Z</time></trkpt><trkpt lat="43.9402077" lon="11.3534074"><ele>234.0</ele><time>2026-04-19T08:40:37.192Z</time></trkpt><trkpt lat="43.9402541" lon="11.3536054"><ele>231.0</ele><time>2026-04-19T08:40:38.194Z</time></trkpt><trkpt lat="43.9403017" lon="11.3538178"><ele>228.0</ele><time>2026-04-19T08:40:39.194Z</time></trkpt><trkpt lat="43.9403512" lon="11.3540269"><ele>225.0</ele><time>2026-04-19T08:40:40.203Z</time></trkpt><trkpt lat="43.9404006" lon="11.3542421"><ele>223.75</ele><time>2026-04-19T08:40:41.198Z</time></trkpt><trkpt lat="43.9404502" lon="11.3544492"><ele>222.5</ele><time>2026-04-19T08:40:42.192Z</time></trkpt><trkpt lat="43.9404935" lon="11.3546367"><ele>221.25</ele><time>2026-04-19T08:40:43.2Z</time></trkpt><trkpt lat="43.9405431" lon="11.3548207"><ele>220.0</ele><time>2026-04-19T08:40:44.198Z</time></trkpt><trkpt lat="43.9406018" lon="11.3550073"><ele>218.66666666666666</ele><time>2026-04-19T08:40:45.199Z</time></trkpt><trkpt lat="43.9406652" lon="11.3552072"><ele>217.33333333333331</ele><time>2026-04-19T08:40:46.206Z</time></trkpt><trkpt lat="43.9407442" lon="11.3553935"><ele>216.0</ele><time>2026-04-19T08:40:47.189Z</time></trkpt><trkpt lat="43.9408385" lon="11.3555717"><ele>214.66666666666669</ele><time>2026-04-19T08:40:48.191Z</time></trkpt><trkpt lat="43.9409428" lon="11.3557505"><ele>213.33333333333334</ele><time>2026-04-19T08:40:49.189Z</time></trkpt><trkpt lat="43.9410493" lon="11.3559393"><ele>212.0</ele><time>2026-04-19T08:40:50.2Z</time></trkpt><trkpt lat="43.9411588" lon="11.3561281"><ele>212.0</ele><time>2026-04-19T08:40:51.198Z</time></trkpt><trkpt lat="43.9412718" lon="11.356319"><ele>212.0</ele><time>2026-04-19T08:40:52.197Z</time></trkpt><trkpt lat="43.941382" lon="11.3565049"><ele>212.0</ele><time>2026-04-19T08:40:53.19Z</time></trkpt><trkpt lat="43.9414952" lon="11.3566886"><ele>211.66666666666669</ele><time>2026-04-19T08:40:54.19Z</time></trkpt><trkpt lat="43.9416129" lon="11.3568742"><ele>211.33333333333331</ele><time>2026-04-19T08:40:55.206Z</time></trkpt><trkpt lat="43.9417367" lon="11.35706"><ele>211.0</ele><time>2026-04-19T08:40:56.201Z</time></trkpt><trkpt lat="43.9418586" lon="11.3572499"><ele>210.33333333333331</ele><time>2026-04-19T08:40:57.206Z</time></trkpt><trkpt lat="43.9419812" lon="11.3574459"><ele>209.66666666666669</ele><time>2026-04-19T08:40:58.198Z</time></trkpt><trkpt lat="43.9420998" lon="11.35764"><ele>209.0</ele><time>2026-04-19T08:40:59.189Z</time></trkpt><trkpt lat="43.9422176" lon="11.3578334"><ele>209.0</ele><time>2026-04-19T08:41:00.182Z</time></trkpt><trkpt lat="43.9423327" lon="11.3580169"><ele>209.0</ele><time>2026-04-19T08:41:01.194Z</time></trkpt><trkpt lat="43.9424435" lon="11.3581952"><ele>209.0</ele><time>2026-04-19T08:41:02.199Z</time></trkpt><trkpt lat="43.942546" lon="11.3583535"><ele>213.75</ele><time>2026-04-19T08:41:03.195Z</time></trkpt><trkpt lat="43.9426394" lon="11.3584795"><ele>218.5</ele><time>2026-04-19T08:41:04.201Z</time></trkpt><trkpt lat="43.942739" lon="11.3585912"><ele>223.25</ele><time>2026-04-19T08:41:05.194Z</time></trkpt><trkpt lat="43.9428576" lon="11.3586922"><ele>228.0</ele><time>2026-04-19T08:41:06.186Z</time></trkpt><trkpt lat="43.9430006" lon="11.3587908"><ele>224.33333333333331</ele><time>2026-04-19T08:41:07.198Z</time></trkpt><trkpt lat="43.9431423" lon="11.3588893"><ele>220.66666666666666</ele><time>2026-04-19T08:41:08.193Z</time></trkpt><trkpt lat="43.9432756" lon="11.3589903"><ele>217.0</ele><time>2026-04-19T08:41:09.199Z</time></trkpt><trkpt lat="43.943401" lon="11.3590998"><ele>226.0</ele><time>2026-04-19T08:41:10.204Z</time></trkpt><trkpt lat="43.9435246" lon="11.3592107"><ele>235.0</ele><time>2026-04-19T08:41:11.203Z</time></trkpt><trkpt lat="43.9436508" lon="11.359332"><ele>244.0</ele><time>2026-04-19T08:41:12.198Z</time></trkpt><trkpt lat="43.9437737" lon="11.3594628"><ele>244.0</ele><time>2026-04-19T08:41:13.193Z</time></trkpt><trkpt lat="43.9438903" lon="11.3595832"><ele>244.0</ele><time>2026-04-19T08:41:14.185Z</time></trkpt><trkpt lat="43.9440047" lon="11.359711"><ele>244.0</ele><time>2026-04-19T08:41:15.197Z</time></trkpt><trkpt lat="43.9441111" lon="11.3598317"><ele>244.0</ele><time>2026-04-19T08:41:16.2Z</time></trkpt><trkpt lat="43.9442167" lon="11.3599501"><ele>239.0</ele><time>2026-04-19T08:41:17.19Z</time></trkpt><trkpt lat="43.944311" lon="11.360052"><ele>233.99999999999997</ele><time>2026-04-19T08:41:18.19Z</time></trkpt><trkpt lat="43.9443921" lon="11.3601434"><ele>228.99999999999997</ele><time>2026-04-19T08:41:19.209Z</time></trkpt><trkpt lat="43.9444558" lon="11.3602386"><ele>224.0</ele><time>2026-04-19T08:41:20.201Z</time></trkpt><trkpt lat="43.9445124" lon="11.360324"><ele>219.0</ele><time>2026-04-19T08:41:21.184Z</time></trkpt><trkpt lat="43.9445645" lon="11.3603897"><ele>219.0</ele><time>2026-04-19T08:41:22.18Z</time></trkpt><trkpt lat="43.9446707" lon="11.360424"><ele>218.99999999999997</ele><time>2026-04-19T08:41:24.192Z</time></trkpt><trkpt lat="43.9447312" lon="11.3603887"><ele>218.99999999999997</ele><time>2026-04-19T08:41:25.196Z</time></trkpt><trkpt lat="43.9448066" lon="11.3603519"><ele>219.0</ele><time>2026-04-19T08:41:26.19Z</time></trkpt><trkpt lat="43.9448973" lon="11.3603091"><ele>219.0</ele><time>2026-04-19T08:41:27.194Z</time></trkpt><trkpt lat="43.9450077" lon="11.3602572"><ele>216.25</ele><time>2026-04-19T08:41:28.183Z</time></trkpt><trkpt lat="43.9451251" lon="11.3601911"><ele>213.5</ele><time>2026-04-19T08:41:29.199Z</time></trkpt><trkpt lat="43.945244" lon="11.3601086"><ele>210.75</ele><time>2026-04-19T08:41:30.176Z</time></trkpt><trkpt lat="43.9453718" lon="11.360012"><ele>208.0</ele><time>2026-04-19T08:41:31.176Z</time></trkpt><trkpt lat="43.9454936" lon="11.3598898"><ele>208.0</ele><time>2026-04-19T08:41:32.181Z</time></trkpt><trkpt lat="43.945618" lon="11.3597482"><ele>208.0</ele><time>2026-04-19T08:41:33.199Z</time></trkpt><trkpt lat="43.9457443" lon="11.3596151"><ele>208.0</ele><time>2026-04-19T08:41:34.202Z</time></trkpt><trkpt lat="43.9458621" lon="11.3595239"><ele>207.4</ele><time>2026-04-19T08:41:35.208Z</time></trkpt><trkpt lat="43.9459749" lon="11.3594649"><ele>206.8</ele><time>2026-04-19T08:41:36.198Z</time></trkpt><trkpt lat="43.9460807" lon="11.359439"><ele>206.2</ele><time>2026-04-19T08:41:37.188Z</time></trkpt><trkpt lat="43.9461883" lon="11.359437"><ele>205.6</ele><time>2026-04-19T08:41:38.18Z</time></trkpt><trkpt lat="43.9462909" lon="11.3594565"><ele>205.0</ele><time>2026-04-19T08:41:39.177Z</time></trkpt><trkpt lat="43.9463954" lon="11.3594992"><ele>205.0</ele><time>2026-04-19T08:41:40.193Z</time></trkpt><trkpt lat="43.9465051" lon="11.3596019"><ele>205.0</ele><time>2026-04-19T08:41:41.186Z</time></trkpt><trkpt lat="43.946595" lon="11.3597547"><ele>205.0</ele><time>2026-04-19T08:41:42.175Z</time></trkpt><trkpt lat="43.9466865" lon="11.3599315"><ele>205.0</ele><time>2026-04-19T08:41:43.196Z</time></trkpt><trkpt lat="43.946779" lon="11.3601158"><ele>203.66666666666666</ele><time>2026-04-19T08:41:44.199Z</time></trkpt><trkpt lat="43.9468762" lon="11.3603021"><ele>202.33333333333331</ele><time>2026-04-19T08:41:45.194Z</time></trkpt><trkpt lat="43.9469769" lon="11.3604884"><ele>201.0</ele><time>2026-04-19T08:41:46.195Z</time></trkpt><trkpt lat="43.947089" lon="11.3606714"><ele>201.0</ele><time>2026-04-19T08:41:47.202Z</time></trkpt><trkpt lat="43.9472084" lon="11.3608635"><ele>201.0</ele><time>2026-04-19T08:41:48.198Z</time></trkpt><trkpt lat="43.9473362" lon="11.3610533"><ele>201.0</ele><time>2026-04-19T08:41:49.194Z</time></trkpt><trkpt lat="43.9474758" lon="11.361244"><ele>201.0</ele><time>2026-04-19T08:41:50.2Z</time></trkpt><trkpt lat="43.9476304" lon="11.361432"><ele>201.0</ele><time>2026-04-19T08:41:51.183Z</time></trkpt><trkpt lat="43.9477922" lon="11.3616152"><ele>201.0</ele><time>2026-04-19T08:41:52.21Z</time></trkpt><trkpt lat="43.9479723" lon="11.3617909"><ele>201.0</ele><time>2026-04-19T08:41:53.183Z</time></trkpt><trkpt lat="43.9481624" lon="11.3619659"><ele>201.0</ele><time>2026-04-19T08:41:54.192Z</time></trkpt><trkpt lat="43.948353" lon="11.3621249"><ele>199.0</ele><time>2026-04-19T08:41:55.201Z</time></trkpt><trkpt lat="43.9485557" lon="11.3622779"><ele>197.0</ele><time>2026-04-19T08:41:56.191Z</time></trkpt><trkpt lat="43.9487636" lon="11.3624222"><ele>197.0</ele><time>2026-04-19T08:41:57.199Z</time></trkpt><trkpt lat="43.9489868" lon="11.3625618"><ele>197.0</ele><time>2026-04-19T08:41:58.194Z</time></trkpt><trkpt lat="43.9492128" lon="11.3627052"><ele>198.5</ele><time>2026-04-19T08:41:59.197Z</time></trkpt><trkpt lat="43.9494402" lon="11.3628557"><ele>200.0</ele><time>2026-04-19T08:42:00.198Z</time></trkpt><trkpt lat="43.9496687" lon="11.3630036"><ele>200.5</ele><time>2026-04-19T08:42:01.197Z</time></trkpt><trkpt lat="43.9498974" lon="11.3631453"><ele>201.0</ele><time>2026-04-19T08:42:02.199Z</time></trkpt><trkpt lat="43.9501268" lon="11.3632843"><ele>201.0</ele><time>2026-04-19T08:42:03.201Z</time></trkpt><trkpt lat="43.9503569" lon="11.3634274"><ele>201.0</ele><time>2026-04-19T08:42:04.198Z</time></trkpt><trkpt lat="43.9505835" lon="11.3635679"><ele>201.0</ele><time>2026-04-19T08:42:05.207Z</time></trkpt><trkpt lat="43.9508124" lon="11.3637065"><ele>201.0</ele><time>2026-04-19T08:42:06.208Z</time></trkpt><trkpt lat="43.9510452" lon="11.3638457"><ele>199.5</ele><time>2026-04-19T08:42:07.2Z</time></trkpt><trkpt lat="43.9512803" lon="11.3639658"><ele>198.0</ele><time>2026-04-19T08:42:08.206Z</time></trkpt><trkpt lat="43.9515162" lon="11.3640775"><ele>197.0</ele><time>2026-04-19T08:42:09.206Z</time></trkpt><trkpt lat="43.95175" lon="11.3641785"><ele>196.0</ele><time>2026-04-19T08:42:10.199Z</time></trkpt><trkpt lat="43.9519856" lon="11.3642691"><ele>196.0</ele><time>2026-04-19T08:42:11.204Z</time></trkpt><trkpt lat="43.9522237" lon="11.3643672"><ele>196.0</ele><time>2026-04-19T08:42:12.204Z</time></trkpt><trkpt lat="43.9524586" lon="11.3644614"><ele>195.0</ele><time>2026-04-19T08:42:13.199Z</time></trkpt><trkpt lat="43.952691" lon="11.3645465"><ele>194.0</ele><time>2026-04-19T08:42:14.193Z</time></trkpt><trkpt lat="43.9529247" lon="11.364625"><ele>193.5</ele><time>2026-04-19T08:42:15.204Z</time></trkpt><trkpt lat="43.9531564" lon="11.3647063"><ele>193.0</ele><time>2026-04-19T08:42:16.203Z</time></trkpt><trkpt lat="43.9533892" lon="11.3647905"><ele>193.0</ele><time>2026-04-19T08:42:17.197Z</time></trkpt><trkpt lat="43.9536221" lon="11.3648726"><ele>193.0</ele><time>2026-04-19T08:42:18.211Z</time></trkpt><trkpt lat="43.9538562" lon="11.3649357"><ele>193.0</ele><time>2026-04-19T08:42:19.209Z</time></trkpt><trkpt lat="43.9540912" lon="11.3649737"><ele>193.0</ele><time>2026-04-19T08:42:20.203Z</time></trkpt><trkpt lat="43.9543315" lon="11.3649936"><ele>193.0</ele><time>2026-04-19T08:42:21.204Z</time></trkpt><trkpt lat="43.9545708" lon="11.3650057"><ele>193.0</ele><time>2026-04-19T08:42:22.193Z</time></trkpt><trkpt lat="43.9548117" lon="11.3649975"><ele>193.0</ele><time>2026-04-19T08:42:23.194Z</time></trkpt><trkpt lat="43.9550469" lon="11.364972"><ele>193.0</ele><time>2026-04-19T08:42:24.199Z</time></trkpt><trkpt lat="43.9552819" lon="11.3649281"><ele>193.0</ele><time>2026-04-19T08:42:25.2Z</time></trkpt><trkpt lat="43.9555189" lon="11.3648611"><ele>193.0</ele><time>2026-04-19T08:42:26.201Z</time></trkpt><trkpt lat="43.955752" lon="11.3647788"><ele>193.0</ele><time>2026-04-19T08:42:27.182Z</time></trkpt><trkpt lat="43.9559781" lon="11.3646804"><ele>193.0</ele><time>2026-04-19T08:42:28.2Z</time></trkpt><trkpt lat="43.9562043" lon="11.3645702"><ele>193.0</ele><time>2026-04-19T08:42:29.194Z</time></trkpt><trkpt lat="43.9564266" lon="11.3644418"><ele>193.0</ele><time>2026-04-19T08:42:30.192Z</time></trkpt><trkpt lat="43.9566445" lon="11.3642954"><ele>192.0</ele><time>2026-04-19T08:42:31.196Z</time></trkpt><trkpt lat="43.9568589" lon="11.3641342"><ele>191.0</ele><time>2026-04-19T08:42:32.188Z</time></trkpt><trkpt lat="43.9570715" lon="11.3639568"><ele>192.0</ele><time>2026-04-19T08:42:33.196Z</time></trkpt><trkpt lat="43.9572778" lon="11.3637628"><ele>193.0</ele><time>2026-04-19T08:42:34.21Z</time></trkpt><trkpt lat="43.9574842" lon="11.3635676"><ele>192.0</ele><time>2026-04-19T08:42:35.206Z</time></trkpt><trkpt lat="43.9576916" lon="11.363375"><ele>191.0</ele><time>2026-04-19T08:42:36.2Z</time></trkpt><trkpt lat="43.9579004" lon="11.3631875"><ele>192.5</ele><time>2026-04-19T08:42:37.193Z</time></trkpt><trkpt lat="43.9581087" lon="11.3630071"><ele>194.0</ele><time>2026-04-19T08:42:38.198Z</time></trkpt><trkpt lat="43.9583103" lon="11.3628296"><ele>194.0</ele><time>2026-04-19T08:42:39.205Z</time></trkpt><trkpt lat="43.9584923" lon="11.3626676"><ele>194.0</ele><time>2026-04-19T08:42:40.188Z</time></trkpt><trkpt lat="43.9586654" lon="11.3625236"><ele>194.0</ele><time>2026-04-19T08:42:41.196Z</time></trkpt><trkpt lat="43.958817" lon="11.362389"><ele>194.0</ele><time>2026-04-19T08:42:42.195Z</time></trkpt><trkpt lat="43.9589697" lon="11.3622592"><ele>194.0</ele><time>2026-04-19T08:42:43.201Z</time></trkpt><trkpt lat="43.9591315" lon="11.362128"><ele>194.0</ele><time>2026-04-19T08:42:44.198Z</time></trkpt><trkpt lat="43.9592849" lon="11.3620007"><ele>194.33333333333334</ele><time>2026-04-19T08:42:45.199Z</time></trkpt><trkpt lat="43.9594379" lon="11.3618771"><ele>194.66666666666669</ele><time>2026-04-19T08:42:46.198Z</time></trkpt><trkpt lat="43.9595911" lon="11.3617613"><ele>195.0</ele><time>2026-04-19T08:42:47.204Z</time></trkpt><trkpt lat="43.9597644" lon="11.3616537"><ele>195.0</ele><time>2026-04-19T08:42:48.2Z</time></trkpt><trkpt lat="43.9599506" lon="11.3615702"><ele>195.0</ele><time>2026-04-19T08:42:49.196Z</time></trkpt><trkpt lat="43.9601523" lon="11.361516"><ele>195.0</ele><time>2026-04-19T08:42:50.198Z</time></trkpt><trkpt lat="43.9603617" lon="11.3614826"><ele>196.0</ele><time>2026-04-19T08:42:51.208Z</time></trkpt><trkpt lat="43.9605782" lon="11.3614713"><ele>197.0</ele><time>2026-04-19T08:42:52.195Z</time></trkpt><trkpt lat="43.9607795" lon="11.3614954"><ele>198.0</ele><time>2026-04-19T08:42:53.215Z</time></trkpt><trkpt lat="43.9609642" lon="11.361537"><ele>199.0</ele><time>2026-04-19T08:42:54.188Z</time></trkpt><trkpt lat="43.9611504" lon="11.3615802"><ele>200.0</ele><time>2026-04-19T08:42:55.199Z</time></trkpt><trkpt lat="43.9613377" lon="11.3616192"><ele>201.0</ele><time>2026-04-19T08:42:56.203Z</time></trkpt><trkpt lat="43.9615192" lon="11.3616594"><ele>201.0</ele><time>2026-04-19T08:42:57.194Z</time></trkpt><trkpt lat="43.9616848" lon="11.3617129"><ele>201.0</ele><time>2026-04-19T08:42:58.205Z</time></trkpt><trkpt lat="43.9618434" lon="11.3617645"><ele>201.0</ele><time>2026-04-19T08:42:59.202Z</time></trkpt><trkpt lat="43.9619992" lon="11.3618154"><ele>201.0</ele><time>2026-04-19T08:43:00.201Z</time></trkpt><trkpt lat="43.9621599" lon="11.3618651"><ele>201.0</ele><time>2026-04-19T08:43:01.197Z</time></trkpt><trkpt lat="43.9623227" lon="11.3619273"><ele>201.0</ele><time>2026-04-19T08:43:02.198Z</time></trkpt><trkpt lat="43.9624953" lon="11.3620054"><ele>201.66666666666669</ele><time>2026-04-19T08:43:03.208Z</time></trkpt><trkpt lat="43.9626662" lon="11.3620938"><ele>202.33333333333334</ele><time>2026-04-19T08:43:04.198Z</time></trkpt><trkpt lat="43.9628379" lon="11.3621919"><ele>203.0</ele><time>2026-04-19T08:43:05.193Z</time></trkpt><trkpt lat="43.9630093" lon="11.3623057"><ele>204.33333333333334</ele><time>2026-04-19T08:43:06.192Z</time></trkpt><trkpt lat="43.9631787" lon="11.3624272"><ele>205.66666666666669</ele><time>2026-04-19T08:43:07.196Z</time></trkpt><trkpt lat="43.9633482" lon="11.3625647"><ele>207.0</ele><time>2026-04-19T08:43:08.197Z</time></trkpt><trkpt lat="43.9635122" lon="11.3627223"><ele>207.0</ele><time>2026-04-19T08:43:09.196Z</time></trkpt><trkpt lat="43.9636713" lon="11.3628874"><ele>207.0</ele><time>2026-04-19T08:43:10.203Z</time></trkpt><trkpt lat="43.9638277" lon="11.3630565"><ele>207.0</ele><time>2026-04-19T08:43:11.197Z</time></trkpt><trkpt lat="43.9639805" lon="11.3632243"><ele>209.0</ele><time>2026-04-19T08:43:12.219Z</time></trkpt><trkpt lat="43.9641173" lon="11.3633766"><ele>211.0</ele><time>2026-04-19T08:43:13.173Z</time></trkpt><trkpt lat="43.9642457" lon="11.3635196"><ele>213.0</ele><time>2026-04-19T08:43:14.192Z</time></trkpt><trkpt lat="43.9643622" lon="11.3636519"><ele>213.0</ele><time>2026-04-19T08:43:15.202Z</time></trkpt><trkpt lat="43.9644795" lon="11.3637856"><ele>213.0</ele><time>2026-04-19T08:43:16.193Z</time></trkpt><trkpt lat="43.9645994" lon="11.3639131"><ele>213.0</ele><time>2026-04-19T08:43:17.18Z</time></trkpt><trkpt lat="43.9647212" lon="11.3640412"><ele>213.66666666666669</ele><time>2026-04-19T08:43:18.182Z</time></trkpt><trkpt lat="43.9648437" lon="11.3641733"><ele>214.33333333333334</ele><time>2026-04-19T08:43:19.192Z</time></trkpt><trkpt lat="43.9649677" lon="11.3643079"><ele>215.0</ele><time>2026-04-19T08:43:20.198Z</time></trkpt><trkpt lat="43.9650976" lon="11.3644517"><ele>215.0</ele><time>2026-04-19T08:43:21.202Z</time></trkpt><trkpt lat="43.9652335" lon="11.364599"><ele>215.0</ele><time>2026-04-19T08:43:22.201Z</time></trkpt><trkpt lat="43.9653801" lon="11.3647301"><ele>215.0</ele><time>2026-04-19T08:43:23.184Z</time></trkpt><trkpt lat="43.965531" lon="11.3648515"><ele>216.66666666666669</ele><time>2026-04-19T08:43:24.187Z</time></trkpt><trkpt lat="43.9656878" lon="11.3649643"><ele>218.33333333333331</ele><time>2026-04-19T08:43:25.195Z</time></trkpt><trkpt lat="43.9658524" lon="11.3650612"><ele>220.0</ele><time>2026-04-19T08:43:26.183Z</time></trkpt><trkpt lat="43.966017" lon="11.3651272"><ele>220.33333333333331</ele><time>2026-04-19T08:43:27.182Z</time></trkpt><trkpt lat="43.9661743" lon="11.3651829"><ele>220.66666666666669</ele><time>2026-04-19T08:43:28.184Z</time></trkpt><trkpt lat="43.9663374" lon="11.3652224"><ele>221.0</ele><time>2026-04-19T08:43:29.198Z</time></trkpt><trkpt lat="43.9665046" lon="11.3652462"><ele>221.0</ele><time>2026-04-19T08:43:30.183Z</time></trkpt><trkpt lat="43.9666784" lon="11.3652516"><ele>221.0</ele><time>2026-04-19T08:43:31.199Z</time></trkpt><trkpt lat="43.966856" lon="11.3652597"><ele>221.0</ele><time>2026-04-19T08:43:32.193Z</time></trkpt><trkpt lat="43.9670346" lon="11.3652886"><ele>221.0</ele><time>2026-04-19T08:43:33.198Z</time></trkpt><trkpt lat="43.9672162" lon="11.365355"><ele>221.0</ele><time>2026-04-19T08:43:34.186Z</time></trkpt><trkpt lat="43.9673981" lon="11.3654197"><ele>221.0</ele><time>2026-04-19T08:43:35.202Z</time></trkpt><trkpt lat="43.9675807" lon="11.3654866"><ele>222.33333333333334</ele><time>2026-04-19T08:43:36.207Z</time></trkpt><trkpt lat="43.9677617" lon="11.3655506"><ele>223.66666666666669</ele><time>2026-04-19T08:43:37.213Z</time></trkpt><trkpt lat="43.9679422" lon="11.365604"><ele>225.0</ele><time>2026-04-19T08:43:38.187Z</time></trkpt><trkpt lat="43.968122" lon="11.3656595"><ele>225.0</ele><time>2026-04-19T08:43:39.201Z</time></trkpt><trkpt lat="43.9682977" lon="11.3657201"><ele>225.0</ele><time>2026-04-19T08:43:40.198Z</time></trkpt><trkpt lat="43.9684754" lon="11.3657791"><ele>225.0</ele><time>2026-04-19T08:43:41.195Z</time></trkpt><trkpt lat="43.9686507" lon="11.3658368"><ele>225.66666666666669</ele><time>2026-04-19T08:43:42.189Z</time></trkpt><trkpt lat="43.9688277" lon="11.3658927"><ele>226.33333333333334</ele><time>2026-04-19T08:43:43.194Z</time></trkpt><trkpt lat="43.969007" lon="11.3659439"><ele>227.0</ele><time>2026-04-19T08:43:44.194Z</time></trkpt><trkpt lat="43.9691707" lon="11.3659886"><ele>228.25</ele><time>2026-04-19T08:43:45.192Z</time></trkpt><trkpt lat="43.9693233" lon="11.3660091"><ele>229.5</ele><time>2026-04-19T08:43:46.197Z</time></trkpt><trkpt lat="43.9694665" lon="11.366006"><ele>230.75</ele><time>2026-04-19T08:43:47.205Z</time></trkpt><trkpt lat="43.9696133" lon="11.3659751"><ele>232.0</ele><time>2026-04-19T08:43:48.207Z</time></trkpt><trkpt lat="43.9697693" lon="11.3659246"><ele>232.0</ele><time>2026-04-19T08:43:49.196Z</time></trkpt><trkpt lat="43.96992" lon="11.3658639"><ele>232.0</ele><time>2026-04-19T08:43:50.194Z</time></trkpt><trkpt lat="43.9700662" lon="11.3657869"><ele>232.0</ele><time>2026-04-19T08:43:51.211Z</time></trkpt><trkpt lat="43.9702061" lon="11.3657047"><ele>231.75</ele><time>2026-04-19T08:43:52.194Z</time></trkpt><trkpt lat="43.9703351" lon="11.3656211"><ele>231.5</ele><time>2026-04-19T08:43:53.198Z</time></trkpt><trkpt lat="43.9704769" lon="11.3655642"><ele>231.25</ele><time>2026-04-19T08:43:54.207Z</time></trkpt><trkpt lat="43.9706313" lon="11.3655402"><ele>231.0</ele><time>2026-04-19T08:43:55.196Z</time></trkpt><trkpt lat="43.9707815" lon="11.3655446"><ele>228.66666666666669</ele><time>2026-04-19T08:43:56.178Z</time></trkpt><trkpt lat="43.9709376" lon="11.3655776"><ele>226.33333333333334</ele><time>2026-04-19T08:43:57.18Z</time></trkpt><trkpt lat="43.971091" lon="11.3656478"><ele>224.0</ele><time>2026-04-19T08:43:58.18Z</time></trkpt><trkpt lat="43.9712246" lon="11.3657522"><ele>224.0</ele><time>2026-04-19T08:43:59.191Z</time></trkpt><trkpt lat="43.9713439" lon="11.365885"><ele>224.0</ele><time>2026-04-19T08:44:00.187Z</time></trkpt><trkpt lat="43.9714507" lon="11.3660157"><ele>224.0</ele><time>2026-04-19T08:44:01.198Z</time></trkpt><trkpt lat="43.971552" lon="11.366165"><ele>224.0</ele><time>2026-04-19T08:44:02.2Z</time></trkpt><trkpt lat="43.9716389" lon="11.3663352"><ele>224.0</ele><time>2026-04-19T08:44:03.201Z</time></trkpt><trkpt lat="43.9717101" lon="11.3665235"><ele>224.0</ele><time>2026-04-19T08:44:04.199Z</time></trkpt><trkpt lat="43.9717717" lon="11.3667091"><ele>224.0</ele><time>2026-04-19T08:44:05.202Z</time></trkpt><trkpt lat="43.9718385" lon="11.3668867"><ele>224.0</ele><time>2026-04-19T08:44:06.197Z</time></trkpt><trkpt lat="43.9719173" lon="11.3670559"><ele>225.0</ele><time>2026-04-19T08:44:07.202Z</time></trkpt><trkpt lat="43.9720091" lon="11.3672214"><ele>226.0</ele><time>2026-04-19T08:44:08.2Z</time></trkpt><trkpt lat="43.9721185" lon="11.3673847"><ele>227.0</ele><time>2026-04-19T08:44:09.198Z</time></trkpt><trkpt lat="43.9722407" lon="11.3675356"><ele>227.0</ele><time>2026-04-19T08:44:10.182Z</time></trkpt><trkpt lat="43.9723672" lon="11.3676701"><ele>227.0</ele><time>2026-04-19T08:44:11.202Z</time></trkpt><trkpt lat="43.9724987" lon="11.3677892"><ele>227.0</ele><time>2026-04-19T08:44:12.198Z</time></trkpt><trkpt lat="43.9726417" lon="11.3678983"><ele>226.66666666666669</ele><time>2026-04-19T08:44:13.198Z</time></trkpt><trkpt lat="43.9727958" lon="11.3679931"><ele>226.33333333333331</ele><time>2026-04-19T08:44:14.2Z</time></trkpt><trkpt lat="43.9729536" lon="11.3680816"><ele>226.0</ele><time>2026-04-19T08:44:15.21Z</time></trkpt><trkpt lat="43.9731207" lon="11.3681673"><ele>226.66666666666666</ele><time>2026-04-19T08:44:16.2Z</time></trkpt><trkpt lat="43.9732843" lon="11.3682552"><ele>227.33333333333331</ele><time>2026-04-19T08:44:17.199Z</time></trkpt><trkpt lat="43.973453" lon="11.3683496"><ele>228.0</ele><time>2026-04-19T08:44:18.197Z</time></trkpt><trkpt lat="43.9736208" lon="11.3684418"><ele>228.0</ele><time>2026-04-19T08:44:19.196Z</time></trkpt><trkpt lat="43.9737917" lon="11.3685377"><ele>228.0</ele><time>2026-04-19T08:44:20.194Z</time></trkpt><trkpt lat="43.9739646" lon="11.368638"><ele>228.0</ele><time>2026-04-19T08:44:21.192Z</time></trkpt><trkpt lat="43.9741368" lon="11.3687394"><ele>228.0</ele><time>2026-04-19T08:44:22.178Z</time></trkpt><trkpt lat="43.9743066" lon="11.3688314"><ele>228.0</ele><time>2026-04-19T08:44:23.194Z</time></trkpt><trkpt lat="43.9744881" lon="11.3689313"><ele>228.0</ele><time>2026-04-19T08:44:24.203Z</time></trkpt><trkpt lat="43.974671" lon="11.3690325"><ele>228.66666666666669</ele><time>2026-04-19T08:44:25.207Z</time></trkpt><trkpt lat="43.9748562" lon="11.3691275"><ele>229.33333333333334</ele><time>2026-04-19T08:44:26.195Z</time></trkpt><trkpt lat="43.97504" lon="11.3692267"><ele>230.0</ele><time>2026-04-19T08:44:27.19Z</time></trkpt><trkpt lat="43.9752245" lon="11.3693301"><ele>230.0</ele><time>2026-04-19T08:44:28.203Z</time></trkpt><trkpt lat="43.9754039" lon="11.3694252"><ele>230.0</ele><time>2026-04-19T08:44:29.183Z</time></trkpt><trkpt lat="43.9755811" lon="11.3695227"><ele>230.0</ele><time>2026-04-19T08:44:30.198Z</time></trkpt><trkpt lat="43.9757583" lon="11.3696283"><ele>231.0</ele><time>2026-04-19T08:44:31.201Z</time></trkpt><trkpt lat="43.9759383" lon="11.3697396"><ele>232.0</ele><time>2026-04-19T08:44:32.182Z</time></trkpt><trkpt lat="43.9761217" lon="11.3698642"><ele>233.0</ele><time>2026-04-19T08:44:33.207Z</time></trkpt><trkpt lat="43.9763071" lon="11.3699999"><ele>233.0</ele><time>2026-04-19T08:44:34.212Z</time></trkpt><trkpt lat="43.9764909" lon="11.3701516"><ele>233.0</ele><time>2026-04-19T08:44:35.197Z</time></trkpt><trkpt lat="43.9766753" lon="11.3703193"><ele>233.0</ele><time>2026-04-19T08:44:36.203Z</time></trkpt><trkpt lat="43.9768599" lon="11.3704977"><ele>234.0</ele><time>2026-04-19T08:44:37.202Z</time></trkpt><trkpt lat="43.977052" lon="11.3706855"><ele>235.0</ele><time>2026-04-19T08:44:38.195Z</time></trkpt><trkpt lat="43.9772411" lon="11.3708858"><ele>235.0</ele><time>2026-04-19T08:44:39.2Z</time></trkpt><trkpt lat="43.9774351" lon="11.371086"><ele>235.0</ele><time>2026-04-19T08:44:40.204Z</time></trkpt><trkpt lat="43.9776342" lon="11.3712859"><ele>235.5</ele><time>2026-04-19T08:44:41.179Z</time></trkpt><trkpt lat="43.9778406" lon="11.3714864"><ele>236.0</ele><time>2026-04-19T08:44:42.201Z</time></trkpt><trkpt lat="43.9780476" lon="11.3716824"><ele>236.0</ele><time>2026-04-19T08:44:43.201Z</time></trkpt><trkpt lat="43.9782585" lon="11.3718782"><ele>236.0</ele><time>2026-04-19T08:44:44.207Z</time></trkpt><trkpt lat="43.9784733" lon="11.372067"><ele>236.5</ele><time>2026-04-19T08:44:45.182Z</time></trkpt><trkpt lat="43.9786882" lon="11.3722527"><ele>237.0</ele><time>2026-04-19T08:44:46.2Z</time></trkpt><trkpt lat="43.9788988" lon="11.3724414"><ele>237.0</ele><time>2026-04-19T08:44:47.202Z</time></trkpt><trkpt lat="43.9791075" lon="11.3726261"><ele>237.0</ele><time>2026-04-19T08:44:48.196Z</time></trkpt><trkpt lat="43.979321" lon="11.3728132"><ele>238.0</ele><time>2026-04-19T08:44:49.197Z</time></trkpt><trkpt lat="43.9795338" lon="11.3729984"><ele>239.0</ele><time>2026-04-19T08:44:50.2Z</time></trkpt><trkpt lat="43.9797464" lon="11.3731912"><ele>239.0</ele><time>2026-04-19T08:44:51.197Z</time></trkpt><trkpt lat="43.9799565" lon="11.3733904"><ele>239.0</ele><time>2026-04-19T08:44:52.201Z</time></trkpt><trkpt lat="43.9801686" lon="11.3735889"><ele>240.0</ele><time>2026-04-19T08:44:53.204Z</time></trkpt><trkpt lat="43.9803795" lon="11.3737856"><ele>241.0</ele><time>2026-04-19T08:44:54.202Z</time></trkpt><trkpt lat="43.9805835" lon="11.3739715"><ele>242.0</ele><time>2026-04-19T08:44:55.187Z</time></trkpt><trkpt lat="43.9807804" lon="11.374156"><ele>243.0</ele><time>2026-04-19T08:44:56.197Z</time></trkpt><trkpt lat="43.9809773" lon="11.374333"><ele>243.0</ele><time>2026-04-19T08:44:57.181Z</time></trkpt><trkpt lat="43.9811754" lon="11.3745102"><ele>243.0</ele><time>2026-04-19T08:44:58.195Z</time></trkpt><trkpt lat="43.9813745" lon="11.3746883"><ele>243.0</ele><time>2026-04-19T08:44:59.187Z</time></trkpt><trkpt lat="43.9815741" lon="11.3748598"><ele>243.0</ele><time>2026-04-19T08:45:00.192Z</time></trkpt><trkpt lat="43.9817819" lon="11.3750209"><ele>244.5</ele><time>2026-04-19T08:45:01.194Z</time></trkpt><trkpt lat="43.9819977" lon="11.3751678"><ele>246.0</ele><time>2026-04-19T08:45:02.199Z</time></trkpt><trkpt lat="43.9822217" lon="11.3753079"><ele>246.0</ele><time>2026-04-19T08:45:03.195Z</time></trkpt><trkpt lat="43.9824456" lon="11.3754537"><ele>246.0</ele><time>2026-04-19T08:45:04.181Z</time></trkpt><trkpt lat="43.9826698" lon="11.3755948"><ele>246.5</ele><time>2026-04-19T08:45:05.198Z</time></trkpt><trkpt lat="43.9828941" lon="11.3757358"><ele>247.0</ele><time>2026-04-19T08:45:06.2Z</time></trkpt><trkpt lat="43.9831147" lon="11.3758826"><ele>247.0</ele><time>2026-04-19T08:45:07.204Z</time></trkpt><trkpt lat="43.9833286" lon="11.3760292"><ele>247.0</ele><time>2026-04-19T08:45:08.198Z</time></trkpt><trkpt lat="43.9835355" lon="11.3761915"><ele>248.0</ele><time>2026-04-19T08:45:09.202Z</time></trkpt><trkpt lat="43.9837393" lon="11.3763871"><ele>249.0</ele><time>2026-04-19T08:45:10.185Z</time></trkpt><trkpt lat="43.9839334" lon="11.3765857"><ele>249.0</ele><time>2026-04-19T08:45:11.19Z</time></trkpt><trkpt lat="43.9841303" lon="11.3767857"><ele>249.0</ele><time>2026-04-19T08:45:12.197Z</time></trkpt><trkpt lat="43.9843193" lon="11.3769783"><ele>249.0</ele><time>2026-04-19T08:45:13.204Z</time></trkpt><trkpt lat="43.9844942" lon="11.3771458"><ele>249.0</ele><time>2026-04-19T08:45:14.193Z</time></trkpt><trkpt lat="43.9846601" lon="11.3773085"><ele>249.0</ele><time>2026-04-19T08:45:15.185Z</time></trkpt><trkpt lat="43.9848125" lon="11.3774566"><ele>249.0</ele><time>2026-04-19T08:45:16.183Z</time></trkpt><trkpt lat="43.9849535" lon="11.3776007"><ele>249.0</ele><time>2026-04-19T08:45:17.182Z</time></trkpt><trkpt lat="43.9850954" lon="11.3777327"><ele>249.0</ele><time>2026-04-19T08:45:18.201Z</time></trkpt><trkpt lat="43.985239" lon="11.3778407"><ele>249.33333333333331</ele><time>2026-04-19T08:45:19.199Z</time></trkpt><trkpt lat="43.9853927" lon="11.3779217"><ele>249.66666666666666</ele><time>2026-04-19T08:45:20.196Z</time></trkpt><trkpt lat="43.985545" lon="11.3779946"><ele>250.0</ele><time>2026-04-19T08:45:21.198Z</time></trkpt><trkpt lat="43.9856882" lon="11.3780505"><ele>250.2</ele><time>2026-04-19T08:45:22.19Z</time></trkpt><trkpt lat="43.9858201" lon="11.3780798"><ele>250.4</ele><time>2026-04-19T08:45:23.201Z</time></trkpt><trkpt lat="43.9859289" lon="11.3780968"><ele>250.60000000000002</ele><time>2026-04-19T08:45:24.194Z</time></trkpt><trkpt lat="43.9860232" lon="11.3781088"><ele>250.8</ele><time>2026-04-19T08:45:25.205Z</time></trkpt><trkpt lat="43.9860972" lon="11.3781121"><ele>251.0</ele><time>2026-04-19T08:45:26.191Z</time></trkpt><trkpt lat="43.9861861" lon="11.3780816"><ele>250.20000000000002</ele><time>2026-04-19T08:45:28.178Z</time></trkpt><trkpt lat="43.9862258" lon="11.3780109"><ele>249.40000000000003</ele><time>2026-04-19T08:45:34.176Z</time></trkpt><trkpt lat="43.9862314" lon="11.3779197"><ele>248.6</ele><time>2026-04-19T08:45:35.193Z</time></trkpt><trkpt lat="43.9862195" lon="11.3777935"><ele>247.8</ele><time>2026-04-19T08:45:36.178Z</time></trkpt><trkpt lat="43.9862046" lon="11.3776307"><ele>247.0</ele><time>2026-04-19T08:45:37.18Z</time></trkpt><trkpt lat="43.9861976" lon="11.377448"><ele>247.0</ele><time>2026-04-19T08:45:38.183Z</time></trkpt><trkpt lat="43.9861953" lon="11.3772542"><ele>247.0</ele><time>2026-04-19T08:45:39.194Z</time></trkpt><trkpt lat="43.9861967" lon="11.3770469"><ele>247.0</ele><time>2026-04-19T08:45:40.187Z</time></trkpt><trkpt lat="43.9861971" lon="11.37684"><ele>247.0</ele><time>2026-04-19T08:45:41.179Z</time></trkpt><trkpt lat="43.9862148" lon="11.3766443"><ele>247.66666666666666</ele><time>2026-04-19T08:45:42.182Z</time></trkpt><trkpt lat="43.98627" lon="11.3764404"><ele>248.33333333333331</ele><time>2026-04-19T08:45:43.201Z</time></trkpt><trkpt lat="43.9863623" lon="11.3762332"><ele>249.0</ele><time>2026-04-19T08:45:44.207Z</time></trkpt><trkpt lat="43.9864683" lon="11.3760221"><ele>249.33333333333331</ele><time>2026-04-19T08:45:45.192Z</time></trkpt><trkpt lat="43.9865798" lon="11.3758078"><ele>249.66666666666666</ele><time>2026-04-19T08:45:46.177Z</time></trkpt><trkpt lat="43.9866851" lon="11.3755923"><ele>250.0</ele><time>2026-04-19T08:45:47.196Z</time></trkpt><trkpt lat="43.9867872" lon="11.3753823"><ele>251.0</ele><time>2026-04-19T08:45:48.187Z</time></trkpt><trkpt lat="43.986888" lon="11.3751687"><ele>252.0</ele><time>2026-04-19T08:45:49.194Z</time></trkpt><trkpt lat="43.9869909" lon="11.3749606"><ele>253.0</ele><time>2026-04-19T08:45:50.192Z</time></trkpt><trkpt lat="43.9870967" lon="11.3747642"><ele>252.66666666666666</ele><time>2026-04-19T08:45:51.203Z</time></trkpt><trkpt lat="43.9871964" lon="11.3745694"><ele>252.33333333333331</ele><time>2026-04-19T08:45:52.192Z</time></trkpt><trkpt lat="43.9873024" lon="11.3743703"><ele>252.0</ele><time>2026-04-19T08:45:53.198Z</time></trkpt><trkpt lat="43.9874095" lon="11.3741623"><ele>252.66666666666669</ele><time>2026-04-19T08:45:54.202Z</time></trkpt><trkpt lat="43.9875268" lon="11.3739388"><ele>253.33333333333334</ele><time>2026-04-19T08:45:55.186Z</time></trkpt><trkpt lat="43.9876583" lon="11.3737119"><ele>254.0</ele><time>2026-04-19T08:45:56.204Z</time></trkpt><trkpt lat="43.9878035" lon="11.3734868"><ele>254.0</ele><time>2026-04-19T08:45:57.212Z</time></trkpt><trkpt lat="43.9879502" lon="11.3732541"><ele>254.0</ele><time>2026-04-19T08:45:58.204Z</time></trkpt><trkpt lat="43.988092" lon="11.3730235"><ele>254.0</ele><time>2026-04-19T08:45:59.194Z</time></trkpt><trkpt lat="43.9882228" lon="11.3728078"><ele>255.33333333333334</ele><time>2026-04-19T08:46:00.203Z</time></trkpt><trkpt lat="43.9883413" lon="11.3726195"><ele>256.6666666666667</ele><time>2026-04-19T08:46:01.187Z</time></trkpt><trkpt lat="43.9884507" lon="11.3724355"><ele>258.0</ele><time>2026-04-19T08:46:02.188Z</time></trkpt><trkpt lat="43.9885558" lon="11.3722702"><ele>260.3333333333333</ele><time>2026-04-19T08:46:03.201Z</time></trkpt><trkpt lat="43.9886583" lon="11.3721163"><ele>262.66666666666663</ele><time>2026-04-19T08:46:04.199Z</time></trkpt><trkpt lat="43.9887688" lon="11.3719667"><ele>265.0</ele><time>2026-04-19T08:46:05.203Z</time></trkpt><trkpt lat="43.9888826" lon="11.3718273"><ele>265.0</ele><time>2026-04-19T08:46:06.201Z</time></trkpt><trkpt lat="43.9890019" lon="11.3717124"><ele>265.0</ele><time>2026-04-19T08:46:07.2Z</time></trkpt><trkpt lat="43.9891209" lon="11.3716156"><ele>265.0</ele><time>2026-04-19T08:46:08.213Z</time></trkpt><trkpt lat="43.9892441" lon="11.3715191"><ele>265.0</ele><time>2026-04-19T08:46:09.201Z</time></trkpt><trkpt lat="43.9893562" lon="11.3714356"><ele>263.25</ele><time>2026-04-19T08:46:10.2Z</time></trkpt><trkpt lat="43.9894676" lon="11.3713508"><ele>261.5</ele><time>2026-04-19T08:46:11.197Z</time></trkpt><trkpt lat="43.9895769" lon="11.3712682"><ele>259.75</ele><time>2026-04-19T08:46:12.205Z</time></trkpt><trkpt lat="43.9896896" lon="11.3711623"><ele>258.0</ele><time>2026-04-19T08:46:13.201Z</time></trkpt><trkpt lat="43.9897997" lon="11.3710449"><ele>258.0</ele><time>2026-04-19T08:46:14.186Z</time></trkpt><trkpt lat="43.9898977" lon="11.3709251"><ele>258.0</ele><time>2026-04-19T08:46:15.199Z</time></trkpt><trkpt lat="43.9899831" lon="11.3708044"><ele>258.0</ele><time>2026-04-19T08:46:16.188Z</time></trkpt><trkpt lat="43.9900591" lon="11.3706924"><ele>258.0</ele><time>2026-04-19T08:46:17.192Z</time></trkpt><trkpt lat="43.9901373" lon="11.3705968"><ele>256.1666666666667</ele><time>2026-04-19T08:46:18.198Z</time></trkpt><trkpt lat="43.9902073" lon="11.3705147"><ele>254.33333333333331</ele><time>2026-04-19T08:46:19.204Z</time></trkpt><trkpt lat="43.9902711" lon="11.3704467"><ele>252.5</ele><time>2026-04-19T08:46:20.209Z</time></trkpt><trkpt lat="43.9903204" lon="11.3703891"><ele>250.66666666666666</ele><time>2026-04-19T08:46:21.2Z</time></trkpt><trkpt lat="43.9904037" lon="11.3702817"><ele>248.83333333333331</ele><time>2026-04-19T08:46:23.205Z</time></trkpt><trkpt lat="43.9904568" lon="11.370227"><ele>247.0</ele><time>2026-04-19T08:46:25.194Z</time></trkpt><trkpt lat="43.9905332" lon="11.3702018"><ele>247.0</ele><time>2026-04-19T08:46:28.197Z</time></trkpt><trkpt lat="43.9905979" lon="11.3702185"><ele>247.0</ele><time>2026-04-19T08:46:30.194Z</time></trkpt><trkpt lat="43.9906633" lon="11.370194"><ele>247.0</ele><time>2026-04-19T08:46:33.18Z</time></trkpt><trkpt lat="43.9907161" lon="11.3702511"><ele>247.0</ele><time>2026-04-19T08:47:40.177Z</time></trkpt><trkpt lat="43.9907312" lon="11.3703411"><ele>247.0</ele><time>2026-04-19T08:47:44.213Z</time></trkpt><trkpt lat="43.9908188" lon="11.3703943"><ele>247.0</ele><time>2026-04-19T08:47:57.259Z</time></trkpt><trkpt lat="43.9907489" lon="11.3704124"><ele>247.0</ele><time>2026-04-19T08:48:40.281Z</time></trkpt><trkpt lat="43.9908247" lon="11.3703789"><ele>246.99999999999997</ele><time>2026-04-19T08:48:43.183Z</time></trkpt><trkpt lat="43.9907814" lon="11.3702916"><ele>247.0</ele><time>2026-04-19T08:48:50.183Z</time></trkpt><trkpt lat="43.9907287" lon="11.370234"><ele>247.0</ele><time>2026-04-19T08:48:57.185Z</time></trkpt><trkpt lat="43.9906447" lon="11.370121"><ele>247.0</ele><time>2026-04-19T08:50:05.18Z</time></trkpt><trkpt lat="43.9906188" lon="11.370203"><ele>246.99999999999997</ele><time>2026-04-19T08:50:10.179Z</time></trkpt><trkpt lat="43.9906495" lon="11.370282"><ele>247.0</ele><time>2026-04-19T08:50:12.185Z</time></trkpt><trkpt lat="43.9907233" lon="11.3703248"><ele>246.99999999999997</ele><time>2026-04-19T08:50:14.188Z</time></trkpt><trkpt lat="43.9907986" lon="11.3703575"><ele>247.0</ele><time>2026-04-19T08:50:16.19Z</time></trkpt><trkpt lat="43.9908556" lon="11.3704183"><ele>247.0</ele><time>2026-04-19T08:50:18.179Z</time></trkpt><trkpt lat="43.9908904" lon="11.3704962"><ele>247.0</ele><time>2026-04-19T08:50:24.184Z</time></trkpt><trkpt lat="43.9909516" lon="11.3705598"><ele>246.99999999999997</ele><time>2026-04-19T08:50:31.193Z</time></trkpt><trkpt lat="43.9910669" lon="11.3705729"><ele>247.0</ele><time>2026-04-19T08:50:33.197Z</time></trkpt><trkpt lat="43.9911622" lon="11.3706344"><ele>247.66666666666666</ele><time>2026-04-19T08:50:35.187Z</time></trkpt><trkpt lat="43.9912266" lon="11.3707131"><ele>248.33333333333331</ele><time>2026-04-19T08:50:37.193Z</time></trkpt><trkpt lat="43.9912655" lon="11.3707834"><ele>249.0</ele><time>2026-04-19T08:50:39.188Z</time></trkpt><trkpt lat="43.9908866" lon="11.3703053"><ele>248.0</ele><time>2026-04-19T08:51:43.932Z</time></trkpt><trkpt lat="43.9908015" lon="11.3702313"><ele>247.0</ele><time>2026-04-19T08:51:53.886Z</time></trkpt><trkpt lat="43.9978709" lon="11.3723048"><ele>261.0</ele><time>2026-04-19T09:05:16.679Z</time></trkpt><trkpt lat="43.9988369" lon="11.373005"><ele>266.0</ele><time>2026-04-19T09:05:42.94Z</time></trkpt><trkpt lat="43.9991244" lon="11.3718391"><ele>268.0</ele><time>2026-04-19T09:05:54.002Z</time></trkpt><trkpt lat="43.999184" lon="11.371794"><ele>270.0</ele><time>2026-04-19T09:05:55.032Z</time></trkpt><trkpt lat="43.99498" lon="11.3708233"><ele>304.0</ele><time>2026-04-19T09:13:04.934Z</time></trkpt><trkpt lat="43.9951402" lon="11.3759202"><ele>304.0</ele><time>2026-04-19T09:15:07.479Z</time></trkpt><trkpt lat="43.9954358" lon="11.3756835"><ele>304.0</ele><time>2026-04-19T09:15:09.48Z</time></trkpt><trkpt lat="43.9955086" lon="11.3756668"><ele>304.0</ele><time>2026-04-19T09:15:14.507Z</time></trkpt><trkpt lat="43.9955819" lon="11.375675"><ele>304.0</ele><time>2026-04-19T09:15:21.463Z</time></trkpt><trkpt lat="43.9956414" lon="11.3757047"><ele>304.0</ele><time>2026-04-19T09:15:26.474Z</time></trkpt><trkpt lat="43.9957054" lon="11.3757317"><ele>304.0</ele><time>2026-04-19T09:15:32.466Z</time></trkpt><trkpt lat="43.9957756" lon="11.3757592"><ele>304.0</ele><time>2026-04-19T09:15:37.476Z</time></trkpt><trkpt lat="43.996074" lon="11.3761456"><ele>304.0</ele><time>2026-04-19T09:16:48.621Z</time></trkpt><trkpt lat="43.9960353" lon="11.3759928"><ele>304.0</ele><time>2026-04-19T09:16:49.692Z</time></trkpt><trkpt lat="43.9960027" lon="11.3758579"><ele>304.0</ele><time>2026-04-19T09:16:54.303Z</time></trkpt><trkpt lat="43.9959328" lon="11.3758549"><ele>304.0</ele><time>2026-04-19T09:17:01.668Z</time></trkpt><trkpt lat="43.9958633" lon="11.37581"><ele>304.0</ele><time>2026-04-19T09:17:08.711Z</time></trkpt><trkpt lat="43.9957978" lon="11.3758298"><ele>304.0</ele><time>2026-04-19T09:17:14.668Z</time></trkpt><trkpt lat="43.9957352" lon="11.3758148"><ele>304.0</ele><time>2026-04-19T09:17:19.702Z</time></trkpt><trkpt lat="43.9956697" lon="11.375786"><ele>304.0</ele><time>2026-04-19T09:17:24.713Z</time></trkpt><trkpt lat="43.995612" lon="11.3757242"><ele>304.0</ele><time>2026-04-19T09:17:31.632Z</time></trkpt><trkpt lat="43.9955636" lon="11.3756636"><ele>304.0</ele><time>2026-04-19T09:17:37.703Z</time></trkpt><trkpt lat="43.9954928" lon="11.3756501"><ele>304.0</ele><time>2026-04-19T09:17:43.708Z</time></trkpt><trkpt lat="43.9954325" lon="11.3756092"><ele>304.0</ele><time>2026-04-19T09:17:49.695Z</time></trkpt><trkpt lat="43.9953748" lon="11.3755553"><ele>304.0</ele><time>2026-04-19T09:17:55.897Z</time></trkpt><trkpt lat="43.9953195" lon="11.3755029"><ele>304.0</ele><time>2026-04-19T09:18:00.59Z</time></trkpt><trkpt lat="43.9953808" lon="11.3755533"><ele>304.0</ele><time>2026-04-19T09:18:02.631Z</time></trkpt><trkpt lat="43.996856" lon="11.3712085"><ele>255.0</ele><time>2026-04-19T09:18:07.524Z</time></trkpt><trkpt lat="43.9952938" lon="11.3707754"><ele>257.0</ele><time>2026-04-19T09:18:51.532Z</time></trkpt><trkpt lat="43.9974031" lon="11.3722817"><ele>257.0</ele><time>2026-04-19T09:21:56.202Z</time></trkpt><trkpt lat="43.9979693" lon="11.3725954"><ele>288.0</ele><time>2026-04-19T09:23:40.042Z</time></trkpt><trkpt lat="43.9952196" lon="11.3748779"><ele>288.0</ele><time>2026-04-19T09:32:00.48Z</time></trkpt><trkpt lat="43.9951826" lon="11.3750308"><ele>288.0</ele><time>2026-04-19T09:32:03.464Z</time></trkpt><trkpt lat="43.9979146" lon="11.3721814"><ele>288.0</ele><time>2026-04-19T09:32:34.648Z</time></trkpt><trkpt lat="43.9951321" lon="11.3749567"><ele>288.0</ele><time>2026-04-19T09:36:01.773Z</time></trkpt><trkpt lat="43.9951723" lon="11.3750323"><ele>288.0</ele><time>2026-04-19T09:36:41.79Z</time></trkpt><trkpt lat="43.996856" lon="11.3712085"><ele>257.0</ele><time>2026-04-19T09:42:16.786Z</time></trkpt><trkpt lat="43.9976878" lon="11.372492"><ele>257.0</ele><time>2026-04-19T09:42:42.884Z</time></trkpt><trkpt lat="43.9973041" lon="11.3719247"><ele>288.0</ele><time>2026-04-19T09:49:29.601Z</time></trkpt><trkpt lat="43.9950914" lon="11.374829"><ele>288.0</ele><time>2026-04-19T09:50:53.57Z</time></trkpt><trkpt lat="43.9951342" lon="11.3749251"><ele>288.0</ele><time>2026-04-19T09:50:54.625Z</time></trkpt><trkpt lat="43.9951489" lon="11.3750231"><ele>288.0</ele><time>2026-04-19T09:50:57.626Z</time></trkpt></trkseg></trk></gpx>